<?xml version="1.0" encoding="UTF-8" standalone="no" ?>
<gpx xmlns="http://www.topografix.com/GPX/1/1" xmlns:xsi="http://www.w3.org/2001/XMLSchema-instance" xsi:schemaLocation="http://www.topografix.com/GPX/1/1 http://www.topografix.com/GPX/1/1/gpx.xsd" version="1.1" creator="VisuGPX - https://www.visugpx.com">
  <metadata>
    <name>sortie du dimanche 3 juillet 2016</name>
    <desc><![CDATA[Parcours de la rando VTT des Accros du vélo à Puchay dans l'Eure]]></desc>
  </metadata>
  <trk>
    <name><![CDATA[sortie du dimanche 3 juillet 2016_1]]></name>
    <trkseg>
      <trkpt lat="49.34206" lon="1.53372">
        <ele>116.1859588623</ele>
        <time>2016-07-03T07:01:49.000Z</time>
      </trkpt>
      <trkpt lat="49.34207" lon="1.5337">
        <ele>116.19150543213</ele>
        <time>2016-07-03T07:02:12.000Z</time>
      </trkpt>
      <trkpt lat="49.34207" lon="1.5337">
        <ele>116.19150543213</ele>
        <time>2016-07-03T07:02:32.000Z</time>
      </trkpt>
      <trkpt lat="49.34208" lon="1.53369">
        <ele>116.19606781006</ele>
        <time>2016-07-03T07:02:49.000Z</time>
      </trkpt>
      <trkpt lat="49.34209" lon="1.5337">
        <ele>116.20325469971</ele>
        <time>2016-07-03T07:02:55.000Z</time>
      </trkpt>
      <trkpt lat="49.34209" lon="1.5337">
        <ele>116.20325469971</ele>
        <time>2016-07-03T07:03:15.000Z</time>
      </trkpt>
      <trkpt lat="49.34206" lon="1.5337">
        <ele>116.19877624512</ele>
        <time>2016-07-03T07:03:35.000Z</time>
      </trkpt>
      <trkpt lat="49.34207" lon="1.53369">
        <ele>116.19948577881</ele>
        <time>2016-07-03T07:03:37.000Z</time>
      </trkpt>
      <trkpt lat="49.34208" lon="1.53362">
        <ele>116.19071960449</ele>
        <time>2016-07-03T07:03:40.000Z</time>
      </trkpt>
      <trkpt lat="49.34209" lon="1.53361">
        <ele>116.18525695801</ele>
        <time>2016-07-03T07:03:43.000Z</time>
      </trkpt>
      <trkpt lat="49.34209" lon="1.53364">
        <ele>116.17778015137</ele>
        <time>2016-07-03T07:03:45.000Z</time>
      </trkpt>
      <trkpt lat="49.34209" lon="1.53367">
        <ele>116.18489074707</ele>
        <time>2016-07-03T07:03:48.000Z</time>
      </trkpt>
      <trkpt lat="49.34209" lon="1.53367">
        <ele>116.18489074707</ele>
        <time>2016-07-03T07:04:08.000Z</time>
      </trkpt>
      <trkpt lat="49.34207" lon="1.53371">
        <ele>116.18681335449</ele>
        <time>2016-07-03T07:04:10.000Z</time>
      </trkpt>
      <trkpt lat="49.34206" lon="1.5337">
        <ele>116.19046783447</ele>
        <time>2016-07-03T07:04:12.000Z</time>
      </trkpt>
      <trkpt lat="49.34206" lon="1.5337">
        <ele>116.19046783447</ele>
        <time>2016-07-03T07:04:32.000Z</time>
      </trkpt>
      <trkpt lat="49.34208" lon="1.53372">
        <ele>116.19931793213</ele>
        <time>2016-07-03T07:05:15.000Z</time>
      </trkpt>
      <trkpt lat="49.3421" lon="1.53372">
        <ele>116.21475982666</ele>
        <time>2016-07-03T07:05:18.000Z</time>
      </trkpt>
      <trkpt lat="49.3421" lon="1.5337">
        <ele>116.22286224365</ele>
        <time>2016-07-03T07:05:21.000Z</time>
      </trkpt>
      <trkpt lat="49.34211" lon="1.53369">
        <ele>116.23796081543</ele>
        <time>2016-07-03T07:05:24.000Z</time>
      </trkpt>
      <trkpt lat="49.34211" lon="1.53369">
        <ele>116.23796081543</ele>
        <time>2016-07-03T07:05:44.000Z</time>
      </trkpt>
      <trkpt lat="49.34211" lon="1.5337">
        <ele>116.25645446777</ele>
        <time>2016-07-03T07:10:18.000Z</time>
      </trkpt>
      <trkpt lat="49.34211" lon="1.53372">
        <ele>116.26808929443</ele>
        <time>2016-07-03T07:10:36.000Z</time>
      </trkpt>
      <trkpt lat="49.34209" lon="1.53371">
        <ele>116.26483154297</ele>
        <time>2016-07-03T07:10:38.000Z</time>
      </trkpt>
      <trkpt lat="49.34209" lon="1.53368">
        <ele>116.25858306885</ele>
        <time>2016-07-03T07:10:41.000Z</time>
      </trkpt>
      <trkpt lat="49.3421" lon="1.53366">
        <ele>116.2484588623</ele>
        <time>2016-07-03T07:10:43.000Z</time>
      </trkpt>
      <trkpt lat="49.34209" lon="1.53364">
        <ele>116.23612976074</ele>
        <time>2016-07-03T07:10:46.000Z</time>
      </trkpt>
      <trkpt lat="49.3421" lon="1.53362">
        <ele>116.21997070312</ele>
        <time>2016-07-03T07:10:48.000Z</time>
      </trkpt>
      <trkpt lat="49.34211" lon="1.5336">
        <ele>116.21128082275</ele>
        <time>2016-07-03T07:10:50.000Z</time>
      </trkpt>
      <trkpt lat="49.34212" lon="1.53358">
        <ele>116.21057128906</ele>
        <time>2016-07-03T07:10:56.000Z</time>
      </trkpt>
      <trkpt lat="49.34212" lon="1.53357">
        <ele>116.21040344238</ele>
        <time>2016-07-03T07:11:01.000Z</time>
      </trkpt>
      <trkpt lat="49.34212" lon="1.53355">
        <ele>116.21018981934</ele>
        <time>2016-07-03T07:11:03.000Z</time>
      </trkpt>
      <trkpt lat="49.34213" lon="1.53352">
        <ele>116.21256256104</ele>
        <time>2016-07-03T07:11:06.000Z</time>
      </trkpt>
      <trkpt lat="49.34213" lon="1.53352">
        <ele>116.21256256104</ele>
        <time>2016-07-03T07:11:26.000Z</time>
      </trkpt>
      <trkpt lat="49.34214" lon="1.53354">
        <ele>116.21962738037</ele>
        <time>2016-07-03T07:12:39.000Z</time>
      </trkpt>
      <trkpt lat="49.34213" lon="1.53348">
        <ele>116.21315765381</ele>
        <time>2016-07-03T07:12:42.000Z</time>
      </trkpt>
      <trkpt lat="49.34214" lon="1.53338">
        <ele>116.1997833252</ele>
        <time>2016-07-03T07:12:45.000Z</time>
      </trkpt>
      <trkpt lat="49.34221" lon="1.53333">
        <ele>116.22137451172</ele>
        <time>2016-07-03T07:12:48.000Z</time>
      </trkpt>
      <trkpt lat="49.34227" lon="1.53331">
        <ele>116.27014160156</ele>
        <time>2016-07-03T07:12:50.000Z</time>
      </trkpt>
      <trkpt lat="49.34238" lon="1.53327">
        <ele>116.36191558838</ele>
        <time>2016-07-03T07:12:53.000Z</time>
      </trkpt>
      <trkpt lat="49.34246" lon="1.53326">
        <ele>116.50675964355</ele>
        <time>2016-07-03T07:12:55.000Z</time>
      </trkpt>
      <trkpt lat="49.34259" lon="1.53324">
        <ele>116.72334289551</ele>
        <time>2016-07-03T07:12:58.000Z</time>
      </trkpt>
      <trkpt lat="49.34268" lon="1.53323">
        <ele>116.95539855957</ele>
        <time>2016-07-03T07:13:00.000Z</time>
      </trkpt>
      <trkpt lat="49.34282" lon="1.53322">
        <ele>117.22557067871</ele>
        <time>2016-07-03T07:13:03.000Z</time>
      </trkpt>
      <trkpt lat="49.34295" lon="1.53323">
        <ele>117.51202392578</ele>
        <time>2016-07-03T07:13:06.000Z</time>
      </trkpt>
      <trkpt lat="49.34308" lon="1.53323">
        <ele>117.82444000244</ele>
        <time>2016-07-03T07:13:09.000Z</time>
      </trkpt>
      <trkpt lat="49.34317" lon="1.53322">
        <ele>118.12113189697</ele>
        <time>2016-07-03T07:13:11.000Z</time>
      </trkpt>
      <trkpt lat="49.34325" lon="1.53317">
        <ele>118.42478179932</ele>
        <time>2016-07-03T07:13:13.000Z</time>
      </trkpt>
      <trkpt lat="49.34335" lon="1.53303">
        <ele>118.74617004395</ele>
        <time>2016-07-03T07:13:16.000Z</time>
      </trkpt>
      <trkpt lat="49.34341" lon="1.53293">
        <ele>119.05629730225</ele>
        <time>2016-07-03T07:13:18.000Z</time>
      </trkpt>
      <trkpt lat="49.34348" lon="1.53285">
        <ele>119.3491973877</ele>
        <time>2016-07-03T07:13:20.000Z</time>
      </trkpt>
      <trkpt lat="49.34358" lon="1.53273">
        <ele>119.66870117188</ele>
        <time>2016-07-03T07:13:23.000Z</time>
      </trkpt>
      <trkpt lat="49.34365" lon="1.53266">
        <ele>119.98785400391</ele>
        <time>2016-07-03T07:13:25.000Z</time>
      </trkpt>
      <trkpt lat="49.34376" lon="1.53256">
        <ele>120.29640960693</ele>
        <time>2016-07-03T07:13:28.000Z</time>
      </trkpt>
      <trkpt lat="49.34386" lon="1.53248">
        <ele>120.61616516113</ele>
        <time>2016-07-03T07:13:31.000Z</time>
      </trkpt>
      <trkpt lat="49.34394" lon="1.53242">
        <ele>120.92915344238</ele>
        <time>2016-07-03T07:13:33.000Z</time>
      </trkpt>
      <trkpt lat="49.34405" lon="1.53234">
        <ele>121.23796081543</ele>
        <time>2016-07-03T07:13:36.000Z</time>
      </trkpt>
      <trkpt lat="49.34413" lon="1.53229">
        <ele>121.54787445068</ele>
        <time>2016-07-03T07:13:38.000Z</time>
      </trkpt>
      <trkpt lat="49.3442" lon="1.53226">
        <ele>121.84157562256</ele>
        <time>2016-07-03T07:13:40.000Z</time>
      </trkpt>
      <trkpt lat="49.34427" lon="1.53218">
        <ele>122.14723968506</ele>
        <time>2016-07-03T07:13:43.000Z</time>
      </trkpt>
      <trkpt lat="49.34425" lon="1.53193">
        <ele>122.45822906494</ele>
        <time>2016-07-03T07:13:46.000Z</time>
      </trkpt>
      <trkpt lat="49.34424" lon="1.53172">
        <ele>122.74375915527</ele>
        <time>2016-07-03T07:13:49.000Z</time>
      </trkpt>
      <trkpt lat="49.34421" lon="1.53159">
        <ele>122.93725585938</ele>
        <time>2016-07-03T07:13:51.000Z</time>
      </trkpt>
      <trkpt lat="49.34414" lon="1.53142">
        <ele>122.96632385254</ele>
        <time>2016-07-03T07:13:54.000Z</time>
      </trkpt>
      <trkpt lat="49.3441" lon="1.53126">
        <ele>122.8505859375</ele>
        <time>2016-07-03T07:13:56.000Z</time>
      </trkpt>
      <trkpt lat="49.34406" lon="1.53103">
        <ele>122.60182952881</ele>
        <time>2016-07-03T07:13:59.000Z</time>
      </trkpt>
      <trkpt lat="49.34405" lon="1.53078">
        <ele>122.26838684082</ele>
        <time>2016-07-03T07:14:02.000Z</time>
      </trkpt>
      <trkpt lat="49.34404" lon="1.53054">
        <ele>122.01892089844</ele>
        <time>2016-07-03T07:14:05.000Z</time>
      </trkpt>
      <trkpt lat="49.34405" lon="1.53039">
        <ele>121.90916442871</ele>
        <time>2016-07-03T07:14:07.000Z</time>
      </trkpt>
      <trkpt lat="49.34407" lon="1.53018">
        <ele>121.93048095703</ele>
        <time>2016-07-03T07:14:10.000Z</time>
      </trkpt>
      <trkpt lat="49.34409" lon="1.53003">
        <ele>122.08514404297</ele>
        <time>2016-07-03T07:14:12.000Z</time>
      </trkpt>
      <trkpt lat="49.34409" lon="1.52977">
        <ele>122.38803863525</ele>
        <time>2016-07-03T07:14:15.000Z</time>
      </trkpt>
      <trkpt lat="49.34409" lon="1.52955">
        <ele>122.74362945557</ele>
        <time>2016-07-03T07:14:18.000Z</time>
      </trkpt>
      <trkpt lat="49.34409" lon="1.52934">
        <ele>123.15893554688</ele>
        <time>2016-07-03T07:14:21.000Z</time>
      </trkpt>
      <trkpt lat="49.3441" lon="1.5291">
        <ele>123.68105316162</ele>
        <time>2016-07-03T07:14:24.000Z</time>
      </trkpt>
      <trkpt lat="49.34412" lon="1.529">
        <ele>124.27015686035</ele>
        <time>2016-07-03T07:14:26.000Z</time>
      </trkpt>
      <trkpt lat="49.34413" lon="1.52888">
        <ele>124.87322998047</ele>
        <time>2016-07-03T07:14:28.000Z</time>
      </trkpt>
      <trkpt lat="49.34417" lon="1.5287">
        <ele>125.59710693359</ele>
        <time>2016-07-03T07:14:31.000Z</time>
      </trkpt>
      <trkpt lat="49.3442" lon="1.52859">
        <ele>126.35551452637</ele>
        <time>2016-07-03T07:14:33.000Z</time>
      </trkpt>
      <trkpt lat="49.34427" lon="1.52843">
        <ele>127.12721252441</ele>
        <time>2016-07-03T07:14:36.000Z</time>
      </trkpt>
      <trkpt lat="49.34432" lon="1.52825">
        <ele>127.89923095703</ele>
        <time>2016-07-03T07:14:38.000Z</time>
      </trkpt>
      <trkpt lat="49.34437" lon="1.52811">
        <ele>128.57846069336</ele>
        <time>2016-07-03T07:14:41.000Z</time>
      </trkpt>
      <trkpt lat="49.34433" lon="1.52802">
        <ele>129.02035522461</ele>
        <time>2016-07-03T07:14:43.000Z</time>
      </trkpt>
      <trkpt lat="49.34436" lon="1.5278">
        <ele>129.36528015137</ele>
        <time>2016-07-03T07:14:46.000Z</time>
      </trkpt>
      <trkpt lat="49.34438" lon="1.52763">
        <ele>129.54985046387</ele>
        <time>2016-07-03T07:14:48.000Z</time>
      </trkpt>
      <trkpt lat="49.34436" lon="1.52733">
        <ele>129.59187316895</ele>
        <time>2016-07-03T07:14:51.000Z</time>
      </trkpt>
      <trkpt lat="49.34438" lon="1.52718">
        <ele>129.59477233887</ele>
        <time>2016-07-03T07:14:53.000Z</time>
      </trkpt>
      <trkpt lat="49.34436" lon="1.52697">
        <ele>129.57382202148</ele>
        <time>2016-07-03T07:14:56.000Z</time>
      </trkpt>
      <trkpt lat="49.34436" lon="1.52679">
        <ele>129.49423217773</ele>
        <time>2016-07-03T07:14:58.000Z</time>
      </trkpt>
      <trkpt lat="49.34437" lon="1.52664">
        <ele>129.39549255371</ele>
        <time>2016-07-03T07:15:00.000Z</time>
      </trkpt>
      <trkpt lat="49.34437" lon="1.52639">
        <ele>129.3214263916</ele>
        <time>2016-07-03T07:15:03.000Z</time>
      </trkpt>
      <trkpt lat="49.34441" lon="1.52619">
        <ele>129.29945373535</ele>
        <time>2016-07-03T07:15:05.000Z</time>
      </trkpt>
      <trkpt lat="49.34441" lon="1.526">
        <ele>129.32424926758</ele>
        <time>2016-07-03T07:15:07.000Z</time>
      </trkpt>
      <trkpt lat="49.34448" lon="1.52576">
        <ele>129.455078125</ele>
        <time>2016-07-03T07:15:10.000Z</time>
      </trkpt>
      <trkpt lat="49.3445" lon="1.52552">
        <ele>129.611328125</ele>
        <time>2016-07-03T07:15:13.000Z</time>
      </trkpt>
      <trkpt lat="49.34453" lon="1.52539">
        <ele>129.8017578125</ele>
        <time>2016-07-03T07:15:15.000Z</time>
      </trkpt>
      <trkpt lat="49.34457" lon="1.52518">
        <ele>129.9921875</ele>
        <time>2016-07-03T07:15:18.000Z</time>
      </trkpt>
      <trkpt lat="49.34463" lon="1.52501">
        <ele>130.255859375</ele>
        <time>2016-07-03T07:15:21.000Z</time>
      </trkpt>
      <trkpt lat="49.34466" lon="1.52481">
        <ele>130.53356933594</ele>
        <time>2016-07-03T07:15:24.000Z</time>
      </trkpt>
      <trkpt lat="49.34465" lon="1.52471">
        <ele>130.81143188477</ele>
        <time>2016-07-03T07:15:26.000Z</time>
      </trkpt>
      <trkpt lat="49.34468" lon="1.52458">
        <ele>131.13430786133</ele>
        <time>2016-07-03T07:15:29.000Z</time>
      </trkpt>
      <trkpt lat="49.34472" lon="1.52446">
        <ele>131.48747253418</ele>
        <time>2016-07-03T07:15:31.000Z</time>
      </trkpt>
      <trkpt lat="49.34475" lon="1.52431">
        <ele>131.84382629395</ele>
        <time>2016-07-03T07:15:34.000Z</time>
      </trkpt>
      <trkpt lat="49.34478" lon="1.52414">
        <ele>132.18576049805</ele>
        <time>2016-07-03T07:15:37.000Z</time>
      </trkpt>
      <trkpt lat="49.3448" lon="1.52402">
        <ele>132.53837585449</ele>
        <time>2016-07-03T07:15:39.000Z</time>
      </trkpt>
      <trkpt lat="49.34483" lon="1.52387">
        <ele>132.87466430664</ele>
        <time>2016-07-03T07:15:42.000Z</time>
      </trkpt>
      <trkpt lat="49.34486" lon="1.52373">
        <ele>133.19877624512</ele>
        <time>2016-07-03T07:15:45.000Z</time>
      </trkpt>
      <trkpt lat="49.3449" lon="1.52355">
        <ele>133.51910400391</ele>
        <time>2016-07-03T07:15:48.000Z</time>
      </trkpt>
      <trkpt lat="49.34492" lon="1.52343">
        <ele>133.81468200684</ele>
        <time>2016-07-03T07:15:50.000Z</time>
      </trkpt>
      <trkpt lat="49.34496" lon="1.52325">
        <ele>134.15113830566</ele>
        <time>2016-07-03T07:15:53.000Z</time>
      </trkpt>
      <trkpt lat="49.34499" lon="1.52305">
        <ele>134.50468444824</ele>
        <time>2016-07-03T07:15:56.000Z</time>
      </trkpt>
      <trkpt lat="49.34502" lon="1.52293">
        <ele>134.85758972168</ele>
        <time>2016-07-03T07:15:58.000Z</time>
      </trkpt>
      <trkpt lat="49.34506" lon="1.52272">
        <ele>135.22640991211</ele>
        <time>2016-07-03T07:16:01.000Z</time>
      </trkpt>
      <trkpt lat="49.34508" lon="1.5226">
        <ele>135.5916595459</ele>
        <time>2016-07-03T07:16:03.000Z</time>
      </trkpt>
      <trkpt lat="49.34511" lon="1.52247">
        <ele>135.92459106445</ele>
        <time>2016-07-03T07:16:05.000Z</time>
      </trkpt>
      <trkpt lat="49.34514" lon="1.52226">
        <ele>136.16757202148</ele>
        <time>2016-07-03T07:16:08.000Z</time>
      </trkpt>
      <trkpt lat="49.34518" lon="1.52202">
        <ele>136.3659362793</ele>
        <time>2016-07-03T07:16:11.000Z</time>
      </trkpt>
      <trkpt lat="49.34523" lon="1.52177">
        <ele>136.51072692871</ele>
        <time>2016-07-03T07:16:14.000Z</time>
      </trkpt>
      <trkpt lat="49.34527" lon="1.52157">
        <ele>136.68449401855</ele>
        <time>2016-07-03T07:16:17.000Z</time>
      </trkpt>
      <trkpt lat="49.34532" lon="1.52147">
        <ele>136.91940307617</ele>
        <time>2016-07-03T07:16:20.000Z</time>
      </trkpt>
      <trkpt lat="49.34533" lon="1.52132">
        <ele>137.24043273926</ele>
        <time>2016-07-03T07:16:22.000Z</time>
      </trkpt>
      <trkpt lat="49.34539" lon="1.52113">
        <ele>137.68449401855</ele>
        <time>2016-07-03T07:16:25.000Z</time>
      </trkpt>
      <trkpt lat="49.34542" lon="1.52097">
        <ele>138.19201660156</ele>
        <time>2016-07-03T07:16:27.000Z</time>
      </trkpt>
      <trkpt lat="49.34547" lon="1.52071">
        <ele>138.77920532227</ele>
        <time>2016-07-03T07:16:30.000Z</time>
      </trkpt>
      <trkpt lat="49.34549" lon="1.52051">
        <ele>139.35902404785</ele>
        <time>2016-07-03T07:16:32.000Z</time>
      </trkpt>
      <trkpt lat="49.34554" lon="1.52041">
        <ele>139.94021606445</ele>
        <time>2016-07-03T07:16:35.000Z</time>
      </trkpt>
      <trkpt lat="49.34562" lon="1.52018">
        <ele>140.48886108398</ele>
        <time>2016-07-03T07:16:38.000Z</time>
      </trkpt>
      <trkpt lat="49.34568" lon="1.51982">
        <ele>141.00332641602</ele>
        <time>2016-07-03T07:16:41.000Z</time>
      </trkpt>
      <trkpt lat="49.34575" lon="1.51951">
        <ele>141.37913513184</ele>
        <time>2016-07-03T07:16:44.000Z</time>
      </trkpt>
      <trkpt lat="49.34579" lon="1.51925">
        <ele>141.66021728516</ele>
        <time>2016-07-03T07:16:46.000Z</time>
      </trkpt>
      <trkpt lat="49.34583" lon="1.51899">
        <ele>141.78201293945</ele>
        <time>2016-07-03T07:16:48.000Z</time>
      </trkpt>
      <trkpt lat="49.34589" lon="1.51858">
        <ele>141.54244995117</ele>
        <time>2016-07-03T07:16:51.000Z</time>
      </trkpt>
      <trkpt lat="49.34592" lon="1.5183">
        <ele>141.04930114746</ele>
        <time>2016-07-03T07:16:53.000Z</time>
      </trkpt>
      <trkpt lat="49.34599" lon="1.51789">
        <ele>140.25546264648</ele>
        <time>2016-07-03T07:16:56.000Z</time>
      </trkpt>
      <trkpt lat="49.34602" lon="1.51762">
        <ele>139.28276062012</ele>
        <time>2016-07-03T07:16:58.000Z</time>
      </trkpt>
      <trkpt lat="49.34608" lon="1.51719">
        <ele>138.10806274414</ele>
        <time>2016-07-03T07:17:01.000Z</time>
      </trkpt>
      <trkpt lat="49.34613" lon="1.5169">
        <ele>137.00569152832</ele>
        <time>2016-07-03T07:17:03.000Z</time>
      </trkpt>
      <trkpt lat="49.34618" lon="1.51661">
        <ele>135.90609741211</ele>
        <time>2016-07-03T07:17:05.000Z</time>
      </trkpt>
      <trkpt lat="49.34623" lon="1.51633">
        <ele>134.79281616211</ele>
        <time>2016-07-03T07:17:07.000Z</time>
      </trkpt>
      <trkpt lat="49.34631" lon="1.51584">
        <ele>133.34526062012</ele>
        <time>2016-07-03T07:17:10.000Z</time>
      </trkpt>
      <trkpt lat="49.34635" lon="1.51552">
        <ele>131.81982421875</ele>
        <time>2016-07-03T07:17:12.000Z</time>
      </trkpt>
      <trkpt lat="49.34641" lon="1.51523">
        <ele>130.1029510498</ele>
        <time>2016-07-03T07:17:14.000Z</time>
      </trkpt>
      <trkpt lat="49.34648" lon="1.51479">
        <ele>128.03684997559</ele>
        <time>2016-07-03T07:17:17.000Z</time>
      </trkpt>
      <trkpt lat="49.34653" lon="1.51452">
        <ele>125.95649719238</ele>
        <time>2016-07-03T07:17:19.000Z</time>
      </trkpt>
      <trkpt lat="49.34659" lon="1.5142">
        <ele>123.99133300781</ele>
        <time>2016-07-03T07:17:21.000Z</time>
      </trkpt>
      <trkpt lat="49.34667" lon="1.51375">
        <ele>121.87945556641</ele>
        <time>2016-07-03T07:17:24.000Z</time>
      </trkpt>
      <trkpt lat="49.3467" lon="1.5133">
        <ele>119.82820129395</ele>
        <time>2016-07-03T07:17:27.000Z</time>
      </trkpt>
      <trkpt lat="49.34674" lon="1.51303">
        <ele>118.21075439453</ele>
        <time>2016-07-03T07:17:29.000Z</time>
      </trkpt>
      <trkpt lat="49.34681" lon="1.51264">
        <ele>116.79319000244</ele>
        <time>2016-07-03T07:17:32.000Z</time>
      </trkpt>
      <trkpt lat="49.34687" lon="1.51227">
        <ele>115.83081054688</ele>
        <time>2016-07-03T07:17:35.000Z</time>
      </trkpt>
      <trkpt lat="49.34692" lon="1.51194">
        <ele>115.50222015381</ele>
        <time>2016-07-03T07:17:38.000Z</time>
      </trkpt>
      <trkpt lat="49.34697" lon="1.51164">
        <ele>115.59545898438</ele>
        <time>2016-07-03T07:17:41.000Z</time>
      </trkpt>
      <trkpt lat="49.34702" lon="1.51132">
        <ele>115.84057617188</ele>
        <time>2016-07-03T07:17:44.000Z</time>
      </trkpt>
      <trkpt lat="49.34705" lon="1.5111">
        <ele>116.21842956543</ele>
        <time>2016-07-03T07:17:46.000Z</time>
      </trkpt>
      <trkpt lat="49.3471" lon="1.51079">
        <ele>116.57814025879</ele>
        <time>2016-07-03T07:17:49.000Z</time>
      </trkpt>
      <trkpt lat="49.34713" lon="1.51058">
        <ele>116.84765625</ele>
        <time>2016-07-03T07:17:51.000Z</time>
      </trkpt>
      <trkpt lat="49.34718" lon="1.51027">
        <ele>117.05859375</ele>
        <time>2016-07-03T07:17:54.000Z</time>
      </trkpt>
      <trkpt lat="49.34721" lon="1.51008">
        <ele>117.23828125</ele>
        <time>2016-07-03T07:17:56.000Z</time>
      </trkpt>
      <trkpt lat="49.34725" lon="1.50977">
        <ele>117.45407867432</ele>
        <time>2016-07-03T07:17:59.000Z</time>
      </trkpt>
      <trkpt lat="49.34728" lon="1.50951">
        <ele>117.66133880615</ele>
        <time>2016-07-03T07:18:02.000Z</time>
      </trkpt>
      <trkpt lat="49.34721" lon="1.50939">
        <ele>117.78387451172</ele>
        <time>2016-07-03T07:18:04.000Z</time>
      </trkpt>
      <trkpt lat="49.34708" lon="1.50927">
        <ele>117.77097320557</ele>
        <time>2016-07-03T07:18:06.000Z</time>
      </trkpt>
      <trkpt lat="49.34691" lon="1.5092">
        <ele>117.6216583252</ele>
        <time>2016-07-03T07:18:08.000Z</time>
      </trkpt>
      <trkpt lat="49.3467" lon="1.50902">
        <ele>117.36421966553</ele>
        <time>2016-07-03T07:18:11.000Z</time>
      </trkpt>
      <trkpt lat="49.34656" lon="1.50892">
        <ele>117.03637695312</ele>
        <time>2016-07-03T07:18:13.000Z</time>
      </trkpt>
      <trkpt lat="49.34635" lon="1.50876">
        <ele>116.69319915771</ele>
        <time>2016-07-03T07:18:16.000Z</time>
      </trkpt>
      <trkpt lat="49.34621" lon="1.50864">
        <ele>116.39631652832</ele>
        <time>2016-07-03T07:18:18.000Z</time>
      </trkpt>
      <trkpt lat="49.34598" lon="1.50848">
        <ele>116.09150695801</ele>
        <time>2016-07-03T07:18:21.000Z</time>
      </trkpt>
      <trkpt lat="49.34583" lon="1.50835">
        <ele>115.76029968262</ele>
        <time>2016-07-03T07:18:23.000Z</time>
      </trkpt>
      <trkpt lat="49.34568" lon="1.50813">
        <ele>115.28928375244</ele>
        <time>2016-07-03T07:18:26.000Z</time>
      </trkpt>
      <trkpt lat="49.34554" lon="1.50799">
        <ele>114.71714019775</ele>
        <time>2016-07-03T07:18:28.000Z</time>
      </trkpt>
      <trkpt lat="49.34536" lon="1.50788">
        <ele>113.96364593506</ele>
        <time>2016-07-03T07:18:31.000Z</time>
      </trkpt>
      <trkpt lat="49.34526" lon="1.50776">
        <ele>113.208984375</ele>
        <time>2016-07-03T07:18:33.000Z</time>
      </trkpt>
      <trkpt lat="49.34522" lon="1.50764">
        <ele>112.4853515625</ele>
        <time>2016-07-03T07:18:35.000Z</time>
      </trkpt>
      <trkpt lat="49.34526" lon="1.50749">
        <ele>111.97006988525</ele>
        <time>2016-07-03T07:18:37.000Z</time>
      </trkpt>
      <trkpt lat="49.34537" lon="1.50732">
        <ele>111.67237854004</ele>
        <time>2016-07-03T07:18:40.000Z</time>
      </trkpt>
      <trkpt lat="49.34546" lon="1.50706">
        <ele>111.58451843262</ele>
        <time>2016-07-03T07:18:43.000Z</time>
      </trkpt>
      <trkpt lat="49.34558" lon="1.50674">
        <ele>111.61055755615</ele>
        <time>2016-07-03T07:18:46.000Z</time>
      </trkpt>
      <trkpt lat="49.34566" lon="1.50653">
        <ele>111.69801330566</ele>
        <time>2016-07-03T07:18:48.000Z</time>
      </trkpt>
      <trkpt lat="49.34576" lon="1.50637">
        <ele>111.8180770874</ele>
        <time>2016-07-03T07:18:50.000Z</time>
      </trkpt>
      <trkpt lat="49.34587" lon="1.50609">
        <ele>111.97967529297</ele>
        <time>2016-07-03T07:18:53.000Z</time>
      </trkpt>
      <trkpt lat="49.34598" lon="1.50573">
        <ele>112.14739990234</ele>
        <time>2016-07-03T07:18:56.000Z</time>
      </trkpt>
      <trkpt lat="49.34607" lon="1.50553">
        <ele>112.27868652344</ele>
        <time>2016-07-03T07:18:58.000Z</time>
      </trkpt>
      <trkpt lat="49.34617" lon="1.50528">
        <ele>112.32834625244</ele>
        <time>2016-07-03T07:19:01.000Z</time>
      </trkpt>
      <trkpt lat="49.34623" lon="1.5052">
        <ele>112.33253479004</ele>
        <time>2016-07-03T07:19:03.000Z</time>
      </trkpt>
      <trkpt lat="49.34631" lon="1.505">
        <ele>112.20794677734</ele>
        <time>2016-07-03T07:19:06.000Z</time>
      </trkpt>
      <trkpt lat="49.34643" lon="1.50478">
        <ele>112.13564300537</ele>
        <time>2016-07-03T07:19:09.000Z</time>
      </trkpt>
      <trkpt lat="49.3465" lon="1.50451">
        <ele>112.03035736084</ele>
        <time>2016-07-03T07:19:12.000Z</time>
      </trkpt>
      <trkpt lat="49.34661" lon="1.50436">
        <ele>112.07633209229</ele>
        <time>2016-07-03T07:19:14.000Z</time>
      </trkpt>
      <trkpt lat="49.34671" lon="1.50415">
        <ele>112.09352111816</ele>
        <time>2016-07-03T07:19:17.000Z</time>
      </trkpt>
      <trkpt lat="49.34675" lon="1.50401">
        <ele>112.15544128418</ele>
        <time>2016-07-03T07:19:19.000Z</time>
      </trkpt>
      <trkpt lat="49.34683" lon="1.5038">
        <ele>112.18788146973</ele>
        <time>2016-07-03T07:19:22.000Z</time>
      </trkpt>
      <trkpt lat="49.34687" lon="1.50366">
        <ele>112.28871917725</ele>
        <time>2016-07-03T07:19:24.000Z</time>
      </trkpt>
      <trkpt lat="49.34699" lon="1.50353">
        <ele>112.35243988037</ele>
        <time>2016-07-03T07:19:27.000Z</time>
      </trkpt>
      <trkpt lat="49.34713" lon="1.50345">
        <ele>112.50131988525</ele>
        <time>2016-07-03T07:19:30.000Z</time>
      </trkpt>
      <trkpt lat="49.34727" lon="1.50342">
        <ele>112.73512268066</ele>
        <time>2016-07-03T07:19:33.000Z</time>
      </trkpt>
      <trkpt lat="49.34743" lon="1.50341">
        <ele>113.06005859375</ele>
        <time>2016-07-03T07:19:36.000Z</time>
      </trkpt>
      <trkpt lat="49.34757" lon="1.50341">
        <ele>113.4341583252</ele>
        <time>2016-07-03T07:19:39.000Z</time>
      </trkpt>
      <trkpt lat="49.34766" lon="1.50339">
        <ele>113.72232818604</ele>
        <time>2016-07-03T07:19:41.000Z</time>
      </trkpt>
      <trkpt lat="49.34779" lon="1.50339">
        <ele>113.89056396484</ele>
        <time>2016-07-03T07:19:44.000Z</time>
      </trkpt>
      <trkpt lat="49.34791" lon="1.50339">
        <ele>113.93441009521</ele>
        <time>2016-07-03T07:19:47.000Z</time>
      </trkpt>
      <trkpt lat="49.34797" lon="1.50339">
        <ele>113.85562896729</ele>
        <time>2016-07-03T07:19:49.000Z</time>
      </trkpt>
      <trkpt lat="49.34806" lon="1.5034">
        <ele>113.72208404541</ele>
        <time>2016-07-03T07:19:52.000Z</time>
      </trkpt>
      <trkpt lat="49.34812" lon="1.5034">
        <ele>113.608543396</ele>
        <time>2016-07-03T07:19:54.000Z</time>
      </trkpt>
      <trkpt lat="49.34821" lon="1.50341">
        <ele>113.51190185547</ele>
        <time>2016-07-03T07:19:57.000Z</time>
      </trkpt>
      <trkpt lat="49.34828" lon="1.50341">
        <ele>113.43119812012</ele>
        <time>2016-07-03T07:19:59.000Z</time>
      </trkpt>
      <trkpt lat="49.34838" lon="1.50342">
        <ele>113.32137298584</ele>
        <time>2016-07-03T07:20:02.000Z</time>
      </trkpt>
      <trkpt lat="49.34845" lon="1.50342">
        <ele>113.17338562012</ele>
        <time>2016-07-03T07:20:04.000Z</time>
      </trkpt>
      <trkpt lat="49.34853" lon="1.50343">
        <ele>112.98695373535</ele>
        <time>2016-07-03T07:20:06.000Z</time>
      </trkpt>
      <trkpt lat="49.34865" lon="1.50343">
        <ele>112.7407989502</ele>
        <time>2016-07-03T07:20:09.000Z</time>
      </trkpt>
      <trkpt lat="49.34874" lon="1.50344">
        <ele>112.44805908203</ele>
        <time>2016-07-03T07:20:11.000Z</time>
      </trkpt>
      <trkpt lat="49.34887" lon="1.50346">
        <ele>112.11224365234</ele>
        <time>2016-07-03T07:20:14.000Z</time>
      </trkpt>
      <trkpt lat="49.34895" lon="1.50347">
        <ele>111.78118896484</ele>
        <time>2016-07-03T07:20:16.000Z</time>
      </trkpt>
      <trkpt lat="49.34903" lon="1.50345">
        <ele>111.43603515625</ele>
        <time>2016-07-03T07:20:19.000Z</time>
      </trkpt>
      <trkpt lat="49.34906" lon="1.50347">
        <ele>111.15618896484</ele>
        <time>2016-07-03T07:20:21.000Z</time>
      </trkpt>
      <trkpt lat="49.34916" lon="1.50349">
        <ele>110.87902832031</ele>
        <time>2016-07-03T07:20:24.000Z</time>
      </trkpt>
      <trkpt lat="49.34927" lon="1.50349">
        <ele>110.76914215088</ele>
        <time>2016-07-03T07:20:27.000Z</time>
      </trkpt>
      <trkpt lat="49.34937" lon="1.50351">
        <ele>110.80462646484</ele>
        <time>2016-07-03T07:20:30.000Z</time>
      </trkpt>
      <trkpt lat="49.34944" lon="1.50351">
        <ele>110.96907043457</ele>
        <time>2016-07-03T07:20:32.000Z</time>
      </trkpt>
      <trkpt lat="49.34951" lon="1.50352">
        <ele>111.21173095703</ele>
        <time>2016-07-03T07:20:34.000Z</time>
      </trkpt>
      <trkpt lat="49.34961" lon="1.50354">
        <ele>111.60402679443</ele>
        <time>2016-07-03T07:20:37.000Z</time>
      </trkpt>
      <trkpt lat="49.34968" lon="1.50355">
        <ele>111.97380065918</ele>
        <time>2016-07-03T07:20:39.000Z</time>
      </trkpt>
      <trkpt lat="49.34975" lon="1.50355">
        <ele>112.30905914307</ele>
        <time>2016-07-03T07:20:41.000Z</time>
      </trkpt>
      <trkpt lat="49.34983" lon="1.50356">
        <ele>112.64544677734</ele>
        <time>2016-07-03T07:20:43.000Z</time>
      </trkpt>
      <trkpt lat="49.34994" lon="1.50356">
        <ele>113.01226806641</ele>
        <time>2016-07-03T07:20:46.000Z</time>
      </trkpt>
      <trkpt lat="49.34999" lon="1.50356">
        <ele>113.3316192627</ele>
        <time>2016-07-03T07:20:48.000Z</time>
      </trkpt>
      <trkpt lat="49.35006" lon="1.50357">
        <ele>113.71823883057</ele>
        <time>2016-07-03T07:20:51.000Z</time>
      </trkpt>
      <trkpt lat="49.35011" lon="1.50356">
        <ele>114.13275146484</ele>
        <time>2016-07-03T07:20:53.000Z</time>
      </trkpt>
      <trkpt lat="49.35017" lon="1.50356">
        <ele>114.5916595459</ele>
        <time>2016-07-03T07:20:56.000Z</time>
      </trkpt>
      <trkpt lat="49.3502" lon="1.50354">
        <ele>115.02044677734</ele>
        <time>2016-07-03T07:20:58.000Z</time>
      </trkpt>
      <trkpt lat="49.35024" lon="1.50353">
        <ele>115.47434234619</ele>
        <time>2016-07-03T07:21:00.000Z</time>
      </trkpt>
      <trkpt lat="49.3503" lon="1.50352">
        <ele>115.9153213501</ele>
        <time>2016-07-03T07:21:03.000Z</time>
      </trkpt>
      <trkpt lat="49.35034" lon="1.50355">
        <ele>116.33134460449</ele>
        <time>2016-07-03T07:21:06.000Z</time>
      </trkpt>
      <trkpt lat="49.35036" lon="1.50365">
        <ele>116.66925048828</ele>
        <time>2016-07-03T07:21:09.000Z</time>
      </trkpt>
      <trkpt lat="49.35043" lon="1.5038">
        <ele>117.05416107178</ele>
        <time>2016-07-03T07:21:12.000Z</time>
      </trkpt>
      <trkpt lat="49.3505" lon="1.5039">
        <ele>117.48588562012</ele>
        <time>2016-07-03T07:21:15.000Z</time>
      </trkpt>
      <trkpt lat="49.35054" lon="1.50397">
        <ele>117.86444091797</ele>
        <time>2016-07-03T07:21:17.000Z</time>
      </trkpt>
      <trkpt lat="49.35061" lon="1.50408">
        <ele>118.27180480957</ele>
        <time>2016-07-03T07:21:20.000Z</time>
      </trkpt>
      <trkpt lat="49.35067" lon="1.50418">
        <ele>118.73264312744</ele>
        <time>2016-07-03T07:21:23.000Z</time>
      </trkpt>
      <trkpt lat="49.3507" lon="1.50425">
        <ele>119.11311340332</ele>
        <time>2016-07-03T07:21:25.000Z</time>
      </trkpt>
      <trkpt lat="49.35073" lon="1.50434">
        <ele>119.40456390381</ele>
        <time>2016-07-03T07:21:27.000Z</time>
      </trkpt>
      <trkpt lat="49.35077" lon="1.50444">
        <ele>119.64195251465</ele>
        <time>2016-07-03T07:21:30.000Z</time>
      </trkpt>
      <trkpt lat="49.35081" lon="1.50449">
        <ele>119.81716156006</ele>
        <time>2016-07-03T07:21:32.000Z</time>
      </trkpt>
      <trkpt lat="49.35091" lon="1.50448">
        <ele>120.17740631104</ele>
        <time>2016-07-03T07:21:35.000Z</time>
      </trkpt>
      <trkpt lat="49.35096" lon="1.50444">
        <ele>120.63639831543</ele>
        <time>2016-07-03T07:21:37.000Z</time>
      </trkpt>
      <trkpt lat="49.35099" lon="1.50439">
        <ele>121.18963623047</ele>
        <time>2016-07-03T07:21:39.000Z</time>
      </trkpt>
      <trkpt lat="49.35104" lon="1.50435">
        <ele>121.88584136963</ele>
        <time>2016-07-03T07:21:42.000Z</time>
      </trkpt>
      <trkpt lat="49.35109" lon="1.50434">
        <ele>122.69760894775</ele>
        <time>2016-07-03T07:21:45.000Z</time>
      </trkpt>
      <trkpt lat="49.35115" lon="1.50429">
        <ele>123.41337585449</ele>
        <time>2016-07-03T07:21:48.000Z</time>
      </trkpt>
      <trkpt lat="49.35118" lon="1.50426">
        <ele>124.07917785645</ele>
        <time>2016-07-03T07:21:50.000Z</time>
      </trkpt>
      <trkpt lat="49.35123" lon="1.50418">
        <ele>124.79378509521</ele>
        <time>2016-07-03T07:21:53.000Z</time>
      </trkpt>
      <trkpt lat="49.35126" lon="1.50413">
        <ele>125.43918609619</ele>
        <time>2016-07-03T07:21:55.000Z</time>
      </trkpt>
      <trkpt lat="49.35128" lon="1.50405">
        <ele>125.9888458252</ele>
        <time>2016-07-03T07:21:57.000Z</time>
      </trkpt>
      <trkpt lat="49.35129" lon="1.50396">
        <ele>126.3974609375</ele>
        <time>2016-07-03T07:21:59.000Z</time>
      </trkpt>
      <trkpt lat="49.35136" lon="1.50387">
        <ele>126.8881072998</ele>
        <time>2016-07-03T07:22:02.000Z</time>
      </trkpt>
      <trkpt lat="49.35141" lon="1.50383">
        <ele>127.33587646484</ele>
        <time>2016-07-03T07:22:04.000Z</time>
      </trkpt>
      <trkpt lat="49.35145" lon="1.50379">
        <ele>127.79814147949</ele>
        <time>2016-07-03T07:22:06.000Z</time>
      </trkpt>
      <trkpt lat="49.35151" lon="1.50374">
        <ele>128.33883666992</ele>
        <time>2016-07-03T07:22:09.000Z</time>
      </trkpt>
      <trkpt lat="49.35155" lon="1.50368">
        <ele>128.93795776367</ele>
        <time>2016-07-03T07:22:12.000Z</time>
      </trkpt>
      <trkpt lat="49.35158" lon="1.50365">
        <ele>129.45892333984</ele>
        <time>2016-07-03T07:22:14.000Z</time>
      </trkpt>
      <trkpt lat="49.35163" lon="1.50361">
        <ele>129.95780944824</ele>
        <time>2016-07-03T07:22:17.000Z</time>
      </trkpt>
      <trkpt lat="49.35166" lon="1.50358">
        <ele>130.41047668457</ele>
        <time>2016-07-03T07:22:20.000Z</time>
      </trkpt>
      <trkpt lat="49.35169" lon="1.50353">
        <ele>130.78927612305</ele>
        <time>2016-07-03T07:22:22.000Z</time>
      </trkpt>
      <trkpt lat="49.35172" lon="1.50348">
        <ele>131.12773132324</ele>
        <time>2016-07-03T07:22:24.000Z</time>
      </trkpt>
      <trkpt lat="49.35176" lon="1.5034">
        <ele>131.45588684082</ele>
        <time>2016-07-03T07:22:27.000Z</time>
      </trkpt>
      <trkpt lat="49.35179" lon="1.50337">
        <ele>131.73393249512</ele>
        <time>2016-07-03T07:22:29.000Z</time>
      </trkpt>
      <trkpt lat="49.35184" lon="1.50329">
        <ele>132.06120300293</ele>
        <time>2016-07-03T07:22:32.000Z</time>
      </trkpt>
      <trkpt lat="49.35187" lon="1.50323">
        <ele>132.3876953125</ele>
        <time>2016-07-03T07:22:35.000Z</time>
      </trkpt>
      <trkpt lat="49.3519" lon="1.50319">
        <ele>132.71968078613</ele>
        <time>2016-07-03T07:22:37.000Z</time>
      </trkpt>
      <trkpt lat="49.35196" lon="1.50312">
        <ele>133.09733581543</ele>
        <time>2016-07-03T07:22:40.000Z</time>
      </trkpt>
      <trkpt lat="49.35201" lon="1.50305">
        <ele>133.51669311523</ele>
        <time>2016-07-03T07:22:43.000Z</time>
      </trkpt>
      <trkpt lat="49.35206" lon="1.50299">
        <ele>133.91976928711</ele>
        <time>2016-07-03T07:22:46.000Z</time>
      </trkpt>
      <trkpt lat="49.35211" lon="1.50291">
        <ele>134.36254882812</ele>
        <time>2016-07-03T07:22:49.000Z</time>
      </trkpt>
      <trkpt lat="49.35215" lon="1.50286">
        <ele>134.81893920898</ele>
        <time>2016-07-03T07:22:51.000Z</time>
      </trkpt>
      <trkpt lat="49.35219" lon="1.50275">
        <ele>135.23086547852</ele>
        <time>2016-07-03T07:22:54.000Z</time>
      </trkpt>
      <trkpt lat="49.35222" lon="1.5027">
        <ele>135.58706665039</ele>
        <time>2016-07-03T07:22:56.000Z</time>
      </trkpt>
      <trkpt lat="49.35226" lon="1.50262">
        <ele>135.93798828125</ele>
        <time>2016-07-03T07:22:59.000Z</time>
      </trkpt>
      <trkpt lat="49.35231" lon="1.50255">
        <ele>136.28161621094</ele>
        <time>2016-07-03T07:23:02.000Z</time>
      </trkpt>
      <trkpt lat="49.35233" lon="1.50252">
        <ele>136.58770751953</ele>
        <time>2016-07-03T07:23:04.000Z</time>
      </trkpt>
      <trkpt lat="49.35237" lon="1.50243">
        <ele>136.8544921875</ele>
        <time>2016-07-03T07:23:07.000Z</time>
      </trkpt>
      <trkpt lat="49.35241" lon="1.50235">
        <ele>137.09017944336</ele>
        <time>2016-07-03T07:23:09.000Z</time>
      </trkpt>
      <trkpt lat="49.35246" lon="1.50228">
        <ele>137.28617858887</ele>
        <time>2016-07-03T07:23:12.000Z</time>
      </trkpt>
      <trkpt lat="49.35251" lon="1.50222">
        <ele>137.42092895508</ele>
        <time>2016-07-03T07:23:15.000Z</time>
      </trkpt>
      <trkpt lat="49.35255" lon="1.50217">
        <ele>137.54615783691</ele>
        <time>2016-07-03T07:23:18.000Z</time>
      </trkpt>
      <trkpt lat="49.35257" lon="1.50215">
        <ele>137.65365600586</ele>
        <time>2016-07-03T07:23:20.000Z</time>
      </trkpt>
      <trkpt lat="49.35259" lon="1.50211">
        <ele>137.74398803711</ele>
        <time>2016-07-03T07:23:23.000Z</time>
      </trkpt>
      <trkpt lat="49.35262" lon="1.50206">
        <ele>137.79153442383</ele>
        <time>2016-07-03T07:23:26.000Z</time>
      </trkpt>
      <trkpt lat="49.35265" lon="1.50201">
        <ele>137.82064819336</ele>
        <time>2016-07-03T07:23:28.000Z</time>
      </trkpt>
      <trkpt lat="49.35269" lon="1.50188">
        <ele>137.80041503906</ele>
        <time>2016-07-03T07:23:31.000Z</time>
      </trkpt>
      <trkpt lat="49.35269" lon="1.50177">
        <ele>137.67585754395</ele>
        <time>2016-07-03T07:23:34.000Z</time>
      </trkpt>
      <trkpt lat="49.35267" lon="1.5017">
        <ele>137.4700012207</ele>
        <time>2016-07-03T07:23:36.000Z</time>
      </trkpt>
      <trkpt lat="49.35262" lon="1.50155">
        <ele>137.10766601562</ele>
        <time>2016-07-03T07:23:39.000Z</time>
      </trkpt>
      <trkpt lat="49.35252" lon="1.50137">
        <ele>136.5076751709</ele>
        <time>2016-07-03T07:23:42.000Z</time>
      </trkpt>
      <trkpt lat="49.35225" lon="1.50097">
        <ele>135.49856567383</ele>
        <time>2016-07-03T07:23:46.000Z</time>
      </trkpt>
      <trkpt lat="49.35214" lon="1.50075">
        <ele>134.41679382324</ele>
        <time>2016-07-03T07:23:49.000Z</time>
      </trkpt>
      <trkpt lat="49.352" lon="1.50063">
        <ele>133.26991271973</ele>
        <time>2016-07-03T07:23:51.000Z</time>
      </trkpt>
      <trkpt lat="49.35189" lon="1.50049">
        <ele>132.18574523926</ele>
        <time>2016-07-03T07:23:53.000Z</time>
      </trkpt>
      <trkpt lat="49.35179" lon="1.50031">
        <ele>131.25518798828</ele>
        <time>2016-07-03T07:23:56.000Z</time>
      </trkpt>
      <trkpt lat="49.35161" lon="1.50012">
        <ele>130.62977600098</ele>
        <time>2016-07-03T07:23:59.000Z</time>
      </trkpt>
      <trkpt lat="49.35148" lon="1.49994">
        <ele>130.0295715332</ele>
        <time>2016-07-03T07:24:02.000Z</time>
      </trkpt>
      <trkpt lat="49.35135" lon="1.49978">
        <ele>129.40621948242</ele>
        <time>2016-07-03T07:24:05.000Z</time>
      </trkpt>
      <trkpt lat="49.35119" lon="1.49962">
        <ele>128.68110656738</ele>
        <time>2016-07-03T07:24:08.000Z</time>
      </trkpt>
      <trkpt lat="49.35112" lon="1.4995">
        <ele>127.94551849365</ele>
        <time>2016-07-03T07:24:10.000Z</time>
      </trkpt>
      <trkpt lat="49.35099" lon="1.49938">
        <ele>127.19716644287</ele>
        <time>2016-07-03T07:24:13.000Z</time>
      </trkpt>
      <trkpt lat="49.35087" lon="1.49933">
        <ele>126.46522521973</ele>
        <time>2016-07-03T07:24:15.000Z</time>
      </trkpt>
      <trkpt lat="49.35082" lon="1.49922">
        <ele>125.86586761475</ele>
        <time>2016-07-03T07:24:17.000Z</time>
      </trkpt>
      <trkpt lat="49.35074" lon="1.49906">
        <ele>125.39227294922</ele>
        <time>2016-07-03T07:24:20.000Z</time>
      </trkpt>
      <trkpt lat="49.3507" lon="1.499">
        <ele>124.96555328369</ele>
        <time>2016-07-03T07:24:22.000Z</time>
      </trkpt>
      <trkpt lat="49.35064" lon="1.4989">
        <ele>124.63557434082</ele>
        <time>2016-07-03T07:24:25.000Z</time>
      </trkpt>
      <trkpt lat="49.35058" lon="1.49885">
        <ele>124.37998199463</ele>
        <time>2016-07-03T07:24:27.000Z</time>
      </trkpt>
      <trkpt lat="49.35051" lon="1.49879">
        <ele>124.11081695557</ele>
        <time>2016-07-03T07:24:29.000Z</time>
      </trkpt>
      <trkpt lat="49.35031" lon="1.49868">
        <ele>123.76733398438</ele>
        <time>2016-07-03T07:24:32.000Z</time>
      </trkpt>
      <trkpt lat="49.35025" lon="1.49859">
        <ele>123.42903137207</ele>
        <time>2016-07-03T07:24:34.000Z</time>
      </trkpt>
      <trkpt lat="49.35017" lon="1.4985">
        <ele>123.09323883057</ele>
        <time>2016-07-03T07:24:37.000Z</time>
      </trkpt>
      <trkpt lat="49.35011" lon="1.49846">
        <ele>122.76434326172</ele>
        <time>2016-07-03T07:24:40.000Z</time>
      </trkpt>
      <trkpt lat="49.35014" lon="1.49844">
        <ele>122.51992034912</ele>
        <time>2016-07-03T07:24:42.000Z</time>
      </trkpt>
      <trkpt lat="49.35017" lon="1.4984">
        <ele>122.45626068115</ele>
        <time>2016-07-03T07:24:44.000Z</time>
      </trkpt>
      <trkpt lat="49.3502" lon="1.49837">
        <ele>122.45742034912</ele>
        <time>2016-07-03T07:24:46.000Z</time>
      </trkpt>
      <trkpt lat="49.35025" lon="1.4983">
        <ele>122.55208587646</ele>
        <time>2016-07-03T07:24:48.000Z</time>
      </trkpt>
      <trkpt lat="49.35032" lon="1.49816">
        <ele>122.75498199463</ele>
        <time>2016-07-03T07:24:51.000Z</time>
      </trkpt>
      <trkpt lat="49.35036" lon="1.49804">
        <ele>122.97999572754</ele>
        <time>2016-07-03T07:24:54.000Z</time>
      </trkpt>
      <trkpt lat="49.35042" lon="1.49793">
        <ele>123.22550201416</ele>
        <time>2016-07-03T07:24:57.000Z</time>
      </trkpt>
      <trkpt lat="49.3505" lon="1.49781">
        <ele>123.49861907959</ele>
        <time>2016-07-03T07:25:00.000Z</time>
      </trkpt>
      <trkpt lat="49.35058" lon="1.49769">
        <ele>123.77854156494</ele>
        <time>2016-07-03T07:25:03.000Z</time>
      </trkpt>
      <trkpt lat="49.35064" lon="1.49759">
        <ele>124.02819824219</ele>
        <time>2016-07-03T07:25:05.000Z</time>
      </trkpt>
      <trkpt lat="49.35069" lon="1.4975">
        <ele>124.25772857666</ele>
        <time>2016-07-03T07:25:07.000Z</time>
      </trkpt>
      <trkpt lat="49.35078" lon="1.49738">
        <ele>124.47277832031</ele>
        <time>2016-07-03T07:25:10.000Z</time>
      </trkpt>
      <trkpt lat="49.35086" lon="1.49724">
        <ele>124.68070983887</ele>
        <time>2016-07-03T07:25:13.000Z</time>
      </trkpt>
      <trkpt lat="49.35091" lon="1.49715">
        <ele>124.87322998047</ele>
        <time>2016-07-03T07:25:15.000Z</time>
      </trkpt>
      <trkpt lat="49.35096" lon="1.49707">
        <ele>125.06101226807</ele>
        <time>2016-07-03T07:25:17.000Z</time>
      </trkpt>
      <trkpt lat="49.35104" lon="1.49693">
        <ele>125.29557800293</ele>
        <time>2016-07-03T07:25:20.000Z</time>
      </trkpt>
      <trkpt lat="49.3511" lon="1.49683">
        <ele>125.56539154053</ele>
        <time>2016-07-03T07:25:22.000Z</time>
      </trkpt>
      <trkpt lat="49.35128" lon="1.49659">
        <ele>125.93672180176</ele>
        <time>2016-07-03T07:25:25.000Z</time>
      </trkpt>
      <trkpt lat="49.35143" lon="1.49637">
        <ele>126.27998352051</ele>
        <time>2016-07-03T07:25:28.000Z</time>
      </trkpt>
      <trkpt lat="49.35163" lon="1.49604">
        <ele>126.52177429199</ele>
        <time>2016-07-03T07:25:31.000Z</time>
      </trkpt>
      <trkpt lat="49.35176" lon="1.49577">
        <ele>126.32377624512</ele>
        <time>2016-07-03T07:25:33.000Z</time>
      </trkpt>
      <trkpt lat="49.35189" lon="1.4955">
        <ele>125.49837493896</ele>
        <time>2016-07-03T07:25:36.000Z</time>
      </trkpt>
      <trkpt lat="49.352" lon="1.49534">
        <ele>124.16581726074</ele>
        <time>2016-07-03T07:25:39.000Z</time>
      </trkpt>
      <trkpt lat="49.35204" lon="1.49525">
        <ele>122.65232849121</ele>
        <time>2016-07-03T07:25:41.000Z</time>
      </trkpt>
      <trkpt lat="49.35213" lon="1.49522">
        <ele>121.04856109619</ele>
        <time>2016-07-03T07:25:43.000Z</time>
      </trkpt>
      <trkpt lat="49.35223" lon="1.4953">
        <ele>119.78698730469</ele>
        <time>2016-07-03T07:25:46.000Z</time>
      </trkpt>
      <trkpt lat="49.35225" lon="1.4954">
        <ele>119.17917633057</ele>
        <time>2016-07-03T07:25:49.000Z</time>
      </trkpt>
      <trkpt lat="49.35231" lon="1.49546">
        <ele>118.93713378906</ele>
        <time>2016-07-03T07:25:51.000Z</time>
      </trkpt>
      <trkpt lat="49.35236" lon="1.49555">
        <ele>118.89793395996</ele>
        <time>2016-07-03T07:25:53.000Z</time>
      </trkpt>
      <trkpt lat="49.3524" lon="1.49565">
        <ele>119.08818054199</ele>
        <time>2016-07-03T07:25:56.000Z</time>
      </trkpt>
      <trkpt lat="49.35243" lon="1.49573">
        <ele>119.3643951416</ele>
        <time>2016-07-03T07:25:58.000Z</time>
      </trkpt>
      <trkpt lat="49.3525" lon="1.49578">
        <ele>119.50106048584</ele>
        <time>2016-07-03T07:26:01.000Z</time>
      </trkpt>
      <trkpt lat="49.35254" lon="1.49578">
        <ele>119.64964294434</ele>
        <time>2016-07-03T07:26:03.000Z</time>
      </trkpt>
      <trkpt lat="49.35258" lon="1.49578">
        <ele>119.78121185303</ele>
        <time>2016-07-03T07:26:05.000Z</time>
      </trkpt>
      <trkpt lat="49.35262" lon="1.49577">
        <ele>119.865234375</ele>
        <time>2016-07-03T07:26:08.000Z</time>
      </trkpt>
      <trkpt lat="49.35265" lon="1.49576">
        <ele>119.88941955566</ele>
        <time>2016-07-03T07:26:10.000Z</time>
      </trkpt>
      <trkpt lat="49.3527" lon="1.49573">
        <ele>119.96059417725</ele>
        <time>2016-07-03T07:26:13.000Z</time>
      </trkpt>
      <trkpt lat="49.35274" lon="1.4957">
        <ele>120.01582336426</ele>
        <time>2016-07-03T07:26:15.000Z</time>
      </trkpt>
      <trkpt lat="49.35277" lon="1.49566">
        <ele>120.05574035645</ele>
        <time>2016-07-03T07:26:17.000Z</time>
      </trkpt>
      <trkpt lat="49.3528" lon="1.49563">
        <ele>120.07389068604</ele>
        <time>2016-07-03T07:26:19.000Z</time>
      </trkpt>
      <trkpt lat="49.35284" lon="1.49557">
        <ele>120.09470367432</ele>
        <time>2016-07-03T07:26:22.000Z</time>
      </trkpt>
      <trkpt lat="49.35287" lon="1.49553">
        <ele>120.12733459473</ele>
        <time>2016-07-03T07:26:24.000Z</time>
      </trkpt>
      <trkpt lat="49.35293" lon="1.49546">
        <ele>120.19360351562</ele>
        <time>2016-07-03T07:26:27.000Z</time>
      </trkpt>
      <trkpt lat="49.35297" lon="1.4954">
        <ele>120.28686523438</ele>
        <time>2016-07-03T07:26:29.000Z</time>
      </trkpt>
      <trkpt lat="49.35301" lon="1.49531">
        <ele>120.42398834229</ele>
        <time>2016-07-03T07:26:32.000Z</time>
      </trkpt>
      <trkpt lat="49.35304" lon="1.49526">
        <ele>120.59272766113</ele>
        <time>2016-07-03T07:26:34.000Z</time>
      </trkpt>
      <trkpt lat="49.35307" lon="1.49519">
        <ele>120.79335021973</ele>
        <time>2016-07-03T07:26:36.000Z</time>
      </trkpt>
      <trkpt lat="49.3531" lon="1.49508">
        <ele>121.00445556641</ele>
        <time>2016-07-03T07:26:39.000Z</time>
      </trkpt>
      <trkpt lat="49.35314" lon="1.49497">
        <ele>121.27876281738</ele>
        <time>2016-07-03T07:26:42.000Z</time>
      </trkpt>
      <trkpt lat="49.35317" lon="1.49488">
        <ele>121.6117401123</ele>
        <time>2016-07-03T07:26:45.000Z</time>
      </trkpt>
      <trkpt lat="49.3532" lon="1.49476">
        <ele>121.99964904785</ele>
        <time>2016-07-03T07:26:48.000Z</time>
      </trkpt>
      <trkpt lat="49.35323" lon="1.49469">
        <ele>122.40920257568</ele>
        <time>2016-07-03T07:26:50.000Z</time>
      </trkpt>
      <trkpt lat="49.35326" lon="1.49462">
        <ele>122.84355163574</ele>
        <time>2016-07-03T07:26:52.000Z</time>
      </trkpt>
      <trkpt lat="49.35332" lon="1.49453">
        <ele>123.35153961182</ele>
        <time>2016-07-03T07:26:55.000Z</time>
      </trkpt>
      <trkpt lat="49.35338" lon="1.49449">
        <ele>123.82414245605</ele>
        <time>2016-07-03T07:26:58.000Z</time>
      </trkpt>
      <trkpt lat="49.35343" lon="1.49444">
        <ele>124.25764465332</ele>
        <time>2016-07-03T07:27:00.000Z</time>
      </trkpt>
      <trkpt lat="49.35349" lon="1.49432">
        <ele>124.68717956543</ele>
        <time>2016-07-03T07:27:03.000Z</time>
      </trkpt>
      <trkpt lat="49.35351" lon="1.49425">
        <ele>125.07307434082</ele>
        <time>2016-07-03T07:27:05.000Z</time>
      </trkpt>
      <trkpt lat="49.35355" lon="1.49417">
        <ele>125.33322906494</ele>
        <time>2016-07-03T07:27:07.000Z</time>
      </trkpt>
      <trkpt lat="49.3536" lon="1.49409">
        <ele>125.54331207275</ele>
        <time>2016-07-03T07:27:10.000Z</time>
      </trkpt>
      <trkpt lat="49.35368" lon="1.49403">
        <ele>125.72563171387</ele>
        <time>2016-07-03T07:27:13.000Z</time>
      </trkpt>
      <trkpt lat="49.35371" lon="1.49399">
        <ele>125.85135650635</ele>
        <time>2016-07-03T07:27:15.000Z</time>
      </trkpt>
      <trkpt lat="49.35376" lon="1.49394">
        <ele>125.95959472656</ele>
        <time>2016-07-03T07:27:17.000Z</time>
      </trkpt>
      <trkpt lat="49.35383" lon="1.49391">
        <ele>126.065284729</ele>
        <time>2016-07-03T07:27:20.000Z</time>
      </trkpt>
      <trkpt lat="49.35387" lon="1.49392">
        <ele>126.184715271</ele>
        <time>2016-07-03T07:27:22.000Z</time>
      </trkpt>
      <trkpt lat="49.35391" lon="1.49397">
        <ele>126.32250976562</ele>
        <time>2016-07-03T07:27:25.000Z</time>
      </trkpt>
      <trkpt lat="49.35393" lon="1.494">
        <ele>126.4758682251</ele>
        <time>2016-07-03T07:27:27.000Z</time>
      </trkpt>
      <trkpt lat="49.35398" lon="1.49404">
        <ele>126.66024017334</ele>
        <time>2016-07-03T07:27:30.000Z</time>
      </trkpt>
      <trkpt lat="49.354" lon="1.49407">
        <ele>126.84086608887</ele>
        <time>2016-07-03T07:27:32.000Z</time>
      </trkpt>
      <trkpt lat="49.35405" lon="1.4941">
        <ele>127.03411865234</ele>
        <time>2016-07-03T07:27:35.000Z</time>
      </trkpt>
      <trkpt lat="49.35411" lon="1.49414">
        <ele>127.24851989746</ele>
        <time>2016-07-03T07:27:38.000Z</time>
      </trkpt>
      <trkpt lat="49.35416" lon="1.49417">
        <ele>127.48301696777</ele>
        <time>2016-07-03T07:27:41.000Z</time>
      </trkpt>
      <trkpt lat="49.35421" lon="1.49421">
        <ele>127.7209854126</ele>
        <time>2016-07-03T07:27:44.000Z</time>
      </trkpt>
      <trkpt lat="49.35428" lon="1.49426">
        <ele>127.98889160156</ele>
        <time>2016-07-03T07:27:47.000Z</time>
      </trkpt>
      <trkpt lat="49.35433" lon="1.49429">
        <ele>128.25485229492</ele>
        <time>2016-07-03T07:27:49.000Z</time>
      </trkpt>
      <trkpt lat="49.35437" lon="1.49433">
        <ele>128.50115966797</ele>
        <time>2016-07-03T07:27:52.000Z</time>
      </trkpt>
      <trkpt lat="49.35443" lon="1.4944">
        <ele>128.76329040527</ele>
        <time>2016-07-03T07:27:55.000Z</time>
      </trkpt>
      <trkpt lat="49.35448" lon="1.49443">
        <ele>129.02838134766</ele>
        <time>2016-07-03T07:27:57.000Z</time>
      </trkpt>
      <trkpt lat="49.35456" lon="1.49451">
        <ele>129.32450866699</ele>
        <time>2016-07-03T07:28:00.000Z</time>
      </trkpt>
      <trkpt lat="49.3546" lon="1.49453">
        <ele>129.61953735352</ele>
        <time>2016-07-03T07:28:02.000Z</time>
      </trkpt>
      <trkpt lat="49.35466" lon="1.49457">
        <ele>129.92623901367</ele>
        <time>2016-07-03T07:28:05.000Z</time>
      </trkpt>
      <trkpt lat="49.3547" lon="1.49459">
        <ele>130.21522521973</ele>
        <time>2016-07-03T07:28:07.000Z</time>
      </trkpt>
      <trkpt lat="49.35476" lon="1.49462">
        <ele>130.51712036133</ele>
        <time>2016-07-03T07:28:10.000Z</time>
      </trkpt>
      <trkpt lat="49.3548" lon="1.49466">
        <ele>130.78047180176</ele>
        <time>2016-07-03T07:28:12.000Z</time>
      </trkpt>
      <trkpt lat="49.35487" lon="1.49472">
        <ele>131.08615112305</ele>
        <time>2016-07-03T07:28:15.000Z</time>
      </trkpt>
      <trkpt lat="49.35491" lon="1.49478">
        <ele>131.39828491211</ele>
        <time>2016-07-03T07:28:18.000Z</time>
      </trkpt>
      <trkpt lat="49.35494" lon="1.49482">
        <ele>131.70840454102</ele>
        <time>2016-07-03T07:28:20.000Z</time>
      </trkpt>
      <trkpt lat="49.35499" lon="1.49486">
        <ele>132.01837158203</ele>
        <time>2016-07-03T07:28:23.000Z</time>
      </trkpt>
      <trkpt lat="49.35502" lon="1.49489">
        <ele>132.30252075195</ele>
        <time>2016-07-03T07:28:25.000Z</time>
      </trkpt>
      <trkpt lat="49.35508" lon="1.49494">
        <ele>132.54574584961</ele>
        <time>2016-07-03T07:28:28.000Z</time>
      </trkpt>
      <trkpt lat="49.35514" lon="1.49498">
        <ele>132.75302124023</ele>
        <time>2016-07-03T07:28:31.000Z</time>
      </trkpt>
      <trkpt lat="49.35516" lon="1.49503">
        <ele>132.9296875</ele>
        <time>2016-07-03T07:28:34.000Z</time>
      </trkpt>
      <trkpt lat="49.35521" lon="1.4951">
        <ele>133.04956054688</ele>
        <time>2016-07-03T07:28:37.000Z</time>
      </trkpt>
      <trkpt lat="49.35528" lon="1.49514">
        <ele>133.166015625</ele>
        <time>2016-07-03T07:28:40.000Z</time>
      </trkpt>
      <trkpt lat="49.35531" lon="1.49516">
        <ele>133.25126647949</ele>
        <time>2016-07-03T07:28:42.000Z</time>
      </trkpt>
      <trkpt lat="49.35535" lon="1.49521">
        <ele>133.32540893555</ele>
        <time>2016-07-03T07:28:45.000Z</time>
      </trkpt>
      <trkpt lat="49.35538" lon="1.49526">
        <ele>133.40371704102</ele>
        <time>2016-07-03T07:28:47.000Z</time>
      </trkpt>
      <trkpt lat="49.3554" lon="1.49528">
        <ele>133.48547363281</ele>
        <time>2016-07-03T07:28:49.000Z</time>
      </trkpt>
      <trkpt lat="49.35546" lon="1.49534">
        <ele>133.58435058594</ele>
        <time>2016-07-03T07:28:52.000Z</time>
      </trkpt>
      <trkpt lat="49.35553" lon="1.49542">
        <ele>133.71932983398</ele>
        <time>2016-07-03T07:28:55.000Z</time>
      </trkpt>
      <trkpt lat="49.35556" lon="1.49547">
        <ele>133.86897277832</ele>
        <time>2016-07-03T07:28:57.000Z</time>
      </trkpt>
      <trkpt lat="49.35563" lon="1.49552">
        <ele>134.06449890137</ele>
        <time>2016-07-03T07:29:00.000Z</time>
      </trkpt>
      <trkpt lat="49.35568" lon="1.49556">
        <ele>134.29666137695</ele>
        <time>2016-07-03T07:29:02.000Z</time>
      </trkpt>
      <trkpt lat="49.35573" lon="1.4956">
        <ele>134.54293823242</ele>
        <time>2016-07-03T07:29:05.000Z</time>
      </trkpt>
      <trkpt lat="49.35578" lon="1.49566">
        <ele>134.79745483398</ele>
        <time>2016-07-03T07:29:08.000Z</time>
      </trkpt>
      <trkpt lat="49.35582" lon="1.49573">
        <ele>135.0883026123</ele>
        <time>2016-07-03T07:29:11.000Z</time>
      </trkpt>
      <trkpt lat="49.35586" lon="1.49578">
        <ele>135.40992736816</ele>
        <time>2016-07-03T07:29:13.000Z</time>
      </trkpt>
      <trkpt lat="49.35593" lon="1.49584">
        <ele>135.85815429688</ele>
        <time>2016-07-03T07:29:16.000Z</time>
      </trkpt>
      <trkpt lat="49.35598" lon="1.49588">
        <ele>136.41983032227</ele>
        <time>2016-07-03T07:29:19.000Z</time>
      </trkpt>
      <trkpt lat="49.35601" lon="1.4959">
        <ele>137.00590515137</ele>
        <time>2016-07-03T07:29:21.000Z</time>
      </trkpt>
      <trkpt lat="49.35606" lon="1.49595">
        <ele>137.7045135498</ele>
        <time>2016-07-03T07:29:24.000Z</time>
      </trkpt>
      <trkpt lat="49.3561" lon="1.49597">
        <ele>138.41711425781</ele>
        <time>2016-07-03T07:29:26.000Z</time>
      </trkpt>
      <trkpt lat="49.35614" lon="1.49598">
        <ele>139.04016113281</ele>
        <time>2016-07-03T07:29:28.000Z</time>
      </trkpt>
      <trkpt lat="49.3562" lon="1.49594">
        <ele>139.59741210938</ele>
        <time>2016-07-03T07:29:31.000Z</time>
      </trkpt>
      <trkpt lat="49.35627" lon="1.49588">
        <ele>140.13803100586</ele>
        <time>2016-07-03T07:29:34.000Z</time>
      </trkpt>
      <trkpt lat="49.35631" lon="1.49585">
        <ele>140.54299926758</ele>
        <time>2016-07-03T07:29:36.000Z</time>
      </trkpt>
      <trkpt lat="49.35634" lon="1.49582">
        <ele>140.88221740723</ele>
        <time>2016-07-03T07:29:38.000Z</time>
      </trkpt>
      <trkpt lat="49.35637" lon="1.49579">
        <ele>141.17300415039</ele>
        <time>2016-07-03T07:29:40.000Z</time>
      </trkpt>
      <trkpt lat="49.35641" lon="1.49576">
        <ele>141.42378234863</ele>
        <time>2016-07-03T07:29:42.000Z</time>
      </trkpt>
      <trkpt lat="49.35649" lon="1.49569">
        <ele>141.69454956055</ele>
        <time>2016-07-03T07:29:45.000Z</time>
      </trkpt>
      <trkpt lat="49.35655" lon="1.49557">
        <ele>141.91552734375</ele>
        <time>2016-07-03T07:29:48.000Z</time>
      </trkpt>
      <trkpt lat="49.3566" lon="1.49547">
        <ele>142.07914733887</ele>
        <time>2016-07-03T07:29:51.000Z</time>
      </trkpt>
      <trkpt lat="49.35664" lon="1.49538">
        <ele>142.16653442383</ele>
        <time>2016-07-03T07:29:54.000Z</time>
      </trkpt>
      <trkpt lat="49.35667" lon="1.49531">
        <ele>142.15925598145</ele>
        <time>2016-07-03T07:29:56.000Z</time>
      </trkpt>
      <trkpt lat="49.35671" lon="1.49525">
        <ele>142.0858001709</ele>
        <time>2016-07-03T07:29:59.000Z</time>
      </trkpt>
      <trkpt lat="49.35674" lon="1.49521">
        <ele>142.02731323242</ele>
        <time>2016-07-03T07:30:01.000Z</time>
      </trkpt>
      <trkpt lat="49.35677" lon="1.49518">
        <ele>142.01200866699</ele>
        <time>2016-07-03T07:30:03.000Z</time>
      </trkpt>
      <trkpt lat="49.3568" lon="1.4951">
        <ele>142.03726196289</ele>
        <time>2016-07-03T07:30:06.000Z</time>
      </trkpt>
      <trkpt lat="49.35682" lon="1.49507">
        <ele>142.11128234863</ele>
        <time>2016-07-03T07:30:08.000Z</time>
      </trkpt>
      <trkpt lat="49.35686" lon="1.49503">
        <ele>142.21292114258</ele>
        <time>2016-07-03T07:30:11.000Z</time>
      </trkpt>
      <trkpt lat="49.35691" lon="1.49499">
        <ele>142.37672424316</ele>
        <time>2016-07-03T07:30:14.000Z</time>
      </trkpt>
      <trkpt lat="49.35693" lon="1.49497">
        <ele>142.55577087402</ele>
        <time>2016-07-03T07:30:16.000Z</time>
      </trkpt>
      <trkpt lat="49.35696" lon="1.49493">
        <ele>142.76791381836</ele>
        <time>2016-07-03T07:30:19.000Z</time>
      </trkpt>
      <trkpt lat="49.35698" lon="1.4949">
        <ele>142.98403930664</ele>
        <time>2016-07-03T07:30:21.000Z</time>
      </trkpt>
      <trkpt lat="49.35699" lon="1.49487">
        <ele>143.16923522949</ele>
        <time>2016-07-03T07:30:23.000Z</time>
      </trkpt>
      <trkpt lat="49.35703" lon="1.49482">
        <ele>143.32792663574</ele>
        <time>2016-07-03T07:30:26.000Z</time>
      </trkpt>
      <trkpt lat="49.35709" lon="1.49477">
        <ele>143.53717041016</ele>
        <time>2016-07-03T07:30:29.000Z</time>
      </trkpt>
      <trkpt lat="49.35712" lon="1.49473">
        <ele>143.74250793457</ele>
        <time>2016-07-03T07:30:31.000Z</time>
      </trkpt>
      <trkpt lat="49.35715" lon="1.49469">
        <ele>143.97225952148</ele>
        <time>2016-07-03T07:30:34.000Z</time>
      </trkpt>
      <trkpt lat="49.35718" lon="1.49467">
        <ele>144.23170471191</ele>
        <time>2016-07-03T07:30:36.000Z</time>
      </trkpt>
      <trkpt lat="49.35721" lon="1.49461">
        <ele>144.46553039551</ele>
        <time>2016-07-03T07:30:39.000Z</time>
      </trkpt>
      <trkpt lat="49.35725" lon="1.49458">
        <ele>144.67135620117</ele>
        <time>2016-07-03T07:30:41.000Z</time>
      </trkpt>
      <trkpt lat="49.3573" lon="1.49451">
        <ele>144.9111328125</ele>
        <time>2016-07-03T07:30:44.000Z</time>
      </trkpt>
      <trkpt lat="49.35735" lon="1.49442">
        <ele>145.11772155762</ele>
        <time>2016-07-03T07:30:47.000Z</time>
      </trkpt>
      <trkpt lat="49.35737" lon="1.49435">
        <ele>145.27598571777</ele>
        <time>2016-07-03T07:30:49.000Z</time>
      </trkpt>
      <trkpt lat="49.35741" lon="1.49428">
        <ele>145.42733764648</ele>
        <time>2016-07-03T07:30:52.000Z</time>
      </trkpt>
      <trkpt lat="49.35746" lon="1.4942">
        <ele>145.53674316406</ele>
        <time>2016-07-03T07:30:55.000Z</time>
      </trkpt>
      <trkpt lat="49.3575" lon="1.49412">
        <ele>145.58456420898</ele>
        <time>2016-07-03T07:30:58.000Z</time>
      </trkpt>
      <trkpt lat="49.35753" lon="1.49405">
        <ele>145.57528686523</ele>
        <time>2016-07-03T07:31:00.000Z</time>
      </trkpt>
      <trkpt lat="49.35757" lon="1.494">
        <ele>145.55522155762</ele>
        <time>2016-07-03T07:31:02.000Z</time>
      </trkpt>
      <trkpt lat="49.35762" lon="1.4939">
        <ele>145.48049926758</ele>
        <time>2016-07-03T07:31:05.000Z</time>
      </trkpt>
      <trkpt lat="49.35764" lon="1.49383">
        <ele>145.32865905762</ele>
        <time>2016-07-03T07:31:07.000Z</time>
      </trkpt>
      <trkpt lat="49.35767" lon="1.49375">
        <ele>145.14309692383</ele>
        <time>2016-07-03T07:31:09.000Z</time>
      </trkpt>
      <trkpt lat="49.35773" lon="1.49365">
        <ele>144.9815826416</ele>
        <time>2016-07-03T07:31:12.000Z</time>
      </trkpt>
      <trkpt lat="49.35777" lon="1.49359">
        <ele>144.84352111816</ele>
        <time>2016-07-03T07:31:14.000Z</time>
      </trkpt>
      <trkpt lat="49.35781" lon="1.49357">
        <ele>144.81309509277</ele>
        <time>2016-07-03T07:31:16.000Z</time>
      </trkpt>
      <trkpt lat="49.35789" lon="1.49358">
        <ele>144.9701385498</ele>
        <time>2016-07-03T07:31:19.000Z</time>
      </trkpt>
      <trkpt lat="49.35794" lon="1.49355">
        <ele>145.22061157227</ele>
        <time>2016-07-03T07:31:21.000Z</time>
      </trkpt>
      <trkpt lat="49.35799" lon="1.4935">
        <ele>145.54568481445</ele>
        <time>2016-07-03T07:31:24.000Z</time>
      </trkpt>
      <trkpt lat="49.35806" lon="1.49341">
        <ele>145.91944885254</ele>
        <time>2016-07-03T07:31:27.000Z</time>
      </trkpt>
      <trkpt lat="49.35811" lon="1.49332">
        <ele>146.27294921875</ele>
        <time>2016-07-03T07:31:29.000Z</time>
      </trkpt>
      <trkpt lat="49.35821" lon="1.49325">
        <ele>146.53182983398</ele>
        <time>2016-07-03T07:31:32.000Z</time>
      </trkpt>
      <trkpt lat="49.3583" lon="1.49322">
        <ele>146.83921813965</ele>
        <time>2016-07-03T07:31:35.000Z</time>
      </trkpt>
      <trkpt lat="49.35837" lon="1.49321">
        <ele>147.12634277344</ele>
        <time>2016-07-03T07:31:37.000Z</time>
      </trkpt>
      <trkpt lat="49.35846" lon="1.49317">
        <ele>147.26498413086</ele>
        <time>2016-07-03T07:31:40.000Z</time>
      </trkpt>
      <trkpt lat="49.35852" lon="1.49312">
        <ele>147.2607421875</ele>
        <time>2016-07-03T07:31:42.000Z</time>
      </trkpt>
      <trkpt lat="49.35858" lon="1.49305">
        <ele>147.09866333008</ele>
        <time>2016-07-03T07:31:44.000Z</time>
      </trkpt>
      <trkpt lat="49.35867" lon="1.49293">
        <ele>146.60406494141</ele>
        <time>2016-07-03T07:31:47.000Z</time>
      </trkpt>
      <trkpt lat="49.35873" lon="1.49284">
        <ele>145.90188598633</ele>
        <time>2016-07-03T07:31:49.000Z</time>
      </trkpt>
      <trkpt lat="49.35885" lon="1.49269">
        <ele>145.06094360352</ele>
        <time>2016-07-03T07:31:52.000Z</time>
      </trkpt>
      <trkpt lat="49.35896" lon="1.4926">
        <ele>144.18388366699</ele>
        <time>2016-07-03T07:31:54.000Z</time>
      </trkpt>
      <trkpt lat="49.3591" lon="1.49249">
        <ele>143.3013458252</ele>
        <time>2016-07-03T07:31:57.000Z</time>
      </trkpt>
      <trkpt lat="49.35923" lon="1.4924">
        <ele>142.57022094727</ele>
        <time>2016-07-03T07:32:00.000Z</time>
      </trkpt>
      <trkpt lat="49.35938" lon="1.49231">
        <ele>142.03916931152</ele>
        <time>2016-07-03T07:32:03.000Z</time>
      </trkpt>
      <trkpt lat="49.35947" lon="1.49222">
        <ele>141.6820526123</ele>
        <time>2016-07-03T07:32:05.000Z</time>
      </trkpt>
      <trkpt lat="49.35956" lon="1.49214">
        <ele>141.43197631836</ele>
        <time>2016-07-03T07:32:07.000Z</time>
      </trkpt>
      <trkpt lat="49.35966" lon="1.49217">
        <ele>141.51695251465</ele>
        <time>2016-07-03T07:32:09.000Z</time>
      </trkpt>
      <trkpt lat="49.35976" lon="1.49233">
        <ele>142.14726257324</ele>
        <time>2016-07-03T07:32:12.000Z</time>
      </trkpt>
      <trkpt lat="49.35982" lon="1.49243">
        <ele>143.04261779785</ele>
        <time>2016-07-03T07:32:14.000Z</time>
      </trkpt>
      <trkpt lat="49.3599" lon="1.49257">
        <ele>144.25830078125</ele>
        <time>2016-07-03T07:32:17.000Z</time>
      </trkpt>
      <trkpt lat="49.35997" lon="1.4927">
        <ele>145.59773254395</ele>
        <time>2016-07-03T07:32:20.000Z</time>
      </trkpt>
      <trkpt lat="49.36" lon="1.49281">
        <ele>146.77111816406</ele>
        <time>2016-07-03T07:32:22.000Z</time>
      </trkpt>
      <trkpt lat="49.36005" lon="1.49289">
        <ele>147.55671691895</ele>
        <time>2016-07-03T07:32:24.000Z</time>
      </trkpt>
      <trkpt lat="49.36011" lon="1.49301">
        <ele>148.19192504883</ele>
        <time>2016-07-03T07:32:27.000Z</time>
      </trkpt>
      <trkpt lat="49.36016" lon="1.49309">
        <ele>148.6589050293</ele>
        <time>2016-07-03T07:32:29.000Z</time>
      </trkpt>
      <trkpt lat="49.36023" lon="1.4932">
        <ele>149.177734375</ele>
        <time>2016-07-03T07:32:32.000Z</time>
      </trkpt>
      <trkpt lat="49.36027" lon="1.49327">
        <ele>149.740234375</ele>
        <time>2016-07-03T07:32:34.000Z</time>
      </trkpt>
      <trkpt lat="49.36031" lon="1.49334">
        <ele>150.31782531738</ele>
        <time>2016-07-03T07:32:36.000Z</time>
      </trkpt>
      <trkpt lat="49.36037" lon="1.49345">
        <ele>150.94613647461</ele>
        <time>2016-07-03T07:32:39.000Z</time>
      </trkpt>
      <trkpt lat="49.36043" lon="1.49356">
        <ele>151.64428710938</ele>
        <time>2016-07-03T07:32:42.000Z</time>
      </trkpt>
      <trkpt lat="49.36047" lon="1.49362">
        <ele>152.28958129883</ele>
        <time>2016-07-03T07:32:44.000Z</time>
      </trkpt>
      <trkpt lat="49.36053" lon="1.49371">
        <ele>152.96220397949</ele>
        <time>2016-07-03T07:32:47.000Z</time>
      </trkpt>
      <trkpt lat="49.36058" lon="1.4938">
        <ele>153.62335205078</ele>
        <time>2016-07-03T07:32:50.000Z</time>
      </trkpt>
      <trkpt lat="49.36061" lon="1.49386">
        <ele>154.15074157715</ele>
        <time>2016-07-03T07:32:52.000Z</time>
      </trkpt>
      <trkpt lat="49.36066" lon="1.49394">
        <ele>154.57783508301</ele>
        <time>2016-07-03T07:32:55.000Z</time>
      </trkpt>
      <trkpt lat="49.36071" lon="1.49403">
        <ele>154.96411132812</ele>
        <time>2016-07-03T07:32:58.000Z</time>
      </trkpt>
      <trkpt lat="49.36076" lon="1.49411">
        <ele>155.27182006836</ele>
        <time>2016-07-03T07:33:01.000Z</time>
      </trkpt>
      <trkpt lat="49.36081" lon="1.49421">
        <ele>155.54525756836</ele>
        <time>2016-07-03T07:33:04.000Z</time>
      </trkpt>
      <trkpt lat="49.36087" lon="1.4943">
        <ele>155.91262817383</ele>
        <time>2016-07-03T07:33:07.000Z</time>
      </trkpt>
      <trkpt lat="49.3609" lon="1.49435">
        <ele>156.31661987305</ele>
        <time>2016-07-03T07:33:09.000Z</time>
      </trkpt>
      <trkpt lat="49.36095" lon="1.49445">
        <ele>156.81282043457</ele>
        <time>2016-07-03T07:33:12.000Z</time>
      </trkpt>
      <trkpt lat="49.361" lon="1.49454">
        <ele>157.40983581543</ele>
        <time>2016-07-03T07:33:15.000Z</time>
      </trkpt>
      <trkpt lat="49.36103" lon="1.4946">
        <ele>158.03016662598</ele>
        <time>2016-07-03T07:33:17.000Z</time>
      </trkpt>
      <trkpt lat="49.36104" lon="1.49468">
        <ele>158.56605529785</ele>
        <time>2016-07-03T07:33:19.000Z</time>
      </trkpt>
      <trkpt lat="49.36091" lon="1.49482">
        <ele>158.87411499023</ele>
        <time>2016-07-03T07:33:22.000Z</time>
      </trkpt>
      <trkpt lat="49.36084" lon="1.49491">
        <ele>159.00997924805</ele>
        <time>2016-07-03T07:33:24.000Z</time>
      </trkpt>
      <trkpt lat="49.36079" lon="1.495">
        <ele>159.00210571289</ele>
        <time>2016-07-03T07:33:26.000Z</time>
      </trkpt>
      <trkpt lat="49.36073" lon="1.49506">
        <ele>158.8796081543</ele>
        <time>2016-07-03T07:33:29.000Z</time>
      </trkpt>
      <trkpt lat="49.36071" lon="1.49511">
        <ele>158.6898651123</ele>
        <time>2016-07-03T07:33:31.000Z</time>
      </trkpt>
      <trkpt lat="49.36068" lon="1.49517">
        <ele>158.63159179688</ele>
        <time>2016-07-03T07:33:33.000Z</time>
      </trkpt>
      <trkpt lat="49.36064" lon="1.49522">
        <ele>158.58206176758</ele>
        <time>2016-07-03T07:33:36.000Z</time>
      </trkpt>
      <trkpt lat="49.36061" lon="1.49525">
        <ele>158.52597045898</ele>
        <time>2016-07-03T07:33:38.000Z</time>
      </trkpt>
      <trkpt lat="49.36056" lon="1.49531">
        <ele>158.49031066895</ele>
        <time>2016-07-03T07:33:41.000Z</time>
      </trkpt>
      <trkpt lat="49.36052" lon="1.49537">
        <ele>158.4497833252</ele>
        <time>2016-07-03T07:33:44.000Z</time>
      </trkpt>
      <trkpt lat="49.36047" lon="1.49545">
        <ele>158.41340637207</ele>
        <time>2016-07-03T07:33:47.000Z</time>
      </trkpt>
      <trkpt lat="49.36044" lon="1.49551">
        <ele>158.40237426758</ele>
        <time>2016-07-03T07:33:49.000Z</time>
      </trkpt>
      <trkpt lat="49.36041" lon="1.49557">
        <ele>158.41995239258</ele>
        <time>2016-07-03T07:33:51.000Z</time>
      </trkpt>
      <trkpt lat="49.36036" lon="1.49567">
        <ele>158.47846984863</ele>
        <time>2016-07-03T07:33:54.000Z</time>
      </trkpt>
      <trkpt lat="49.36031" lon="1.49576">
        <ele>158.5732421875</ele>
        <time>2016-07-03T07:33:57.000Z</time>
      </trkpt>
      <trkpt lat="49.36025" lon="1.49586">
        <ele>158.70352172852</ele>
        <time>2016-07-03T07:34:00.000Z</time>
      </trkpt>
      <trkpt lat="49.36021" lon="1.49592">
        <ele>158.85432434082</ele>
        <time>2016-07-03T07:34:02.000Z</time>
      </trkpt>
      <trkpt lat="49.36015" lon="1.49602">
        <ele>159.05229187012</ele>
        <time>2016-07-03T07:34:05.000Z</time>
      </trkpt>
      <trkpt lat="49.36008" lon="1.49613">
        <ele>159.30784606934</ele>
        <time>2016-07-03T07:34:08.000Z</time>
      </trkpt>
      <trkpt lat="49.36003" lon="1.4962">
        <ele>159.59585571289</ele>
        <time>2016-07-03T07:34:10.000Z</time>
      </trkpt>
      <trkpt lat="49.35999" lon="1.49627">
        <ele>159.88256835938</ele>
        <time>2016-07-03T07:34:12.000Z</time>
      </trkpt>
      <trkpt lat="49.35993" lon="1.49638">
        <ele>160.1706237793</ele>
        <time>2016-07-03T07:34:15.000Z</time>
      </trkpt>
      <trkpt lat="49.35986" lon="1.4965">
        <ele>160.40829467773</ele>
        <time>2016-07-03T07:34:18.000Z</time>
      </trkpt>
      <trkpt lat="49.35981" lon="1.49657">
        <ele>160.55508422852</ele>
        <time>2016-07-03T07:34:20.000Z</time>
      </trkpt>
      <trkpt lat="49.35974" lon="1.49668">
        <ele>160.59707641602</ele>
        <time>2016-07-03T07:34:23.000Z</time>
      </trkpt>
      <trkpt lat="49.35968" lon="1.49675">
        <ele>160.4814453125</ele>
        <time>2016-07-03T07:34:25.000Z</time>
      </trkpt>
      <trkpt lat="49.35962" lon="1.49684">
        <ele>160.22518920898</ele>
        <time>2016-07-03T07:34:27.000Z</time>
      </trkpt>
      <trkpt lat="49.35955" lon="1.49696">
        <ele>159.82530212402</ele>
        <time>2016-07-03T07:34:29.000Z</time>
      </trkpt>
      <trkpt lat="49.35945" lon="1.4971">
        <ele>159.27133178711</ele>
        <time>2016-07-03T07:34:32.000Z</time>
      </trkpt>
      <trkpt lat="49.35939" lon="1.49721">
        <ele>158.6685333252</ele>
        <time>2016-07-03T07:34:34.000Z</time>
      </trkpt>
      <trkpt lat="49.35928" lon="1.49737">
        <ele>158.03581237793</ele>
        <time>2016-07-03T07:34:37.000Z</time>
      </trkpt>
      <trkpt lat="49.35919" lon="1.49754">
        <ele>157.40296936035</ele>
        <time>2016-07-03T07:34:40.000Z</time>
      </trkpt>
      <trkpt lat="49.35912" lon="1.49765">
        <ele>156.83218383789</ele>
        <time>2016-07-03T07:34:42.000Z</time>
      </trkpt>
      <trkpt lat="49.359" lon="1.49784">
        <ele>156.3537902832</ele>
        <time>2016-07-03T07:34:45.000Z</time>
      </trkpt>
      <trkpt lat="49.35888" lon="1.49801">
        <ele>155.94172668457</ele>
        <time>2016-07-03T07:34:48.000Z</time>
      </trkpt>
      <trkpt lat="49.35877" lon="1.49817">
        <ele>155.68913269043</ele>
        <time>2016-07-03T07:34:51.000Z</time>
      </trkpt>
      <trkpt lat="49.35865" lon="1.49835">
        <ele>155.60652160645</ele>
        <time>2016-07-03T07:34:54.000Z</time>
      </trkpt>
      <trkpt lat="49.35858" lon="1.49847">
        <ele>155.58901977539</ele>
        <time>2016-07-03T07:34:56.000Z</time>
      </trkpt>
      <trkpt lat="49.35847" lon="1.49866">
        <ele>155.6703338623</ele>
        <time>2016-07-03T07:34:59.000Z</time>
      </trkpt>
      <trkpt lat="49.3584" lon="1.49878">
        <ele>155.81005859375</ele>
        <time>2016-07-03T07:35:01.000Z</time>
      </trkpt>
      <trkpt lat="49.35832" lon="1.49894">
        <ele>155.9977722168</ele>
        <time>2016-07-03T07:35:04.000Z</time>
      </trkpt>
      <trkpt lat="49.35834" lon="1.49903">
        <ele>156.17210388184</ele>
        <time>2016-07-03T07:35:06.000Z</time>
      </trkpt>
      <trkpt lat="49.3584" lon="1.4991">
        <ele>156.3762512207</ele>
        <time>2016-07-03T07:35:09.000Z</time>
      </trkpt>
      <trkpt lat="49.35844" lon="1.49917">
        <ele>156.56608581543</ele>
        <time>2016-07-03T07:35:12.000Z</time>
      </trkpt>
      <trkpt lat="49.35848" lon="1.49923">
        <ele>156.70259094238</ele>
        <time>2016-07-03T07:35:14.000Z</time>
      </trkpt>
      <trkpt lat="49.35852" lon="1.49929">
        <ele>156.75796508789</ele>
        <time>2016-07-03T07:35:16.000Z</time>
      </trkpt>
      <trkpt lat="49.35859" lon="1.49939">
        <ele>156.74444580078</ele>
        <time>2016-07-03T07:35:19.000Z</time>
      </trkpt>
      <trkpt lat="49.35863" lon="1.49945">
        <ele>156.69613647461</ele>
        <time>2016-07-03T07:35:21.000Z</time>
      </trkpt>
      <trkpt lat="49.35867" lon="1.49951">
        <ele>156.6255645752</ele>
        <time>2016-07-03T07:35:23.000Z</time>
      </trkpt>
      <trkpt lat="49.3587" lon="1.49956">
        <ele>156.57041931152</ele>
        <time>2016-07-03T07:35:25.000Z</time>
      </trkpt>
      <trkpt lat="49.35876" lon="1.49966">
        <ele>156.53146362305</ele>
        <time>2016-07-03T07:35:28.000Z</time>
      </trkpt>
      <trkpt lat="49.3588" lon="1.49972">
        <ele>156.5171661377</ele>
        <time>2016-07-03T07:35:30.000Z</time>
      </trkpt>
      <trkpt lat="49.35885" lon="1.49981">
        <ele>156.52088928223</ele>
        <time>2016-07-03T07:35:33.000Z</time>
      </trkpt>
      <trkpt lat="49.35889" lon="1.49986">
        <ele>156.53939819336</ele>
        <time>2016-07-03T07:35:35.000Z</time>
      </trkpt>
      <trkpt lat="49.35894" lon="1.49995">
        <ele>156.57958984375</ele>
        <time>2016-07-03T07:35:38.000Z</time>
      </trkpt>
      <trkpt lat="49.359" lon="1.50004">
        <ele>156.71640014648</ele>
        <time>2016-07-03T07:35:41.000Z</time>
      </trkpt>
      <trkpt lat="49.35905" lon="1.50012">
        <ele>157.05532836914</ele>
        <time>2016-07-03T07:35:44.000Z</time>
      </trkpt>
      <trkpt lat="49.35911" lon="1.50021">
        <ele>157.6102142334</ele>
        <time>2016-07-03T07:35:47.000Z</time>
      </trkpt>
      <trkpt lat="49.35916" lon="1.50029">
        <ele>158.37661743164</ele>
        <time>2016-07-03T07:35:50.000Z</time>
      </trkpt>
      <trkpt lat="49.35921" lon="1.50038">
        <ele>159.37258911133</ele>
        <time>2016-07-03T07:35:53.000Z</time>
      </trkpt>
      <trkpt lat="49.35925" lon="1.50044">
        <ele>160.43031311035</ele>
        <time>2016-07-03T07:35:55.000Z</time>
      </trkpt>
      <trkpt lat="49.3593" lon="1.50053">
        <ele>161.51718139648</ele>
        <time>2016-07-03T07:35:58.000Z</time>
      </trkpt>
      <trkpt lat="49.35934" lon="1.50059">
        <ele>162.51007080078</ele>
        <time>2016-07-03T07:36:00.000Z</time>
      </trkpt>
      <trkpt lat="49.35938" lon="1.50068">
        <ele>163.46385192871</ele>
        <time>2016-07-03T07:36:03.000Z</time>
      </trkpt>
      <trkpt lat="49.35941" lon="1.50073">
        <ele>164.27737426758</ele>
        <time>2016-07-03T07:36:05.000Z</time>
      </trkpt>
      <trkpt lat="49.35945" lon="1.50082">
        <ele>165.09872436523</ele>
        <time>2016-07-03T07:36:08.000Z</time>
      </trkpt>
      <trkpt lat="49.35949" lon="1.50091">
        <ele>165.79647827148</ele>
        <time>2016-07-03T07:36:11.000Z</time>
      </trkpt>
      <trkpt lat="49.35953" lon="1.50097">
        <ele>166.4264831543</ele>
        <time>2016-07-03T07:36:13.000Z</time>
      </trkpt>
      <trkpt lat="49.35959" lon="1.50106">
        <ele>166.98184204102</ele>
        <time>2016-07-03T07:36:16.000Z</time>
      </trkpt>
      <trkpt lat="49.35966" lon="1.50114">
        <ele>167.52011108398</ele>
        <time>2016-07-03T07:36:19.000Z</time>
      </trkpt>
      <trkpt lat="49.35971" lon="1.50121">
        <ele>167.98739624023</ele>
        <time>2016-07-03T07:36:22.000Z</time>
      </trkpt>
      <trkpt lat="49.35976" lon="1.50129">
        <ele>168.43676757812</ele>
        <time>2016-07-03T07:36:25.000Z</time>
      </trkpt>
      <trkpt lat="49.3598" lon="1.50134">
        <ele>168.89678955078</ele>
        <time>2016-07-03T07:36:28.000Z</time>
      </trkpt>
      <trkpt lat="49.35983" lon="1.50139">
        <ele>169.31155395508</ele>
        <time>2016-07-03T07:36:30.000Z</time>
      </trkpt>
      <trkpt lat="49.35989" lon="1.50147">
        <ele>169.74290466309</ele>
        <time>2016-07-03T07:36:33.000Z</time>
      </trkpt>
      <trkpt lat="49.35994" lon="1.50154">
        <ele>170.17739868164</ele>
        <time>2016-07-03T07:36:36.000Z</time>
      </trkpt>
      <trkpt lat="49.36" lon="1.50161">
        <ele>170.6202545166</ele>
        <time>2016-07-03T07:36:39.000Z</time>
      </trkpt>
      <trkpt lat="49.36006" lon="1.50168">
        <ele>171.09573364258</ele>
        <time>2016-07-03T07:36:42.000Z</time>
      </trkpt>
      <trkpt lat="49.3601" lon="1.50173">
        <ele>171.55485534668</ele>
        <time>2016-07-03T07:36:44.000Z</time>
      </trkpt>
      <trkpt lat="49.36015" lon="1.50178">
        <ele>171.95104980469</ele>
        <time>2016-07-03T07:36:46.000Z</time>
      </trkpt>
      <trkpt lat="49.36023" lon="1.5018">
        <ele>172.27844238281</ele>
        <time>2016-07-03T07:36:49.000Z</time>
      </trkpt>
      <trkpt lat="49.3603" lon="1.50178">
        <ele>172.50082397461</ele>
        <time>2016-07-03T07:36:52.000Z</time>
      </trkpt>
      <trkpt lat="49.36037" lon="1.50174">
        <ele>172.6103515625</ele>
        <time>2016-07-03T07:36:55.000Z</time>
      </trkpt>
      <trkpt lat="49.36043" lon="1.50168">
        <ele>172.65022277832</ele>
        <time>2016-07-03T07:36:58.000Z</time>
      </trkpt>
      <trkpt lat="49.36047" lon="1.5016">
        <ele>172.55570983887</ele>
        <time>2016-07-03T07:37:00.000Z</time>
      </trkpt>
      <trkpt lat="49.36053" lon="1.50153">
        <ele>172.34033203125</ele>
        <time>2016-07-03T07:37:03.000Z</time>
      </trkpt>
      <trkpt lat="49.3606" lon="1.50141">
        <ele>171.9799041748</ele>
        <time>2016-07-03T07:37:06.000Z</time>
      </trkpt>
      <trkpt lat="49.36065" lon="1.50133">
        <ele>171.51741027832</ele>
        <time>2016-07-03T07:37:08.000Z</time>
      </trkpt>
      <trkpt lat="49.36073" lon="1.50121">
        <ele>170.91845703125</ele>
        <time>2016-07-03T07:37:11.000Z</time>
      </trkpt>
      <trkpt lat="49.36081" lon="1.50112">
        <ele>170.30865478516</ele>
        <time>2016-07-03T07:37:14.000Z</time>
      </trkpt>
      <trkpt lat="49.36086" lon="1.50106">
        <ele>169.73991394043</ele>
        <time>2016-07-03T07:37:16.000Z</time>
      </trkpt>
      <trkpt lat="49.36094" lon="1.50096">
        <ele>169.30276489258</ele>
        <time>2016-07-03T07:37:19.000Z</time>
      </trkpt>
      <trkpt lat="49.36099" lon="1.50088">
        <ele>168.95381164551</ele>
        <time>2016-07-03T07:37:21.000Z</time>
      </trkpt>
      <trkpt lat="49.36104" lon="1.50079">
        <ele>168.7502746582</ele>
        <time>2016-07-03T07:37:23.000Z</time>
      </trkpt>
      <trkpt lat="49.36108" lon="1.50072">
        <ele>168.64817810059</ele>
        <time>2016-07-03T07:37:25.000Z</time>
      </trkpt>
      <trkpt lat="49.36115" lon="1.50059">
        <ele>168.60559082031</ele>
        <time>2016-07-03T07:37:28.000Z</time>
      </trkpt>
      <trkpt lat="49.3612" lon="1.50051">
        <ele>168.59826660156</ele>
        <time>2016-07-03T07:37:30.000Z</time>
      </trkpt>
      <trkpt lat="49.36127" lon="1.50041">
        <ele>168.65530395508</ele>
        <time>2016-07-03T07:37:33.000Z</time>
      </trkpt>
      <trkpt lat="49.36132" lon="1.50032">
        <ele>168.74856567383</ele>
        <time>2016-07-03T07:37:35.000Z</time>
      </trkpt>
      <trkpt lat="49.36139" lon="1.50021">
        <ele>168.86904907227</ele>
        <time>2016-07-03T07:37:37.000Z</time>
      </trkpt>
      <trkpt lat="49.36151" lon="1.49996">
        <ele>169.00825500488</ele>
        <time>2016-07-03T07:37:40.000Z</time>
      </trkpt>
      <trkpt lat="49.36157" lon="1.49984">
        <ele>169.1247253418</ele>
        <time>2016-07-03T07:37:42.000Z</time>
      </trkpt>
      <trkpt lat="49.36168" lon="1.49969">
        <ele>169.18774414062</ele>
        <time>2016-07-03T07:37:45.000Z</time>
      </trkpt>
      <trkpt lat="49.36176" lon="1.49956">
        <ele>169.15925598145</ele>
        <time>2016-07-03T07:37:47.000Z</time>
      </trkpt>
      <trkpt lat="49.36185" lon="1.49947">
        <ele>169.11637878418</ele>
        <time>2016-07-03T07:37:50.000Z</time>
      </trkpt>
      <trkpt lat="49.36193" lon="1.49935">
        <ele>169.02212524414</ele>
        <time>2016-07-03T07:37:52.000Z</time>
      </trkpt>
      <trkpt lat="49.36201" lon="1.49914">
        <ele>168.83699035645</ele>
        <time>2016-07-03T07:37:55.000Z</time>
      </trkpt>
      <trkpt lat="49.36211" lon="1.49899">
        <ele>168.64486694336</ele>
        <time>2016-07-03T07:37:58.000Z</time>
      </trkpt>
      <trkpt lat="49.36217" lon="1.49892">
        <ele>168.53633117676</ele>
        <time>2016-07-03T07:38:00.000Z</time>
      </trkpt>
      <trkpt lat="49.36224" lon="1.49883">
        <ele>168.41903686523</ele>
        <time>2016-07-03T07:38:02.000Z</time>
      </trkpt>
      <trkpt lat="49.3623" lon="1.49871">
        <ele>168.30776977539</ele>
        <time>2016-07-03T07:38:05.000Z</time>
      </trkpt>
      <trkpt lat="49.36234" lon="1.49867">
        <ele>168.30368041992</ele>
        <time>2016-07-03T07:38:08.000Z</time>
      </trkpt>
      <trkpt lat="49.36235" lon="1.49864">
        <ele>168.31062316895</ele>
        <time>2016-07-03T07:38:10.000Z</time>
      </trkpt>
      <trkpt lat="49.36236" lon="1.49863">
        <ele>168.30271911621</ele>
        <time>2016-07-03T07:38:13.000Z</time>
      </trkpt>
      <trkpt lat="49.36237" lon="1.49861">
        <ele>168.28800964355</ele>
        <time>2016-07-03T07:38:16.000Z</time>
      </trkpt>
      <trkpt lat="49.36238" lon="1.49861">
        <ele>168.30178833008</ele>
        <time>2016-07-03T07:38:19.000Z</time>
      </trkpt>
      <trkpt lat="49.36239" lon="1.4986">
        <ele>168.32023620605</ele>
        <time>2016-07-03T07:38:22.000Z</time>
      </trkpt>
      <trkpt lat="49.3624" lon="1.49859">
        <ele>168.34393310547</ele>
        <time>2016-07-03T07:38:24.000Z</time>
      </trkpt>
      <trkpt lat="49.36242" lon="1.49856">
        <ele>168.37605285645</ele>
        <time>2016-07-03T07:38:27.000Z</time>
      </trkpt>
      <trkpt lat="49.36244" lon="1.49853">
        <ele>168.41549682617</ele>
        <time>2016-07-03T07:38:30.000Z</time>
      </trkpt>
      <trkpt lat="49.36246" lon="1.4985">
        <ele>168.44438171387</ele>
        <time>2016-07-03T07:38:33.000Z</time>
      </trkpt>
      <trkpt lat="49.36248" lon="1.49848">
        <ele>168.46919250488</ele>
        <time>2016-07-03T07:38:35.000Z</time>
      </trkpt>
      <trkpt lat="49.36249" lon="1.49846">
        <ele>168.49273681641</ele>
        <time>2016-07-03T07:38:38.000Z</time>
      </trkpt>
      <trkpt lat="49.36252" lon="1.4984">
        <ele>168.49716186523</ele>
        <time>2016-07-03T07:38:41.000Z</time>
      </trkpt>
      <trkpt lat="49.36256" lon="1.49836">
        <ele>168.52255249023</ele>
        <time>2016-07-03T07:38:44.000Z</time>
      </trkpt>
      <trkpt lat="49.36261" lon="1.49829">
        <ele>168.59606933594</ele>
        <time>2016-07-03T07:38:47.000Z</time>
      </trkpt>
      <trkpt lat="49.36266" lon="1.49824">
        <ele>168.70413208008</ele>
        <time>2016-07-03T07:38:49.000Z</time>
      </trkpt>
      <trkpt lat="49.36272" lon="1.49816">
        <ele>168.87687683105</ele>
        <time>2016-07-03T07:38:52.000Z</time>
      </trkpt>
      <trkpt lat="49.36275" lon="1.4981">
        <ele>169.08932495117</ele>
        <time>2016-07-03T07:38:54.000Z</time>
      </trkpt>
      <trkpt lat="49.36278" lon="1.49804">
        <ele>169.29211425781</ele>
        <time>2016-07-03T07:38:56.000Z</time>
      </trkpt>
      <trkpt lat="49.36282" lon="1.49801">
        <ele>169.51580810547</ele>
        <time>2016-07-03T07:38:59.000Z</time>
      </trkpt>
      <trkpt lat="49.36287" lon="1.498">
        <ele>169.76721191406</ele>
        <time>2016-07-03T07:39:01.000Z</time>
      </trkpt>
      <trkpt lat="49.36292" lon="1.49795">
        <ele>170.01678466797</ele>
        <time>2016-07-03T07:39:03.000Z</time>
      </trkpt>
      <trkpt lat="49.36298" lon="1.49794">
        <ele>170.3271484375</ele>
        <time>2016-07-03T07:39:06.000Z</time>
      </trkpt>
      <trkpt lat="49.36301" lon="1.49799">
        <ele>170.693359375</ele>
        <time>2016-07-03T07:39:08.000Z</time>
      </trkpt>
      <trkpt lat="49.36306" lon="1.49808">
        <ele>171.12213134766</ele>
        <time>2016-07-03T07:39:11.000Z</time>
      </trkpt>
      <trkpt lat="49.36311" lon="1.49818">
        <ele>171.61389160156</ele>
        <time>2016-07-03T07:39:14.000Z</time>
      </trkpt>
      <trkpt lat="49.36317" lon="1.49827">
        <ele>172.18145751953</ele>
        <time>2016-07-03T07:39:17.000Z</time>
      </trkpt>
      <trkpt lat="49.3632" lon="1.49832">
        <ele>172.74145507812</ele>
        <time>2016-07-03T07:39:19.000Z</time>
      </trkpt>
      <trkpt lat="49.36324" lon="1.49837">
        <ele>173.30310058594</ele>
        <time>2016-07-03T07:39:21.000Z</time>
      </trkpt>
      <trkpt lat="49.36328" lon="1.49846">
        <ele>173.83056640625</ele>
        <time>2016-07-03T07:39:24.000Z</time>
      </trkpt>
      <trkpt lat="49.36332" lon="1.49852">
        <ele>174.29322814941</ele>
        <time>2016-07-03T07:39:26.000Z</time>
      </trkpt>
      <trkpt lat="49.36335" lon="1.49858">
        <ele>174.67922973633</ele>
        <time>2016-07-03T07:39:28.000Z</time>
      </trkpt>
      <trkpt lat="49.36341" lon="1.49867">
        <ele>175.08186340332</ele>
        <time>2016-07-03T07:39:31.000Z</time>
      </trkpt>
      <trkpt lat="49.36346" lon="1.49876">
        <ele>175.49523925781</ele>
        <time>2016-07-03T07:39:34.000Z</time>
      </trkpt>
      <trkpt lat="49.36349" lon="1.49883">
        <ele>175.87265014648</ele>
        <time>2016-07-03T07:39:36.000Z</time>
      </trkpt>
      <trkpt lat="49.36356" lon="1.49892">
        <ele>176.27795410156</ele>
        <time>2016-07-03T07:39:39.000Z</time>
      </trkpt>
      <trkpt lat="49.3636" lon="1.49898">
        <ele>176.68815612793</ele>
        <time>2016-07-03T07:39:41.000Z</time>
      </trkpt>
      <trkpt lat="49.36366" lon="1.49907">
        <ele>177.08187866211</ele>
        <time>2016-07-03T07:39:44.000Z</time>
      </trkpt>
      <trkpt lat="49.36369" lon="1.49915">
        <ele>177.43591308594</ele>
        <time>2016-07-03T07:39:46.000Z</time>
      </trkpt>
      <trkpt lat="49.36372" lon="1.49922">
        <ele>177.75842285156</ele>
        <time>2016-07-03T07:39:48.000Z</time>
      </trkpt>
      <trkpt lat="49.36377" lon="1.49931">
        <ele>178.00289916992</ele>
        <time>2016-07-03T07:39:51.000Z</time>
      </trkpt>
      <trkpt lat="49.36383" lon="1.4994">
        <ele>178.20315551758</ele>
        <time>2016-07-03T07:39:54.000Z</time>
      </trkpt>
      <trkpt lat="49.36389" lon="1.4995">
        <ele>178.33735656738</ele>
        <time>2016-07-03T07:39:57.000Z</time>
      </trkpt>
      <trkpt lat="49.36395" lon="1.4996">
        <ele>178.42346191406</ele>
        <time>2016-07-03T07:40:00.000Z</time>
      </trkpt>
      <trkpt lat="49.36398" lon="1.49966">
        <ele>178.4757232666</ele>
        <time>2016-07-03T07:40:02.000Z</time>
      </trkpt>
      <trkpt lat="49.36401" lon="1.49973">
        <ele>178.49029541016</ele>
        <time>2016-07-03T07:40:04.000Z</time>
      </trkpt>
      <trkpt lat="49.36407" lon="1.49983">
        <ele>178.46069335938</ele>
        <time>2016-07-03T07:40:07.000Z</time>
      </trkpt>
      <trkpt lat="49.36413" lon="1.49993">
        <ele>178.38842773438</ele>
        <time>2016-07-03T07:40:10.000Z</time>
      </trkpt>
      <trkpt lat="49.36417" lon="1.49999">
        <ele>178.29740905762</ele>
        <time>2016-07-03T07:40:12.000Z</time>
      </trkpt>
      <trkpt lat="49.36423" lon="1.50009">
        <ele>178.24630737305</ele>
        <time>2016-07-03T07:40:15.000Z</time>
      </trkpt>
      <trkpt lat="49.36429" lon="1.50019">
        <ele>178.26284790039</ele>
        <time>2016-07-03T07:40:18.000Z</time>
      </trkpt>
      <trkpt lat="49.36436" lon="1.50029">
        <ele>178.35748291016</ele>
        <time>2016-07-03T07:40:21.000Z</time>
      </trkpt>
      <trkpt lat="49.36443" lon="1.50039">
        <ele>178.53742980957</ele>
        <time>2016-07-03T07:40:24.000Z</time>
      </trkpt>
      <trkpt lat="49.36446" lon="1.50046">
        <ele>178.77326965332</ele>
        <time>2016-07-03T07:40:26.000Z</time>
      </trkpt>
      <trkpt lat="49.36451" lon="1.50056">
        <ele>179.00703430176</ele>
        <time>2016-07-03T07:40:29.000Z</time>
      </trkpt>
      <trkpt lat="49.36456" lon="1.50064">
        <ele>179.22082519531</ele>
        <time>2016-07-03T07:40:32.000Z</time>
      </trkpt>
      <trkpt lat="49.3646" lon="1.50071">
        <ele>179.41342163086</ele>
        <time>2016-07-03T07:40:34.000Z</time>
      </trkpt>
      <trkpt lat="49.36466" lon="1.50079">
        <ele>179.59710693359</ele>
        <time>2016-07-03T07:40:37.000Z</time>
      </trkpt>
      <trkpt lat="49.36469" lon="1.50084">
        <ele>179.78569030762</ele>
        <time>2016-07-03T07:40:39.000Z</time>
      </trkpt>
      <trkpt lat="49.36475" lon="1.50096">
        <ele>180.05587768555</ele>
        <time>2016-07-03T07:40:42.000Z</time>
      </trkpt>
      <trkpt lat="49.3648" lon="1.50105">
        <ele>180.38613891602</ele>
        <time>2016-07-03T07:40:45.000Z</time>
      </trkpt>
      <trkpt lat="49.36486" lon="1.50116">
        <ele>180.78132629395</ele>
        <time>2016-07-03T07:40:48.000Z</time>
      </trkpt>
      <trkpt lat="49.36489" lon="1.50125">
        <ele>181.19607543945</ele>
        <time>2016-07-03T07:40:51.000Z</time>
      </trkpt>
      <trkpt lat="49.36492" lon="1.50132">
        <ele>181.6134185791</ele>
        <time>2016-07-03T07:40:53.000Z</time>
      </trkpt>
      <trkpt lat="49.36497" lon="1.50144">
        <ele>181.98114013672</ele>
        <time>2016-07-03T07:40:56.000Z</time>
      </trkpt>
      <trkpt lat="49.36504" lon="1.50156">
        <ele>182.35343933105</ele>
        <time>2016-07-03T07:40:59.000Z</time>
      </trkpt>
      <trkpt lat="49.36509" lon="1.50163">
        <ele>182.7017364502</ele>
        <time>2016-07-03T07:41:01.000Z</time>
      </trkpt>
      <trkpt lat="49.36514" lon="1.50173">
        <ele>183.07829284668</ele>
        <time>2016-07-03T07:41:04.000Z</time>
      </trkpt>
      <trkpt lat="49.36516" lon="1.50181">
        <ele>183.46589660645</ele>
        <time>2016-07-03T07:41:06.000Z</time>
      </trkpt>
      <trkpt lat="49.36521" lon="1.50195">
        <ele>183.8967590332</ele>
        <time>2016-07-03T07:41:09.000Z</time>
      </trkpt>
      <trkpt lat="49.36528" lon="1.50207">
        <ele>184.34260559082</ele>
        <time>2016-07-03T07:41:12.000Z</time>
      </trkpt>
      <trkpt lat="49.36533" lon="1.50215">
        <ele>184.78215026855</ele>
        <time>2016-07-03T07:41:14.000Z</time>
      </trkpt>
      <trkpt lat="49.3654" lon="1.50227">
        <ele>185.22424316406</ele>
        <time>2016-07-03T07:41:17.000Z</time>
      </trkpt>
      <trkpt lat="49.36547" lon="1.50238">
        <ele>185.6930847168</ele>
        <time>2016-07-03T07:41:20.000Z</time>
      </trkpt>
      <trkpt lat="49.36552" lon="1.50249">
        <ele>186.11608886719</ele>
        <time>2016-07-03T07:41:23.000Z</time>
      </trkpt>
      <trkpt lat="49.36559" lon="1.50261">
        <ele>186.46208190918</ele>
        <time>2016-07-03T07:41:26.000Z</time>
      </trkpt>
      <trkpt lat="49.36563" lon="1.50268">
        <ele>186.76188659668</ele>
        <time>2016-07-03T07:41:28.000Z</time>
      </trkpt>
      <trkpt lat="49.36572" lon="1.50279">
        <ele>186.99412536621</ele>
        <time>2016-07-03T07:41:31.000Z</time>
      </trkpt>
      <trkpt lat="49.3658" lon="1.50291">
        <ele>187.16868591309</ele>
        <time>2016-07-03T07:41:34.000Z</time>
      </trkpt>
      <trkpt lat="49.36585" lon="1.50307">
        <ele>187.26191711426</ele>
        <time>2016-07-03T07:41:37.000Z</time>
      </trkpt>
      <trkpt lat="49.3659" lon="1.50316">
        <ele>187.30932617188</ele>
        <time>2016-07-03T07:41:39.000Z</time>
      </trkpt>
      <trkpt lat="49.36597" lon="1.50326">
        <ele>187.3275604248</ele>
        <time>2016-07-03T07:41:42.000Z</time>
      </trkpt>
      <trkpt lat="49.36606" lon="1.50339">
        <ele>187.30490112305</ele>
        <time>2016-07-03T07:41:45.000Z</time>
      </trkpt>
      <trkpt lat="49.36616" lon="1.50352">
        <ele>187.25164794922</ele>
        <time>2016-07-03T07:41:48.000Z</time>
      </trkpt>
      <trkpt lat="49.36621" lon="1.50361">
        <ele>187.20764160156</ele>
        <time>2016-07-03T07:41:50.000Z</time>
      </trkpt>
      <trkpt lat="49.3663" lon="1.50375">
        <ele>187.16171264648</ele>
        <time>2016-07-03T07:41:53.000Z</time>
      </trkpt>
      <trkpt lat="49.36638" lon="1.50387">
        <ele>187.11112976074</ele>
        <time>2016-07-03T07:41:56.000Z</time>
      </trkpt>
      <trkpt lat="49.36643" lon="1.50395">
        <ele>187.06332397461</ele>
        <time>2016-07-03T07:41:58.000Z</time>
      </trkpt>
      <trkpt lat="49.36648" lon="1.50404">
        <ele>187.01577758789</ele>
        <time>2016-07-03T07:42:00.000Z</time>
      </trkpt>
      <trkpt lat="49.36655" lon="1.50418">
        <ele>186.97213745117</ele>
        <time>2016-07-03T07:42:03.000Z</time>
      </trkpt>
      <trkpt lat="49.36663" lon="1.50427">
        <ele>187.00024414062</ele>
        <time>2016-07-03T07:42:05.000Z</time>
      </trkpt>
      <trkpt lat="49.36674" lon="1.50431">
        <ele>187.0973815918</ele>
        <time>2016-07-03T07:42:08.000Z</time>
      </trkpt>
      <trkpt lat="49.36679" lon="1.50428">
        <ele>187.21069335938</ele>
        <time>2016-07-03T07:42:10.000Z</time>
      </trkpt>
      <trkpt lat="49.36683" lon="1.50425">
        <ele>187.3369140625</ele>
        <time>2016-07-03T07:42:12.000Z</time>
      </trkpt>
      <trkpt lat="49.36689" lon="1.50422">
        <ele>187.47906494141</ele>
        <time>2016-07-03T07:42:15.000Z</time>
      </trkpt>
      <trkpt lat="49.36691" lon="1.50421">
        <ele>187.57131958008</ele>
        <time>2016-07-03T07:42:17.000Z</time>
      </trkpt>
      <trkpt lat="49.36694" lon="1.50423">
        <ele>187.62557983398</ele>
        <time>2016-07-03T07:42:23.000Z</time>
      </trkpt>
      <trkpt lat="49.36696" lon="1.50423">
        <ele>187.6796875</ele>
        <time>2016-07-03T07:42:25.000Z</time>
      </trkpt>
      <trkpt lat="49.36697" lon="1.50424">
        <ele>187.73580932617</ele>
        <time>2016-07-03T07:42:33.000Z</time>
      </trkpt>
      <trkpt lat="49.36703" lon="1.5042">
        <ele>187.79678344727</ele>
        <time>2016-07-03T07:42:36.000Z</time>
      </trkpt>
      <trkpt lat="49.36707" lon="1.50417">
        <ele>187.85984802246</ele>
        <time>2016-07-03T07:42:39.000Z</time>
      </trkpt>
      <trkpt lat="49.36708" lon="1.50415">
        <ele>187.91198730469</ele>
        <time>2016-07-03T07:42:41.000Z</time>
      </trkpt>
      <trkpt lat="49.36711" lon="1.50414">
        <ele>187.96748352051</ele>
        <time>2016-07-03T07:42:44.000Z</time>
      </trkpt>
      <trkpt lat="49.36713" lon="1.50413">
        <ele>188.02876281738</ele>
        <time>2016-07-03T07:42:46.000Z</time>
      </trkpt>
      <trkpt lat="49.36716" lon="1.50412">
        <ele>188.09170532227</ele>
        <time>2016-07-03T07:42:48.000Z</time>
      </trkpt>
      <trkpt lat="49.36719" lon="1.50412">
        <ele>188.15957641602</ele>
        <time>2016-07-03T07:42:50.000Z</time>
      </trkpt>
      <trkpt lat="49.36724" lon="1.5041">
        <ele>188.24774169922</ele>
        <time>2016-07-03T07:42:53.000Z</time>
      </trkpt>
      <trkpt lat="49.36731" lon="1.50407">
        <ele>188.36404418945</ele>
        <time>2016-07-03T07:42:56.000Z</time>
      </trkpt>
      <trkpt lat="49.36736" lon="1.50406">
        <ele>188.49591064453</ele>
        <time>2016-07-03T07:42:58.000Z</time>
      </trkpt>
      <trkpt lat="49.36743" lon="1.50404">
        <ele>188.64654541016</ele>
        <time>2016-07-03T07:43:01.000Z</time>
      </trkpt>
      <trkpt lat="49.36749" lon="1.504">
        <ele>188.82095336914</ele>
        <time>2016-07-03T07:43:04.000Z</time>
      </trkpt>
      <trkpt lat="49.36754" lon="1.50395">
        <ele>188.97315979004</ele>
        <time>2016-07-03T07:43:06.000Z</time>
      </trkpt>
      <trkpt lat="49.3676" lon="1.50393">
        <ele>189.0795135498</ele>
        <time>2016-07-03T07:43:08.000Z</time>
      </trkpt>
      <trkpt lat="49.36765" lon="1.50391">
        <ele>189.1547088623</ele>
        <time>2016-07-03T07:43:10.000Z</time>
      </trkpt>
      <trkpt lat="49.36773" lon="1.50388">
        <ele>189.19046020508</ele>
        <time>2016-07-03T07:43:13.000Z</time>
      </trkpt>
      <trkpt lat="49.36779" lon="1.50386">
        <ele>189.1828918457</ele>
        <time>2016-07-03T07:43:15.000Z</time>
      </trkpt>
      <trkpt lat="49.36787" lon="1.50383">
        <ele>189.16500854492</ele>
        <time>2016-07-03T07:43:18.000Z</time>
      </trkpt>
      <trkpt lat="49.36792" lon="1.50385">
        <ele>189.1389465332</ele>
        <time>2016-07-03T07:43:21.000Z</time>
      </trkpt>
      <trkpt lat="49.36796" lon="1.50385">
        <ele>189.11277770996</ele>
        <time>2016-07-03T07:43:23.000Z</time>
      </trkpt>
      <trkpt lat="49.36802" lon="1.50382">
        <ele>189.09103393555</ele>
        <time>2016-07-03T07:43:26.000Z</time>
      </trkpt>
      <trkpt lat="49.36807" lon="1.50382">
        <ele>189.06405639648</ele>
        <time>2016-07-03T07:43:29.000Z</time>
      </trkpt>
      <trkpt lat="49.36811" lon="1.50381">
        <ele>189.03747558594</ele>
        <time>2016-07-03T07:43:31.000Z</time>
      </trkpt>
      <trkpt lat="49.36817" lon="1.50383">
        <ele>189.01078796387</ele>
        <time>2016-07-03T07:43:34.000Z</time>
      </trkpt>
      <trkpt lat="49.3682" lon="1.50385">
        <ele>188.97424316406</ele>
        <time>2016-07-03T07:43:37.000Z</time>
      </trkpt>
      <trkpt lat="49.36827" lon="1.50382">
        <ele>188.93873596191</ele>
        <time>2016-07-03T07:43:40.000Z</time>
      </trkpt>
      <trkpt lat="49.36835" lon="1.50381">
        <ele>188.89347839355</ele>
        <time>2016-07-03T07:43:42.000Z</time>
      </trkpt>
      <trkpt lat="49.36843" lon="1.5038">
        <ele>188.77177429199</ele>
        <time>2016-07-03T07:43:44.000Z</time>
      </trkpt>
      <trkpt lat="49.36852" lon="1.50377">
        <ele>188.57885742188</ele>
        <time>2016-07-03T07:43:46.000Z</time>
      </trkpt>
      <trkpt lat="49.36874" lon="1.50366">
        <ele>188.18013000488</ele>
        <time>2016-07-03T07:43:49.000Z</time>
      </trkpt>
      <trkpt lat="49.36882" lon="1.50361">
        <ele>187.6833190918</ele>
        <time>2016-07-03T07:43:51.000Z</time>
      </trkpt>
      <trkpt lat="49.36893" lon="1.50356">
        <ele>187.07551574707</ele>
        <time>2016-07-03T07:43:53.000Z</time>
      </trkpt>
      <trkpt lat="49.36901" lon="1.50365">
        <ele>186.45001220703</ele>
        <time>2016-07-03T07:43:56.000Z</time>
      </trkpt>
      <trkpt lat="49.36906" lon="1.50372">
        <ele>185.87252807617</ele>
        <time>2016-07-03T07:43:58.000Z</time>
      </trkpt>
      <trkpt lat="49.36913" lon="1.5038">
        <ele>185.44955444336</ele>
        <time>2016-07-03T07:44:00.000Z</time>
      </trkpt>
      <trkpt lat="49.36919" lon="1.50399">
        <ele>185.10346984863</ele>
        <time>2016-07-03T07:44:03.000Z</time>
      </trkpt>
      <trkpt lat="49.36924" lon="1.5042">
        <ele>184.90042114258</ele>
        <time>2016-07-03T07:44:06.000Z</time>
      </trkpt>
      <trkpt lat="49.36936" lon="1.50446">
        <ele>184.7261505127</ele>
        <time>2016-07-03T07:44:09.000Z</time>
      </trkpt>
      <trkpt lat="49.36955" lon="1.50459">
        <ele>184.3151550293</ele>
        <time>2016-07-03T07:44:12.000Z</time>
      </trkpt>
      <trkpt lat="49.3698" lon="1.50443">
        <ele>183.6439666748</ele>
        <time>2016-07-03T07:44:15.000Z</time>
      </trkpt>
      <trkpt lat="49.36991" lon="1.50435">
        <ele>182.89169311523</ele>
        <time>2016-07-03T07:44:17.000Z</time>
      </trkpt>
      <trkpt lat="49.37001" lon="1.50427">
        <ele>182.02177429199</ele>
        <time>2016-07-03T07:44:20.000Z</time>
      </trkpt>
      <trkpt lat="49.37009" lon="1.50401">
        <ele>181.00158691406</ele>
        <time>2016-07-03T07:44:23.000Z</time>
      </trkpt>
      <trkpt lat="49.37014" lon="1.50386">
        <ele>180.03105163574</ele>
        <time>2016-07-03T07:44:25.000Z</time>
      </trkpt>
      <trkpt lat="49.37019" lon="1.50369">
        <ele>179.18394470215</ele>
        <time>2016-07-03T07:44:28.000Z</time>
      </trkpt>
      <trkpt lat="49.37022" lon="1.50352">
        <ele>178.35055541992</ele>
        <time>2016-07-03T07:44:30.000Z</time>
      </trkpt>
      <trkpt lat="49.37023" lon="1.50334">
        <ele>177.60098266602</ele>
        <time>2016-07-03T07:44:33.000Z</time>
      </trkpt>
      <trkpt lat="49.37023" lon="1.50314">
        <ele>176.91653442383</ele>
        <time>2016-07-03T07:44:36.000Z</time>
      </trkpt>
      <trkpt lat="49.37025" lon="1.50297">
        <ele>176.24118041992</ele>
        <time>2016-07-03T07:44:39.000Z</time>
      </trkpt>
      <trkpt lat="49.37025" lon="1.50285">
        <ele>175.66329956055</ele>
        <time>2016-07-03T07:44:41.000Z</time>
      </trkpt>
      <trkpt lat="49.37024" lon="1.50275">
        <ele>175.1202545166</ele>
        <time>2016-07-03T07:44:43.000Z</time>
      </trkpt>
      <trkpt lat="49.37024" lon="1.50265">
        <ele>174.54965209961</ele>
        <time>2016-07-03T07:44:45.000Z</time>
      </trkpt>
      <trkpt lat="49.37023" lon="1.50251">
        <ele>174.05709838867</ele>
        <time>2016-07-03T07:44:48.000Z</time>
      </trkpt>
      <trkpt lat="49.37023" lon="1.5024">
        <ele>173.69132995605</ele>
        <time>2016-07-03T07:44:51.000Z</time>
      </trkpt>
      <trkpt lat="49.37027" lon="1.50229">
        <ele>173.19291687012</ele>
        <time>2016-07-03T07:44:54.000Z</time>
      </trkpt>
      <trkpt lat="49.3703" lon="1.50223">
        <ele>172.58804321289</ele>
        <time>2016-07-03T07:44:56.000Z</time>
      </trkpt>
      <trkpt lat="49.37034" lon="1.50214">
        <ele>171.79838562012</ele>
        <time>2016-07-03T07:44:59.000Z</time>
      </trkpt>
      <trkpt lat="49.37033" lon="1.50203">
        <ele>171.0432434082</ele>
        <time>2016-07-03T07:45:02.000Z</time>
      </trkpt>
      <trkpt lat="49.37031" lon="1.50195">
        <ele>170.41162109375</ele>
        <time>2016-07-03T07:45:04.000Z</time>
      </trkpt>
      <trkpt lat="49.37027" lon="1.50181">
        <ele>170.10842895508</ele>
        <time>2016-07-03T07:45:07.000Z</time>
      </trkpt>
      <trkpt lat="49.37024" lon="1.50168">
        <ele>170.04336547852</ele>
        <time>2016-07-03T07:45:10.000Z</time>
      </trkpt>
      <trkpt lat="49.37021" lon="1.50154">
        <ele>170.29608154297</ele>
        <time>2016-07-03T07:45:13.000Z</time>
      </trkpt>
      <trkpt lat="49.37018" lon="1.5014">
        <ele>170.67788696289</ele>
        <time>2016-07-03T07:45:16.000Z</time>
      </trkpt>
      <trkpt lat="49.37015" lon="1.50128">
        <ele>171.12370300293</ele>
        <time>2016-07-03T07:45:19.000Z</time>
      </trkpt>
      <trkpt lat="49.37014" lon="1.5012">
        <ele>171.51292419434</ele>
        <time>2016-07-03T07:45:21.000Z</time>
      </trkpt>
      <trkpt lat="49.37011" lon="1.5011">
        <ele>171.92715454102</ele>
        <time>2016-07-03T07:45:24.000Z</time>
      </trkpt>
      <trkpt lat="49.37009" lon="1.50103">
        <ele>172.33459472656</ele>
        <time>2016-07-03T07:45:26.000Z</time>
      </trkpt>
      <trkpt lat="49.37006" lon="1.50091">
        <ele>172.73852539062</ele>
        <time>2016-07-03T07:45:29.000Z</time>
      </trkpt>
      <trkpt lat="49.37003" lon="1.50078">
        <ele>173.16011047363</ele>
        <time>2016-07-03T07:45:32.000Z</time>
      </trkpt>
      <trkpt lat="49.36998" lon="1.50065">
        <ele>173.64834594727</ele>
        <time>2016-07-03T07:45:35.000Z</time>
      </trkpt>
      <trkpt lat="49.36994" lon="1.50056">
        <ele>174.05851745605</ele>
        <time>2016-07-03T07:45:37.000Z</time>
      </trkpt>
      <trkpt lat="49.36989" lon="1.50042">
        <ele>174.41624450684</ele>
        <time>2016-07-03T07:45:40.000Z</time>
      </trkpt>
      <trkpt lat="49.36986" lon="1.50032">
        <ele>174.73054504395</ele>
        <time>2016-07-03T07:45:43.000Z</time>
      </trkpt>
      <trkpt lat="49.36982" lon="1.50022">
        <ele>174.9630279541</ele>
        <time>2016-07-03T07:45:46.000Z</time>
      </trkpt>
      <trkpt lat="49.36979" lon="1.50011">
        <ele>175.14778137207</ele>
        <time>2016-07-03T07:45:49.000Z</time>
      </trkpt>
      <trkpt lat="49.36977" lon="1.50001">
        <ele>175.30606079102</ele>
        <time>2016-07-03T07:45:52.000Z</time>
      </trkpt>
      <trkpt lat="49.36975" lon="1.49994">
        <ele>175.4255065918</ele>
        <time>2016-07-03T07:45:54.000Z</time>
      </trkpt>
      <trkpt lat="49.36969" lon="1.49983">
        <ele>175.52755737305</ele>
        <time>2016-07-03T07:45:57.000Z</time>
      </trkpt>
      <trkpt lat="49.36967" lon="1.49975">
        <ele>175.57968139648</ele>
        <time>2016-07-03T07:45:59.000Z</time>
      </trkpt>
      <trkpt lat="49.36963" lon="1.49964">
        <ele>175.5482635498</ele>
        <time>2016-07-03T07:46:02.000Z</time>
      </trkpt>
      <trkpt lat="49.36956" lon="1.49955">
        <ele>175.6184387207</ele>
        <time>2016-07-03T07:46:05.000Z</time>
      </trkpt>
      <trkpt lat="49.36951" lon="1.4995">
        <ele>175.7784576416</ele>
        <time>2016-07-03T07:46:07.000Z</time>
      </trkpt>
      <trkpt lat="49.36946" lon="1.49942">
        <ele>175.97077941895</ele>
        <time>2016-07-03T07:46:10.000Z</time>
      </trkpt>
      <trkpt lat="49.36943" lon="1.49934">
        <ele>176.18313598633</ele>
        <time>2016-07-03T07:46:13.000Z</time>
      </trkpt>
      <trkpt lat="49.36945" lon="1.49931">
        <ele>176.34414672852</ele>
        <time>2016-07-03T07:46:15.000Z</time>
      </trkpt>
      <trkpt lat="49.36951" lon="1.4993">
        <ele>176.16250610352</ele>
        <time>2016-07-03T07:46:18.000Z</time>
      </trkpt>
      <trkpt lat="49.36962" lon="1.49929">
        <ele>175.53646850586</ele>
        <time>2016-07-03T07:46:21.000Z</time>
      </trkpt>
      <trkpt lat="49.36979" lon="1.49921">
        <ele>174.18313598633</ele>
        <time>2016-07-03T07:46:24.000Z</time>
      </trkpt>
      <trkpt lat="49.36989" lon="1.49919">
        <ele>172.4418182373</ele>
        <time>2016-07-03T07:46:26.000Z</time>
      </trkpt>
      <trkpt lat="49.37004" lon="1.49918">
        <ele>170.24971008301</ele>
        <time>2016-07-03T07:46:29.000Z</time>
      </trkpt>
      <trkpt lat="49.37016" lon="1.49914">
        <ele>167.79733276367</ele>
        <time>2016-07-03T07:46:31.000Z</time>
      </trkpt>
      <trkpt lat="49.37037" lon="1.49908">
        <ele>164.80102539062</ele>
        <time>2016-07-03T07:46:34.000Z</time>
      </trkpt>
      <trkpt lat="49.37051" lon="1.49905">
        <ele>161.84875488281</ele>
        <time>2016-07-03T07:46:36.000Z</time>
      </trkpt>
      <trkpt lat="49.37064" lon="1.49903">
        <ele>158.69650268555</ele>
        <time>2016-07-03T07:46:39.000Z</time>
      </trkpt>
      <trkpt lat="49.37078" lon="1.49897">
        <ele>155.34533691406</ele>
        <time>2016-07-03T07:46:42.000Z</time>
      </trkpt>
      <trkpt lat="49.37085" lon="1.49897">
        <ele>152.20291137695</ele>
        <time>2016-07-03T07:46:44.000Z</time>
      </trkpt>
      <trkpt lat="49.3709" lon="1.49895">
        <ele>149.67694091797</ele>
        <time>2016-07-03T07:46:46.000Z</time>
      </trkpt>
      <trkpt lat="49.37096" lon="1.49892">
        <ele>147.44186401367</ele>
        <time>2016-07-03T07:46:49.000Z</time>
      </trkpt>
      <trkpt lat="49.371" lon="1.4989">
        <ele>145.56288146973</ele>
        <time>2016-07-03T07:46:51.000Z</time>
      </trkpt>
      <trkpt lat="49.37105" lon="1.49886">
        <ele>144.12382507324</ele>
        <time>2016-07-03T07:46:53.000Z</time>
      </trkpt>
      <trkpt lat="49.37111" lon="1.49876">
        <ele>142.50863647461</ele>
        <time>2016-07-03T07:46:56.000Z</time>
      </trkpt>
      <trkpt lat="49.37111" lon="1.4987">
        <ele>141.08703613281</ele>
        <time>2016-07-03T07:46:58.000Z</time>
      </trkpt>
      <trkpt lat="49.37111" lon="1.4986">
        <ele>139.87335205078</ele>
        <time>2016-07-03T07:47:01.000Z</time>
      </trkpt>
      <trkpt lat="49.37108" lon="1.49851">
        <ele>138.84509277344</ele>
        <time>2016-07-03T07:47:04.000Z</time>
      </trkpt>
      <trkpt lat="49.37109" lon="1.49844">
        <ele>137.93647766113</ele>
        <time>2016-07-03T07:47:07.000Z</time>
      </trkpt>
      <trkpt lat="49.37109" lon="1.49838">
        <ele>137.37980651855</ele>
        <time>2016-07-03T07:47:09.000Z</time>
      </trkpt>
      <trkpt lat="49.37107" lon="1.4983">
        <ele>136.87698364258</ele>
        <time>2016-07-03T07:47:12.000Z</time>
      </trkpt>
      <trkpt lat="49.37103" lon="1.49822">
        <ele>136.59028625488</ele>
        <time>2016-07-03T07:47:15.000Z</time>
      </trkpt>
      <trkpt lat="49.37102" lon="1.49816">
        <ele>136.29917907715</ele>
        <time>2016-07-03T07:47:18.000Z</time>
      </trkpt>
      <trkpt lat="49.37101" lon="1.49811">
        <ele>136.14421081543</ele>
        <time>2016-07-03T07:47:21.000Z</time>
      </trkpt>
      <trkpt lat="49.37099" lon="1.49807">
        <ele>136.10894775391</ele>
        <time>2016-07-03T07:47:23.000Z</time>
      </trkpt>
      <trkpt lat="49.37096" lon="1.49801">
        <ele>136.17581176758</ele>
        <time>2016-07-03T07:47:26.000Z</time>
      </trkpt>
      <trkpt lat="49.37094" lon="1.49794">
        <ele>136.13360595703</ele>
        <time>2016-07-03T07:47:29.000Z</time>
      </trkpt>
      <trkpt lat="49.37093" lon="1.49789">
        <ele>136.10806274414</ele>
        <time>2016-07-03T07:47:31.000Z</time>
      </trkpt>
      <trkpt lat="49.3709" lon="1.49784">
        <ele>136.17153930664</ele>
        <time>2016-07-03T07:47:33.000Z</time>
      </trkpt>
      <trkpt lat="49.37088" lon="1.4978">
        <ele>136.25057983398</ele>
        <time>2016-07-03T07:47:35.000Z</time>
      </trkpt>
      <trkpt lat="49.37085" lon="1.49773">
        <ele>136.32321166992</ele>
        <time>2016-07-03T07:47:38.000Z</time>
      </trkpt>
      <trkpt lat="49.37084" lon="1.49771">
        <ele>136.41223144531</ele>
        <time>2016-07-03T07:47:40.000Z</time>
      </trkpt>
      <trkpt lat="49.3708" lon="1.49763">
        <ele>136.70085144043</ele>
        <time>2016-07-03T07:47:43.000Z</time>
      </trkpt>
      <trkpt lat="49.37077" lon="1.49758">
        <ele>137.12118530273</ele>
        <time>2016-07-03T07:47:45.000Z</time>
      </trkpt>
      <trkpt lat="49.37074" lon="1.49755">
        <ele>137.63452148438</ele>
        <time>2016-07-03T07:47:47.000Z</time>
      </trkpt>
      <trkpt lat="49.3707" lon="1.49749">
        <ele>138.3757019043</ele>
        <time>2016-07-03T07:47:50.000Z</time>
      </trkpt>
      <trkpt lat="49.37067" lon="1.49744">
        <ele>139.22622680664</ele>
        <time>2016-07-03T07:47:53.000Z</time>
      </trkpt>
      <trkpt lat="49.37066" lon="1.49739">
        <ele>139.98706054688</ele>
        <time>2016-07-03T07:47:55.000Z</time>
      </trkpt>
      <trkpt lat="49.3706" lon="1.49732">
        <ele>140.8570098877</ele>
        <time>2016-07-03T07:47:58.000Z</time>
      </trkpt>
      <trkpt lat="49.37057" lon="1.49727">
        <ele>141.75553894043</ele>
        <time>2016-07-03T07:48:00.000Z</time>
      </trkpt>
      <trkpt lat="49.37056" lon="1.49724">
        <ele>142.43704223633</ele>
        <time>2016-07-03T07:48:02.000Z</time>
      </trkpt>
      <trkpt lat="49.37053" lon="1.49717">
        <ele>143.08493041992</ele>
        <time>2016-07-03T07:48:05.000Z</time>
      </trkpt>
      <trkpt lat="49.37049" lon="1.49711">
        <ele>143.88179016113</ele>
        <time>2016-07-03T07:48:08.000Z</time>
      </trkpt>
      <trkpt lat="49.37046" lon="1.49707">
        <ele>144.55816650391</ele>
        <time>2016-07-03T07:48:10.000Z</time>
      </trkpt>
      <trkpt lat="49.37042" lon="1.49701">
        <ele>145.22032165527</ele>
        <time>2016-07-03T07:48:13.000Z</time>
      </trkpt>
      <trkpt lat="49.3704" lon="1.49697">
        <ele>145.92262268066</ele>
        <time>2016-07-03T07:48:15.000Z</time>
      </trkpt>
      <trkpt lat="49.37039" lon="1.49693">
        <ele>146.53147888184</ele>
        <time>2016-07-03T07:48:17.000Z</time>
      </trkpt>
      <trkpt lat="49.37037" lon="1.49686">
        <ele>146.92224121094</ele>
        <time>2016-07-03T07:48:20.000Z</time>
      </trkpt>
      <trkpt lat="49.37036" lon="1.49681">
        <ele>147.13070678711</ele>
        <time>2016-07-03T07:48:22.000Z</time>
      </trkpt>
      <trkpt lat="49.37034" lon="1.49676">
        <ele>147.23480224609</ele>
        <time>2016-07-03T07:48:24.000Z</time>
      </trkpt>
      <trkpt lat="49.37031" lon="1.49671">
        <ele>147.37440490723</ele>
        <time>2016-07-03T07:48:27.000Z</time>
      </trkpt>
      <trkpt lat="49.3703" lon="1.49666">
        <ele>147.46235656738</ele>
        <time>2016-07-03T07:48:30.000Z</time>
      </trkpt>
      <trkpt lat="49.37029" lon="1.49661">
        <ele>147.54327392578</ele>
        <time>2016-07-03T07:48:33.000Z</time>
      </trkpt>
      <trkpt lat="49.37025" lon="1.49655">
        <ele>147.71664428711</ele>
        <time>2016-07-03T07:48:35.000Z</time>
      </trkpt>
      <trkpt lat="49.37023" lon="1.49651">
        <ele>147.95986938477</ele>
        <time>2016-07-03T07:48:37.000Z</time>
      </trkpt>
      <trkpt lat="49.37019" lon="1.49645">
        <ele>148.15878295898</ele>
        <time>2016-07-03T07:48:40.000Z</time>
      </trkpt>
      <trkpt lat="49.37017" lon="1.49641">
        <ele>148.46894836426</ele>
        <time>2016-07-03T07:48:42.000Z</time>
      </trkpt>
      <trkpt lat="49.37016" lon="1.49639">
        <ele>148.83920288086</ele>
        <time>2016-07-03T07:48:44.000Z</time>
      </trkpt>
      <trkpt lat="49.37014" lon="1.49636">
        <ele>149.12197875977</ele>
        <time>2016-07-03T07:48:46.000Z</time>
      </trkpt>
      <trkpt lat="49.37012" lon="1.49631">
        <ele>149.29656982422</ele>
        <time>2016-07-03T07:48:49.000Z</time>
      </trkpt>
      <trkpt lat="49.37008" lon="1.49625">
        <ele>149.51260375977</ele>
        <time>2016-07-03T07:48:52.000Z</time>
      </trkpt>
      <trkpt lat="49.37003" lon="1.4962">
        <ele>149.81477355957</ele>
        <time>2016-07-03T07:48:55.000Z</time>
      </trkpt>
      <trkpt lat="49.37002" lon="1.49617">
        <ele>150.01965332031</ele>
        <time>2016-07-03T07:48:57.000Z</time>
      </trkpt>
      <trkpt lat="49.37001" lon="1.49615">
        <ele>150.20835876465</ele>
        <time>2016-07-03T07:48:59.000Z</time>
      </trkpt>
      <trkpt lat="49.37" lon="1.4961">
        <ele>150.33714294434</ele>
        <time>2016-07-03T07:49:02.000Z</time>
      </trkpt>
      <trkpt lat="49.36999" lon="1.49606">
        <ele>150.32038879395</ele>
        <time>2016-07-03T07:49:04.000Z</time>
      </trkpt>
      <trkpt lat="49.36996" lon="1.49602">
        <ele>150.22158813477</ele>
        <time>2016-07-03T07:49:07.000Z</time>
      </trkpt>
      <trkpt lat="49.36993" lon="1.49598">
        <ele>150.24076843262</ele>
        <time>2016-07-03T07:49:10.000Z</time>
      </trkpt>
      <trkpt lat="49.36988" lon="1.49593">
        <ele>150.44468688965</ele>
        <time>2016-07-03T07:49:13.000Z</time>
      </trkpt>
      <trkpt lat="49.36987" lon="1.49588">
        <ele>150.71531677246</ele>
        <time>2016-07-03T07:49:16.000Z</time>
      </trkpt>
      <trkpt lat="49.36985" lon="1.49583">
        <ele>151.01268005371</ele>
        <time>2016-07-03T07:49:19.000Z</time>
      </trkpt>
      <trkpt lat="49.36982" lon="1.49579">
        <ele>151.37945556641</ele>
        <time>2016-07-03T07:49:22.000Z</time>
      </trkpt>
      <trkpt lat="49.36981" lon="1.49575">
        <ele>151.7310333252</ele>
        <time>2016-07-03T07:49:24.000Z</time>
      </trkpt>
      <trkpt lat="49.36979" lon="1.4957">
        <ele>151.99215698242</ele>
        <time>2016-07-03T07:49:27.000Z</time>
      </trkpt>
      <trkpt lat="49.36976" lon="1.49564">
        <ele>152.38223266602</ele>
        <time>2016-07-03T07:49:30.000Z</time>
      </trkpt>
      <trkpt lat="49.36975" lon="1.49561">
        <ele>152.80265808105</ele>
        <time>2016-07-03T07:49:32.000Z</time>
      </trkpt>
      <trkpt lat="49.36972" lon="1.49555">
        <ele>153.24472045898</ele>
        <time>2016-07-03T07:49:35.000Z</time>
      </trkpt>
      <trkpt lat="49.36969" lon="1.49552">
        <ele>153.78408813477</ele>
        <time>2016-07-03T07:49:37.000Z</time>
      </trkpt>
      <trkpt lat="49.36966" lon="1.49549">
        <ele>154.4111328125</ele>
        <time>2016-07-03T07:49:39.000Z</time>
      </trkpt>
      <trkpt lat="49.36966" lon="1.49541">
        <ele>154.8148651123</ele>
        <time>2016-07-03T07:49:42.000Z</time>
      </trkpt>
      <trkpt lat="49.36966" lon="1.49538">
        <ele>155.13659667969</ele>
        <time>2016-07-03T07:49:44.000Z</time>
      </trkpt>
      <trkpt lat="49.36966" lon="1.49535">
        <ele>155.28268432617</ele>
        <time>2016-07-03T07:49:46.000Z</time>
      </trkpt>
      <trkpt lat="49.36964" lon="1.49532">
        <ele>155.3413848877</ele>
        <time>2016-07-03T07:49:49.000Z</time>
      </trkpt>
      <trkpt lat="49.36963" lon="1.49531">
        <ele>155.30648803711</ele>
        <time>2016-07-03T07:49:51.000Z</time>
      </trkpt>
      <trkpt lat="49.36959" lon="1.49528">
        <ele>155.63432312012</ele>
        <time>2016-07-03T07:49:54.000Z</time>
      </trkpt>
      <trkpt lat="49.36955" lon="1.49524">
        <ele>156.25387573242</ele>
        <time>2016-07-03T07:49:57.000Z</time>
      </trkpt>
      <trkpt lat="49.36952" lon="1.4952">
        <ele>157.0775604248</ele>
        <time>2016-07-03T07:49:59.000Z</time>
      </trkpt>
      <trkpt lat="49.36949" lon="1.49517">
        <ele>158.01412963867</ele>
        <time>2016-07-03T07:50:01.000Z</time>
      </trkpt>
      <trkpt lat="49.36946" lon="1.49514">
        <ele>159.02421569824</ele>
        <time>2016-07-03T07:50:03.000Z</time>
      </trkpt>
      <trkpt lat="49.36944" lon="1.49509">
        <ele>159.92678833008</ele>
        <time>2016-07-03T07:50:06.000Z</time>
      </trkpt>
      <trkpt lat="49.36942" lon="1.49506">
        <ele>160.68334960938</ele>
        <time>2016-07-03T07:50:08.000Z</time>
      </trkpt>
      <trkpt lat="49.36939" lon="1.49504">
        <ele>161.43081665039</ele>
        <time>2016-07-03T07:50:10.000Z</time>
      </trkpt>
      <trkpt lat="49.36938" lon="1.49503">
        <ele>162.09841918945</ele>
        <time>2016-07-03T07:50:12.000Z</time>
      </trkpt>
      <trkpt lat="49.36937" lon="1.49503">
        <ele>162.71533203125</ele>
        <time>2016-07-03T07:50:15.000Z</time>
      </trkpt>
      <trkpt lat="49.36936" lon="1.49501">
        <ele>163.17907714844</ele>
        <time>2016-07-03T07:50:18.000Z</time>
      </trkpt>
      <trkpt lat="49.36936" lon="1.49499">
        <ele>163.50552368164</ele>
        <time>2016-07-03T07:50:20.000Z</time>
      </trkpt>
      <trkpt lat="49.36936" lon="1.49495">
        <ele>163.63603210449</ele>
        <time>2016-07-03T07:50:22.000Z</time>
      </trkpt>
      <trkpt lat="49.36935" lon="1.49489">
        <ele>163.56015014648</ele>
        <time>2016-07-03T07:50:25.000Z</time>
      </trkpt>
      <trkpt lat="49.36934" lon="1.49483">
        <ele>163.32633972168</ele>
        <time>2016-07-03T07:50:28.000Z</time>
      </trkpt>
      <trkpt lat="49.36933" lon="1.4948">
        <ele>163.15127563477</ele>
        <time>2016-07-03T07:50:30.000Z</time>
      </trkpt>
      <trkpt lat="49.3693" lon="1.49475">
        <ele>163.12808227539</ele>
        <time>2016-07-03T07:50:33.000Z</time>
      </trkpt>
      <trkpt lat="49.36925" lon="1.4947">
        <ele>163.34268188477</ele>
        <time>2016-07-03T07:50:36.000Z</time>
      </trkpt>
      <trkpt lat="49.3692" lon="1.49462">
        <ele>163.80850219727</ele>
        <time>2016-07-03T07:50:39.000Z</time>
      </trkpt>
      <trkpt lat="49.36917" lon="1.49456">
        <ele>164.38639831543</ele>
        <time>2016-07-03T07:50:41.000Z</time>
      </trkpt>
      <trkpt lat="49.36914" lon="1.49451">
        <ele>164.89755249023</ele>
        <time>2016-07-03T07:50:43.000Z</time>
      </trkpt>
      <trkpt lat="49.36913" lon="1.49447">
        <ele>165.25576782227</ele>
        <time>2016-07-03T07:50:45.000Z</time>
      </trkpt>
      <trkpt lat="49.36909" lon="1.49441">
        <ele>165.39131164551</ele>
        <time>2016-07-03T07:50:48.000Z</time>
      </trkpt>
      <trkpt lat="49.36906" lon="1.49434">
        <ele>165.29824829102</ele>
        <time>2016-07-03T07:50:51.000Z</time>
      </trkpt>
      <trkpt lat="49.36905" lon="1.49427">
        <ele>165.03707885742</ele>
        <time>2016-07-03T07:50:54.000Z</time>
      </trkpt>
      <trkpt lat="49.36905" lon="1.49422">
        <ele>164.69218444824</ele>
        <time>2016-07-03T07:50:56.000Z</time>
      </trkpt>
      <trkpt lat="49.36901" lon="1.49415">
        <ele>164.35771179199</ele>
        <time>2016-07-03T07:50:59.000Z</time>
      </trkpt>
      <trkpt lat="49.36899" lon="1.49411">
        <ele>164.08512878418</ele>
        <time>2016-07-03T07:51:01.000Z</time>
      </trkpt>
      <trkpt lat="49.36895" lon="1.49406">
        <ele>163.9489440918</ele>
        <time>2016-07-03T07:51:04.000Z</time>
      </trkpt>
      <trkpt lat="49.36892" lon="1.49403">
        <ele>163.98245239258</ele>
        <time>2016-07-03T07:51:06.000Z</time>
      </trkpt>
      <trkpt lat="49.36888" lon="1.49398">
        <ele>164.21565246582</ele>
        <time>2016-07-03T07:51:09.000Z</time>
      </trkpt>
      <trkpt lat="49.36883" lon="1.4939">
        <ele>164.54078674316</ele>
        <time>2016-07-03T07:51:12.000Z</time>
      </trkpt>
      <trkpt lat="49.3688" lon="1.49383">
        <ele>164.86978149414</ele>
        <time>2016-07-03T07:51:15.000Z</time>
      </trkpt>
      <trkpt lat="49.36878" lon="1.4938">
        <ele>165.17712402344</ele>
        <time>2016-07-03T07:51:17.000Z</time>
      </trkpt>
      <trkpt lat="49.36876" lon="1.49375">
        <ele>165.44050598145</ele>
        <time>2016-07-03T07:51:20.000Z</time>
      </trkpt>
      <trkpt lat="49.36874" lon="1.49369">
        <ele>165.6171875</ele>
        <time>2016-07-03T07:51:22.000Z</time>
      </trkpt>
      <trkpt lat="49.36871" lon="1.49364">
        <ele>165.79914855957</ele>
        <time>2016-07-03T07:51:24.000Z</time>
      </trkpt>
      <trkpt lat="49.36867" lon="1.49358">
        <ele>166.04289245605</ele>
        <time>2016-07-03T07:51:27.000Z</time>
      </trkpt>
      <trkpt lat="49.36864" lon="1.49352">
        <ele>166.31655883789</ele>
        <time>2016-07-03T07:51:30.000Z</time>
      </trkpt>
      <trkpt lat="49.36861" lon="1.49345">
        <ele>166.60482788086</ele>
        <time>2016-07-03T07:51:32.000Z</time>
      </trkpt>
      <trkpt lat="49.36858" lon="1.49336">
        <ele>166.94346618652</ele>
        <time>2016-07-03T07:51:35.000Z</time>
      </trkpt>
      <trkpt lat="49.36856" lon="1.4933">
        <ele>167.21633911133</ele>
        <time>2016-07-03T07:51:37.000Z</time>
      </trkpt>
      <trkpt lat="49.36851" lon="1.49318">
        <ele>167.46031188965</ele>
        <time>2016-07-03T07:51:40.000Z</time>
      </trkpt>
      <trkpt lat="49.36846" lon="1.49306">
        <ele>167.66093444824</ele>
        <time>2016-07-03T07:51:43.000Z</time>
      </trkpt>
      <trkpt lat="49.3684" lon="1.49295">
        <ele>167.96360778809</ele>
        <time>2016-07-03T07:51:46.000Z</time>
      </trkpt>
      <trkpt lat="49.36835" lon="1.49285">
        <ele>168.2834777832</ele>
        <time>2016-07-03T07:51:49.000Z</time>
      </trkpt>
      <trkpt lat="49.36829" lon="1.49274">
        <ele>168.71041870117</ele>
        <time>2016-07-03T07:51:52.000Z</time>
      </trkpt>
      <trkpt lat="49.36824" lon="1.49268">
        <ele>169.18559265137</ele>
        <time>2016-07-03T07:51:54.000Z</time>
      </trkpt>
      <trkpt lat="49.36818" lon="1.49259">
        <ele>169.82266235352</ele>
        <time>2016-07-03T07:51:57.000Z</time>
      </trkpt>
      <trkpt lat="49.36813" lon="1.49249">
        <ele>170.46026611328</ele>
        <time>2016-07-03T07:51:59.000Z</time>
      </trkpt>
      <trkpt lat="49.36808" lon="1.49241">
        <ele>171.11001586914</ele>
        <time>2016-07-03T07:52:01.000Z</time>
      </trkpt>
      <trkpt lat="49.36804" lon="1.49231">
        <ele>171.66030883789</ele>
        <time>2016-07-03T07:52:04.000Z</time>
      </trkpt>
      <trkpt lat="49.36801" lon="1.49223">
        <ele>172.08613586426</ele>
        <time>2016-07-03T07:52:06.000Z</time>
      </trkpt>
      <trkpt lat="49.36795" lon="1.49212">
        <ele>172.35461425781</ele>
        <time>2016-07-03T07:52:09.000Z</time>
      </trkpt>
      <trkpt lat="49.3679" lon="1.49199">
        <ele>172.47114562988</ele>
        <time>2016-07-03T07:52:12.000Z</time>
      </trkpt>
      <trkpt lat="49.36785" lon="1.49189">
        <ele>172.46682739258</ele>
        <time>2016-07-03T07:52:15.000Z</time>
      </trkpt>
      <trkpt lat="49.36782" lon="1.4918">
        <ele>172.3519744873</ele>
        <time>2016-07-03T07:52:17.000Z</time>
      </trkpt>
      <trkpt lat="49.36778" lon="1.49169">
        <ele>172.17953491211</ele>
        <time>2016-07-03T07:52:19.000Z</time>
      </trkpt>
      <trkpt lat="49.36772" lon="1.4916">
        <ele>171.99322509766</ele>
        <time>2016-07-03T07:52:21.000Z</time>
      </trkpt>
      <trkpt lat="49.36762" lon="1.49146">
        <ele>171.84684753418</ele>
        <time>2016-07-03T07:52:24.000Z</time>
      </trkpt>
      <trkpt lat="49.36757" lon="1.49138">
        <ele>171.68812561035</ele>
        <time>2016-07-03T07:52:26.000Z</time>
      </trkpt>
      <trkpt lat="49.36752" lon="1.49125">
        <ele>171.47761535645</ele>
        <time>2016-07-03T07:52:29.000Z</time>
      </trkpt>
      <trkpt lat="49.36747" lon="1.49115">
        <ele>171.18240356445</ele>
        <time>2016-07-03T07:52:31.000Z</time>
      </trkpt>
      <trkpt lat="49.36741" lon="1.49105">
        <ele>170.73762512207</ele>
        <time>2016-07-03T07:52:33.000Z</time>
      </trkpt>
      <trkpt lat="49.36738" lon="1.49093">
        <ele>170.03436279297</ele>
        <time>2016-07-03T07:52:36.000Z</time>
      </trkpt>
      <trkpt lat="49.36737" lon="1.49083">
        <ele>169.16348266602</ele>
        <time>2016-07-03T07:52:38.000Z</time>
      </trkpt>
      <trkpt lat="49.36737" lon="1.49071">
        <ele>168.34066772461</ele>
        <time>2016-07-03T07:52:41.000Z</time>
      </trkpt>
      <trkpt lat="49.3674" lon="1.4906">
        <ele>167.51396179199</ele>
        <time>2016-07-03T07:52:44.000Z</time>
      </trkpt>
      <trkpt lat="49.36743" lon="1.49048">
        <ele>166.66600036621</ele>
        <time>2016-07-03T07:52:47.000Z</time>
      </trkpt>
      <trkpt lat="49.36744" lon="1.49042">
        <ele>166.00927734375</ele>
        <time>2016-07-03T07:52:49.000Z</time>
      </trkpt>
      <trkpt lat="49.36746" lon="1.49025">
        <ele>165.39317321777</ele>
        <time>2016-07-03T07:52:52.000Z</time>
      </trkpt>
      <trkpt lat="49.36749" lon="1.49014">
        <ele>164.7523651123</ele>
        <time>2016-07-03T07:52:54.000Z</time>
      </trkpt>
      <trkpt lat="49.36756" lon="1.48993">
        <ele>164.03721618652</ele>
        <time>2016-07-03T07:52:57.000Z</time>
      </trkpt>
      <trkpt lat="49.3676" lon="1.4898">
        <ele>163.37571716309</ele>
        <time>2016-07-03T07:52:59.000Z</time>
      </trkpt>
      <trkpt lat="49.36761" lon="1.48969">
        <ele>162.71377563477</ele>
        <time>2016-07-03T07:53:01.000Z</time>
      </trkpt>
      <trkpt lat="49.36766" lon="1.48951">
        <ele>162.08737182617</ele>
        <time>2016-07-03T07:53:04.000Z</time>
      </trkpt>
      <trkpt lat="49.36766" lon="1.48941">
        <ele>161.53721618652</ele>
        <time>2016-07-03T07:53:06.000Z</time>
      </trkpt>
      <trkpt lat="49.36772" lon="1.48875">
        <ele>160.75926208496</ele>
        <time>2016-07-03T07:53:11.000Z</time>
      </trkpt>
      <trkpt lat="49.36776" lon="1.48845">
        <ele>159.75682067871</ele>
        <time>2016-07-03T07:53:14.000Z</time>
      </trkpt>
      <trkpt lat="49.36781" lon="1.48827">
        <ele>158.56860351562</ele>
        <time>2016-07-03T07:53:17.000Z</time>
      </trkpt>
      <trkpt lat="49.36781" lon="1.48821">
        <ele>157.44146728516</ele>
        <time>2016-07-03T07:53:19.000Z</time>
      </trkpt>
      <trkpt lat="49.36784" lon="1.48808">
        <ele>156.1340637207</ele>
        <time>2016-07-03T07:53:22.000Z</time>
      </trkpt>
      <trkpt lat="49.36782" lon="1.48799">
        <ele>155.22758483887</ele>
        <time>2016-07-03T07:53:25.000Z</time>
      </trkpt>
      <trkpt lat="49.36781" lon="1.48794">
        <ele>154.63638305664</ele>
        <time>2016-07-03T07:53:27.000Z</time>
      </trkpt>
      <trkpt lat="49.36781" lon="1.48788">
        <ele>154.23068237305</ele>
        <time>2016-07-03T07:53:29.000Z</time>
      </trkpt>
      <trkpt lat="49.36781" lon="1.48782">
        <ele>153.84619140625</ele>
        <time>2016-07-03T07:53:31.000Z</time>
      </trkpt>
      <trkpt lat="49.3678" lon="1.4877">
        <ele>153.62217712402</ele>
        <time>2016-07-03T07:53:34.000Z</time>
      </trkpt>
      <trkpt lat="49.36778" lon="1.48762">
        <ele>153.44805908203</ele>
        <time>2016-07-03T07:53:36.000Z</time>
      </trkpt>
      <trkpt lat="49.36777" lon="1.48749">
        <ele>153.20938110352</ele>
        <time>2016-07-03T07:53:39.000Z</time>
      </trkpt>
      <trkpt lat="49.36774" lon="1.48741">
        <ele>153.16049194336</ele>
        <time>2016-07-03T07:53:41.000Z</time>
      </trkpt>
      <trkpt lat="49.36767" lon="1.48728">
        <ele>153.40534973145</ele>
        <time>2016-07-03T07:53:44.000Z</time>
      </trkpt>
      <trkpt lat="49.36763" lon="1.48715">
        <ele>153.86064147949</ele>
        <time>2016-07-03T07:53:47.000Z</time>
      </trkpt>
      <trkpt lat="49.36756" lon="1.487">
        <ele>154.61239624023</ele>
        <time>2016-07-03T07:53:50.000Z</time>
      </trkpt>
      <trkpt lat="49.3675" lon="1.48687">
        <ele>155.70736694336</ele>
        <time>2016-07-03T07:53:53.000Z</time>
      </trkpt>
      <trkpt lat="49.36747" lon="1.48678">
        <ele>156.67471313477</ele>
        <time>2016-07-03T07:53:55.000Z</time>
      </trkpt>
      <trkpt lat="49.36745" lon="1.48668">
        <ele>157.38464355469</ele>
        <time>2016-07-03T07:53:57.000Z</time>
      </trkpt>
      <trkpt lat="49.36741" lon="1.4866">
        <ele>157.92718505859</ele>
        <time>2016-07-03T07:53:59.000Z</time>
      </trkpt>
      <trkpt lat="49.36739" lon="1.48652">
        <ele>158.13539123535</ele>
        <time>2016-07-03T07:54:01.000Z</time>
      </trkpt>
      <trkpt lat="49.36736" lon="1.48638">
        <ele>158.01034545898</ele>
        <time>2016-07-03T07:54:04.000Z</time>
      </trkpt>
      <trkpt lat="49.36732" lon="1.48628">
        <ele>157.84866333008</ele>
        <time>2016-07-03T07:54:06.000Z</time>
      </trkpt>
      <trkpt lat="49.36731" lon="1.48612">
        <ele>157.6051940918</ele>
        <time>2016-07-03T07:54:09.000Z</time>
      </trkpt>
      <trkpt lat="49.36732" lon="1.486">
        <ele>157.29893493652</ele>
        <time>2016-07-03T07:54:11.000Z</time>
      </trkpt>
      <trkpt lat="49.36733" lon="1.48571">
        <ele>156.76322937012</ele>
        <time>2016-07-03T07:54:14.000Z</time>
      </trkpt>
      <trkpt lat="49.36733" lon="1.48542">
        <ele>155.92265319824</ele>
        <time>2016-07-03T07:54:17.000Z</time>
      </trkpt>
      <trkpt lat="49.36728" lon="1.48506">
        <ele>154.783203125</ele>
        <time>2016-07-03T07:54:20.000Z</time>
      </trkpt>
      <trkpt lat="49.36724" lon="1.48473">
        <ele>153.51417541504</ele>
        <time>2016-07-03T07:54:23.000Z</time>
      </trkpt>
      <trkpt lat="49.36725" lon="1.48449">
        <ele>152.12814331055</ele>
        <time>2016-07-03T07:54:25.000Z</time>
      </trkpt>
      <trkpt lat="49.36726" lon="1.48418">
        <ele>150.73081970215</ele>
        <time>2016-07-03T07:54:28.000Z</time>
      </trkpt>
      <trkpt lat="49.36725" lon="1.48395">
        <ele>149.4868927002</ele>
        <time>2016-07-03T07:54:30.000Z</time>
      </trkpt>
      <trkpt lat="49.36726" lon="1.48362">
        <ele>148.185546875</ele>
        <time>2016-07-03T07:54:33.000Z</time>
      </trkpt>
      <trkpt lat="49.36724" lon="1.48324">
        <ele>146.6947479248</ele>
        <time>2016-07-03T07:54:36.000Z</time>
      </trkpt>
      <trkpt lat="49.36726" lon="1.48284">
        <ele>144.69369506836</ele>
        <time>2016-07-03T07:54:39.000Z</time>
      </trkpt>
      <trkpt lat="49.36721" lon="1.48265">
        <ele>142.85461425781</ele>
        <time>2016-07-03T07:54:41.000Z</time>
      </trkpt>
      <trkpt lat="49.3672" lon="1.4825">
        <ele>141.0597076416</ele>
        <time>2016-07-03T07:54:43.000Z</time>
      </trkpt>
      <trkpt lat="49.36716" lon="1.4824">
        <ele>139.60891723633</ele>
        <time>2016-07-03T07:54:45.000Z</time>
      </trkpt>
      <trkpt lat="49.36716" lon="1.48231">
        <ele>138.4203338623</ele>
        <time>2016-07-03T07:54:47.000Z</time>
      </trkpt>
      <trkpt lat="49.36715" lon="1.48224">
        <ele>137.87812805176</ele>
        <time>2016-07-03T07:54:49.000Z</time>
      </trkpt>
      <trkpt lat="49.36712" lon="1.48219">
        <ele>137.486328125</ele>
        <time>2016-07-03T07:54:51.000Z</time>
      </trkpt>
      <trkpt lat="49.36709" lon="1.4821">
        <ele>137.25387573242</ele>
        <time>2016-07-03T07:54:54.000Z</time>
      </trkpt>
      <trkpt lat="49.36706" lon="1.48201">
        <ele>137.04441833496</ele>
        <time>2016-07-03T07:54:57.000Z</time>
      </trkpt>
      <trkpt lat="49.36703" lon="1.48192">
        <ele>136.95802307129</ele>
        <time>2016-07-03T07:55:00.000Z</time>
      </trkpt>
      <trkpt lat="49.367" lon="1.48185">
        <ele>136.96252441406</ele>
        <time>2016-07-03T07:55:02.000Z</time>
      </trkpt>
      <trkpt lat="49.36696" lon="1.48175">
        <ele>136.93852233887</ele>
        <time>2016-07-03T07:55:05.000Z</time>
      </trkpt>
      <trkpt lat="49.36692" lon="1.48166">
        <ele>136.95796203613</ele>
        <time>2016-07-03T07:55:08.000Z</time>
      </trkpt>
      <trkpt lat="49.36689" lon="1.48155">
        <ele>137.01739501953</ele>
        <time>2016-07-03T07:55:11.000Z</time>
      </trkpt>
      <trkpt lat="49.36686" lon="1.48145">
        <ele>137.11111450195</ele>
        <time>2016-07-03T07:55:13.000Z</time>
      </trkpt>
      <trkpt lat="49.36682" lon="1.48133">
        <ele>137.21737670898</ele>
        <time>2016-07-03T07:55:16.000Z</time>
      </trkpt>
      <trkpt lat="49.36678" lon="1.48123">
        <ele>137.39047241211</ele>
        <time>2016-07-03T07:55:18.000Z</time>
      </trkpt>
      <trkpt lat="49.36672" lon="1.48112">
        <ele>137.65686035156</ele>
        <time>2016-07-03T07:55:20.000Z</time>
      </trkpt>
      <trkpt lat="49.36664" lon="1.48101">
        <ele>138.05136108398</ele>
        <time>2016-07-03T07:55:23.000Z</time>
      </trkpt>
      <trkpt lat="49.36658" lon="1.48093">
        <ele>138.41970825195</ele>
        <time>2016-07-03T07:55:25.000Z</time>
      </trkpt>
      <trkpt lat="49.36652" lon="1.48085">
        <ele>138.71017456055</ele>
        <time>2016-07-03T07:55:27.000Z</time>
      </trkpt>
      <trkpt lat="49.36648" lon="1.48074">
        <ele>138.85502624512</ele>
        <time>2016-07-03T07:55:29.000Z</time>
      </trkpt>
      <trkpt lat="49.36641" lon="1.48057">
        <ele>138.75997924805</ele>
        <time>2016-07-03T07:55:32.000Z</time>
      </trkpt>
      <trkpt lat="49.36636" lon="1.48046">
        <ele>138.48751831055</ele>
        <time>2016-07-03T07:55:34.000Z</time>
      </trkpt>
      <trkpt lat="49.36629" lon="1.48036">
        <ele>138.24545288086</ele>
        <time>2016-07-03T07:55:36.000Z</time>
      </trkpt>
      <trkpt lat="49.36617" lon="1.48019">
        <ele>138.09194946289</ele>
        <time>2016-07-03T07:55:39.000Z</time>
      </trkpt>
      <trkpt lat="49.36611" lon="1.48008">
        <ele>138.0417175293</ele>
        <time>2016-07-03T07:55:41.000Z</time>
      </trkpt>
      <trkpt lat="49.36607" lon="1.47998">
        <ele>138.11282348633</ele>
        <time>2016-07-03T07:55:43.000Z</time>
      </trkpt>
      <trkpt lat="49.36603" lon="1.47991">
        <ele>138.19664001465</ele>
        <time>2016-07-03T07:55:45.000Z</time>
      </trkpt>
      <trkpt lat="49.36578" lon="1.47966">
        <ele>138.33850097656</ele>
        <time>2016-07-03T07:55:49.000Z</time>
      </trkpt>
      <trkpt lat="49.36553" lon="1.47953">
        <ele>137.8970489502</ele>
        <time>2016-07-03T07:55:52.000Z</time>
      </trkpt>
      <trkpt lat="49.36538" lon="1.47943">
        <ele>137.09745788574</ele>
        <time>2016-07-03T07:55:54.000Z</time>
      </trkpt>
      <trkpt lat="49.36532" lon="1.47933">
        <ele>136.08474731445</ele>
        <time>2016-07-03T07:55:56.000Z</time>
      </trkpt>
      <trkpt lat="49.36531" lon="1.47919">
        <ele>134.91543579102</ele>
        <time>2016-07-03T07:55:59.000Z</time>
      </trkpt>
      <trkpt lat="49.36534" lon="1.47911">
        <ele>133.5881652832</ele>
        <time>2016-07-03T07:56:02.000Z</time>
      </trkpt>
      <trkpt lat="49.36541" lon="1.47904">
        <ele>132.78170776367</ele>
        <time>2016-07-03T07:56:04.000Z</time>
      </trkpt>
      <trkpt lat="49.36546" lon="1.47903">
        <ele>132.37271118164</ele>
        <time>2016-07-03T07:56:06.000Z</time>
      </trkpt>
      <trkpt lat="49.36556" lon="1.479">
        <ele>132.24719238281</ele>
        <time>2016-07-03T07:56:09.000Z</time>
      </trkpt>
      <trkpt lat="49.36583" lon="1.47893">
        <ele>132.49998474121</ele>
        <time>2016-07-03T07:56:13.000Z</time>
      </trkpt>
      <trkpt lat="49.36593" lon="1.47876">
        <ele>132.21020507812</ele>
        <time>2016-07-03T07:56:15.000Z</time>
      </trkpt>
      <trkpt lat="49.36614" lon="1.47884">
        <ele>131.44570922852</ele>
        <time>2016-07-03T07:56:18.000Z</time>
      </trkpt>
      <trkpt lat="49.36628" lon="1.47893">
        <ele>130.34130859375</ele>
        <time>2016-07-03T07:56:20.000Z</time>
      </trkpt>
      <trkpt lat="49.36642" lon="1.47904">
        <ele>128.93733215332</ele>
        <time>2016-07-03T07:56:23.000Z</time>
      </trkpt>
      <trkpt lat="49.36649" lon="1.47907">
        <ele>127.17236328125</ele>
        <time>2016-07-03T07:56:25.000Z</time>
      </trkpt>
      <trkpt lat="49.36663" lon="1.47908">
        <ele>125.61938476562</ele>
        <time>2016-07-03T07:56:28.000Z</time>
      </trkpt>
      <trkpt lat="49.36685" lon="1.47917">
        <ele>123.94258117676</ele>
        <time>2016-07-03T07:56:31.000Z</time>
      </trkpt>
      <trkpt lat="49.36695" lon="1.47919">
        <ele>122.19660949707</ele>
        <time>2016-07-03T07:56:33.000Z</time>
      </trkpt>
      <trkpt lat="49.36718" lon="1.47939">
        <ele>120.13679504395</ele>
        <time>2016-07-03T07:56:36.000Z</time>
      </trkpt>
      <trkpt lat="49.36728" lon="1.47952">
        <ele>118.02235412598</ele>
        <time>2016-07-03T07:56:38.000Z</time>
      </trkpt>
      <trkpt lat="49.36751" lon="1.47969">
        <ele>115.51921081543</ele>
        <time>2016-07-03T07:56:41.000Z</time>
      </trkpt>
      <trkpt lat="49.36763" lon="1.47973">
        <ele>113.19165039062</ele>
        <time>2016-07-03T07:56:43.000Z</time>
      </trkpt>
      <trkpt lat="49.36803" lon="1.47987">
        <ele>109.70491027832</ele>
        <time>2016-07-03T07:56:47.000Z</time>
      </trkpt>
      <trkpt lat="49.36813" lon="1.4799">
        <ele>106.39882659912</ele>
        <time>2016-07-03T07:56:49.000Z</time>
      </trkpt>
      <trkpt lat="49.36824" lon="1.47979">
        <ele>102.76107025146</ele>
        <time>2016-07-03T07:56:51.000Z</time>
      </trkpt>
      <trkpt lat="49.36839" lon="1.4797">
        <ele>99.477424621582</ele>
        <time>2016-07-03T07:56:53.000Z</time>
      </trkpt>
      <trkpt lat="49.36858" lon="1.47955">
        <ele>96.48567199707</ele>
        <time>2016-07-03T07:56:56.000Z</time>
      </trkpt>
      <trkpt lat="49.36869" lon="1.47947">
        <ele>94.92610168457</ele>
        <time>2016-07-03T07:56:58.000Z</time>
      </trkpt>
      <trkpt lat="49.36883" lon="1.4793">
        <ele>93.622146606445</ele>
        <time>2016-07-03T07:57:01.000Z</time>
      </trkpt>
      <trkpt lat="49.36899" lon="1.47926">
        <ele>92.837326049805</ele>
        <time>2016-07-03T07:57:04.000Z</time>
      </trkpt>
      <trkpt lat="49.36907" lon="1.47918">
        <ele>92.471527099609</ele>
        <time>2016-07-03T07:57:07.000Z</time>
      </trkpt>
      <trkpt lat="49.36913" lon="1.47914">
        <ele>92.272857666016</ele>
        <time>2016-07-03T07:57:10.000Z</time>
      </trkpt>
      <trkpt lat="49.36919" lon="1.47909">
        <ele>92.26016998291</ele>
        <time>2016-07-03T07:57:13.000Z</time>
      </trkpt>
      <trkpt lat="49.36923" lon="1.47908">
        <ele>92.452171325684</ele>
        <time>2016-07-03T07:57:15.000Z</time>
      </trkpt>
      <trkpt lat="49.36929" lon="1.47903">
        <ele>92.880752563477</ele>
        <time>2016-07-03T07:57:18.000Z</time>
      </trkpt>
      <trkpt lat="49.36933" lon="1.47898">
        <ele>93.481346130371</ele>
        <time>2016-07-03T07:57:21.000Z</time>
      </trkpt>
      <trkpt lat="49.36937" lon="1.47895">
        <ele>94.181930541992</ele>
        <time>2016-07-03T07:57:24.000Z</time>
      </trkpt>
      <trkpt lat="49.36941" lon="1.47893">
        <ele>94.913444519043</ele>
        <time>2016-07-03T07:57:27.000Z</time>
      </trkpt>
      <trkpt lat="49.36945" lon="1.47892">
        <ele>95.635360717773</ele>
        <time>2016-07-03T07:57:30.000Z</time>
      </trkpt>
      <trkpt lat="49.36948" lon="1.47894">
        <ele>96.181900024414</ele>
        <time>2016-07-03T07:57:32.000Z</time>
      </trkpt>
      <trkpt lat="49.36953" lon="1.47896">
        <ele>96.672836303711</ele>
        <time>2016-07-03T07:57:35.000Z</time>
      </trkpt>
      <trkpt lat="49.36957" lon="1.47898">
        <ele>97.105857849121</ele>
        <time>2016-07-03T07:57:38.000Z</time>
      </trkpt>
      <trkpt lat="49.3696" lon="1.47901">
        <ele>97.408142089844</ele>
        <time>2016-07-03T07:57:40.000Z</time>
      </trkpt>
      <trkpt lat="49.36963" lon="1.47904">
        <ele>97.626602172852</ele>
        <time>2016-07-03T07:57:42.000Z</time>
      </trkpt>
      <trkpt lat="49.36966" lon="1.47907">
        <ele>97.844528198242</ele>
        <time>2016-07-03T07:57:44.000Z</time>
      </trkpt>
      <trkpt lat="49.36972" lon="1.47914">
        <ele>97.990028381348</ele>
        <time>2016-07-03T07:57:47.000Z</time>
      </trkpt>
      <trkpt lat="49.36978" lon="1.47921">
        <ele>98.141944885254</ele>
        <time>2016-07-03T07:57:50.000Z</time>
      </trkpt>
      <trkpt lat="49.36983" lon="1.47925">
        <ele>98.376098632812</ele>
        <time>2016-07-03T07:57:52.000Z</time>
      </trkpt>
      <trkpt lat="49.36992" lon="1.47933">
        <ele>98.734725952148</ele>
        <time>2016-07-03T07:57:55.000Z</time>
      </trkpt>
      <trkpt lat="49.37" lon="1.47937">
        <ele>99.202026367188</ele>
        <time>2016-07-03T07:57:58.000Z</time>
      </trkpt>
      <trkpt lat="49.37008" lon="1.47937">
        <ele>99.985717773438</ele>
        <time>2016-07-03T07:58:01.000Z</time>
      </trkpt>
      <trkpt lat="49.37016" lon="1.47928">
        <ele>101.02088928223</ele>
        <time>2016-07-03T07:58:04.000Z</time>
      </trkpt>
      <trkpt lat="49.37021" lon="1.47918">
        <ele>102.20121765137</ele>
        <time>2016-07-03T07:58:07.000Z</time>
      </trkpt>
      <trkpt lat="49.37024" lon="1.47911">
        <ele>103.4585723877</ele>
        <time>2016-07-03T07:58:09.000Z</time>
      </trkpt>
      <trkpt lat="49.37029" lon="1.47903">
        <ele>104.85880279541</ele>
        <time>2016-07-03T07:58:12.000Z</time>
      </trkpt>
      <trkpt lat="49.37033" lon="1.47898">
        <ele>106.1178817749</ele>
        <time>2016-07-03T07:58:14.000Z</time>
      </trkpt>
      <trkpt lat="49.37039" lon="1.47889">
        <ele>107.35084533691</ele>
        <time>2016-07-03T07:58:17.000Z</time>
      </trkpt>
      <trkpt lat="49.37041" lon="1.47884">
        <ele>108.46529388428</ele>
        <time>2016-07-03T07:58:19.000Z</time>
      </trkpt>
      <trkpt lat="49.37046" lon="1.47879">
        <ele>109.54850769043</ele>
        <time>2016-07-03T07:58:22.000Z</time>
      </trkpt>
      <trkpt lat="49.37049" lon="1.47875">
        <ele>110.47291564941</ele>
        <time>2016-07-03T07:58:24.000Z</time>
      </trkpt>
      <trkpt lat="49.37053" lon="1.47869">
        <ele>111.35453796387</ele>
        <time>2016-07-03T07:58:27.000Z</time>
      </trkpt>
      <trkpt lat="49.37056" lon="1.47864">
        <ele>112.04476165771</ele>
        <time>2016-07-03T07:58:29.000Z</time>
      </trkpt>
      <trkpt lat="49.37058" lon="1.47862">
        <ele>112.6792755127</ele>
        <time>2016-07-03T07:58:31.000Z</time>
      </trkpt>
      <trkpt lat="49.37061" lon="1.47859">
        <ele>113.21968841553</ele>
        <time>2016-07-03T07:58:34.000Z</time>
      </trkpt>
      <trkpt lat="49.37062" lon="1.47856">
        <ele>113.68751525879</ele>
        <time>2016-07-03T07:58:36.000Z</time>
      </trkpt>
      <trkpt lat="49.37066" lon="1.47852">
        <ele>114.11956787109</ele>
        <time>2016-07-03T07:58:39.000Z</time>
      </trkpt>
      <trkpt lat="49.3707" lon="1.47851">
        <ele>114.53617095947</ele>
        <time>2016-07-03T07:58:42.000Z</time>
      </trkpt>
      <trkpt lat="49.37072" lon="1.47847">
        <ele>114.95127105713</ele>
        <time>2016-07-03T07:58:45.000Z</time>
      </trkpt>
      <trkpt lat="49.37075" lon="1.47841">
        <ele>115.34208679199</ele>
        <time>2016-07-03T07:58:48.000Z</time>
      </trkpt>
      <trkpt lat="49.37077" lon="1.47838">
        <ele>115.72464752197</ele>
        <time>2016-07-03T07:58:50.000Z</time>
      </trkpt>
      <trkpt lat="49.37082" lon="1.47835">
        <ele>116.09651184082</ele>
        <time>2016-07-03T07:58:53.000Z</time>
      </trkpt>
      <trkpt lat="49.37085" lon="1.47834">
        <ele>116.4479598999</ele>
        <time>2016-07-03T07:58:56.000Z</time>
      </trkpt>
      <trkpt lat="49.37086" lon="1.47833">
        <ele>116.80053710938</ele>
        <time>2016-07-03T07:58:58.000Z</time>
      </trkpt>
      <trkpt lat="49.37089" lon="1.47832">
        <ele>117.16937255859</ele>
        <time>2016-07-03T07:59:01.000Z</time>
      </trkpt>
      <trkpt lat="49.37091" lon="1.47831">
        <ele>117.57627105713</ele>
        <time>2016-07-03T07:59:03.000Z</time>
      </trkpt>
      <trkpt lat="49.37093" lon="1.4783">
        <ele>117.95993804932</ele>
        <time>2016-07-03T07:59:05.000Z</time>
      </trkpt>
      <trkpt lat="49.37095" lon="1.47827">
        <ele>118.3494644165</ele>
        <time>2016-07-03T07:59:07.000Z</time>
      </trkpt>
      <trkpt lat="49.37099" lon="1.47821">
        <ele>118.84346008301</ele>
        <time>2016-07-03T07:59:10.000Z</time>
      </trkpt>
      <trkpt lat="49.37103" lon="1.47817">
        <ele>119.38045501709</ele>
        <time>2016-07-03T07:59:12.000Z</time>
      </trkpt>
      <trkpt lat="49.37107" lon="1.47812">
        <ele>120.00573730469</ele>
        <time>2016-07-03T07:59:15.000Z</time>
      </trkpt>
      <trkpt lat="49.37111" lon="1.47808">
        <ele>120.67835998535</ele>
        <time>2016-07-03T07:59:17.000Z</time>
      </trkpt>
      <trkpt lat="49.37115" lon="1.47803">
        <ele>121.420753479</ele>
        <time>2016-07-03T07:59:20.000Z</time>
      </trkpt>
      <trkpt lat="49.37118" lon="1.478">
        <ele>122.0765838623</ele>
        <time>2016-07-03T07:59:22.000Z</time>
      </trkpt>
      <trkpt lat="49.37121" lon="1.47797">
        <ele>122.67935943604</ele>
        <time>2016-07-03T07:59:24.000Z</time>
      </trkpt>
      <trkpt lat="49.37124" lon="1.47793">
        <ele>123.21103668213</ele>
        <time>2016-07-03T07:59:26.000Z</time>
      </trkpt>
      <trkpt lat="49.37128" lon="1.47788">
        <ele>123.72548675537</ele>
        <time>2016-07-03T07:59:29.000Z</time>
      </trkpt>
      <trkpt lat="49.37133" lon="1.47783">
        <ele>124.20422363281</ele>
        <time>2016-07-03T07:59:32.000Z</time>
      </trkpt>
      <trkpt lat="49.37136" lon="1.4778">
        <ele>124.67087554932</ele>
        <time>2016-07-03T07:59:34.000Z</time>
      </trkpt>
      <trkpt lat="49.37141" lon="1.47774">
        <ele>125.157371521</ele>
        <time>2016-07-03T07:59:37.000Z</time>
      </trkpt>
      <trkpt lat="49.37143" lon="1.47772">
        <ele>125.58072662354</ele>
        <time>2016-07-03T07:59:39.000Z</time>
      </trkpt>
      <trkpt lat="49.37145" lon="1.47769">
        <ele>125.94122314453</ele>
        <time>2016-07-03T07:59:41.000Z</time>
      </trkpt>
      <trkpt lat="49.37149" lon="1.47763">
        <ele>126.25179290771</ele>
        <time>2016-07-03T07:59:44.000Z</time>
      </trkpt>
      <trkpt lat="49.37152" lon="1.47759">
        <ele>126.53056335449</ele>
        <time>2016-07-03T07:59:46.000Z</time>
      </trkpt>
      <trkpt lat="49.37156" lon="1.47754">
        <ele>126.7692489624</ele>
        <time>2016-07-03T07:59:49.000Z</time>
      </trkpt>
      <trkpt lat="49.3716" lon="1.4775">
        <ele>127.02954101562</ele>
        <time>2016-07-03T07:59:52.000Z</time>
      </trkpt>
      <trkpt lat="49.37164" lon="1.47746">
        <ele>127.34671783447</ele>
        <time>2016-07-03T07:59:54.000Z</time>
      </trkpt>
      <trkpt lat="49.37169" lon="1.47742">
        <ele>127.73498535156</ele>
        <time>2016-07-03T07:59:57.000Z</time>
      </trkpt>
      <trkpt lat="49.37173" lon="1.47738">
        <ele>128.22192382812</ele>
        <time>2016-07-03T07:59:59.000Z</time>
      </trkpt>
      <trkpt lat="49.37175" lon="1.47735">
        <ele>128.73635864258</ele>
        <time>2016-07-03T08:00:01.000Z</time>
      </trkpt>
      <trkpt lat="49.37178" lon="1.47733">
        <ele>129.275390625</ele>
        <time>2016-07-03T08:00:03.000Z</time>
      </trkpt>
      <trkpt lat="49.37183" lon="1.47729">
        <ele>129.83851623535</ele>
        <time>2016-07-03T08:00:06.000Z</time>
      </trkpt>
      <trkpt lat="49.37188" lon="1.47725">
        <ele>130.38496398926</ele>
        <time>2016-07-03T08:00:09.000Z</time>
      </trkpt>
      <trkpt lat="49.37191" lon="1.47722">
        <ele>130.86158752441</ele>
        <time>2016-07-03T08:00:11.000Z</time>
      </trkpt>
      <trkpt lat="49.37194" lon="1.47718">
        <ele>131.34805297852</ele>
        <time>2016-07-03T08:00:14.000Z</time>
      </trkpt>
      <trkpt lat="49.37198" lon="1.47716">
        <ele>131.81852722168</ele>
        <time>2016-07-03T08:00:17.000Z</time>
      </trkpt>
      <trkpt lat="49.37201" lon="1.47712">
        <ele>132.22758483887</ele>
        <time>2016-07-03T08:00:19.000Z</time>
      </trkpt>
      <trkpt lat="49.37207" lon="1.47705">
        <ele>132.63186645508</ele>
        <time>2016-07-03T08:00:22.000Z</time>
      </trkpt>
      <trkpt lat="49.37213" lon="1.47696">
        <ele>133.07203674316</ele>
        <time>2016-07-03T08:00:25.000Z</time>
      </trkpt>
      <trkpt lat="49.37217" lon="1.47689">
        <ele>133.47518920898</ele>
        <time>2016-07-03T08:00:28.000Z</time>
      </trkpt>
      <trkpt lat="49.37222" lon="1.47686">
        <ele>133.84860229492</ele>
        <time>2016-07-03T08:00:31.000Z</time>
      </trkpt>
      <trkpt lat="49.37226" lon="1.47681">
        <ele>134.19223022461</ele>
        <time>2016-07-03T08:00:34.000Z</time>
      </trkpt>
      <trkpt lat="49.37231" lon="1.47677">
        <ele>134.45462036133</ele>
        <time>2016-07-03T08:00:37.000Z</time>
      </trkpt>
      <trkpt lat="49.37234" lon="1.47674">
        <ele>134.6205291748</ele>
        <time>2016-07-03T08:00:39.000Z</time>
      </trkpt>
      <trkpt lat="49.37237" lon="1.47671">
        <ele>134.73983764648</ele>
        <time>2016-07-03T08:00:41.000Z</time>
      </trkpt>
      <trkpt lat="49.37241" lon="1.4767">
        <ele>134.8268737793</ele>
        <time>2016-07-03T08:00:43.000Z</time>
      </trkpt>
      <trkpt lat="49.37245" lon="1.47667">
        <ele>134.88372802734</ele>
        <time>2016-07-03T08:00:46.000Z</time>
      </trkpt>
      <trkpt lat="49.37249" lon="1.47662">
        <ele>135.01278686523</ele>
        <time>2016-07-03T08:00:49.000Z</time>
      </trkpt>
      <trkpt lat="49.37253" lon="1.47658">
        <ele>135.24621582031</ele>
        <time>2016-07-03T08:00:52.000Z</time>
      </trkpt>
      <trkpt lat="49.37257" lon="1.47654">
        <ele>135.58459472656</ele>
        <time>2016-07-03T08:00:55.000Z</time>
      </trkpt>
      <trkpt lat="49.3726" lon="1.47652">
        <ele>135.97241210938</ele>
        <time>2016-07-03T08:00:57.000Z</time>
      </trkpt>
      <trkpt lat="49.37263" lon="1.47647">
        <ele>136.46633911133</ele>
        <time>2016-07-03T08:01:00.000Z</time>
      </trkpt>
      <trkpt lat="49.37266" lon="1.47642">
        <ele>136.97288513184</ele>
        <time>2016-07-03T08:01:03.000Z</time>
      </trkpt>
      <trkpt lat="49.37268" lon="1.47639">
        <ele>137.43440246582</ele>
        <time>2016-07-03T08:01:05.000Z</time>
      </trkpt>
      <trkpt lat="49.37273" lon="1.47632">
        <ele>137.90281677246</ele>
        <time>2016-07-03T08:01:08.000Z</time>
      </trkpt>
      <trkpt lat="49.37278" lon="1.47626">
        <ele>138.40754699707</ele>
        <time>2016-07-03T08:01:11.000Z</time>
      </trkpt>
      <trkpt lat="49.37281" lon="1.47621">
        <ele>138.88696289062</ele>
        <time>2016-07-03T08:01:14.000Z</time>
      </trkpt>
      <trkpt lat="49.37283" lon="1.47617">
        <ele>139.30958557129</ele>
        <time>2016-07-03T08:01:16.000Z</time>
      </trkpt>
      <trkpt lat="49.37284" lon="1.47612">
        <ele>139.71806335449</ele>
        <time>2016-07-03T08:01:19.000Z</time>
      </trkpt>
      <trkpt lat="49.37286" lon="1.47608">
        <ele>140.05744934082</ele>
        <time>2016-07-03T08:01:22.000Z</time>
      </trkpt>
      <trkpt lat="49.37287" lon="1.47605">
        <ele>140.34423828125</ele>
        <time>2016-07-03T08:01:25.000Z</time>
      </trkpt>
      <trkpt lat="49.37288" lon="1.47602">
        <ele>140.57194519043</ele>
        <time>2016-07-03T08:01:27.000Z</time>
      </trkpt>
      <trkpt lat="49.37291" lon="1.47597">
        <ele>140.79956054688</ele>
        <time>2016-07-03T08:01:30.000Z</time>
      </trkpt>
      <trkpt lat="49.37291" lon="1.47593">
        <ele>141.01594543457</ele>
        <time>2016-07-03T08:01:32.000Z</time>
      </trkpt>
      <trkpt lat="49.37292" lon="1.4759">
        <ele>141.2095489502</ele>
        <time>2016-07-03T08:01:34.000Z</time>
      </trkpt>
      <trkpt lat="49.37294" lon="1.47588">
        <ele>141.37423706055</ele>
        <time>2016-07-03T08:01:36.000Z</time>
      </trkpt>
      <trkpt lat="49.37296" lon="1.47583">
        <ele>141.54136657715</ele>
        <time>2016-07-03T08:01:39.000Z</time>
      </trkpt>
      <trkpt lat="49.373" lon="1.47578">
        <ele>141.67526245117</ele>
        <time>2016-07-03T08:01:42.000Z</time>
      </trkpt>
      <trkpt lat="49.37302" lon="1.47573">
        <ele>141.7914276123</ele>
        <time>2016-07-03T08:01:45.000Z</time>
      </trkpt>
      <trkpt lat="49.37305" lon="1.47568">
        <ele>141.90119934082</ele>
        <time>2016-07-03T08:01:48.000Z</time>
      </trkpt>
      <trkpt lat="49.37307" lon="1.47564">
        <ele>142.02474975586</ele>
        <time>2016-07-03T08:01:50.000Z</time>
      </trkpt>
      <trkpt lat="49.37308" lon="1.4756">
        <ele>142.14790344238</ele>
        <time>2016-07-03T08:01:52.000Z</time>
      </trkpt>
      <trkpt lat="49.3731" lon="1.47556">
        <ele>142.25721740723</ele>
        <time>2016-07-03T08:01:54.000Z</time>
      </trkpt>
      <trkpt lat="49.37314" lon="1.47552">
        <ele>142.33767700195</ele>
        <time>2016-07-03T08:01:57.000Z</time>
      </trkpt>
      <trkpt lat="49.37318" lon="1.47546">
        <ele>142.39459228516</ele>
        <time>2016-07-03T08:02:00.000Z</time>
      </trkpt>
      <trkpt lat="49.3732" lon="1.47541">
        <ele>142.43992614746</ele>
        <time>2016-07-03T08:02:03.000Z</time>
      </trkpt>
      <trkpt lat="49.37322" lon="1.47538">
        <ele>142.44941711426</ele>
        <time>2016-07-03T08:02:05.000Z</time>
      </trkpt>
      <trkpt lat="49.37325" lon="1.47533">
        <ele>142.4462890625</ele>
        <time>2016-07-03T08:02:08.000Z</time>
      </trkpt>
      <trkpt lat="49.37328" lon="1.47529">
        <ele>142.44075012207</ele>
        <time>2016-07-03T08:02:10.000Z</time>
      </trkpt>
      <trkpt lat="49.3733" lon="1.47525">
        <ele>142.42543029785</ele>
        <time>2016-07-03T08:02:13.000Z</time>
      </trkpt>
      <trkpt lat="49.37333" lon="1.47523">
        <ele>142.37405395508</ele>
        <time>2016-07-03T08:02:16.000Z</time>
      </trkpt>
      <trkpt lat="49.37334" lon="1.4752">
        <ele>142.35911560059</ele>
        <time>2016-07-03T08:02:18.000Z</time>
      </trkpt>
      <trkpt lat="49.37337" lon="1.47515">
        <ele>142.4348449707</ele>
        <time>2016-07-03T08:02:21.000Z</time>
      </trkpt>
      <trkpt lat="49.37339" lon="1.47512">
        <ele>142.57258605957</ele>
        <time>2016-07-03T08:02:23.000Z</time>
      </trkpt>
      <trkpt lat="49.37341" lon="1.47509">
        <ele>142.77713012695</ele>
        <time>2016-07-03T08:02:25.000Z</time>
      </trkpt>
      <trkpt lat="49.37344" lon="1.47505">
        <ele>143.07345581055</ele>
        <time>2016-07-03T08:02:28.000Z</time>
      </trkpt>
      <trkpt lat="49.37346" lon="1.47502">
        <ele>143.38696289062</ele>
        <time>2016-07-03T08:02:30.000Z</time>
      </trkpt>
      <trkpt lat="49.37349" lon="1.47498">
        <ele>143.7077331543</ele>
        <time>2016-07-03T08:02:33.000Z</time>
      </trkpt>
      <trkpt lat="49.3735" lon="1.47495">
        <ele>144.02752685547</ele>
        <time>2016-07-03T08:02:35.000Z</time>
      </trkpt>
      <trkpt lat="49.37353" lon="1.47492">
        <ele>144.36019897461</ele>
        <time>2016-07-03T08:02:38.000Z</time>
      </trkpt>
      <trkpt lat="49.37355" lon="1.4749">
        <ele>144.68965148926</ele>
        <time>2016-07-03T08:02:40.000Z</time>
      </trkpt>
      <trkpt lat="49.37358" lon="1.47486">
        <ele>145.07797241211</ele>
        <time>2016-07-03T08:02:43.000Z</time>
      </trkpt>
      <trkpt lat="49.37361" lon="1.47483">
        <ele>145.44253540039</ele>
        <time>2016-07-03T08:02:45.000Z</time>
      </trkpt>
      <trkpt lat="49.37364" lon="1.47481">
        <ele>145.8323059082</ele>
        <time>2016-07-03T08:02:48.000Z</time>
      </trkpt>
      <trkpt lat="49.37366" lon="1.47477">
        <ele>146.2303314209</ele>
        <time>2016-07-03T08:02:50.000Z</time>
      </trkpt>
      <trkpt lat="49.37367" lon="1.47474">
        <ele>146.63131713867</ele>
        <time>2016-07-03T08:02:52.000Z</time>
      </trkpt>
      <trkpt lat="49.3737" lon="1.47467">
        <ele>147.05725097656</ele>
        <time>2016-07-03T08:02:55.000Z</time>
      </trkpt>
      <trkpt lat="49.37372" lon="1.47465">
        <ele>147.46899414062</ele>
        <time>2016-07-03T08:02:57.000Z</time>
      </trkpt>
      <trkpt lat="49.37374" lon="1.47463">
        <ele>147.8733215332</ele>
        <time>2016-07-03T08:03:00.000Z</time>
      </trkpt>
      <trkpt lat="49.37376" lon="1.4746">
        <ele>148.26240539551</ele>
        <time>2016-07-03T08:03:02.000Z</time>
      </trkpt>
      <trkpt lat="49.37378" lon="1.47457">
        <ele>148.6559753418</ele>
        <time>2016-07-03T08:03:04.000Z</time>
      </trkpt>
      <trkpt lat="49.3738" lon="1.47454">
        <ele>149.00601196289</ele>
        <time>2016-07-03T08:03:06.000Z</time>
      </trkpt>
      <trkpt lat="49.37383" lon="1.47451">
        <ele>149.4016418457</ele>
        <time>2016-07-03T08:03:09.000Z</time>
      </trkpt>
      <trkpt lat="49.37387" lon="1.47446">
        <ele>149.85885620117</ele>
        <time>2016-07-03T08:03:12.000Z</time>
      </trkpt>
      <trkpt lat="49.3739" lon="1.47442">
        <ele>150.35356140137</ele>
        <time>2016-07-03T08:03:14.000Z</time>
      </trkpt>
      <trkpt lat="49.37394" lon="1.47438">
        <ele>150.91009521484</ele>
        <time>2016-07-03T08:03:17.000Z</time>
      </trkpt>
      <trkpt lat="49.37396" lon="1.47436">
        <ele>151.46382141113</ele>
        <time>2016-07-03T08:03:19.000Z</time>
      </trkpt>
      <trkpt lat="49.374" lon="1.47432">
        <ele>152.04911804199</ele>
        <time>2016-07-03T08:03:22.000Z</time>
      </trkpt>
      <trkpt lat="49.37405" lon="1.47427">
        <ele>152.6650390625</ele>
        <time>2016-07-03T08:03:25.000Z</time>
      </trkpt>
      <trkpt lat="49.37407" lon="1.47424">
        <ele>153.27836608887</ele>
        <time>2016-07-03T08:03:27.000Z</time>
      </trkpt>
      <trkpt lat="49.3741" lon="1.4742">
        <ele>153.87228393555</ele>
        <time>2016-07-03T08:03:30.000Z</time>
      </trkpt>
      <trkpt lat="49.37412" lon="1.47418">
        <ele>154.4380645752</ele>
        <time>2016-07-03T08:03:32.000Z</time>
      </trkpt>
      <trkpt lat="49.37415" lon="1.47414">
        <ele>154.98027038574</ele>
        <time>2016-07-03T08:03:35.000Z</time>
      </trkpt>
      <trkpt lat="49.37418" lon="1.47411">
        <ele>155.48155212402</ele>
        <time>2016-07-03T08:03:38.000Z</time>
      </trkpt>
      <trkpt lat="49.37421" lon="1.47407">
        <ele>156.05087280273</ele>
        <time>2016-07-03T08:03:41.000Z</time>
      </trkpt>
      <trkpt lat="49.37423" lon="1.47404">
        <ele>156.59750366211</ele>
        <time>2016-07-03T08:03:43.000Z</time>
      </trkpt>
      <trkpt lat="49.37426" lon="1.47398">
        <ele>157.24536132812</ele>
        <time>2016-07-03T08:03:46.000Z</time>
      </trkpt>
      <trkpt lat="49.37429" lon="1.47392">
        <ele>157.95617675781</ele>
        <time>2016-07-03T08:03:49.000Z</time>
      </trkpt>
      <trkpt lat="49.3743" lon="1.47384">
        <ele>158.67523193359</ele>
        <time>2016-07-03T08:03:52.000Z</time>
      </trkpt>
      <trkpt lat="49.37431" lon="1.47378">
        <ele>159.31759643555</ele>
        <time>2016-07-03T08:03:54.000Z</time>
      </trkpt>
      <trkpt lat="49.37432" lon="1.47372">
        <ele>159.96611022949</ele>
        <time>2016-07-03T08:03:57.000Z</time>
      </trkpt>
      <trkpt lat="49.37434" lon="1.47367">
        <ele>160.55265808105</ele>
        <time>2016-07-03T08:04:00.000Z</time>
      </trkpt>
      <trkpt lat="49.37435" lon="1.47363">
        <ele>161.05502319336</ele>
        <time>2016-07-03T08:04:02.000Z</time>
      </trkpt>
      <trkpt lat="49.37436" lon="1.47361">
        <ele>161.45585632324</ele>
        <time>2016-07-03T08:04:05.000Z</time>
      </trkpt>
      <trkpt lat="49.37436" lon="1.47359">
        <ele>161.8042755127</ele>
        <time>2016-07-03T08:04:10.000Z</time>
      </trkpt>
      <trkpt lat="49.37435" lon="1.47357">
        <ele>162.04647827148</ele>
        <time>2016-07-03T08:04:19.000Z</time>
      </trkpt>
      <trkpt lat="49.37436" lon="1.47359">
        <ele>162.19320678711</ele>
        <time>2016-07-03T08:04:21.000Z</time>
      </trkpt>
      <trkpt lat="49.37436" lon="1.47362">
        <ele>162.21830749512</ele>
        <time>2016-07-03T08:04:23.000Z</time>
      </trkpt>
      <trkpt lat="49.37434" lon="1.47369">
        <ele>162.10284423828</ele>
        <time>2016-07-03T08:04:25.000Z</time>
      </trkpt>
      <trkpt lat="49.37434" lon="1.47383">
        <ele>161.80276489258</ele>
        <time>2016-07-03T08:04:28.000Z</time>
      </trkpt>
      <trkpt lat="49.37436" lon="1.47393">
        <ele>161.46675109863</ele>
        <time>2016-07-03T08:04:30.000Z</time>
      </trkpt>
      <trkpt lat="49.37439" lon="1.47408">
        <ele>161.08410644531</ele>
        <time>2016-07-03T08:04:33.000Z</time>
      </trkpt>
      <trkpt lat="49.37444" lon="1.47424">
        <ele>160.74784851074</ele>
        <time>2016-07-03T08:04:36.000Z</time>
      </trkpt>
      <trkpt lat="49.3745" lon="1.4744">
        <ele>160.57479858398</ele>
        <time>2016-07-03T08:04:39.000Z</time>
      </trkpt>
      <trkpt lat="49.37454" lon="1.47451">
        <ele>160.60952758789</ele>
        <time>2016-07-03T08:04:41.000Z</time>
      </trkpt>
      <trkpt lat="49.37458" lon="1.47463">
        <ele>160.73992919922</ele>
        <time>2016-07-03T08:04:43.000Z</time>
      </trkpt>
      <trkpt lat="49.37462" lon="1.47474">
        <ele>160.96318054199</ele>
        <time>2016-07-03T08:04:45.000Z</time>
      </trkpt>
      <trkpt lat="49.37468" lon="1.47492">
        <ele>161.26678466797</ele>
        <time>2016-07-03T08:04:48.000Z</time>
      </trkpt>
      <trkpt lat="49.37473" lon="1.47509">
        <ele>161.67749023438</ele>
        <time>2016-07-03T08:04:51.000Z</time>
      </trkpt>
      <trkpt lat="49.37476" lon="1.47521">
        <ele>162.19125366211</ele>
        <time>2016-07-03T08:04:53.000Z</time>
      </trkpt>
      <trkpt lat="49.3748" lon="1.47533">
        <ele>162.79513549805</ele>
        <time>2016-07-03T08:04:55.000Z</time>
      </trkpt>
      <trkpt lat="49.37484" lon="1.47548">
        <ele>163.55506896973</ele>
        <time>2016-07-03T08:04:58.000Z</time>
      </trkpt>
      <trkpt lat="49.37487" lon="1.47558">
        <ele>164.33210754395</ele>
        <time>2016-07-03T08:05:00.000Z</time>
      </trkpt>
      <trkpt lat="49.37489" lon="1.47567">
        <ele>165.06030273438</ele>
        <time>2016-07-03T08:05:02.000Z</time>
      </trkpt>
      <trkpt lat="49.37491" lon="1.47576">
        <ele>165.72290039062</ele>
        <time>2016-07-03T08:05:04.000Z</time>
      </trkpt>
      <trkpt lat="49.37494" lon="1.47589">
        <ele>166.35736083984</ele>
        <time>2016-07-03T08:05:07.000Z</time>
      </trkpt>
      <trkpt lat="49.37498" lon="1.47602">
        <ele>166.85594177246</ele>
        <time>2016-07-03T08:05:10.000Z</time>
      </trkpt>
      <trkpt lat="49.37501" lon="1.47614">
        <ele>167.28796386719</ele>
        <time>2016-07-03T08:05:13.000Z</time>
      </trkpt>
      <trkpt lat="49.37503" lon="1.47623">
        <ele>167.59480285645</ele>
        <time>2016-07-03T08:05:15.000Z</time>
      </trkpt>
      <trkpt lat="49.37505" lon="1.47631">
        <ele>167.79556274414</ele>
        <time>2016-07-03T08:05:17.000Z</time>
      </trkpt>
      <trkpt lat="49.37508" lon="1.47643">
        <ele>167.8713684082</ele>
        <time>2016-07-03T08:05:20.000Z</time>
      </trkpt>
      <trkpt lat="49.37511" lon="1.47656">
        <ele>167.86010742188</ele>
        <time>2016-07-03T08:05:23.000Z</time>
      </trkpt>
      <trkpt lat="49.37513" lon="1.47664">
        <ele>167.80285644531</ele>
        <time>2016-07-03T08:05:25.000Z</time>
      </trkpt>
      <trkpt lat="49.37516" lon="1.47677">
        <ele>167.67211914062</ele>
        <time>2016-07-03T08:05:28.000Z</time>
      </trkpt>
      <trkpt lat="49.37519" lon="1.47686">
        <ele>167.49766540527</ele>
        <time>2016-07-03T08:05:30.000Z</time>
      </trkpt>
      <trkpt lat="49.37521" lon="1.47697">
        <ele>167.2388458252</ele>
        <time>2016-07-03T08:05:33.000Z</time>
      </trkpt>
      <trkpt lat="49.37522" lon="1.47705">
        <ele>166.91435241699</ele>
        <time>2016-07-03T08:05:35.000Z</time>
      </trkpt>
      <trkpt lat="49.37524" lon="1.47718">
        <ele>166.47177124023</ele>
        <time>2016-07-03T08:05:38.000Z</time>
      </trkpt>
      <trkpt lat="49.37527" lon="1.47726">
        <ele>166.05810546875</ele>
        <time>2016-07-03T08:05:40.000Z</time>
      </trkpt>
      <trkpt lat="49.3753" lon="1.47739">
        <ele>165.58526611328</ele>
        <time>2016-07-03T08:05:43.000Z</time>
      </trkpt>
      <trkpt lat="49.37532" lon="1.47748">
        <ele>165.11929321289</ele>
        <time>2016-07-03T08:05:45.000Z</time>
      </trkpt>
      <trkpt lat="49.37534" lon="1.47757">
        <ele>164.72573852539</ele>
        <time>2016-07-03T08:05:47.000Z</time>
      </trkpt>
      <trkpt lat="49.37537" lon="1.47766">
        <ele>164.45956420898</ele>
        <time>2016-07-03T08:05:49.000Z</time>
      </trkpt>
      <trkpt lat="49.37541" lon="1.47779">
        <ele>164.26173400879</ele>
        <time>2016-07-03T08:05:52.000Z</time>
      </trkpt>
      <trkpt lat="49.37546" lon="1.47794">
        <ele>164.19746398926</ele>
        <time>2016-07-03T08:05:55.000Z</time>
      </trkpt>
      <trkpt lat="49.37552" lon="1.4781">
        <ele>164.2371673584</ele>
        <time>2016-07-03T08:05:58.000Z</time>
      </trkpt>
      <trkpt lat="49.37557" lon="1.47821">
        <ele>164.31051635742</ele>
        <time>2016-07-03T08:06:01.000Z</time>
      </trkpt>
      <trkpt lat="49.3756" lon="1.47828">
        <ele>164.3752746582</ele>
        <time>2016-07-03T08:06:03.000Z</time>
      </trkpt>
      <trkpt lat="49.37563" lon="1.47838">
        <ele>164.42138671875</ele>
        <time>2016-07-03T08:06:05.000Z</time>
      </trkpt>
      <trkpt lat="49.37566" lon="1.47851">
        <ele>164.44660949707</ele>
        <time>2016-07-03T08:06:08.000Z</time>
      </trkpt>
      <trkpt lat="49.3757" lon="1.47864">
        <ele>164.46566772461</ele>
        <time>2016-07-03T08:06:11.000Z</time>
      </trkpt>
      <trkpt lat="49.37573" lon="1.47876">
        <ele>164.45101928711</ele>
        <time>2016-07-03T08:06:14.000Z</time>
      </trkpt>
      <trkpt lat="49.37576" lon="1.47884">
        <ele>164.43884277344</ele>
        <time>2016-07-03T08:06:16.000Z</time>
      </trkpt>
      <trkpt lat="49.37579" lon="1.47892">
        <ele>164.42892456055</ele>
        <time>2016-07-03T08:06:18.000Z</time>
      </trkpt>
      <trkpt lat="49.37584" lon="1.47904">
        <ele>164.4041595459</ele>
        <time>2016-07-03T08:06:21.000Z</time>
      </trkpt>
      <trkpt lat="49.37587" lon="1.47912">
        <ele>164.35940551758</ele>
        <time>2016-07-03T08:06:23.000Z</time>
      </trkpt>
      <trkpt lat="49.37589" lon="1.47921">
        <ele>164.33828735352</ele>
        <time>2016-07-03T08:06:25.000Z</time>
      </trkpt>
      <trkpt lat="49.37592" lon="1.47929">
        <ele>164.36457824707</ele>
        <time>2016-07-03T08:06:27.000Z</time>
      </trkpt>
      <trkpt lat="49.37596" lon="1.4794">
        <ele>164.4556427002</ele>
        <time>2016-07-03T08:06:30.000Z</time>
      </trkpt>
      <trkpt lat="49.37599" lon="1.47947">
        <ele>164.60610961914</ele>
        <time>2016-07-03T08:06:32.000Z</time>
      </trkpt>
      <trkpt lat="49.37602" lon="1.47954">
        <ele>164.79998779297</ele>
        <time>2016-07-03T08:06:34.000Z</time>
      </trkpt>
      <trkpt lat="49.37607" lon="1.47965">
        <ele>165.04606628418</ele>
        <time>2016-07-03T08:06:37.000Z</time>
      </trkpt>
      <trkpt lat="49.3761" lon="1.47974">
        <ele>165.28408813477</ele>
        <time>2016-07-03T08:06:39.000Z</time>
      </trkpt>
      <trkpt lat="49.37616" lon="1.47988">
        <ele>165.52856445312</ele>
        <time>2016-07-03T08:06:42.000Z</time>
      </trkpt>
      <trkpt lat="49.37619" lon="1.47997">
        <ele>165.77075195312</ele>
        <time>2016-07-03T08:06:44.000Z</time>
      </trkpt>
      <trkpt lat="49.37625" lon="1.48012">
        <ele>166.01220703125</ele>
        <time>2016-07-03T08:06:47.000Z</time>
      </trkpt>
      <trkpt lat="49.37631" lon="1.48028">
        <ele>166.2200012207</ele>
        <time>2016-07-03T08:06:50.000Z</time>
      </trkpt>
      <trkpt lat="49.37637" lon="1.48043">
        <ele>166.42221069336</ele>
        <time>2016-07-03T08:06:53.000Z</time>
      </trkpt>
      <trkpt lat="49.37643" lon="1.48059">
        <ele>166.59916687012</ele>
        <time>2016-07-03T08:06:56.000Z</time>
      </trkpt>
      <trkpt lat="49.37649" lon="1.48075">
        <ele>166.78239440918</ele>
        <time>2016-07-03T08:06:59.000Z</time>
      </trkpt>
      <trkpt lat="49.37655" lon="1.4809">
        <ele>166.96391296387</ele>
        <time>2016-07-03T08:07:02.000Z</time>
      </trkpt>
      <trkpt lat="49.37659" lon="1.48101">
        <ele>167.12870788574</ele>
        <time>2016-07-03T08:07:04.000Z</time>
      </trkpt>
      <trkpt lat="49.37666" lon="1.48118">
        <ele>167.28298950195</ele>
        <time>2016-07-03T08:07:07.000Z</time>
      </trkpt>
      <trkpt lat="49.37672" lon="1.48136">
        <ele>167.39270019531</ele>
        <time>2016-07-03T08:07:10.000Z</time>
      </trkpt>
      <trkpt lat="49.37676" lon="1.48149">
        <ele>167.43978881836</ele>
        <time>2016-07-03T08:07:12.000Z</time>
      </trkpt>
      <trkpt lat="49.37681" lon="1.48169">
        <ele>167.43362426758</ele>
        <time>2016-07-03T08:07:15.000Z</time>
      </trkpt>
      <trkpt lat="49.37688" lon="1.4819">
        <ele>167.4027557373</ele>
        <time>2016-07-03T08:07:18.000Z</time>
      </trkpt>
      <trkpt lat="49.37693" lon="1.48203">
        <ele>167.3337097168</ele>
        <time>2016-07-03T08:07:20.000Z</time>
      </trkpt>
      <trkpt lat="49.37701" lon="1.48224">
        <ele>167.26235961914</ele>
        <time>2016-07-03T08:07:23.000Z</time>
      </trkpt>
      <trkpt lat="49.37708" lon="1.48233">
        <ele>167.21723937988</ele>
        <time>2016-07-03T08:07:25.000Z</time>
      </trkpt>
      <trkpt lat="49.37715" lon="1.4825">
        <ele>167.18577575684</ele>
        <time>2016-07-03T08:07:28.000Z</time>
      </trkpt>
      <trkpt lat="49.3772" lon="1.4826">
        <ele>167.21086120605</ele>
        <time>2016-07-03T08:07:30.000Z</time>
      </trkpt>
      <trkpt lat="49.37724" lon="1.48275">
        <ele>167.28987121582</ele>
        <time>2016-07-03T08:07:32.000Z</time>
      </trkpt>
      <trkpt lat="49.3773" lon="1.4829">
        <ele>167.4362487793</ele>
        <time>2016-07-03T08:07:35.000Z</time>
      </trkpt>
      <trkpt lat="49.37735" lon="1.483">
        <ele>167.62342834473</ele>
        <time>2016-07-03T08:07:37.000Z</time>
      </trkpt>
      <trkpt lat="49.3774" lon="1.48314">
        <ele>167.87719726562</ele>
        <time>2016-07-03T08:07:40.000Z</time>
      </trkpt>
      <trkpt lat="49.37744" lon="1.48328">
        <ele>168.14558410645</ele>
        <time>2016-07-03T08:07:43.000Z</time>
      </trkpt>
      <trkpt lat="49.37741" lon="1.48342">
        <ele>168.42204284668</ele>
        <time>2016-07-03T08:07:46.000Z</time>
      </trkpt>
      <trkpt lat="49.37736" lon="1.4835">
        <ele>168.65328979492</ele>
        <time>2016-07-03T08:07:48.000Z</time>
      </trkpt>
      <trkpt lat="49.37725" lon="1.4836">
        <ele>168.82066345215</ele>
        <time>2016-07-03T08:07:51.000Z</time>
      </trkpt>
      <trkpt lat="49.37719" lon="1.48367">
        <ele>168.92112731934</ele>
        <time>2016-07-03T08:07:53.000Z</time>
      </trkpt>
      <trkpt lat="49.37711" lon="1.48377">
        <ele>168.96365356445</ele>
        <time>2016-07-03T08:07:56.000Z</time>
      </trkpt>
      <trkpt lat="49.37706" lon="1.48387">
        <ele>168.97431945801</ele>
        <time>2016-07-03T08:07:58.000Z</time>
      </trkpt>
      <trkpt lat="49.37701" lon="1.48397">
        <ele>168.98608398438</ele>
        <time>2016-07-03T08:08:00.000Z</time>
      </trkpt>
      <trkpt lat="49.37692" lon="1.48415">
        <ele>169.02505493164</ele>
        <time>2016-07-03T08:08:03.000Z</time>
      </trkpt>
      <trkpt lat="49.37684" lon="1.48432">
        <ele>169.06341552734</ele>
        <time>2016-07-03T08:08:06.000Z</time>
      </trkpt>
      <trkpt lat="49.37675" lon="1.48434">
        <ele>169.0309753418</ele>
        <time>2016-07-03T08:08:09.000Z</time>
      </trkpt>
      <trkpt lat="49.37668" lon="1.48423">
        <ele>168.87008666992</ele>
        <time>2016-07-03T08:08:12.000Z</time>
      </trkpt>
      <trkpt lat="49.37666" lon="1.48416">
        <ele>168.64120483398</ele>
        <time>2016-07-03T08:08:14.000Z</time>
      </trkpt>
      <trkpt lat="49.37658" lon="1.48402">
        <ele>168.26759338379</ele>
        <time>2016-07-03T08:08:17.000Z</time>
      </trkpt>
      <trkpt lat="49.37632" lon="1.48371">
        <ele>167.48043823242</ele>
        <time>2016-07-03T08:08:21.000Z</time>
      </trkpt>
      <trkpt lat="49.37602" lon="1.4832">
        <ele>166.0973815918</ele>
        <time>2016-07-03T08:08:25.000Z</time>
      </trkpt>
      <trkpt lat="49.37592" lon="1.48301">
        <ele>164.61672973633</ele>
        <time>2016-07-03T08:08:27.000Z</time>
      </trkpt>
      <trkpt lat="49.37577" lon="1.48261">
        <ele>162.80445861816</ele>
        <time>2016-07-03T08:08:30.000Z</time>
      </trkpt>
      <trkpt lat="49.37555" lon="1.48251">
        <ele>160.75552368164</ele>
        <time>2016-07-03T08:08:32.000Z</time>
      </trkpt>
      <trkpt lat="49.37545" lon="1.48229">
        <ele>159.01959228516</ele>
        <time>2016-07-03T08:08:34.000Z</time>
      </trkpt>
      <trkpt lat="49.37523" lon="1.48206">
        <ele>157.58813476562</ele>
        <time>2016-07-03T08:08:37.000Z</time>
      </trkpt>
      <trkpt lat="49.37513" lon="1.4819">
        <ele>156.16148376465</ele>
        <time>2016-07-03T08:08:39.000Z</time>
      </trkpt>
      <trkpt lat="49.37492" lon="1.48189">
        <ele>154.73175048828</ele>
        <time>2016-07-03T08:08:42.000Z</time>
      </trkpt>
      <trkpt lat="49.37471" lon="1.48183">
        <ele>153.32736206055</ele>
        <time>2016-07-03T08:08:45.000Z</time>
      </trkpt>
      <trkpt lat="49.37445" lon="1.48168">
        <ele>151.40873718262</ele>
        <time>2016-07-03T08:08:48.000Z</time>
      </trkpt>
      <trkpt lat="49.3741" lon="1.48156">
        <ele>149.2887878418</ele>
        <time>2016-07-03T08:08:51.000Z</time>
      </trkpt>
      <trkpt lat="49.37352" lon="1.48128">
        <ele>146.88168334961</ele>
        <time>2016-07-03T08:08:55.000Z</time>
      </trkpt>
      <trkpt lat="49.37331" lon="1.48116">
        <ele>144.67250061035</ele>
        <time>2016-07-03T08:08:58.000Z</time>
      </trkpt>
      <trkpt lat="49.37319" lon="1.48112">
        <ele>142.67231750488</ele>
        <time>2016-07-03T08:09:00.000Z</time>
      </trkpt>
      <trkpt lat="49.37246" lon="1.48112">
        <ele>140.30374145508</ele>
        <time>2016-07-03T08:09:06.000Z</time>
      </trkpt>
      <trkpt lat="49.37202" lon="1.48121">
        <ele>137.39498901367</ele>
        <time>2016-07-03T08:09:09.000Z</time>
      </trkpt>
      <trkpt lat="49.3718" lon="1.48104">
        <ele>134.46717834473</ele>
        <time>2016-07-03T08:09:12.000Z</time>
      </trkpt>
      <trkpt lat="49.37156" lon="1.48095">
        <ele>130.95690917969</ele>
        <time>2016-07-03T08:09:15.000Z</time>
      </trkpt>
      <trkpt lat="49.3714" lon="1.48089">
        <ele>127.02494812012</ele>
        <time>2016-07-03T08:09:17.000Z</time>
      </trkpt>
      <trkpt lat="49.3708" lon="1.48119">
        <ele>122.17686462402</ele>
        <time>2016-07-03T08:09:22.000Z</time>
      </trkpt>
      <trkpt lat="49.37066" lon="1.4813">
        <ele>118.02894592285</ele>
        <time>2016-07-03T08:09:24.000Z</time>
      </trkpt>
      <trkpt lat="49.3705" lon="1.48138">
        <ele>113.90358734131</ele>
        <time>2016-07-03T08:09:27.000Z</time>
      </trkpt>
      <trkpt lat="49.37041" lon="1.48144">
        <ele>110.26948547363</ele>
        <time>2016-07-03T08:09:30.000Z</time>
      </trkpt>
      <trkpt lat="49.37043" lon="1.48157">
        <ele>107.29306793213</ele>
        <time>2016-07-03T08:09:33.000Z</time>
      </trkpt>
      <trkpt lat="49.37046" lon="1.48174">
        <ele>106.33648681641</ele>
        <time>2016-07-03T08:09:36.000Z</time>
      </trkpt>
      <trkpt lat="49.3705" lon="1.48185">
        <ele>105.86836242676</ele>
        <time>2016-07-03T08:09:38.000Z</time>
      </trkpt>
      <trkpt lat="49.37054" lon="1.48197">
        <ele>105.98238372803</ele>
        <time>2016-07-03T08:09:40.000Z</time>
      </trkpt>
      <trkpt lat="49.37057" lon="1.48203">
        <ele>106.44632720947</ele>
        <time>2016-07-03T08:09:42.000Z</time>
      </trkpt>
      <trkpt lat="49.37074" lon="1.48235">
        <ele>107.24814605713</ele>
        <time>2016-07-03T08:09:46.000Z</time>
      </trkpt>
      <trkpt lat="49.37078" lon="1.48247">
        <ele>108.06467437744</ele>
        <time>2016-07-03T08:09:48.000Z</time>
      </trkpt>
      <trkpt lat="49.37085" lon="1.48266">
        <ele>108.77585601807</ele>
        <time>2016-07-03T08:09:50.000Z</time>
      </trkpt>
      <trkpt lat="49.37094" lon="1.4829">
        <ele>109.45863342285</ele>
        <time>2016-07-03T08:09:53.000Z</time>
      </trkpt>
      <trkpt lat="49.37099" lon="1.48311">
        <ele>109.95989990234</ele>
        <time>2016-07-03T08:09:55.000Z</time>
      </trkpt>
      <trkpt lat="49.37112" lon="1.4834">
        <ele>110.33823394775</ele>
        <time>2016-07-03T08:09:58.000Z</time>
      </trkpt>
      <trkpt lat="49.37116" lon="1.48365">
        <ele>110.70240783691</ele>
        <time>2016-07-03T08:10:00.000Z</time>
      </trkpt>
      <trkpt lat="49.3712" lon="1.48398">
        <ele>111.09140777588</ele>
        <time>2016-07-03T08:10:03.000Z</time>
      </trkpt>
      <trkpt lat="49.37119" lon="1.48418">
        <ele>111.22149658203</ele>
        <time>2016-07-03T08:10:05.000Z</time>
      </trkpt>
      <trkpt lat="49.37118" lon="1.48457">
        <ele>110.80519104004</ele>
        <time>2016-07-03T08:10:08.000Z</time>
      </trkpt>
      <trkpt lat="49.37125" lon="1.48498">
        <ele>109.655128479</ele>
        <time>2016-07-03T08:10:11.000Z</time>
      </trkpt>
      <trkpt lat="49.37128" lon="1.4853">
        <ele>107.9134979248</ele>
        <time>2016-07-03T08:10:14.000Z</time>
      </trkpt>
      <trkpt lat="49.37135" lon="1.48568">
        <ele>105.6884765625</ele>
        <time>2016-07-03T08:10:17.000Z</time>
      </trkpt>
      <trkpt lat="49.37142" lon="1.48587">
        <ele>103.559425354</ele>
        <time>2016-07-03T08:10:19.000Z</time>
      </trkpt>
      <trkpt lat="49.37156" lon="1.48615">
        <ele>102.24959564209</ele>
        <time>2016-07-03T08:10:22.000Z</time>
      </trkpt>
      <trkpt lat="49.37164" lon="1.48653">
        <ele>101.06163787842</ele>
        <time>2016-07-03T08:10:25.000Z</time>
      </trkpt>
      <trkpt lat="49.37172" lon="1.48675">
        <ele>100.55198669434</ele>
        <time>2016-07-03T08:10:27.000Z</time>
      </trkpt>
      <trkpt lat="49.37181" lon="1.48704">
        <ele>101.04704284668</ele>
        <time>2016-07-03T08:10:30.000Z</time>
      </trkpt>
      <trkpt lat="49.37187" lon="1.48725">
        <ele>101.81956481934</ele>
        <time>2016-07-03T08:10:32.000Z</time>
      </trkpt>
      <trkpt lat="49.37197" lon="1.48757">
        <ele>102.7771987915</ele>
        <time>2016-07-03T08:10:35.000Z</time>
      </trkpt>
      <trkpt lat="49.37208" lon="1.48789">
        <ele>104.52087402344</ele>
        <time>2016-07-03T08:10:38.000Z</time>
      </trkpt>
      <trkpt lat="49.37211" lon="1.48811">
        <ele>106.15328216553</ele>
        <time>2016-07-03T08:10:40.000Z</time>
      </trkpt>
      <trkpt lat="49.37213" lon="1.48845">
        <ele>107.20265960693</ele>
        <time>2016-07-03T08:10:43.000Z</time>
      </trkpt>
      <trkpt lat="49.37214" lon="1.48864">
        <ele>107.98280334473</ele>
        <time>2016-07-03T08:10:45.000Z</time>
      </trkpt>
      <trkpt lat="49.37211" lon="1.48896">
        <ele>108.10286712646</ele>
        <time>2016-07-03T08:10:48.000Z</time>
      </trkpt>
      <trkpt lat="49.37208" lon="1.48925">
        <ele>107.47019195557</ele>
        <time>2016-07-03T08:10:51.000Z</time>
      </trkpt>
      <trkpt lat="49.37207" lon="1.48944">
        <ele>106.66928863525</ele>
        <time>2016-07-03T08:10:53.000Z</time>
      </trkpt>
      <trkpt lat="49.37208" lon="1.48972">
        <ele>105.84033203125</ele>
        <time>2016-07-03T08:10:56.000Z</time>
      </trkpt>
      <trkpt lat="49.37214" lon="1.48994">
        <ele>105.22724914551</ele>
        <time>2016-07-03T08:10:58.000Z</time>
      </trkpt>
      <trkpt lat="49.37215" lon="1.4902">
        <ele>104.85707092285</ele>
        <time>2016-07-03T08:11:01.000Z</time>
      </trkpt>
      <trkpt lat="49.37221" lon="1.49043">
        <ele>104.76635742188</ele>
        <time>2016-07-03T08:11:04.000Z</time>
      </trkpt>
      <trkpt lat="49.37229" lon="1.49072">
        <ele>104.72536468506</ele>
        <time>2016-07-03T08:11:07.000Z</time>
      </trkpt>
      <trkpt lat="49.37233" lon="1.4909">
        <ele>104.6990814209</ele>
        <time>2016-07-03T08:11:09.000Z</time>
      </trkpt>
      <trkpt lat="49.37236" lon="1.49119">
        <ele>104.34057617188</ele>
        <time>2016-07-03T08:11:12.000Z</time>
      </trkpt>
      <trkpt lat="49.37238" lon="1.49147">
        <ele>103.80810546875</ele>
        <time>2016-07-03T08:11:15.000Z</time>
      </trkpt>
      <trkpt lat="49.37238" lon="1.49166">
        <ele>103.08516693115</ele>
        <time>2016-07-03T08:11:17.000Z</time>
      </trkpt>
      <trkpt lat="49.37233" lon="1.49191">
        <ele>102.31535339355</ele>
        <time>2016-07-03T08:11:20.000Z</time>
      </trkpt>
      <trkpt lat="49.37228" lon="1.49214">
        <ele>101.57298278809</ele>
        <time>2016-07-03T08:11:23.000Z</time>
      </trkpt>
      <trkpt lat="49.37226" lon="1.4923">
        <ele>101.00551605225</ele>
        <time>2016-07-03T08:11:25.000Z</time>
      </trkpt>
      <trkpt lat="49.37223" lon="1.49245">
        <ele>100.67034912109</ele>
        <time>2016-07-03T08:11:27.000Z</time>
      </trkpt>
      <trkpt lat="49.37218" lon="1.4927">
        <ele>100.5512008667</ele>
        <time>2016-07-03T08:11:30.000Z</time>
      </trkpt>
      <trkpt lat="49.37212" lon="1.49296">
        <ele>100.56370544434</ele>
        <time>2016-07-03T08:11:33.000Z</time>
      </trkpt>
      <trkpt lat="49.37208" lon="1.4932">
        <ele>100.65116882324</ele>
        <time>2016-07-03T08:11:36.000Z</time>
      </trkpt>
      <trkpt lat="49.37203" lon="1.49344">
        <ele>100.76683807373</ele>
        <time>2016-07-03T08:11:39.000Z</time>
      </trkpt>
      <trkpt lat="49.37205" lon="1.49359">
        <ele>100.84983062744</ele>
        <time>2016-07-03T08:11:41.000Z</time>
      </trkpt>
      <trkpt lat="49.37206" lon="1.49374">
        <ele>100.84550476074</ele>
        <time>2016-07-03T08:11:43.000Z</time>
      </trkpt>
      <trkpt lat="49.37208" lon="1.49398">
        <ele>100.72103118896</ele>
        <time>2016-07-03T08:11:46.000Z</time>
      </trkpt>
      <trkpt lat="49.37209" lon="1.49421">
        <ele>100.52741241455</ele>
        <time>2016-07-03T08:11:49.000Z</time>
      </trkpt>
      <trkpt lat="49.37212" lon="1.49444">
        <ele>100.39393615723</ele>
        <time>2016-07-03T08:11:52.000Z</time>
      </trkpt>
      <trkpt lat="49.37215" lon="1.49459">
        <ele>100.32010650635</ele>
        <time>2016-07-03T08:11:54.000Z</time>
      </trkpt>
      <trkpt lat="49.3722" lon="1.49477">
        <ele>100.27118682861</ele>
        <time>2016-07-03T08:11:57.000Z</time>
      </trkpt>
      <trkpt lat="49.37222" lon="1.49498">
        <ele>100.29521179199</ele>
        <time>2016-07-03T08:12:00.000Z</time>
      </trkpt>
      <trkpt lat="49.37225" lon="1.49517">
        <ele>100.40852355957</ele>
        <time>2016-07-03T08:12:03.000Z</time>
      </trkpt>
      <trkpt lat="49.37227" lon="1.49529">
        <ele>100.4888458252</ele>
        <time>2016-07-03T08:12:05.000Z</time>
      </trkpt>
      <trkpt lat="49.37231" lon="1.49546">
        <ele>100.5697479248</ele>
        <time>2016-07-03T08:12:08.000Z</time>
      </trkpt>
      <trkpt lat="49.37233" lon="1.49557">
        <ele>100.6954498291</ele>
        <time>2016-07-03T08:12:10.000Z</time>
      </trkpt>
      <trkpt lat="49.37234" lon="1.49567">
        <ele>100.83355712891</ele>
        <time>2016-07-03T08:12:12.000Z</time>
      </trkpt>
      <trkpt lat="49.37236" lon="1.49579">
        <ele>100.94948577881</ele>
        <time>2016-07-03T08:12:14.000Z</time>
      </trkpt>
      <trkpt lat="49.3724" lon="1.49595">
        <ele>101.05796813965</ele>
        <time>2016-07-03T08:12:17.000Z</time>
      </trkpt>
      <trkpt lat="49.37243" lon="1.49611">
        <ele>101.1828994751</ele>
        <time>2016-07-03T08:12:20.000Z</time>
      </trkpt>
      <trkpt lat="49.37244" lon="1.49621">
        <ele>101.29267120361</ele>
        <time>2016-07-03T08:12:22.000Z</time>
      </trkpt>
      <trkpt lat="49.37244" lon="1.49637">
        <ele>101.46634674072</ele>
        <time>2016-07-03T08:12:25.000Z</time>
      </trkpt>
      <trkpt lat="49.37244" lon="1.49648">
        <ele>101.66335296631</ele>
        <time>2016-07-03T08:12:27.000Z</time>
      </trkpt>
      <trkpt lat="49.37244" lon="1.49659">
        <ele>101.91944122314</ele>
        <time>2016-07-03T08:12:29.000Z</time>
      </trkpt>
      <trkpt lat="49.37243" lon="1.49675">
        <ele>102.25300598145</ele>
        <time>2016-07-03T08:12:32.000Z</time>
      </trkpt>
      <trkpt lat="49.37243" lon="1.49694">
        <ele>102.72890472412</ele>
        <time>2016-07-03T08:12:35.000Z</time>
      </trkpt>
      <trkpt lat="49.37242" lon="1.49714">
        <ele>103.28387451172</ele>
        <time>2016-07-03T08:12:38.000Z</time>
      </trkpt>
      <trkpt lat="49.37242" lon="1.49726">
        <ele>103.86735534668</ele>
        <time>2016-07-03T08:12:40.000Z</time>
      </trkpt>
      <trkpt lat="49.37244" lon="1.49739">
        <ele>104.42995452881</ele>
        <time>2016-07-03T08:12:43.000Z</time>
      </trkpt>
      <trkpt lat="49.37245" lon="1.49741">
        <ele>104.85703277588</ele>
        <time>2016-07-03T08:12:45.000Z</time>
      </trkpt>
      <trkpt lat="49.37247" lon="1.4974">
        <ele>105.07070159912</ele>
        <time>2016-07-03T08:12:48.000Z</time>
      </trkpt>
      <trkpt lat="49.37249" lon="1.49738">
        <ele>105.0604019165</ele>
        <time>2016-07-03T08:12:54.000Z</time>
      </trkpt>
      <trkpt lat="49.3725" lon="1.49737">
        <ele>104.95007324219</ele>
        <time>2016-07-03T08:12:57.000Z</time>
      </trkpt>
      <trkpt lat="49.37249" lon="1.49736">
        <ele>104.79193115234</ele>
        <time>2016-07-03T08:13:01.000Z</time>
      </trkpt>
      <trkpt lat="49.37249" lon="1.49738">
        <ele>104.67047119141</ele>
        <time>2016-07-03T08:13:13.000Z</time>
      </trkpt>
      <trkpt lat="49.37251" lon="1.4974">
        <ele>104.61759185791</ele>
        <time>2016-07-03T08:13:16.000Z</time>
      </trkpt>
      <trkpt lat="49.37252" lon="1.49741">
        <ele>104.65712738037</ele>
        <time>2016-07-03T08:13:18.000Z</time>
      </trkpt>
      <trkpt lat="49.37253" lon="1.49742">
        <ele>104.73210144043</ele>
        <time>2016-07-03T08:13:20.000Z</time>
      </trkpt>
      <trkpt lat="49.37253" lon="1.49744">
        <ele>104.81400299072</ele>
        <time>2016-07-03T08:13:23.000Z</time>
      </trkpt>
      <trkpt lat="49.37254" lon="1.49743">
        <ele>104.87892913818</ele>
        <time>2016-07-03T08:13:30.000Z</time>
      </trkpt>
      <trkpt lat="49.37253" lon="1.49741">
        <ele>104.91159820557</ele>
        <time>2016-07-03T08:13:32.000Z</time>
      </trkpt>
      <trkpt lat="49.37251" lon="1.49741">
        <ele>104.89499664307</ele>
        <time>2016-07-03T08:13:35.000Z</time>
      </trkpt>
      <trkpt lat="49.37251" lon="1.49743">
        <ele>104.86875152588</ele>
        <time>2016-07-03T08:13:38.000Z</time>
      </trkpt>
      <trkpt lat="49.37252" lon="1.49744">
        <ele>104.8519744873</ele>
        <time>2016-07-03T08:13:42.000Z</time>
      </trkpt>
      <trkpt lat="49.37253" lon="1.49748">
        <ele>104.88529968262</ele>
        <time>2016-07-03T08:13:46.000Z</time>
      </trkpt>
      <trkpt lat="49.37253" lon="1.4975">
        <ele>104.94750976562</ele>
        <time>2016-07-03T08:13:49.000Z</time>
      </trkpt>
      <trkpt lat="49.37253" lon="1.49752">
        <ele>105.03653717041</ele>
        <time>2016-07-03T08:13:52.000Z</time>
      </trkpt>
      <trkpt lat="49.37252" lon="1.49752">
        <ele>105.11657714844</ele>
        <time>2016-07-03T08:13:55.000Z</time>
      </trkpt>
      <trkpt lat="49.37256" lon="1.49753">
        <ele>105.21419525146</ele>
        <time>2016-07-03T08:14:10.000Z</time>
      </trkpt>
      <trkpt lat="49.37257" lon="1.49751">
        <ele>105.27702331543</ele>
        <time>2016-07-03T08:14:12.000Z</time>
      </trkpt>
      <trkpt lat="49.37258" lon="1.4975">
        <ele>105.3387298584</ele>
        <time>2016-07-03T08:14:15.000Z</time>
      </trkpt>
      <trkpt lat="49.37257" lon="1.49749">
        <ele>105.3752822876</ele>
        <time>2016-07-03T08:14:19.000Z</time>
      </trkpt>
      <trkpt lat="49.37255" lon="1.49749">
        <ele>105.39527893066</ele>
        <time>2016-07-03T08:14:24.000Z</time>
      </trkpt>
      <trkpt lat="49.37254" lon="1.49748">
        <ele>105.3558807373</ele>
        <time>2016-07-03T08:14:28.000Z</time>
      </trkpt>
      <trkpt lat="49.37254" lon="1.49747">
        <ele>105.29304504395</ele>
        <time>2016-07-03T08:14:30.000Z</time>
      </trkpt>
      <trkpt lat="49.37254" lon="1.49744">
        <ele>105.20318603516</ele>
        <time>2016-07-03T08:14:33.000Z</time>
      </trkpt>
      <trkpt lat="49.37254" lon="1.49742">
        <ele>105.12080383301</ele>
        <time>2016-07-03T08:14:35.000Z</time>
      </trkpt>
      <trkpt lat="49.37254" lon="1.49742">
        <ele>105.12080383301</ele>
        <time>2016-07-03T08:14:55.000Z</time>
      </trkpt>
      <trkpt lat="49.37251" lon="1.49744">
        <ele>105.03242492676</ele>
        <time>2016-07-03T08:15:11.000Z</time>
      </trkpt>
      <trkpt lat="49.37252" lon="1.49746">
        <ele>104.99896240234</ele>
        <time>2016-07-03T08:15:14.000Z</time>
      </trkpt>
      <trkpt lat="49.37252" lon="1.49748">
        <ele>104.98838043213</ele>
        <time>2016-07-03T08:15:16.000Z</time>
      </trkpt>
      <trkpt lat="49.37254" lon="1.49748">
        <ele>105.01763916016</ele>
        <time>2016-07-03T08:15:23.000Z</time>
      </trkpt>
      <trkpt lat="49.37252" lon="1.49747">
        <ele>105.03102874756</ele>
        <time>2016-07-03T08:15:27.000Z</time>
      </trkpt>
      <trkpt lat="49.37251" lon="1.49748">
        <ele>105.05167388916</ele>
        <time>2016-07-03T08:15:29.000Z</time>
      </trkpt>
      <trkpt lat="49.37248" lon="1.49749">
        <ele>105.08630371094</ele>
        <time>2016-07-03T08:15:40.000Z</time>
      </trkpt>
      <trkpt lat="49.37248" lon="1.49749">
        <ele>105.08630371094</ele>
        <time>2016-07-03T08:16:00.000Z</time>
      </trkpt>
      <trkpt lat="49.37247" lon="1.49749">
        <ele>105.13618469238</ele>
        <time>2016-07-03T08:16:30.000Z</time>
      </trkpt>
      <trkpt lat="49.37246" lon="1.49748">
        <ele>105.19502258301</ele>
        <time>2016-07-03T08:16:33.000Z</time>
      </trkpt>
      <trkpt lat="49.37246" lon="1.4975">
        <ele>105.29183197021</ele>
        <time>2016-07-03T08:16:40.000Z</time>
      </trkpt>
      <trkpt lat="49.37246" lon="1.49752">
        <ele>105.41123962402</ele>
        <time>2016-07-03T08:16:42.000Z</time>
      </trkpt>
      <trkpt lat="49.37246" lon="1.49752">
        <ele>105.41123962402</ele>
        <time>2016-07-03T08:17:02.000Z</time>
      </trkpt>
      <trkpt lat="49.37246" lon="1.49759">
        <ele>105.48048400879</ele>
        <time>2016-07-03T08:17:11.000Z</time>
      </trkpt>
      <trkpt lat="49.37246" lon="1.4976">
        <ele>105.52945709229</ele>
        <time>2016-07-03T08:17:14.000Z</time>
      </trkpt>
      <trkpt lat="49.37246" lon="1.49758">
        <ele>105.54665374756</ele>
        <time>2016-07-03T08:17:20.000Z</time>
      </trkpt>
      <trkpt lat="49.37247" lon="1.49756">
        <ele>105.53482818604</ele>
        <time>2016-07-03T08:17:24.000Z</time>
      </trkpt>
      <trkpt lat="49.37248" lon="1.49752">
        <ele>105.47636413574</ele>
        <time>2016-07-03T08:17:27.000Z</time>
      </trkpt>
      <trkpt lat="49.37249" lon="1.49749">
        <ele>105.39206695557</ele>
        <time>2016-07-03T08:17:29.000Z</time>
      </trkpt>
      <trkpt lat="49.3725" lon="1.49743">
        <ele>105.23600006104</ele>
        <time>2016-07-03T08:17:32.000Z</time>
      </trkpt>
      <trkpt lat="49.3725" lon="1.49741">
        <ele>105.06762695312</ele>
        <time>2016-07-03T08:17:35.000Z</time>
      </trkpt>
      <trkpt lat="49.3725" lon="1.49741">
        <ele>105.06762695312</ele>
        <time>2016-07-03T08:17:55.000Z</time>
      </trkpt>
      <trkpt lat="49.37251" lon="1.4974">
        <ele>104.91833496094</ele>
        <time>2016-07-03T08:17:55.000Z</time>
      </trkpt>
      <trkpt lat="49.37251" lon="1.49739">
        <ele>104.79411315918</ele>
        <time>2016-07-03T08:17:58.000Z</time>
      </trkpt>
      <trkpt lat="49.37249" lon="1.49737">
        <ele>104.7110824585</ele>
        <time>2016-07-03T08:18:07.000Z</time>
      </trkpt>
      <trkpt lat="49.37247" lon="1.49738">
        <ele>104.73732757568</ele>
        <time>2016-07-03T08:18:09.000Z</time>
      </trkpt>
      <trkpt lat="49.37246" lon="1.49739">
        <ele>104.81408691406</ele>
        <time>2016-07-03T08:18:11.000Z</time>
      </trkpt>
      <trkpt lat="49.37245" lon="1.49741">
        <ele>104.91557312012</ele>
        <time>2016-07-03T08:18:17.000Z</time>
      </trkpt>
      <trkpt lat="49.37244" lon="1.49745">
        <ele>105.09936523438</ele>
        <time>2016-07-03T08:18:20.000Z</time>
      </trkpt>
      <trkpt lat="49.37243" lon="1.49751">
        <ele>105.33290863037</ele>
        <time>2016-07-03T08:18:22.000Z</time>
      </trkpt>
      <trkpt lat="49.37243" lon="1.49764">
        <ele>105.58229064941</ele>
        <time>2016-07-03T08:18:25.000Z</time>
      </trkpt>
      <trkpt lat="49.37239" lon="1.4978">
        <ele>105.94267272949</ele>
        <time>2016-07-03T08:18:28.000Z</time>
      </trkpt>
      <trkpt lat="49.37239" lon="1.49795">
        <ele>106.33770751953</ele>
        <time>2016-07-03T08:18:31.000Z</time>
      </trkpt>
      <trkpt lat="49.3724" lon="1.49808">
        <ele>106.7056427002</ele>
        <time>2016-07-03T08:18:34.000Z</time>
      </trkpt>
      <trkpt lat="49.37238" lon="1.49814">
        <ele>107.10593414307</ele>
        <time>2016-07-03T08:18:36.000Z</time>
      </trkpt>
      <trkpt lat="49.37238" lon="1.49825">
        <ele>107.48347473145</ele>
        <time>2016-07-03T08:18:38.000Z</time>
      </trkpt>
      <trkpt lat="49.37246" lon="1.49833">
        <ele>107.46950531006</ele>
        <time>2016-07-03T08:18:41.000Z</time>
      </trkpt>
      <trkpt lat="49.37251" lon="1.49834">
        <ele>107.23945617676</ele>
        <time>2016-07-03T08:18:43.000Z</time>
      </trkpt>
      <trkpt lat="49.37257" lon="1.49833">
        <ele>107.0689239502</ele>
        <time>2016-07-03T08:18:45.000Z</time>
      </trkpt>
      <trkpt lat="49.37264" lon="1.49829">
        <ele>106.88676452637</ele>
        <time>2016-07-03T08:18:47.000Z</time>
      </trkpt>
      <trkpt lat="49.3727" lon="1.49824">
        <ele>106.73663330078</ele>
        <time>2016-07-03T08:18:49.000Z</time>
      </trkpt>
      <trkpt lat="49.37276" lon="1.49822">
        <ele>106.90788269043</ele>
        <time>2016-07-03T08:18:51.000Z</time>
      </trkpt>
      <trkpt lat="49.37283" lon="1.49821">
        <ele>107.3330078125</ele>
        <time>2016-07-03T08:18:54.000Z</time>
      </trkpt>
      <trkpt lat="49.37288" lon="1.49818">
        <ele>107.71807861328</ele>
        <time>2016-07-03T08:18:57.000Z</time>
      </trkpt>
      <trkpt lat="49.37292" lon="1.49812">
        <ele>108.05786132812</ele>
        <time>2016-07-03T08:19:00.000Z</time>
      </trkpt>
      <trkpt lat="49.37297" lon="1.49805">
        <ele>108.3614654541</ele>
        <time>2016-07-03T08:19:03.000Z</time>
      </trkpt>
      <trkpt lat="49.37299" lon="1.49803">
        <ele>108.61669921875</ele>
        <time>2016-07-03T08:19:05.000Z</time>
      </trkpt>
      <trkpt lat="49.37303" lon="1.49801">
        <ele>108.81276702881</ele>
        <time>2016-07-03T08:19:08.000Z</time>
      </trkpt>
      <trkpt lat="49.37306" lon="1.49799">
        <ele>108.98948669434</ele>
        <time>2016-07-03T08:19:11.000Z</time>
      </trkpt>
      <trkpt lat="49.37311" lon="1.49796">
        <ele>109.17778015137</ele>
        <time>2016-07-03T08:19:14.000Z</time>
      </trkpt>
      <trkpt lat="49.37316" lon="1.4979">
        <ele>109.37687683105</ele>
        <time>2016-07-03T08:19:17.000Z</time>
      </trkpt>
      <trkpt lat="49.37319" lon="1.49786">
        <ele>109.57216644287</ele>
        <time>2016-07-03T08:19:20.000Z</time>
      </trkpt>
      <trkpt lat="49.37321" lon="1.49785">
        <ele>109.75303649902</ele>
        <time>2016-07-03T08:19:22.000Z</time>
      </trkpt>
      <trkpt lat="49.37326" lon="1.49781">
        <ele>109.93786621094</ele>
        <time>2016-07-03T08:19:24.000Z</time>
      </trkpt>
      <trkpt lat="49.3733" lon="1.49776">
        <ele>110.10380554199</ele>
        <time>2016-07-03T08:19:26.000Z</time>
      </trkpt>
      <trkpt lat="49.37336" lon="1.49772">
        <ele>110.33106994629</ele>
        <time>2016-07-03T08:19:29.000Z</time>
      </trkpt>
      <trkpt lat="49.37339" lon="1.4977">
        <ele>110.6322479248</ele>
        <time>2016-07-03T08:19:31.000Z</time>
      </trkpt>
      <trkpt lat="49.37346" lon="1.49766">
        <ele>111.07588195801</ele>
        <time>2016-07-03T08:19:34.000Z</time>
      </trkpt>
      <trkpt lat="49.37352" lon="1.4976">
        <ele>111.63333892822</ele>
        <time>2016-07-03T08:19:37.000Z</time>
      </trkpt>
      <trkpt lat="49.37357" lon="1.49757">
        <ele>112.28633117676</ele>
        <time>2016-07-03T08:19:40.000Z</time>
      </trkpt>
      <trkpt lat="49.37361" lon="1.49755">
        <ele>112.94992828369</ele>
        <time>2016-07-03T08:19:43.000Z</time>
      </trkpt>
      <trkpt lat="49.37364" lon="1.49752">
        <ele>113.55888366699</ele>
        <time>2016-07-03T08:19:45.000Z</time>
      </trkpt>
      <trkpt lat="49.37366" lon="1.49748">
        <ele>114.06816101074</ele>
        <time>2016-07-03T08:19:48.000Z</time>
      </trkpt>
      <trkpt lat="49.3737" lon="1.49746">
        <ele>114.51995849609</ele>
        <time>2016-07-03T08:19:51.000Z</time>
      </trkpt>
      <trkpt lat="49.37374" lon="1.49745">
        <ele>114.97745513916</ele>
        <time>2016-07-03T08:19:54.000Z</time>
      </trkpt>
      <trkpt lat="49.37376" lon="1.49742">
        <ele>115.38889312744</ele>
        <time>2016-07-03T08:19:56.000Z</time>
      </trkpt>
      <trkpt lat="49.37381" lon="1.49737">
        <ele>115.90467834473</ele>
        <time>2016-07-03T08:19:59.000Z</time>
      </trkpt>
      <trkpt lat="49.37385" lon="1.49733">
        <ele>116.49021911621</ele>
        <time>2016-07-03T08:20:02.000Z</time>
      </trkpt>
      <trkpt lat="49.37389" lon="1.49729">
        <ele>117.08278656006</ele>
        <time>2016-07-03T08:20:04.000Z</time>
      </trkpt>
      <trkpt lat="49.37392" lon="1.49727">
        <ele>117.63830566406</ele>
        <time>2016-07-03T08:20:06.000Z</time>
      </trkpt>
      <trkpt lat="49.37396" lon="1.49724">
        <ele>118.24992370605</ele>
        <time>2016-07-03T08:20:09.000Z</time>
      </trkpt>
      <trkpt lat="49.37398" lon="1.49723">
        <ele>118.78712463379</ele>
        <time>2016-07-03T08:20:11.000Z</time>
      </trkpt>
      <trkpt lat="49.374" lon="1.49722">
        <ele>119.22441101074</ele>
        <time>2016-07-03T08:20:13.000Z</time>
      </trkpt>
      <trkpt lat="49.37402" lon="1.4972">
        <ele>119.62947845459</ele>
        <time>2016-07-03T08:20:15.000Z</time>
      </trkpt>
      <trkpt lat="49.37405" lon="1.49717">
        <ele>120.0350112915</ele>
        <time>2016-07-03T08:20:18.000Z</time>
      </trkpt>
      <trkpt lat="49.37407" lon="1.49714">
        <ele>120.3582611084</ele>
        <time>2016-07-03T08:20:20.000Z</time>
      </trkpt>
      <trkpt lat="49.37411" lon="1.4971">
        <ele>120.74648284912</ele>
        <time>2016-07-03T08:20:23.000Z</time>
      </trkpt>
      <trkpt lat="49.37413" lon="1.49706">
        <ele>121.16259765625</ele>
        <time>2016-07-03T08:20:25.000Z</time>
      </trkpt>
      <trkpt lat="49.37415" lon="1.497">
        <ele>121.5848236084</ele>
        <time>2016-07-03T08:20:27.000Z</time>
      </trkpt>
      <trkpt lat="49.37417" lon="1.49697">
        <ele>121.98445129395</ele>
        <time>2016-07-03T08:20:29.000Z</time>
      </trkpt>
      <trkpt lat="49.37418" lon="1.49695">
        <ele>122.38040924072</ele>
        <time>2016-07-03T08:20:31.000Z</time>
      </trkpt>
      <trkpt lat="49.37421" lon="1.49691">
        <ele>122.76838684082</ele>
        <time>2016-07-03T08:20:34.000Z</time>
      </trkpt>
      <trkpt lat="49.37423" lon="1.49688">
        <ele>123.17680358887</ele>
        <time>2016-07-03T08:20:36.000Z</time>
      </trkpt>
      <trkpt lat="49.37427" lon="1.49682">
        <ele>123.671875</ele>
        <time>2016-07-03T08:20:39.000Z</time>
      </trkpt>
      <trkpt lat="49.37429" lon="1.49679">
        <ele>124.18531799316</ele>
        <time>2016-07-03T08:20:41.000Z</time>
      </trkpt>
      <trkpt lat="49.37432" lon="1.49673">
        <ele>124.76457214355</ele>
        <time>2016-07-03T08:20:44.000Z</time>
      </trkpt>
      <trkpt lat="49.37434" lon="1.4967">
        <ele>125.27230072021</ele>
        <time>2016-07-03T08:20:46.000Z</time>
      </trkpt>
      <trkpt lat="49.37436" lon="1.49666">
        <ele>125.75398254395</ele>
        <time>2016-07-03T08:20:48.000Z</time>
      </trkpt>
      <trkpt lat="49.37437" lon="1.4966">
        <ele>126.21319580078</ele>
        <time>2016-07-03T08:20:51.000Z</time>
      </trkpt>
      <trkpt lat="49.3744" lon="1.49655">
        <ele>126.73516845703</ele>
        <time>2016-07-03T08:20:54.000Z</time>
      </trkpt>
      <trkpt lat="49.37442" lon="1.4965">
        <ele>127.29754638672</ele>
        <time>2016-07-03T08:20:57.000Z</time>
      </trkpt>
      <trkpt lat="49.37443" lon="1.49646">
        <ele>127.85871887207</ele>
        <time>2016-07-03T08:20:59.000Z</time>
      </trkpt>
      <trkpt lat="49.37446" lon="1.49641">
        <ele>128.51609802246</ele>
        <time>2016-07-03T08:21:02.000Z</time>
      </trkpt>
      <trkpt lat="49.37448" lon="1.49639">
        <ele>129.1037902832</ele>
        <time>2016-07-03T08:21:04.000Z</time>
      </trkpt>
      <trkpt lat="49.37453" lon="1.49635">
        <ele>129.69879150391</ele>
        <time>2016-07-03T08:21:07.000Z</time>
      </trkpt>
      <trkpt lat="49.37456" lon="1.49631">
        <ele>130.25155639648</ele>
        <time>2016-07-03T08:21:09.000Z</time>
      </trkpt>
      <trkpt lat="49.3746" lon="1.49627">
        <ele>130.88125610352</ele>
        <time>2016-07-03T08:21:12.000Z</time>
      </trkpt>
      <trkpt lat="49.37462" lon="1.49625">
        <ele>131.41519165039</ele>
        <time>2016-07-03T08:21:14.000Z</time>
      </trkpt>
      <trkpt lat="49.37466" lon="1.49621">
        <ele>131.97705078125</ele>
        <time>2016-07-03T08:21:16.000Z</time>
      </trkpt>
      <trkpt lat="49.37469" lon="1.49619">
        <ele>132.43313598633</ele>
        <time>2016-07-03T08:21:18.000Z</time>
      </trkpt>
      <trkpt lat="49.37473" lon="1.49615">
        <ele>132.87525939941</ele>
        <time>2016-07-03T08:21:21.000Z</time>
      </trkpt>
      <trkpt lat="49.37477" lon="1.49611">
        <ele>133.2621307373</ele>
        <time>2016-07-03T08:21:24.000Z</time>
      </trkpt>
      <trkpt lat="49.37479" lon="1.4961">
        <ele>133.62156677246</ele>
        <time>2016-07-03T08:21:26.000Z</time>
      </trkpt>
      <trkpt lat="49.37482" lon="1.49609">
        <ele>133.9313659668</ele>
        <time>2016-07-03T08:21:29.000Z</time>
      </trkpt>
      <trkpt lat="49.37484" lon="1.49607">
        <ele>134.20520019531</ele>
        <time>2016-07-03T08:21:31.000Z</time>
      </trkpt>
      <trkpt lat="49.37486" lon="1.49606">
        <ele>134.4263458252</ele>
        <time>2016-07-03T08:21:34.000Z</time>
      </trkpt>
      <trkpt lat="49.37488" lon="1.49605">
        <ele>134.59741210938</ele>
        <time>2016-07-03T08:21:36.000Z</time>
      </trkpt>
      <trkpt lat="49.37492" lon="1.49603">
        <ele>134.77380371094</ele>
        <time>2016-07-03T08:21:39.000Z</time>
      </trkpt>
      <trkpt lat="49.37494" lon="1.49602">
        <ele>134.92739868164</ele>
        <time>2016-07-03T08:21:41.000Z</time>
      </trkpt>
      <trkpt lat="49.37496" lon="1.496">
        <ele>135.07563781738</ele>
        <time>2016-07-03T08:21:43.000Z</time>
      </trkpt>
      <trkpt lat="49.37498" lon="1.49595">
        <ele>135.18975830078</ele>
        <time>2016-07-03T08:21:46.000Z</time>
      </trkpt>
      <trkpt lat="49.37501" lon="1.49589">
        <ele>135.31134033203</ele>
        <time>2016-07-03T08:21:48.000Z</time>
      </trkpt>
      <trkpt lat="49.37503" lon="1.49585">
        <ele>135.45973205566</ele>
        <time>2016-07-03T08:21:51.000Z</time>
      </trkpt>
      <trkpt lat="49.37508" lon="1.49581">
        <ele>135.81884765625</ele>
        <time>2016-07-03T08:21:54.000Z</time>
      </trkpt>
      <trkpt lat="49.3751" lon="1.49581">
        <ele>136.27348327637</ele>
        <time>2016-07-03T08:21:56.000Z</time>
      </trkpt>
      <trkpt lat="49.37514" lon="1.4958">
        <ele>136.96362304688</ele>
        <time>2016-07-03T08:21:59.000Z</time>
      </trkpt>
      <trkpt lat="49.37518" lon="1.49578">
        <ele>137.80072021484</ele>
        <time>2016-07-03T08:22:01.000Z</time>
      </trkpt>
      <trkpt lat="49.37522" lon="1.49577">
        <ele>138.79055786133</ele>
        <time>2016-07-03T08:22:04.000Z</time>
      </trkpt>
      <trkpt lat="49.37525" lon="1.49575">
        <ele>139.70272827148</ele>
        <time>2016-07-03T08:22:06.000Z</time>
      </trkpt>
      <trkpt lat="49.37527" lon="1.49573">
        <ele>140.63662719727</ele>
        <time>2016-07-03T08:22:08.000Z</time>
      </trkpt>
      <trkpt lat="49.37531" lon="1.49568">
        <ele>141.5733795166</ele>
        <time>2016-07-03T08:22:11.000Z</time>
      </trkpt>
      <trkpt lat="49.37533" lon="1.49564">
        <ele>142.49176025391</ele>
        <time>2016-07-03T08:22:14.000Z</time>
      </trkpt>
      <trkpt lat="49.37538" lon="1.49563">
        <ele>143.42825317383</ele>
        <time>2016-07-03T08:22:17.000Z</time>
      </trkpt>
      <trkpt lat="49.37542" lon="1.49562">
        <ele>144.39344787598</ele>
        <time>2016-07-03T08:22:20.000Z</time>
      </trkpt>
      <trkpt lat="49.37546" lon="1.49563">
        <ele>145.35107421875</ele>
        <time>2016-07-03T08:22:23.000Z</time>
      </trkpt>
      <trkpt lat="49.37549" lon="1.49563">
        <ele>146.22158813477</ele>
        <time>2016-07-03T08:22:26.000Z</time>
      </trkpt>
      <trkpt lat="49.37551" lon="1.49562">
        <ele>147.04844665527</ele>
        <time>2016-07-03T08:22:28.000Z</time>
      </trkpt>
      <trkpt lat="49.37554" lon="1.4956">
        <ele>147.78150939941</ele>
        <time>2016-07-03T08:22:30.000Z</time>
      </trkpt>
      <trkpt lat="49.37559" lon="1.49557">
        <ele>148.5679473877</ele>
        <time>2016-07-03T08:22:33.000Z</time>
      </trkpt>
      <trkpt lat="49.37562" lon="1.49556">
        <ele>149.37606811523</ele>
        <time>2016-07-03T08:22:35.000Z</time>
      </trkpt>
      <trkpt lat="49.37566" lon="1.49554">
        <ele>150.20278930664</ele>
        <time>2016-07-03T08:22:38.000Z</time>
      </trkpt>
      <trkpt lat="49.3757" lon="1.49551">
        <ele>151.10786437988</ele>
        <time>2016-07-03T08:22:41.000Z</time>
      </trkpt>
      <trkpt lat="49.37573" lon="1.4955">
        <ele>151.99447631836</ele>
        <time>2016-07-03T08:22:43.000Z</time>
      </trkpt>
      <trkpt lat="49.37578" lon="1.49546">
        <ele>152.86555480957</ele>
        <time>2016-07-03T08:22:46.000Z</time>
      </trkpt>
      <trkpt lat="49.37583" lon="1.49543">
        <ele>153.80798339844</ele>
        <time>2016-07-03T08:22:49.000Z</time>
      </trkpt>
      <trkpt lat="49.37585" lon="1.49542">
        <ele>154.69436645508</ele>
        <time>2016-07-03T08:22:51.000Z</time>
      </trkpt>
      <trkpt lat="49.3759" lon="1.49539">
        <ele>155.54484558105</ele>
        <time>2016-07-03T08:22:54.000Z</time>
      </trkpt>
      <trkpt lat="49.37593" lon="1.49538">
        <ele>156.40754699707</ele>
        <time>2016-07-03T08:22:57.000Z</time>
      </trkpt>
      <trkpt lat="49.37596" lon="1.49539">
        <ele>157.12754821777</ele>
        <time>2016-07-03T08:22:59.000Z</time>
      </trkpt>
      <trkpt lat="49.376" lon="1.49541">
        <ele>157.78907775879</ele>
        <time>2016-07-03T08:23:02.000Z</time>
      </trkpt>
      <trkpt lat="49.37603" lon="1.4954">
        <ele>158.4273223877</ele>
        <time>2016-07-03T08:23:04.000Z</time>
      </trkpt>
      <trkpt lat="49.37607" lon="1.49537">
        <ele>159.07333374023</ele>
        <time>2016-07-03T08:23:07.000Z</time>
      </trkpt>
      <trkpt lat="49.3761" lon="1.49535">
        <ele>159.68830871582</ele>
        <time>2016-07-03T08:23:10.000Z</time>
      </trkpt>
      <trkpt lat="49.37613" lon="1.49536">
        <ele>160.33497619629</ele>
        <time>2016-07-03T08:23:13.000Z</time>
      </trkpt>
      <trkpt lat="49.37616" lon="1.49534">
        <ele>160.93811035156</ele>
        <time>2016-07-03T08:23:16.000Z</time>
      </trkpt>
      <trkpt lat="49.37619" lon="1.49534">
        <ele>161.53805541992</ele>
        <time>2016-07-03T08:23:18.000Z</time>
      </trkpt>
      <trkpt lat="49.37623" lon="1.49533">
        <ele>162.12866210938</ele>
        <time>2016-07-03T08:23:21.000Z</time>
      </trkpt>
      <trkpt lat="49.37628" lon="1.49529">
        <ele>162.78312683105</ele>
        <time>2016-07-03T08:23:24.000Z</time>
      </trkpt>
      <trkpt lat="49.37631" lon="1.49528">
        <ele>163.41841125488</ele>
        <time>2016-07-03T08:23:26.000Z</time>
      </trkpt>
      <trkpt lat="49.37635" lon="1.49527">
        <ele>164.07518005371</ele>
        <time>2016-07-03T08:23:29.000Z</time>
      </trkpt>
      <trkpt lat="49.37637" lon="1.49526">
        <ele>164.72738647461</ele>
        <time>2016-07-03T08:23:31.000Z</time>
      </trkpt>
      <trkpt lat="49.37641" lon="1.49526">
        <ele>165.34535217285</ele>
        <time>2016-07-03T08:23:34.000Z</time>
      </trkpt>
      <trkpt lat="49.37644" lon="1.49524">
        <ele>165.88717651367</ele>
        <time>2016-07-03T08:23:37.000Z</time>
      </trkpt>
      <trkpt lat="49.37648" lon="1.49524">
        <ele>166.47096252441</ele>
        <time>2016-07-03T08:23:40.000Z</time>
      </trkpt>
      <trkpt lat="49.37651" lon="1.49525">
        <ele>167.00500488281</ele>
        <time>2016-07-03T08:23:42.000Z</time>
      </trkpt>
      <trkpt lat="49.37653" lon="1.49526">
        <ele>167.54693603516</ele>
        <time>2016-07-03T08:23:44.000Z</time>
      </trkpt>
      <trkpt lat="49.37656" lon="1.49528">
        <ele>168.06942749023</ele>
        <time>2016-07-03T08:23:47.000Z</time>
      </trkpt>
      <trkpt lat="49.3766" lon="1.49528">
        <ele>168.64399719238</ele>
        <time>2016-07-03T08:23:50.000Z</time>
      </trkpt>
      <trkpt lat="49.37663" lon="1.49529">
        <ele>169.18183898926</ele>
        <time>2016-07-03T08:23:53.000Z</time>
      </trkpt>
      <trkpt lat="49.37666" lon="1.49529">
        <ele>169.76287841797</ele>
        <time>2016-07-03T08:23:56.000Z</time>
      </trkpt>
      <trkpt lat="49.37669" lon="1.49529">
        <ele>170.29447937012</ele>
        <time>2016-07-03T08:23:58.000Z</time>
      </trkpt>
      <trkpt lat="49.37673" lon="1.49531">
        <ele>170.78817749023</ele>
        <time>2016-07-03T08:24:01.000Z</time>
      </trkpt>
      <trkpt lat="49.37676" lon="1.49533">
        <ele>171.20059204102</ele>
        <time>2016-07-03T08:24:04.000Z</time>
      </trkpt>
      <trkpt lat="49.37679" lon="1.49535">
        <ele>171.56628417969</ele>
        <time>2016-07-03T08:24:07.000Z</time>
      </trkpt>
      <trkpt lat="49.37681" lon="1.49535">
        <ele>171.82502746582</ele>
        <time>2016-07-03T08:24:09.000Z</time>
      </trkpt>
      <trkpt lat="49.37684" lon="1.49535">
        <ele>172.08731079102</ele>
        <time>2016-07-03T08:24:12.000Z</time>
      </trkpt>
      <trkpt lat="49.37687" lon="1.49535">
        <ele>172.30795288086</ele>
        <time>2016-07-03T08:24:14.000Z</time>
      </trkpt>
      <trkpt lat="49.3769" lon="1.49535">
        <ele>172.52339172363</ele>
        <time>2016-07-03T08:24:17.000Z</time>
      </trkpt>
      <trkpt lat="49.37694" lon="1.49536">
        <ele>172.74238586426</ele>
        <time>2016-07-03T08:24:20.000Z</time>
      </trkpt>
      <trkpt lat="49.37696" lon="1.49537">
        <ele>172.97602844238</ele>
        <time>2016-07-03T08:24:22.000Z</time>
      </trkpt>
      <trkpt lat="49.37701" lon="1.49536">
        <ele>173.22119140625</ele>
        <time>2016-07-03T08:24:25.000Z</time>
      </trkpt>
      <trkpt lat="49.37704" lon="1.49537">
        <ele>173.48989868164</ele>
        <time>2016-07-03T08:24:27.000Z</time>
      </trkpt>
      <trkpt lat="49.37709" lon="1.49535">
        <ele>173.75741577148</ele>
        <time>2016-07-03T08:24:30.000Z</time>
      </trkpt>
      <trkpt lat="49.37714" lon="1.49533">
        <ele>174.02420043945</ele>
        <time>2016-07-03T08:24:33.000Z</time>
      </trkpt>
      <trkpt lat="49.37718" lon="1.49528">
        <ele>174.2717590332</ele>
        <time>2016-07-03T08:24:36.000Z</time>
      </trkpt>
      <trkpt lat="49.3772" lon="1.49525">
        <ele>174.47875976562</ele>
        <time>2016-07-03T08:24:38.000Z</time>
      </trkpt>
      <trkpt lat="49.37722" lon="1.49524">
        <ele>174.65838623047</ele>
        <time>2016-07-03T08:24:40.000Z</time>
      </trkpt>
      <trkpt lat="49.37725" lon="1.49524">
        <ele>174.81137084961</ele>
        <time>2016-07-03T08:24:42.000Z</time>
      </trkpt>
      <trkpt lat="49.3773" lon="1.49524">
        <ele>174.97241210938</ele>
        <time>2016-07-03T08:24:45.000Z</time>
      </trkpt>
      <trkpt lat="49.37733" lon="1.49525">
        <ele>175.16633605957</ele>
        <time>2016-07-03T08:24:47.000Z</time>
      </trkpt>
      <trkpt lat="49.37738" lon="1.49524">
        <ele>175.40151977539</ele>
        <time>2016-07-03T08:24:50.000Z</time>
      </trkpt>
      <trkpt lat="49.37741" lon="1.49521">
        <ele>175.64933776855</ele>
        <time>2016-07-03T08:24:53.000Z</time>
      </trkpt>
      <trkpt lat="49.37746" lon="1.4952">
        <ele>175.92977905273</ele>
        <time>2016-07-03T08:24:56.000Z</time>
      </trkpt>
      <trkpt lat="49.37749" lon="1.49519">
        <ele>176.18118286133</ele>
        <time>2016-07-03T08:24:58.000Z</time>
      </trkpt>
      <trkpt lat="49.37754" lon="1.4952">
        <ele>176.45155334473</ele>
        <time>2016-07-03T08:25:01.000Z</time>
      </trkpt>
      <trkpt lat="49.37757" lon="1.4952">
        <ele>176.7227935791</ele>
        <time>2016-07-03T08:25:03.000Z</time>
      </trkpt>
      <trkpt lat="49.37761" lon="1.4952">
        <ele>177.00755310059</ele>
        <time>2016-07-03T08:25:05.000Z</time>
      </trkpt>
      <trkpt lat="49.37766" lon="1.49518">
        <ele>177.30368041992</ele>
        <time>2016-07-03T08:25:08.000Z</time>
      </trkpt>
      <trkpt lat="49.37769" lon="1.49517">
        <ele>177.61004638672</ele>
        <time>2016-07-03T08:25:10.000Z</time>
      </trkpt>
      <trkpt lat="49.37775" lon="1.49514">
        <ele>177.91519165039</ele>
        <time>2016-07-03T08:25:13.000Z</time>
      </trkpt>
      <trkpt lat="49.37779" lon="1.49515">
        <ele>178.23609924316</ele>
        <time>2016-07-03T08:25:16.000Z</time>
      </trkpt>
      <trkpt lat="49.37782" lon="1.49515">
        <ele>178.55569458008</ele>
        <time>2016-07-03T08:25:18.000Z</time>
      </trkpt>
      <trkpt lat="49.37785" lon="1.49513">
        <ele>178.84135437012</ele>
        <time>2016-07-03T08:25:20.000Z</time>
      </trkpt>
      <trkpt lat="49.37791" lon="1.49511">
        <ele>179.15422058105</ele>
        <time>2016-07-03T08:25:23.000Z</time>
      </trkpt>
      <trkpt lat="49.37797" lon="1.49505">
        <ele>179.46438598633</ele>
        <time>2016-07-03T08:25:26.000Z</time>
      </trkpt>
      <trkpt lat="49.37802" lon="1.49502">
        <ele>179.76042175293</ele>
        <time>2016-07-03T08:25:29.000Z</time>
      </trkpt>
      <trkpt lat="49.37806" lon="1.49498">
        <ele>180.05992126465</ele>
        <time>2016-07-03T08:25:31.000Z</time>
      </trkpt>
      <trkpt lat="49.37809" lon="1.49496">
        <ele>180.35496520996</ele>
        <time>2016-07-03T08:25:33.000Z</time>
      </trkpt>
      <trkpt lat="49.37814" lon="1.49496">
        <ele>180.6637878418</ele>
        <time>2016-07-03T08:25:36.000Z</time>
      </trkpt>
      <trkpt lat="49.37818" lon="1.49496">
        <ele>180.96318054199</ele>
        <time>2016-07-03T08:25:38.000Z</time>
      </trkpt>
      <trkpt lat="49.37822" lon="1.49494">
        <ele>181.265625</ele>
        <time>2016-07-03T08:25:40.000Z</time>
      </trkpt>
      <trkpt lat="49.37828" lon="1.49493">
        <ele>181.60083007812</ele>
        <time>2016-07-03T08:25:43.000Z</time>
      </trkpt>
      <trkpt lat="49.37834" lon="1.49494">
        <ele>182.00801086426</ele>
        <time>2016-07-03T08:25:46.000Z</time>
      </trkpt>
      <trkpt lat="49.37838" lon="1.49495">
        <ele>182.37605285645</ele>
        <time>2016-07-03T08:25:48.000Z</time>
      </trkpt>
      <trkpt lat="49.37842" lon="1.49492">
        <ele>182.72380065918</ele>
        <time>2016-07-03T08:25:50.000Z</time>
      </trkpt>
      <trkpt lat="49.37849" lon="1.4949">
        <ele>183.08502197266</ele>
        <time>2016-07-03T08:25:53.000Z</time>
      </trkpt>
      <trkpt lat="49.37856" lon="1.4949">
        <ele>183.45327758789</ele>
        <time>2016-07-03T08:25:56.000Z</time>
      </trkpt>
      <trkpt lat="49.37861" lon="1.49489">
        <ele>183.77182006836</ele>
        <time>2016-07-03T08:25:58.000Z</time>
      </trkpt>
      <trkpt lat="49.37865" lon="1.49489">
        <ele>184.09077453613</ele>
        <time>2016-07-03T08:26:00.000Z</time>
      </trkpt>
      <trkpt lat="49.37871" lon="1.49491">
        <ele>184.44662475586</ele>
        <time>2016-07-03T08:26:03.000Z</time>
      </trkpt>
      <trkpt lat="49.37876" lon="1.49491">
        <ele>184.7868347168</ele>
        <time>2016-07-03T08:26:05.000Z</time>
      </trkpt>
      <trkpt lat="49.37882" lon="1.49493">
        <ele>185.12100219727</ele>
        <time>2016-07-03T08:26:08.000Z</time>
      </trkpt>
      <trkpt lat="49.37886" lon="1.49494">
        <ele>185.45475769043</ele>
        <time>2016-07-03T08:26:10.000Z</time>
      </trkpt>
      <trkpt lat="49.37895" lon="1.49493">
        <ele>185.8356628418</ele>
        <time>2016-07-03T08:26:13.000Z</time>
      </trkpt>
      <trkpt lat="49.37903" lon="1.49493">
        <ele>186.24496459961</ele>
        <time>2016-07-03T08:26:16.000Z</time>
      </trkpt>
      <trkpt lat="49.37909" lon="1.49495">
        <ele>186.67012023926</ele>
        <time>2016-07-03T08:26:19.000Z</time>
      </trkpt>
      <trkpt lat="49.37917" lon="1.49498">
        <ele>187.1000213623</ele>
        <time>2016-07-03T08:26:22.000Z</time>
      </trkpt>
      <trkpt lat="49.37922" lon="1.49498">
        <ele>187.50875854492</ele>
        <time>2016-07-03T08:26:24.000Z</time>
      </trkpt>
      <trkpt lat="49.37927" lon="1.49496">
        <ele>187.85595703125</ele>
        <time>2016-07-03T08:26:26.000Z</time>
      </trkpt>
      <trkpt lat="49.37934" lon="1.49489">
        <ele>188.14071655273</ele>
        <time>2016-07-03T08:26:29.000Z</time>
      </trkpt>
      <trkpt lat="49.37938" lon="1.49481">
        <ele>188.36875915527</ele>
        <time>2016-07-03T08:26:32.000Z</time>
      </trkpt>
      <trkpt lat="49.37941" lon="1.49466">
        <ele>188.52284240723</ele>
        <time>2016-07-03T08:26:35.000Z</time>
      </trkpt>
      <trkpt lat="49.37944" lon="1.49456">
        <ele>188.64700317383</ele>
        <time>2016-07-03T08:26:37.000Z</time>
      </trkpt>
      <trkpt lat="49.37946" lon="1.49448">
        <ele>188.73921203613</ele>
        <time>2016-07-03T08:26:39.000Z</time>
      </trkpt>
      <trkpt lat="49.3795" lon="1.49432">
        <ele>188.79614257812</ele>
        <time>2016-07-03T08:26:42.000Z</time>
      </trkpt>
      <trkpt lat="49.37954" lon="1.49413">
        <ele>188.85575866699</ele>
        <time>2016-07-03T08:26:45.000Z</time>
      </trkpt>
      <trkpt lat="49.37957" lon="1.494">
        <ele>188.97665405273</ele>
        <time>2016-07-03T08:26:47.000Z</time>
      </trkpt>
      <trkpt lat="49.37962" lon="1.49381">
        <ele>189.19319152832</ele>
        <time>2016-07-03T08:26:50.000Z</time>
      </trkpt>
      <trkpt lat="49.37966" lon="1.49364">
        <ele>189.49227905273</ele>
        <time>2016-07-03T08:26:53.000Z</time>
      </trkpt>
      <trkpt lat="49.37969" lon="1.49353">
        <ele>189.83471679688</ele>
        <time>2016-07-03T08:26:55.000Z</time>
      </trkpt>
      <trkpt lat="49.37972" lon="1.49342">
        <ele>190.20314025879</ele>
        <time>2016-07-03T08:26:57.000Z</time>
      </trkpt>
      <trkpt lat="49.37976" lon="1.49327">
        <ele>190.5281829834</ele>
        <time>2016-07-03T08:27:00.000Z</time>
      </trkpt>
      <trkpt lat="49.37979" lon="1.49315">
        <ele>190.74966430664</ele>
        <time>2016-07-03T08:27:03.000Z</time>
      </trkpt>
      <trkpt lat="49.37981" lon="1.49302">
        <ele>190.88345336914</ele>
        <time>2016-07-03T08:27:06.000Z</time>
      </trkpt>
      <trkpt lat="49.37983" lon="1.49294">
        <ele>190.96617126465</ele>
        <time>2016-07-03T08:27:08.000Z</time>
      </trkpt>
      <trkpt lat="49.37987" lon="1.49283">
        <ele>191</ele>
        <time>2016-07-03T08:27:11.000Z</time>
      </trkpt>
      <trkpt lat="49.3799" lon="1.49275">
        <ele>191</ele>
        <time>2016-07-03T08:27:13.000Z</time>
      </trkpt>
      <trkpt lat="49.37994" lon="1.49261">
        <ele>191</ele>
        <time>2016-07-03T08:27:16.000Z</time>
      </trkpt>
      <trkpt lat="49.37996" lon="1.49253">
        <ele>191</ele>
        <time>2016-07-03T08:27:18.000Z</time>
      </trkpt>
      <trkpt lat="49.37999" lon="1.4924">
        <ele>191.04788208008</ele>
        <time>2016-07-03T08:27:21.000Z</time>
      </trkpt>
      <trkpt lat="49.38" lon="1.49227">
        <ele>191.15989685059</ele>
        <time>2016-07-03T08:27:24.000Z</time>
      </trkpt>
      <trkpt lat="49.38002" lon="1.49221">
        <ele>191.30746459961</ele>
        <time>2016-07-03T08:27:26.000Z</time>
      </trkpt>
      <trkpt lat="49.38005" lon="1.49214">
        <ele>191.49990844727</ele>
        <time>2016-07-03T08:27:28.000Z</time>
      </trkpt>
      <trkpt lat="49.38008" lon="1.49203">
        <ele>191.76953125</ele>
        <time>2016-07-03T08:27:31.000Z</time>
      </trkpt>
      <trkpt lat="49.38012" lon="1.4919">
        <ele>192.0771484375</ele>
        <time>2016-07-03T08:27:34.000Z</time>
      </trkpt>
      <trkpt lat="49.38015" lon="1.4918">
        <ele>192.39808654785</ele>
        <time>2016-07-03T08:27:37.000Z</time>
      </trkpt>
      <trkpt lat="49.38019" lon="1.49169">
        <ele>192.77377319336</ele>
        <time>2016-07-03T08:27:40.000Z</time>
      </trkpt>
      <trkpt lat="49.38021" lon="1.49161">
        <ele>193.07479858398</ele>
        <time>2016-07-03T08:27:42.000Z</time>
      </trkpt>
      <trkpt lat="49.38024" lon="1.49147">
        <ele>193.17900085449</ele>
        <time>2016-07-03T08:27:45.000Z</time>
      </trkpt>
      <trkpt lat="49.38027" lon="1.49131">
        <ele>193.07713317871</ele>
        <time>2016-07-03T08:27:48.000Z</time>
      </trkpt>
      <trkpt lat="49.3803" lon="1.49116">
        <ele>192.787109375</ele>
        <time>2016-07-03T08:27:51.000Z</time>
      </trkpt>
      <trkpt lat="49.38034" lon="1.49102">
        <ele>192.32405090332</ele>
        <time>2016-07-03T08:27:54.000Z</time>
      </trkpt>
      <trkpt lat="49.38036" lon="1.49092">
        <ele>191.82791137695</ele>
        <time>2016-07-03T08:27:56.000Z</time>
      </trkpt>
      <trkpt lat="49.38038" lon="1.49082">
        <ele>191.38363647461</ele>
        <time>2016-07-03T08:27:58.000Z</time>
      </trkpt>
      <trkpt lat="49.38041" lon="1.49073">
        <ele>190.93301391602</ele>
        <time>2016-07-03T08:28:00.000Z</time>
      </trkpt>
      <trkpt lat="49.38046" lon="1.49059">
        <ele>190.41555786133</ele>
        <time>2016-07-03T08:28:03.000Z</time>
      </trkpt>
      <trkpt lat="49.38049" lon="1.4905">
        <ele>189.85841369629</ele>
        <time>2016-07-03T08:28:05.000Z</time>
      </trkpt>
      <trkpt lat="49.38055" lon="1.49037">
        <ele>189.19320678711</ele>
        <time>2016-07-03T08:28:08.000Z</time>
      </trkpt>
      <trkpt lat="49.38061" lon="1.49025">
        <ele>188.4528503418</ele>
        <time>2016-07-03T08:28:11.000Z</time>
      </trkpt>
      <trkpt lat="49.38065" lon="1.49018">
        <ele>187.76675415039</ele>
        <time>2016-07-03T08:28:13.000Z</time>
      </trkpt>
      <trkpt lat="49.38071" lon="1.49006">
        <ele>187.10682678223</ele>
        <time>2016-07-03T08:28:16.000Z</time>
      </trkpt>
      <trkpt lat="49.38077" lon="1.48994">
        <ele>186.41491699219</ele>
        <time>2016-07-03T08:28:19.000Z</time>
      </trkpt>
      <trkpt lat="49.38087" lon="1.48983">
        <ele>185.75849914551</ele>
        <time>2016-07-03T08:28:22.000Z</time>
      </trkpt>
      <trkpt lat="49.38095" lon="1.4897">
        <ele>185.02438354492</ele>
        <time>2016-07-03T08:28:25.000Z</time>
      </trkpt>
      <trkpt lat="49.38104" lon="1.48958">
        <ele>184.17907714844</ele>
        <time>2016-07-03T08:28:28.000Z</time>
      </trkpt>
      <trkpt lat="49.38113" lon="1.48946">
        <ele>183.32804870605</ele>
        <time>2016-07-03T08:28:31.000Z</time>
      </trkpt>
      <trkpt lat="49.38123" lon="1.48919">
        <ele>182.32580566406</ele>
        <time>2016-07-03T08:28:34.000Z</time>
      </trkpt>
      <trkpt lat="49.38133" lon="1.48905">
        <ele>181.40873718262</ele>
        <time>2016-07-03T08:28:37.000Z</time>
      </trkpt>
      <trkpt lat="49.38142" lon="1.48893">
        <ele>180.67021179199</ele>
        <time>2016-07-03T08:28:39.000Z</time>
      </trkpt>
      <trkpt lat="49.38152" lon="1.48876">
        <ele>180.00337219238</ele>
        <time>2016-07-03T08:28:42.000Z</time>
      </trkpt>
      <trkpt lat="49.38153" lon="1.48863">
        <ele>179.35836791992</ele>
        <time>2016-07-03T08:28:44.000Z</time>
      </trkpt>
      <trkpt lat="49.38152" lon="1.48852">
        <ele>178.88522338867</ele>
        <time>2016-07-03T08:28:46.000Z</time>
      </trkpt>
      <trkpt lat="49.3815" lon="1.48835">
        <ele>178.26403808594</ele>
        <time>2016-07-03T08:28:49.000Z</time>
      </trkpt>
      <trkpt lat="49.38153" lon="1.48821">
        <ele>177.60527038574</ele>
        <time>2016-07-03T08:28:52.000Z</time>
      </trkpt>
      <trkpt lat="49.38151" lon="1.48806">
        <ele>176.95394897461</ele>
        <time>2016-07-03T08:28:54.000Z</time>
      </trkpt>
      <trkpt lat="49.38147" lon="1.48782">
        <ele>176.28080749512</ele>
        <time>2016-07-03T08:28:57.000Z</time>
      </trkpt>
      <trkpt lat="49.38142" lon="1.48768">
        <ele>175.65007019043</ele>
        <time>2016-07-03T08:28:59.000Z</time>
      </trkpt>
      <trkpt lat="49.38139" lon="1.48756">
        <ele>175.14450073242</ele>
        <time>2016-07-03T08:29:01.000Z</time>
      </trkpt>
      <trkpt lat="49.3813" lon="1.48744">
        <ele>174.68490600586</ele>
        <time>2016-07-03T08:29:03.000Z</time>
      </trkpt>
      <trkpt lat="49.38126" lon="1.48725">
        <ele>174.33029174805</ele>
        <time>2016-07-03T08:29:06.000Z</time>
      </trkpt>
      <trkpt lat="49.38124" lon="1.48714">
        <ele>174.13479614258</ele>
        <time>2016-07-03T08:29:08.000Z</time>
      </trkpt>
      <trkpt lat="49.38122" lon="1.48698">
        <ele>174.03829956055</ele>
        <time>2016-07-03T08:29:11.000Z</time>
      </trkpt>
      <trkpt lat="49.38118" lon="1.48683">
        <ele>174.03311157227</ele>
        <time>2016-07-03T08:29:14.000Z</time>
      </trkpt>
      <trkpt lat="49.38113" lon="1.48676">
        <ele>174.08528137207</ele>
        <time>2016-07-03T08:29:17.000Z</time>
      </trkpt>
      <trkpt lat="49.3811" lon="1.48669">
        <ele>174.1569519043</ele>
        <time>2016-07-03T08:29:19.000Z</time>
      </trkpt>
      <trkpt lat="49.38109" lon="1.48658">
        <ele>174.2275390625</ele>
        <time>2016-07-03T08:29:22.000Z</time>
      </trkpt>
      <trkpt lat="49.38112" lon="1.48648">
        <ele>174.26600646973</ele>
        <time>2016-07-03T08:29:24.000Z</time>
      </trkpt>
      <trkpt lat="49.38114" lon="1.48638">
        <ele>174.26681518555</ele>
        <time>2016-07-03T08:29:26.000Z</time>
      </trkpt>
      <trkpt lat="49.38114" lon="1.48621">
        <ele>174.23139953613</ele>
        <time>2016-07-03T08:29:29.000Z</time>
      </trkpt>
      <trkpt lat="49.38111" lon="1.4861">
        <ele>174.1789855957</ele>
        <time>2016-07-03T08:29:31.000Z</time>
      </trkpt>
      <trkpt lat="49.38107" lon="1.48593">
        <ele>174.14604187012</ele>
        <time>2016-07-03T08:29:34.000Z</time>
      </trkpt>
      <trkpt lat="49.38102" lon="1.48574">
        <ele>174.1538848877</ele>
        <time>2016-07-03T08:29:37.000Z</time>
      </trkpt>
      <trkpt lat="49.38097" lon="1.48554">
        <ele>174.17805480957</ele>
        <time>2016-07-03T08:29:40.000Z</time>
      </trkpt>
      <trkpt lat="49.38094" lon="1.48541">
        <ele>174.21040344238</ele>
        <time>2016-07-03T08:29:42.000Z</time>
      </trkpt>
      <trkpt lat="49.38091" lon="1.4853">
        <ele>174.23313903809</ele>
        <time>2016-07-03T08:29:44.000Z</time>
      </trkpt>
      <trkpt lat="49.38087" lon="1.48515">
        <ele>174.21725463867</ele>
        <time>2016-07-03T08:29:47.000Z</time>
      </trkpt>
      <trkpt lat="49.38085" lon="1.48504">
        <ele>174.16763305664</ele>
        <time>2016-07-03T08:29:49.000Z</time>
      </trkpt>
      <trkpt lat="49.38083" lon="1.48493">
        <ele>174.13674926758</ele>
        <time>2016-07-03T08:29:51.000Z</time>
      </trkpt>
      <trkpt lat="49.3808" lon="1.48476">
        <ele>174.17041015625</ele>
        <time>2016-07-03T08:29:54.000Z</time>
      </trkpt>
      <trkpt lat="49.38074" lon="1.48459">
        <ele>174.28173828125</ele>
        <time>2016-07-03T08:29:57.000Z</time>
      </trkpt>
      <trkpt lat="49.38071" lon="1.48443">
        <ele>174.4635925293</ele>
        <time>2016-07-03T08:30:00.000Z</time>
      </trkpt>
      <trkpt lat="49.38068" lon="1.48426">
        <ele>174.71090698242</ele>
        <time>2016-07-03T08:30:03.000Z</time>
      </trkpt>
      <trkpt lat="49.38065" lon="1.4841">
        <ele>174.97557067871</ele>
        <time>2016-07-03T08:30:06.000Z</time>
      </trkpt>
      <trkpt lat="49.38063" lon="1.48398">
        <ele>175.18257141113</ele>
        <time>2016-07-03T08:30:08.000Z</time>
      </trkpt>
      <trkpt lat="49.38061" lon="1.48379">
        <ele>175.31311035156</ele>
        <time>2016-07-03T08:30:11.000Z</time>
      </trkpt>
      <trkpt lat="49.38057" lon="1.48362">
        <ele>175.3920135498</ele>
        <time>2016-07-03T08:30:14.000Z</time>
      </trkpt>
      <trkpt lat="49.38054" lon="1.48349">
        <ele>175.42263793945</ele>
        <time>2016-07-03T08:30:16.000Z</time>
      </trkpt>
      <trkpt lat="49.38053" lon="1.48336">
        <ele>175.41369628906</ele>
        <time>2016-07-03T08:30:18.000Z</time>
      </trkpt>
      <trkpt lat="49.38051" lon="1.48324">
        <ele>175.4390411377</ele>
        <time>2016-07-03T08:30:20.000Z</time>
      </trkpt>
      <trkpt lat="49.38049" lon="1.48307">
        <ele>175.53785705566</ele>
        <time>2016-07-03T08:30:23.000Z</time>
      </trkpt>
      <trkpt lat="49.38048" lon="1.48291">
        <ele>175.70132446289</ele>
        <time>2016-07-03T08:30:26.000Z</time>
      </trkpt>
      <trkpt lat="49.38046" lon="1.4828">
        <ele>175.90661621094</ele>
        <time>2016-07-03T08:30:28.000Z</time>
      </trkpt>
      <trkpt lat="49.38043" lon="1.4827">
        <ele>176.15745544434</ele>
        <time>2016-07-03T08:30:30.000Z</time>
      </trkpt>
      <trkpt lat="49.3804" lon="1.48257">
        <ele>176.42056274414</ele>
        <time>2016-07-03T08:30:33.000Z</time>
      </trkpt>
      <trkpt lat="49.38038" lon="1.48238">
        <ele>176.65475463867</ele>
        <time>2016-07-03T08:30:36.000Z</time>
      </trkpt>
      <trkpt lat="49.38036" lon="1.48221">
        <ele>176.84799194336</ele>
        <time>2016-07-03T08:30:39.000Z</time>
      </trkpt>
      <trkpt lat="49.38035" lon="1.4821">
        <ele>177.01570129395</ele>
        <time>2016-07-03T08:30:41.000Z</time>
      </trkpt>
      <trkpt lat="49.38033" lon="1.48193">
        <ele>177.17051696777</ele>
        <time>2016-07-03T08:30:44.000Z</time>
      </trkpt>
      <trkpt lat="49.38031" lon="1.48181">
        <ele>177.29666137695</ele>
        <time>2016-07-03T08:30:46.000Z</time>
      </trkpt>
      <trkpt lat="49.3803" lon="1.48165">
        <ele>177.40950012207</ele>
        <time>2016-07-03T08:30:49.000Z</time>
      </trkpt>
      <trkpt lat="49.38028" lon="1.48153">
        <ele>177.50180053711</ele>
        <time>2016-07-03T08:30:51.000Z</time>
      </trkpt>
      <trkpt lat="49.38025" lon="1.48136">
        <ele>177.58586120605</ele>
        <time>2016-07-03T08:30:54.000Z</time>
      </trkpt>
      <trkpt lat="49.38023" lon="1.48125">
        <ele>177.64978027344</ele>
        <time>2016-07-03T08:30:56.000Z</time>
      </trkpt>
      <trkpt lat="49.3802" lon="1.48114">
        <ele>177.7001953125</ele>
        <time>2016-07-03T08:30:58.000Z</time>
      </trkpt>
      <trkpt lat="49.38016" lon="1.48098">
        <ele>177.7333984375</ele>
        <time>2016-07-03T08:31:01.000Z</time>
      </trkpt>
      <trkpt lat="49.38012" lon="1.48086">
        <ele>177.771484375</ele>
        <time>2016-07-03T08:31:04.000Z</time>
      </trkpt>
      <trkpt lat="49.38004" lon="1.48084">
        <ele>177.8212890625</ele>
        <time>2016-07-03T08:31:07.000Z</time>
      </trkpt>
      <trkpt lat="49.38002" lon="1.48079">
        <ele>177.8903503418</ele>
        <time>2016-07-03T08:31:09.000Z</time>
      </trkpt>
      <trkpt lat="49.38" lon="1.48064">
        <ele>178.03157043457</ele>
        <time>2016-07-03T08:31:12.000Z</time>
      </trkpt>
      <trkpt lat="49.38" lon="1.48055">
        <ele>178.20545959473</ele>
        <time>2016-07-03T08:31:14.000Z</time>
      </trkpt>
      <trkpt lat="49.38" lon="1.48043">
        <ele>178.42666625977</ele>
        <time>2016-07-03T08:31:17.000Z</time>
      </trkpt>
      <trkpt lat="49.37997" lon="1.48033">
        <ele>178.6656036377</ele>
        <time>2016-07-03T08:31:20.000Z</time>
      </trkpt>
      <trkpt lat="49.37996" lon="1.48024">
        <ele>178.91879272461</ele>
        <time>2016-07-03T08:31:22.000Z</time>
      </trkpt>
      <trkpt lat="49.37994" lon="1.48012">
        <ele>179.13929748535</ele>
        <time>2016-07-03T08:31:25.000Z</time>
      </trkpt>
      <trkpt lat="49.37992" lon="1.48007">
        <ele>179.33415222168</ele>
        <time>2016-07-03T08:31:27.000Z</time>
      </trkpt>
      <trkpt lat="49.37989" lon="1.48001">
        <ele>179.48567199707</ele>
        <time>2016-07-03T08:31:30.000Z</time>
      </trkpt>
      <trkpt lat="49.37986" lon="1.47995">
        <ele>179.59069824219</ele>
        <time>2016-07-03T08:31:32.000Z</time>
      </trkpt>
      <trkpt lat="49.37986" lon="1.47982">
        <ele>179.65243530273</ele>
        <time>2016-07-03T08:31:35.000Z</time>
      </trkpt>
      <trkpt lat="49.37986" lon="1.47972">
        <ele>179.67175292969</ele>
        <time>2016-07-03T08:31:38.000Z</time>
      </trkpt>
      <trkpt lat="49.37984" lon="1.47961">
        <ele>179.66549682617</ele>
        <time>2016-07-03T08:31:41.000Z</time>
      </trkpt>
      <trkpt lat="49.3798" lon="1.47947">
        <ele>179.623046875</ele>
        <time>2016-07-03T08:31:44.000Z</time>
      </trkpt>
      <trkpt lat="49.37977" lon="1.47935">
        <ele>179.580078125</ele>
        <time>2016-07-03T08:31:47.000Z</time>
      </trkpt>
      <trkpt lat="49.37977" lon="1.4793">
        <ele>179.541015625</ele>
        <time>2016-07-03T08:31:50.000Z</time>
      </trkpt>
      <trkpt lat="49.3798" lon="1.47914">
        <ele>179.52571105957</ele>
        <time>2016-07-03T08:31:53.000Z</time>
      </trkpt>
      <trkpt lat="49.37979" lon="1.47903">
        <ele>179.59144592285</ele>
        <time>2016-07-03T08:31:55.000Z</time>
      </trkpt>
      <trkpt lat="49.37978" lon="1.47891">
        <ele>179.75532531738</ele>
        <time>2016-07-03T08:31:57.000Z</time>
      </trkpt>
      <trkpt lat="49.37978" lon="1.4787">
        <ele>180.06396484375</ele>
        <time>2016-07-03T08:32:00.000Z</time>
      </trkpt>
      <trkpt lat="49.37976" lon="1.47855">
        <ele>180.46371459961</ele>
        <time>2016-07-03T08:32:02.000Z</time>
      </trkpt>
      <trkpt lat="49.37975" lon="1.47837">
        <ele>180.94271850586</ele>
        <time>2016-07-03T08:32:05.000Z</time>
      </trkpt>
      <trkpt lat="49.37974" lon="1.47825">
        <ele>181.40621948242</ele>
        <time>2016-07-03T08:32:08.000Z</time>
      </trkpt>
      <trkpt lat="49.37976" lon="1.47813">
        <ele>181.86854553223</ele>
        <time>2016-07-03T08:32:11.000Z</time>
      </trkpt>
      <trkpt lat="49.3798" lon="1.47804">
        <ele>182.26034545898</ele>
        <time>2016-07-03T08:32:14.000Z</time>
      </trkpt>
      <trkpt lat="49.37983" lon="1.47808">
        <ele>182.56631469727</ele>
        <time>2016-07-03T08:32:16.000Z</time>
      </trkpt>
      <trkpt lat="49.37988" lon="1.47809">
        <ele>182.79370117188</ele>
        <time>2016-07-03T08:32:18.000Z</time>
      </trkpt>
      <trkpt lat="49.37999" lon="1.4781">
        <ele>183.04235839844</ele>
        <time>2016-07-03T08:32:21.000Z</time>
      </trkpt>
      <trkpt lat="49.3801" lon="1.47809">
        <ele>183.19998168945</ele>
        <time>2016-07-03T08:32:24.000Z</time>
      </trkpt>
      <trkpt lat="49.38017" lon="1.47806">
        <ele>183.28450012207</ele>
        <time>2016-07-03T08:32:26.000Z</time>
      </trkpt>
      <trkpt lat="49.38028" lon="1.47804">
        <ele>183.34492492676</ele>
        <time>2016-07-03T08:32:29.000Z</time>
      </trkpt>
      <trkpt lat="49.38039" lon="1.47805">
        <ele>183.3307800293</ele>
        <time>2016-07-03T08:32:32.000Z</time>
      </trkpt>
      <trkpt lat="49.38047" lon="1.47806">
        <ele>183.21211242676</ele>
        <time>2016-07-03T08:32:34.000Z</time>
      </trkpt>
      <trkpt lat="49.38057" lon="1.47807">
        <ele>183.06132507324</ele>
        <time>2016-07-03T08:32:37.000Z</time>
      </trkpt>
      <trkpt lat="49.38068" lon="1.47805">
        <ele>182.90151977539</ele>
        <time>2016-07-03T08:32:39.000Z</time>
      </trkpt>
      <trkpt lat="49.38082" lon="1.47805">
        <ele>182.72431945801</ele>
        <time>2016-07-03T08:32:42.000Z</time>
      </trkpt>
      <trkpt lat="49.38095" lon="1.47807">
        <ele>182.5491027832</ele>
        <time>2016-07-03T08:32:44.000Z</time>
      </trkpt>
      <trkpt lat="49.38112" lon="1.47806">
        <ele>182.42436218262</ele>
        <time>2016-07-03T08:32:47.000Z</time>
      </trkpt>
      <trkpt lat="49.38132" lon="1.47801">
        <ele>182.43620300293</ele>
        <time>2016-07-03T08:32:50.000Z</time>
      </trkpt>
      <trkpt lat="49.38149" lon="1.47805">
        <ele>182.3988494873</ele>
        <time>2016-07-03T08:32:53.000Z</time>
      </trkpt>
      <trkpt lat="49.38161" lon="1.47807">
        <ele>182.35690307617</ele>
        <time>2016-07-03T08:32:55.000Z</time>
      </trkpt>
      <trkpt lat="49.38183" lon="1.47805">
        <ele>182.21084594727</ele>
        <time>2016-07-03T08:32:58.000Z</time>
      </trkpt>
      <trkpt lat="49.38194" lon="1.47807">
        <ele>181.89202880859</ele>
        <time>2016-07-03T08:33:00.000Z</time>
      </trkpt>
      <trkpt lat="49.38214" lon="1.47809">
        <ele>181.22903442383</ele>
        <time>2016-07-03T08:33:03.000Z</time>
      </trkpt>
      <trkpt lat="49.38234" lon="1.4781">
        <ele>180.41473388672</ele>
        <time>2016-07-03T08:33:06.000Z</time>
      </trkpt>
      <trkpt lat="49.3825" lon="1.47806">
        <ele>179.5037689209</ele>
        <time>2016-07-03T08:33:08.000Z</time>
      </trkpt>
      <trkpt lat="49.38264" lon="1.47809">
        <ele>178.54643249512</ele>
        <time>2016-07-03T08:33:10.000Z</time>
      </trkpt>
      <trkpt lat="49.38283" lon="1.47808">
        <ele>177.54048156738</ele>
        <time>2016-07-03T08:33:13.000Z</time>
      </trkpt>
      <trkpt lat="49.38299" lon="1.47809">
        <ele>176.60925292969</ele>
        <time>2016-07-03T08:33:16.000Z</time>
      </trkpt>
      <trkpt lat="49.38307" lon="1.47814">
        <ele>175.76538085938</ele>
        <time>2016-07-03T08:33:19.000Z</time>
      </trkpt>
      <trkpt lat="49.38318" lon="1.47804">
        <ele>175.01904296875</ele>
        <time>2016-07-03T08:33:22.000Z</time>
      </trkpt>
      <trkpt lat="49.38331" lon="1.47804">
        <ele>174.32287597656</ele>
        <time>2016-07-03T08:33:25.000Z</time>
      </trkpt>
      <trkpt lat="49.38345" lon="1.47806">
        <ele>173.69465637207</ele>
        <time>2016-07-03T08:33:28.000Z</time>
      </trkpt>
      <trkpt lat="49.3836" lon="1.4781">
        <ele>173.1131439209</ele>
        <time>2016-07-03T08:33:31.000Z</time>
      </trkpt>
      <trkpt lat="49.38375" lon="1.4781">
        <ele>172.5443572998</ele>
        <time>2016-07-03T08:33:34.000Z</time>
      </trkpt>
      <trkpt lat="49.38389" lon="1.47813">
        <ele>171.91487121582</ele>
        <time>2016-07-03T08:33:37.000Z</time>
      </trkpt>
      <trkpt lat="49.38398" lon="1.47815">
        <ele>171.36637878418</ele>
        <time>2016-07-03T08:33:40.000Z</time>
      </trkpt>
      <trkpt lat="49.3841" lon="1.47806">
        <ele>170.84976196289</ele>
        <time>2016-07-03T08:33:43.000Z</time>
      </trkpt>
      <trkpt lat="49.38421" lon="1.47799">
        <ele>170.39846801758</ele>
        <time>2016-07-03T08:33:46.000Z</time>
      </trkpt>
      <trkpt lat="49.38427" lon="1.47783">
        <ele>170.02523803711</ele>
        <time>2016-07-03T08:33:48.000Z</time>
      </trkpt>
      <trkpt lat="49.38427" lon="1.47759">
        <ele>169.69610595703</ele>
        <time>2016-07-03T08:33:51.000Z</time>
      </trkpt>
      <trkpt lat="49.38426" lon="1.47742">
        <ele>169.40625</ele>
        <time>2016-07-03T08:33:53.000Z</time>
      </trkpt>
      <trkpt lat="49.38425" lon="1.47715">
        <ele>169.20909118652</ele>
        <time>2016-07-03T08:33:56.000Z</time>
      </trkpt>
      <trkpt lat="49.38423" lon="1.47695">
        <ele>169.08010864258</ele>
        <time>2016-07-03T08:33:58.000Z</time>
      </trkpt>
      <trkpt lat="49.3842" lon="1.47664">
        <ele>169.01327514648</ele>
        <time>2016-07-03T08:34:01.000Z</time>
      </trkpt>
      <trkpt lat="49.38418" lon="1.47633">
        <ele>169.30494689941</ele>
        <time>2016-07-03T08:34:04.000Z</time>
      </trkpt>
      <trkpt lat="49.38414" lon="1.47612">
        <ele>169.88693237305</ele>
        <time>2016-07-03T08:34:06.000Z</time>
      </trkpt>
      <trkpt lat="49.38409" lon="1.47594">
        <ele>170.74157714844</ele>
        <time>2016-07-03T08:34:08.000Z</time>
      </trkpt>
      <trkpt lat="49.384" lon="1.47574">
        <ele>171.82580566406</ele>
        <time>2016-07-03T08:34:11.000Z</time>
      </trkpt>
      <trkpt lat="49.38396" lon="1.47563">
        <ele>172.89619445801</ele>
        <time>2016-07-03T08:34:13.000Z</time>
      </trkpt>
      <trkpt lat="49.38399" lon="1.47548">
        <ele>173.54411315918</ele>
        <time>2016-07-03T08:34:16.000Z</time>
      </trkpt>
      <trkpt lat="49.384" lon="1.47532">
        <ele>173.83694458008</ele>
        <time>2016-07-03T08:34:19.000Z</time>
      </trkpt>
      <trkpt lat="49.38401" lon="1.47516">
        <ele>173.77629089355</ele>
        <time>2016-07-03T08:34:22.000Z</time>
      </trkpt>
      <trkpt lat="49.38401" lon="1.47506">
        <ele>173.44621276855</ele>
        <time>2016-07-03T08:34:24.000Z</time>
      </trkpt>
      <trkpt lat="49.38397" lon="1.47489">
        <ele>173.0637512207</ele>
        <time>2016-07-03T08:34:27.000Z</time>
      </trkpt>
      <trkpt lat="49.38396" lon="1.47478">
        <ele>172.7700958252</ele>
        <time>2016-07-03T08:34:29.000Z</time>
      </trkpt>
      <trkpt lat="49.38399" lon="1.4746">
        <ele>172.47640991211</ele>
        <time>2016-07-03T08:34:32.000Z</time>
      </trkpt>
      <trkpt lat="49.38399" lon="1.47445">
        <ele>172.21255493164</ele>
        <time>2016-07-03T08:34:35.000Z</time>
      </trkpt>
      <trkpt lat="49.38398" lon="1.47438">
        <ele>171.97674560547</ele>
        <time>2016-07-03T08:34:37.000Z</time>
      </trkpt>
      <trkpt lat="49.38398" lon="1.47422">
        <ele>171.72418212891</ele>
        <time>2016-07-03T08:34:40.000Z</time>
      </trkpt>
      <trkpt lat="49.38396" lon="1.4741">
        <ele>171.52499389648</ele>
        <time>2016-07-03T08:34:42.000Z</time>
      </trkpt>
      <trkpt lat="49.38395" lon="1.47393">
        <ele>171.46548461914</ele>
        <time>2016-07-03T08:34:45.000Z</time>
      </trkpt>
      <trkpt lat="49.38395" lon="1.47374">
        <ele>171.50393676758</ele>
        <time>2016-07-03T08:34:48.000Z</time>
      </trkpt>
      <trkpt lat="49.38396" lon="1.47361">
        <ele>171.58181762695</ele>
        <time>2016-07-03T08:34:50.000Z</time>
      </trkpt>
      <trkpt lat="49.38395" lon="1.47342">
        <ele>171.7815246582</ele>
        <time>2016-07-03T08:34:53.000Z</time>
      </trkpt>
      <trkpt lat="49.38393" lon="1.4733">
        <ele>171.99143981934</ele>
        <time>2016-07-03T08:34:55.000Z</time>
      </trkpt>
      <trkpt lat="49.3839" lon="1.47314">
        <ele>172.18209838867</ele>
        <time>2016-07-03T08:34:58.000Z</time>
      </trkpt>
      <trkpt lat="49.38388" lon="1.47305">
        <ele>172.3406829834</ele>
        <time>2016-07-03T08:35:00.000Z</time>
      </trkpt>
      <trkpt lat="49.38388" lon="1.47295">
        <ele>172.4665222168</ele>
        <time>2016-07-03T08:35:02.000Z</time>
      </trkpt>
      <trkpt lat="49.38388" lon="1.47282">
        <ele>172.52699279785</ele>
        <time>2016-07-03T08:35:05.000Z</time>
      </trkpt>
      <trkpt lat="49.38385" lon="1.4727">
        <ele>172.59146118164</ele>
        <time>2016-07-03T08:35:08.000Z</time>
      </trkpt>
      <trkpt lat="49.38386" lon="1.47254">
        <ele>172.60237121582</ele>
        <time>2016-07-03T08:35:11.000Z</time>
      </trkpt>
      <trkpt lat="49.38388" lon="1.47238">
        <ele>172.61845397949</ele>
        <time>2016-07-03T08:35:14.000Z</time>
      </trkpt>
      <trkpt lat="49.38389" lon="1.47228">
        <ele>172.68280029297</ele>
        <time>2016-07-03T08:35:16.000Z</time>
      </trkpt>
      <trkpt lat="49.38388" lon="1.47217">
        <ele>172.80931091309</ele>
        <time>2016-07-03T08:35:18.000Z</time>
      </trkpt>
      <trkpt lat="49.38387" lon="1.47206">
        <ele>172.96907043457</ele>
        <time>2016-07-03T08:35:20.000Z</time>
      </trkpt>
      <trkpt lat="49.38385" lon="1.47188">
        <ele>173.27258300781</ele>
        <time>2016-07-03T08:35:23.000Z</time>
      </trkpt>
      <trkpt lat="49.38385" lon="1.47176">
        <ele>173.62390136719</ele>
        <time>2016-07-03T08:35:25.000Z</time>
      </trkpt>
      <trkpt lat="49.38386" lon="1.47159">
        <ele>174.08297729492</ele>
        <time>2016-07-03T08:35:28.000Z</time>
      </trkpt>
      <trkpt lat="49.38387" lon="1.47148">
        <ele>174.61952209473</ele>
        <time>2016-07-03T08:35:30.000Z</time>
      </trkpt>
      <trkpt lat="49.38388" lon="1.47133">
        <ele>175.29745483398</ele>
        <time>2016-07-03T08:35:33.000Z</time>
      </trkpt>
      <trkpt lat="49.38389" lon="1.4712">
        <ele>176.05773925781</ele>
        <time>2016-07-03T08:35:36.000Z</time>
      </trkpt>
      <trkpt lat="49.38383" lon="1.47111">
        <ele>176.9094543457</ele>
        <time>2016-07-03T08:35:38.000Z</time>
      </trkpt>
      <trkpt lat="49.38377" lon="1.47106">
        <ele>177.6940612793</ele>
        <time>2016-07-03T08:35:40.000Z</time>
      </trkpt>
      <trkpt lat="49.38357" lon="1.4711">
        <ele>178.36822509766</ele>
        <time>2016-07-03T08:35:43.000Z</time>
      </trkpt>
      <trkpt lat="49.38346" lon="1.47112">
        <ele>178.86488342285</ele>
        <time>2016-07-03T08:35:45.000Z</time>
      </trkpt>
      <trkpt lat="49.38328" lon="1.47114">
        <ele>179.19467163086</ele>
        <time>2016-07-03T08:35:48.000Z</time>
      </trkpt>
      <trkpt lat="49.38309" lon="1.47123">
        <ele>179.30255126953</ele>
        <time>2016-07-03T08:35:51.000Z</time>
      </trkpt>
      <trkpt lat="49.38294" lon="1.4713">
        <ele>179.27812194824</ele>
        <time>2016-07-03T08:35:53.000Z</time>
      </trkpt>
      <trkpt lat="49.3828" lon="1.4713">
        <ele>179.19538879395</ele>
        <time>2016-07-03T08:35:55.000Z</time>
      </trkpt>
      <trkpt lat="49.38259" lon="1.47132">
        <ele>179.02258300781</ele>
        <time>2016-07-03T08:35:58.000Z</time>
      </trkpt>
      <trkpt lat="49.38249" lon="1.47131">
        <ele>178.80807495117</ele>
        <time>2016-07-03T08:36:00.000Z</time>
      </trkpt>
      <trkpt lat="49.38243" lon="1.47127">
        <ele>178.77236938477</ele>
        <time>2016-07-03T08:36:02.000Z</time>
      </trkpt>
      <trkpt lat="49.38239" lon="1.47109">
        <ele>178.87655639648</ele>
        <time>2016-07-03T08:36:05.000Z</time>
      </trkpt>
      <trkpt lat="49.38237" lon="1.47088">
        <ele>179.09901428223</ele>
        <time>2016-07-03T08:36:08.000Z</time>
      </trkpt>
      <trkpt lat="49.38238" lon="1.47064">
        <ele>179.3120880127</ele>
        <time>2016-07-03T08:36:11.000Z</time>
      </trkpt>
      <trkpt lat="49.38238" lon="1.47038">
        <ele>179.44816589355</ele>
        <time>2016-07-03T08:36:14.000Z</time>
      </trkpt>
      <trkpt lat="49.38236" lon="1.47022">
        <ele>179.44046020508</ele>
        <time>2016-07-03T08:36:16.000Z</time>
      </trkpt>
      <trkpt lat="49.38231" lon="1.46993">
        <ele>179.31753540039</ele>
        <time>2016-07-03T08:36:19.000Z</time>
      </trkpt>
      <trkpt lat="49.38229" lon="1.46963">
        <ele>179.11135864258</ele>
        <time>2016-07-03T08:36:22.000Z</time>
      </trkpt>
      <trkpt lat="49.38227" lon="1.46941">
        <ele>178.9772644043</ele>
        <time>2016-07-03T08:36:25.000Z</time>
      </trkpt>
      <trkpt lat="49.38224" lon="1.46927">
        <ele>178.93417358398</ele>
        <time>2016-07-03T08:36:27.000Z</time>
      </trkpt>
      <trkpt lat="49.38227" lon="1.46915">
        <ele>178.89627075195</ele>
        <time>2016-07-03T08:36:29.000Z</time>
      </trkpt>
      <trkpt lat="49.38226" lon="1.46905">
        <ele>178.87699890137</ele>
        <time>2016-07-03T08:36:31.000Z</time>
      </trkpt>
      <trkpt lat="49.38224" lon="1.4689">
        <ele>178.8489074707</ele>
        <time>2016-07-03T08:36:34.000Z</time>
      </trkpt>
      <trkpt lat="49.38219" lon="1.46864">
        <ele>178.79379272461</ele>
        <time>2016-07-03T08:36:37.000Z</time>
      </trkpt>
      <trkpt lat="49.38211" lon="1.46842">
        <ele>178.7140045166</ele>
        <time>2016-07-03T08:36:39.000Z</time>
      </trkpt>
      <trkpt lat="49.38208" lon="1.46823">
        <ele>178.68746948242</ele>
        <time>2016-07-03T08:36:41.000Z</time>
      </trkpt>
      <trkpt lat="49.38194" lon="1.4679">
        <ele>178.69638061523</ele>
        <time>2016-07-03T08:36:44.000Z</time>
      </trkpt>
      <trkpt lat="49.3818" lon="1.46758">
        <ele>178.56057739258</ele>
        <time>2016-07-03T08:36:47.000Z</time>
      </trkpt>
      <trkpt lat="49.3817" lon="1.46722">
        <ele>178.22018432617</ele>
        <time>2016-07-03T08:36:50.000Z</time>
      </trkpt>
      <trkpt lat="49.38164" lon="1.46699">
        <ele>177.7703704834</ele>
        <time>2016-07-03T08:36:52.000Z</time>
      </trkpt>
      <trkpt lat="49.38147" lon="1.46663">
        <ele>177.08798217773</ele>
        <time>2016-07-03T08:36:55.000Z</time>
      </trkpt>
      <trkpt lat="49.3814" lon="1.4664">
        <ele>176.30639648438</ele>
        <time>2016-07-03T08:36:57.000Z</time>
      </trkpt>
      <trkpt lat="49.38117" lon="1.46605">
        <ele>175.44854736328</ele>
        <time>2016-07-03T08:37:00.000Z</time>
      </trkpt>
      <trkpt lat="49.38105" lon="1.46583">
        <ele>174.66902160645</ele>
        <time>2016-07-03T08:37:02.000Z</time>
      </trkpt>
      <trkpt lat="49.38079" lon="1.46556">
        <ele>173.72259521484</ele>
        <time>2016-07-03T08:37:05.000Z</time>
      </trkpt>
      <trkpt lat="49.3806" lon="1.46544">
        <ele>172.86393737793</ele>
        <time>2016-07-03T08:37:07.000Z</time>
      </trkpt>
      <trkpt lat="49.38032" lon="1.46524">
        <ele>171.84176635742</ele>
        <time>2016-07-03T08:37:10.000Z</time>
      </trkpt>
      <trkpt lat="49.38003" lon="1.46507">
        <ele>170.75601196289</ele>
        <time>2016-07-03T08:37:13.000Z</time>
      </trkpt>
      <trkpt lat="49.37986" lon="1.46481">
        <ele>169.94145202637</ele>
        <time>2016-07-03T08:37:16.000Z</time>
      </trkpt>
      <trkpt lat="49.37963" lon="1.46424">
        <ele>169.42129516602</ele>
        <time>2016-07-03T08:37:20.000Z</time>
      </trkpt>
      <trkpt lat="49.37959" lon="1.46397">
        <ele>168.90257263184</ele>
        <time>2016-07-03T08:37:22.000Z</time>
      </trkpt>
      <trkpt lat="49.3795" lon="1.46368">
        <ele>168.47016906738</ele>
        <time>2016-07-03T08:37:24.000Z</time>
      </trkpt>
      <trkpt lat="49.37935" lon="1.46328">
        <ele>168.0085144043</ele>
        <time>2016-07-03T08:37:27.000Z</time>
      </trkpt>
      <trkpt lat="49.37925" lon="1.46304">
        <ele>167.17405700684</ele>
        <time>2016-07-03T08:37:29.000Z</time>
      </trkpt>
      <trkpt lat="49.37915" lon="1.46277">
        <ele>166.05541992188</ele>
        <time>2016-07-03T08:37:31.000Z</time>
      </trkpt>
      <trkpt lat="49.3791" lon="1.46236">
        <ele>164.68174743652</ele>
        <time>2016-07-03T08:37:34.000Z</time>
      </trkpt>
      <trkpt lat="49.37907" lon="1.46198">
        <ele>163.08134460449</ele>
        <time>2016-07-03T08:37:37.000Z</time>
      </trkpt>
      <trkpt lat="49.37907" lon="1.46177">
        <ele>161.56037902832</ele>
        <time>2016-07-03T08:37:40.000Z</time>
      </trkpt>
      <trkpt lat="49.37907" lon="1.46173">
        <ele>160.23333740234</ele>
        <time>2016-07-03T08:37:43.000Z</time>
      </trkpt>
      <trkpt lat="49.37903" lon="1.46171">
        <ele>159.23208618164</ele>
        <time>2016-07-03T08:37:45.000Z</time>
      </trkpt>
      <trkpt lat="49.37897" lon="1.4617">
        <ele>158.68118286133</ele>
        <time>2016-07-03T08:37:48.000Z</time>
      </trkpt>
      <trkpt lat="49.37896" lon="1.46173">
        <ele>158.57510375977</ele>
        <time>2016-07-03T08:37:51.000Z</time>
      </trkpt>
      <trkpt lat="49.37893" lon="1.46176">
        <ele>158.78982543945</ele>
        <time>2016-07-03T08:37:53.000Z</time>
      </trkpt>
      <trkpt lat="49.37889" lon="1.46175">
        <ele>159.10452270508</ele>
        <time>2016-07-03T08:37:56.000Z</time>
      </trkpt>
      <trkpt lat="49.37886" lon="1.46173">
        <ele>159.39878845215</ele>
        <time>2016-07-03T08:37:59.000Z</time>
      </trkpt>
      <trkpt lat="49.37885" lon="1.46174">
        <ele>159.65608215332</ele>
        <time>2016-07-03T08:38:01.000Z</time>
      </trkpt>
      <trkpt lat="49.37883" lon="1.46174">
        <ele>159.87210083008</ele>
        <time>2016-07-03T08:38:03.000Z</time>
      </trkpt>
      <trkpt lat="49.3788" lon="1.46174">
        <ele>160.05883789062</ele>
        <time>2016-07-03T08:38:06.000Z</time>
      </trkpt>
      <trkpt lat="49.37878" lon="1.46174">
        <ele>160.24333190918</ele>
        <time>2016-07-03T08:38:08.000Z</time>
      </trkpt>
      <trkpt lat="49.37875" lon="1.46177">
        <ele>160.47261047363</ele>
        <time>2016-07-03T08:38:11.000Z</time>
      </trkpt>
      <trkpt lat="49.37872" lon="1.46178">
        <ele>160.70938110352</ele>
        <time>2016-07-03T08:38:13.000Z</time>
      </trkpt>
      <trkpt lat="49.37868" lon="1.46179">
        <ele>160.99426269531</ele>
        <time>2016-07-03T08:38:16.000Z</time>
      </trkpt>
      <trkpt lat="49.37865" lon="1.46182">
        <ele>161.3218536377</ele>
        <time>2016-07-03T08:38:19.000Z</time>
      </trkpt>
      <trkpt lat="49.37864" lon="1.46185">
        <ele>161.64614868164</ele>
        <time>2016-07-03T08:38:21.000Z</time>
      </trkpt>
      <trkpt lat="49.37861" lon="1.46188">
        <ele>161.9712677002</ele>
        <time>2016-07-03T08:38:24.000Z</time>
      </trkpt>
      <trkpt lat="49.37859" lon="1.46191">
        <ele>162.30166625977</ele>
        <time>2016-07-03T08:38:26.000Z</time>
      </trkpt>
      <trkpt lat="49.37857" lon="1.46193">
        <ele>162.60372924805</ele>
        <time>2016-07-03T08:38:28.000Z</time>
      </trkpt>
      <trkpt lat="49.37854" lon="1.46195">
        <ele>162.87704467773</ele>
        <time>2016-07-03T08:38:31.000Z</time>
      </trkpt>
      <trkpt lat="49.37851" lon="1.46198">
        <ele>163.1831817627</ele>
        <time>2016-07-03T08:38:34.000Z</time>
      </trkpt>
      <trkpt lat="49.37849" lon="1.46201">
        <ele>163.46139526367</ele>
        <time>2016-07-03T08:38:37.000Z</time>
      </trkpt>
      <trkpt lat="49.37848" lon="1.46202">
        <ele>163.71670532227</ele>
        <time>2016-07-03T08:38:40.000Z</time>
      </trkpt>
      <trkpt lat="49.37846" lon="1.46205">
        <ele>163.97744750977</ele>
        <time>2016-07-03T08:38:42.000Z</time>
      </trkpt>
      <trkpt lat="49.37845" lon="1.46207">
        <ele>164.21017456055</ele>
        <time>2016-07-03T08:38:44.000Z</time>
      </trkpt>
      <trkpt lat="49.37843" lon="1.4621">
        <ele>164.42807006836</ele>
        <time>2016-07-03T08:38:47.000Z</time>
      </trkpt>
      <trkpt lat="49.37841" lon="1.46212">
        <ele>164.63464355469</ele>
        <time>2016-07-03T08:38:49.000Z</time>
      </trkpt>
      <trkpt lat="49.3784" lon="1.46213">
        <ele>164.8385925293</ele>
        <time>2016-07-03T08:38:51.000Z</time>
      </trkpt>
      <trkpt lat="49.3784" lon="1.46212">
        <ele>164.99392700195</ele>
        <time>2016-07-03T08:38:56.000Z</time>
      </trkpt>
      <trkpt lat="49.37839" lon="1.46214">
        <ele>165.13632202148</ele>
        <time>2016-07-03T08:39:00.000Z</time>
      </trkpt>
      <trkpt lat="49.37842" lon="1.46219">
        <ele>165.22010803223</ele>
        <time>2016-07-03T08:39:10.000Z</time>
      </trkpt>
      <trkpt lat="49.3784" lon="1.46219">
        <ele>165.29780578613</ele>
        <time>2016-07-03T08:39:13.000Z</time>
      </trkpt>
      <trkpt lat="49.3784" lon="1.46223">
        <ele>165.38577270508</ele>
        <time>2016-07-03T08:39:16.000Z</time>
      </trkpt>
      <trkpt lat="49.3784" lon="1.46225">
        <ele>165.48510742188</ele>
        <time>2016-07-03T08:39:19.000Z</time>
      </trkpt>
      <trkpt lat="49.3784" lon="1.46228">
        <ele>165.58407592773</ele>
        <time>2016-07-03T08:39:22.000Z</time>
      </trkpt>
      <trkpt lat="49.37839" lon="1.46231">
        <ele>165.71005249023</ele>
        <time>2016-07-03T08:39:24.000Z</time>
      </trkpt>
      <trkpt lat="49.37837" lon="1.46232">
        <ele>165.84384155273</ele>
        <time>2016-07-03T08:39:27.000Z</time>
      </trkpt>
      <trkpt lat="49.37834" lon="1.46232">
        <ele>165.98432922363</ele>
        <time>2016-07-03T08:39:30.000Z</time>
      </trkpt>
      <trkpt lat="49.37831" lon="1.46231">
        <ele>166.14379882812</ele>
        <time>2016-07-03T08:39:32.000Z</time>
      </trkpt>
      <trkpt lat="49.3783" lon="1.46231">
        <ele>166.30505371094</ele>
        <time>2016-07-03T08:39:35.000Z</time>
      </trkpt>
      <trkpt lat="49.37828" lon="1.4623">
        <ele>166.49661254883</ele>
        <time>2016-07-03T08:39:38.000Z</time>
      </trkpt>
      <trkpt lat="49.37827" lon="1.4623">
        <ele>166.6861114502</ele>
        <time>2016-07-03T08:39:41.000Z</time>
      </trkpt>
      <trkpt lat="49.37826" lon="1.4623">
        <ele>166.84144592285</ele>
        <time>2016-07-03T08:39:45.000Z</time>
      </trkpt>
      <trkpt lat="49.37825" lon="1.46229">
        <ele>166.98376464844</ele>
        <time>2016-07-03T08:39:48.000Z</time>
      </trkpt>
      <trkpt lat="49.3782" lon="1.4623">
        <ele>167.20750427246</ele>
        <time>2016-07-03T08:39:55.000Z</time>
      </trkpt>
      <trkpt lat="49.37817" lon="1.4623">
        <ele>167.45066833496</ele>
        <time>2016-07-03T08:39:58.000Z</time>
      </trkpt>
      <trkpt lat="49.37814" lon="1.46228">
        <ele>167.71519470215</ele>
        <time>2016-07-03T08:40:00.000Z</time>
      </trkpt>
      <trkpt lat="49.37813" lon="1.46228">
        <ele>167.98698425293</ele>
        <time>2016-07-03T08:40:03.000Z</time>
      </trkpt>
      <trkpt lat="49.37811" lon="1.46229">
        <ele>168.28756713867</ele>
        <time>2016-07-03T08:40:06.000Z</time>
      </trkpt>
      <trkpt lat="49.37807" lon="1.46228">
        <ele>168.55038452148</ele>
        <time>2016-07-03T08:40:09.000Z</time>
      </trkpt>
      <trkpt lat="49.37804" lon="1.46226">
        <ele>168.81994628906</ele>
        <time>2016-07-03T08:40:12.000Z</time>
      </trkpt>
      <trkpt lat="49.37802" lon="1.46226">
        <ele>169.0710144043</ele>
        <time>2016-07-03T08:40:14.000Z</time>
      </trkpt>
      <trkpt lat="49.37801" lon="1.46225">
        <ele>169.30993652344</ele>
        <time>2016-07-03T08:40:19.000Z</time>
      </trkpt>
      <trkpt lat="49.37797" lon="1.46228">
        <ele>169.61474609375</ele>
        <time>2016-07-03T08:40:29.000Z</time>
      </trkpt>
      <trkpt lat="49.37797" lon="1.46228">
        <ele>169.61474609375</ele>
        <time>2016-07-03T08:40:49.000Z</time>
      </trkpt>
      <trkpt lat="49.37796" lon="1.4623">
        <ele>169.87857055664</ele>
        <time>2016-07-03T08:41:08.000Z</time>
      </trkpt>
      <trkpt lat="49.37795" lon="1.4623">
        <ele>170.08773803711</ele>
        <time>2016-07-03T08:41:11.000Z</time>
      </trkpt>
      <trkpt lat="49.37793" lon="1.46229">
        <ele>170.30435180664</ele>
        <time>2016-07-03T08:41:13.000Z</time>
      </trkpt>
      <trkpt lat="49.37791" lon="1.46227">
        <ele>170.5510559082</ele>
        <time>2016-07-03T08:41:16.000Z</time>
      </trkpt>
      <trkpt lat="49.37788" lon="1.46225">
        <ele>170.7225189209</ele>
        <time>2016-07-03T08:41:19.000Z</time>
      </trkpt>
      <trkpt lat="49.37786" lon="1.46223">
        <ele>170.91297912598</ele>
        <time>2016-07-03T08:41:22.000Z</time>
      </trkpt>
      <trkpt lat="49.37786" lon="1.46222">
        <ele>171.06758117676</ele>
        <time>2016-07-03T08:41:35.000Z</time>
      </trkpt>
      <trkpt lat="49.37782" lon="1.46219">
        <ele>171.26321411133</ele>
        <time>2016-07-03T08:41:38.000Z</time>
      </trkpt>
      <trkpt lat="49.37777" lon="1.46214">
        <ele>171.49157714844</ele>
        <time>2016-07-03T08:41:40.000Z</time>
      </trkpt>
      <trkpt lat="49.3777" lon="1.46209">
        <ele>171.80424499512</ele>
        <time>2016-07-03T08:41:43.000Z</time>
      </trkpt>
      <trkpt lat="49.37766" lon="1.46204">
        <ele>172.16738891602</ele>
        <time>2016-07-03T08:41:45.000Z</time>
      </trkpt>
      <trkpt lat="49.37762" lon="1.462">
        <ele>172.58401489258</ele>
        <time>2016-07-03T08:41:47.000Z</time>
      </trkpt>
      <trkpt lat="49.37762" lon="1.46194">
        <ele>172.90414428711</ele>
        <time>2016-07-03T08:41:50.000Z</time>
      </trkpt>
      <trkpt lat="49.37765" lon="1.46187">
        <ele>173.04541015625</ele>
        <time>2016-07-03T08:41:52.000Z</time>
      </trkpt>
      <trkpt lat="49.37768" lon="1.46176">
        <ele>172.93594360352</ele>
        <time>2016-07-03T08:41:55.000Z</time>
      </trkpt>
      <trkpt lat="49.37769" lon="1.4617">
        <ele>172.6664276123</ele>
        <time>2016-07-03T08:41:57.000Z</time>
      </trkpt>
      <trkpt lat="49.3777" lon="1.46163">
        <ele>172.2977142334</ele>
        <time>2016-07-03T08:41:59.000Z</time>
      </trkpt>
      <trkpt lat="49.3777" lon="1.46148">
        <ele>171.9637298584</ele>
        <time>2016-07-03T08:42:02.000Z</time>
      </trkpt>
      <trkpt lat="49.37769" lon="1.46137">
        <ele>171.75035095215</ele>
        <time>2016-07-03T08:42:05.000Z</time>
      </trkpt>
      <trkpt lat="49.3777" lon="1.46128">
        <ele>171.65191650391</ele>
        <time>2016-07-03T08:42:07.000Z</time>
      </trkpt>
      <trkpt lat="49.37773" lon="1.46089">
        <ele>171.5390625</ele>
        <time>2016-07-03T08:42:11.000Z</time>
      </trkpt>
      <trkpt lat="49.37774" lon="1.46062">
        <ele>171.33602905273</ele>
        <time>2016-07-03T08:42:14.000Z</time>
      </trkpt>
      <trkpt lat="49.37777" lon="1.46032">
        <ele>170.91305541992</ele>
        <time>2016-07-03T08:42:17.000Z</time>
      </trkpt>
      <trkpt lat="49.37779" lon="1.46014">
        <ele>170.36618041992</ele>
        <time>2016-07-03T08:42:20.000Z</time>
      </trkpt>
      <trkpt lat="49.3778" lon="1.46007">
        <ele>169.79040527344</ele>
        <time>2016-07-03T08:42:22.000Z</time>
      </trkpt>
      <trkpt lat="49.37791" lon="1.45958">
        <ele>168.7966003418</ele>
        <time>2016-07-03T08:42:27.000Z</time>
      </trkpt>
      <trkpt lat="49.3779" lon="1.45924">
        <ele>167.67016601562</ele>
        <time>2016-07-03T08:42:30.000Z</time>
      </trkpt>
      <trkpt lat="49.3779" lon="1.45904">
        <ele>166.55261230469</ele>
        <time>2016-07-03T08:42:32.000Z</time>
      </trkpt>
      <trkpt lat="49.37794" lon="1.45876">
        <ele>165.20541381836</ele>
        <time>2016-07-03T08:42:35.000Z</time>
      </trkpt>
      <trkpt lat="49.3779" lon="1.45858">
        <ele>163.73612976074</ele>
        <time>2016-07-03T08:42:37.000Z</time>
      </trkpt>
      <trkpt lat="49.37777" lon="1.45831">
        <ele>162.56767272949</ele>
        <time>2016-07-03T08:42:40.000Z</time>
      </trkpt>
      <trkpt lat="49.37768" lon="1.4582">
        <ele>161.5471496582</ele>
        <time>2016-07-03T08:42:42.000Z</time>
      </trkpt>
      <trkpt lat="49.3775" lon="1.45802">
        <ele>160.63442993164</ele>
        <time>2016-07-03T08:42:45.000Z</time>
      </trkpt>
      <trkpt lat="49.37743" lon="1.45787">
        <ele>159.78785705566</ele>
        <time>2016-07-03T08:42:48.000Z</time>
      </trkpt>
      <trkpt lat="49.37742" lon="1.45775">
        <ele>158.88055419922</ele>
        <time>2016-07-03T08:42:50.000Z</time>
      </trkpt>
      <trkpt lat="49.37743" lon="1.45741">
        <ele>157.39691162109</ele>
        <time>2016-07-03T08:42:53.000Z</time>
      </trkpt>
      <trkpt lat="49.37743" lon="1.45715">
        <ele>154.99307250977</ele>
        <time>2016-07-03T08:42:55.000Z</time>
      </trkpt>
      <trkpt lat="49.37733" lon="1.45689">
        <ele>151.58906555176</ele>
        <time>2016-07-03T08:42:57.000Z</time>
      </trkpt>
      <trkpt lat="49.37727" lon="1.45656">
        <ele>147.11283874512</ele>
        <time>2016-07-03T08:43:00.000Z</time>
      </trkpt>
      <trkpt lat="49.37711" lon="1.45632">
        <ele>141.80903625488</ele>
        <time>2016-07-03T08:43:03.000Z</time>
      </trkpt>
      <trkpt lat="49.37696" lon="1.45619">
        <ele>136.8330078125</ele>
        <time>2016-07-03T08:43:05.000Z</time>
      </trkpt>
      <trkpt lat="49.37672" lon="1.45608">
        <ele>132.69770812988</ele>
        <time>2016-07-03T08:43:08.000Z</time>
      </trkpt>
      <trkpt lat="49.37659" lon="1.45594">
        <ele>129.18077087402</ele>
        <time>2016-07-03T08:43:11.000Z</time>
      </trkpt>
      <trkpt lat="49.37647" lon="1.45574">
        <ele>126.38838195801</ele>
        <time>2016-07-03T08:43:14.000Z</time>
      </trkpt>
      <trkpt lat="49.3765" lon="1.45566">
        <ele>124.4317855835</ele>
        <time>2016-07-03T08:43:17.000Z</time>
      </trkpt>
      <trkpt lat="49.37654" lon="1.4555">
        <ele>122.48628997803</ele>
        <time>2016-07-03T08:43:20.000Z</time>
      </trkpt>
      <trkpt lat="49.37659" lon="1.45521">
        <ele>119.93349456787</ele>
        <time>2016-07-03T08:43:23.000Z</time>
      </trkpt>
      <trkpt lat="49.37658" lon="1.45516">
        <ele>117.70803070068</ele>
        <time>2016-07-03T08:43:25.000Z</time>
      </trkpt>
      <trkpt lat="49.37648" lon="1.45517">
        <ele>116.24775695801</ele>
        <time>2016-07-03T08:43:28.000Z</time>
      </trkpt>
      <trkpt lat="49.37647" lon="1.45523">
        <ele>115.16258239746</ele>
        <time>2016-07-03T08:43:30.000Z</time>
      </trkpt>
      <trkpt lat="49.37654" lon="1.45524">
        <ele>114.4806137085</ele>
        <time>2016-07-03T08:43:33.000Z</time>
      </trkpt>
      <trkpt lat="49.37666" lon="1.4553">
        <ele>114.67836761475</ele>
        <time>2016-07-03T08:43:36.000Z</time>
      </trkpt>
      <trkpt lat="49.37674" lon="1.45535">
        <ele>115.17952728271</ele>
        <time>2016-07-03T08:43:38.000Z</time>
      </trkpt>
      <trkpt lat="49.3768" lon="1.4554">
        <ele>115.67852783203</ele>
        <time>2016-07-03T08:43:40.000Z</time>
      </trkpt>
      <trkpt lat="49.37688" lon="1.45544">
        <ele>116.1032333374</ele>
        <time>2016-07-03T08:43:43.000Z</time>
      </trkpt>
      <trkpt lat="49.37698" lon="1.45548">
        <ele>116.62325286865</ele>
        <time>2016-07-03T08:43:46.000Z</time>
      </trkpt>
      <trkpt lat="49.37706" lon="1.45554">
        <ele>117.14890289307</ele>
        <time>2016-07-03T08:43:49.000Z</time>
      </trkpt>
      <trkpt lat="49.37712" lon="1.45556">
        <ele>117.50801086426</ele>
        <time>2016-07-03T08:43:51.000Z</time>
      </trkpt>
      <trkpt lat="49.37718" lon="1.45556">
        <ele>117.70631408691</ele>
        <time>2016-07-03T08:43:53.000Z</time>
      </trkpt>
      <trkpt lat="49.37722" lon="1.45557">
        <ele>117.7964630127</ele>
        <time>2016-07-03T08:43:55.000Z</time>
      </trkpt>
      <trkpt lat="49.37734" lon="1.45561">
        <ele>117.78369140625</ele>
        <time>2016-07-03T08:43:58.000Z</time>
      </trkpt>
      <trkpt lat="49.37743" lon="1.45564">
        <ele>117.65191650391</ele>
        <time>2016-07-03T08:44:00.000Z</time>
      </trkpt>
      <trkpt lat="49.37751" lon="1.45568">
        <ele>117.47221374512</ele>
        <time>2016-07-03T08:44:02.000Z</time>
      </trkpt>
      <trkpt lat="49.37759" lon="1.45571">
        <ele>117.34648132324</ele>
        <time>2016-07-03T08:44:04.000Z</time>
      </trkpt>
      <trkpt lat="49.37769" lon="1.45573">
        <ele>117.26773834229</ele>
        <time>2016-07-03T08:44:07.000Z</time>
      </trkpt>
      <trkpt lat="49.37774" lon="1.45573">
        <ele>117.24430847168</ele>
        <time>2016-07-03T08:44:09.000Z</time>
      </trkpt>
      <trkpt lat="49.37779" lon="1.45572">
        <ele>117.30130767822</ele>
        <time>2016-07-03T08:44:11.000Z</time>
      </trkpt>
      <trkpt lat="49.37784" lon="1.45571">
        <ele>117.45107269287</ele>
        <time>2016-07-03T08:44:13.000Z</time>
      </trkpt>
      <trkpt lat="49.3779" lon="1.45569">
        <ele>117.631690979</ele>
        <time>2016-07-03T08:44:15.000Z</time>
      </trkpt>
      <trkpt lat="49.37796" lon="1.45562">
        <ele>118.00917816162</ele>
        <time>2016-07-03T08:44:18.000Z</time>
      </trkpt>
      <trkpt lat="49.37798" lon="1.45554">
        <ele>118.57888031006</ele>
        <time>2016-07-03T08:44:20.000Z</time>
      </trkpt>
      <trkpt lat="49.37797" lon="1.45546">
        <ele>119.31800842285</ele>
        <time>2016-07-03T08:44:22.000Z</time>
      </trkpt>
      <trkpt lat="49.37799" lon="1.45531">
        <ele>120.43321228027</ele>
        <time>2016-07-03T08:44:25.000Z</time>
      </trkpt>
      <trkpt lat="49.37798" lon="1.45519">
        <ele>121.77337646484</ele>
        <time>2016-07-03T08:44:28.000Z</time>
      </trkpt>
      <trkpt lat="49.37797" lon="1.45512">
        <ele>123.03778076172</ele>
        <time>2016-07-03T08:44:30.000Z</time>
      </trkpt>
      <trkpt lat="49.37795" lon="1.45504">
        <ele>124.24715423584</ele>
        <time>2016-07-03T08:44:32.000Z</time>
      </trkpt>
      <trkpt lat="49.37793" lon="1.45497">
        <ele>125.40938568115</ele>
        <time>2016-07-03T08:44:34.000Z</time>
      </trkpt>
      <trkpt lat="49.37788" lon="1.4549">
        <ele>126.26003265381</ele>
        <time>2016-07-03T08:44:37.000Z</time>
      </trkpt>
      <trkpt lat="49.37785" lon="1.45486">
        <ele>126.84204101562</ele>
        <time>2016-07-03T08:44:39.000Z</time>
      </trkpt>
      <trkpt lat="49.37782" lon="1.45481">
        <ele>127.3963470459</ele>
        <time>2016-07-03T08:44:41.000Z</time>
      </trkpt>
      <trkpt lat="49.37778" lon="1.45474">
        <ele>127.96076965332</ele>
        <time>2016-07-03T08:44:44.000Z</time>
      </trkpt>
      <trkpt lat="49.37774" lon="1.45467">
        <ele>128.55207824707</ele>
        <time>2016-07-03T08:44:47.000Z</time>
      </trkpt>
      <trkpt lat="49.3777" lon="1.45465">
        <ele>128.99826049805</ele>
        <time>2016-07-03T08:44:49.000Z</time>
      </trkpt>
      <trkpt lat="49.37763" lon="1.45462">
        <ele>129.28999328613</ele>
        <time>2016-07-03T08:44:52.000Z</time>
      </trkpt>
      <trkpt lat="49.37755" lon="1.4546">
        <ele>129.27088928223</ele>
        <time>2016-07-03T08:44:54.000Z</time>
      </trkpt>
      <trkpt lat="49.37744" lon="1.45456">
        <ele>128.80546569824</ele>
        <time>2016-07-03T08:44:57.000Z</time>
      </trkpt>
      <trkpt lat="49.37735" lon="1.45452">
        <ele>128.00769042969</ele>
        <time>2016-07-03T08:45:00.000Z</time>
      </trkpt>
      <trkpt lat="49.37732" lon="1.45449">
        <ele>127.18704986572</ele>
        <time>2016-07-03T08:45:02.000Z</time>
      </trkpt>
      <trkpt lat="49.37724" lon="1.45442">
        <ele>126.44581604004</ele>
        <time>2016-07-03T08:45:05.000Z</time>
      </trkpt>
      <trkpt lat="49.37717" lon="1.45435">
        <ele>125.7525177002</ele>
        <time>2016-07-03T08:45:08.000Z</time>
      </trkpt>
      <trkpt lat="49.37711" lon="1.45428">
        <ele>125.26273345947</ele>
        <time>2016-07-03T08:45:10.000Z</time>
      </trkpt>
      <trkpt lat="49.37708" lon="1.45421">
        <ele>124.91310119629</ele>
        <time>2016-07-03T08:45:12.000Z</time>
      </trkpt>
      <trkpt lat="49.37706" lon="1.45412">
        <ele>124.65964508057</ele>
        <time>2016-07-03T08:45:15.000Z</time>
      </trkpt>
      <trkpt lat="49.37704" lon="1.45405">
        <ele>124.48732757568</ele>
        <time>2016-07-03T08:45:17.000Z</time>
      </trkpt>
      <trkpt lat="49.37703" lon="1.454">
        <ele>124.42919921875</ele>
        <time>2016-07-03T08:45:19.000Z</time>
      </trkpt>
      <trkpt lat="49.37701" lon="1.45393">
        <ele>124.44480133057</ele>
        <time>2016-07-03T08:45:22.000Z</time>
      </trkpt>
      <trkpt lat="49.37701" lon="1.45383">
        <ele>124.62562561035</ele>
        <time>2016-07-03T08:45:25.000Z</time>
      </trkpt>
      <trkpt lat="49.377" lon="1.45373">
        <ele>124.89841461182</ele>
        <time>2016-07-03T08:45:28.000Z</time>
      </trkpt>
      <trkpt lat="49.377" lon="1.45365">
        <ele>125.23542785645</ele>
        <time>2016-07-03T08:45:30.000Z</time>
      </trkpt>
      <trkpt lat="49.377" lon="1.45358">
        <ele>125.68650817871</ele>
        <time>2016-07-03T08:45:32.000Z</time>
      </trkpt>
      <trkpt lat="49.37698" lon="1.4535">
        <ele>126.18298339844</ele>
        <time>2016-07-03T08:45:35.000Z</time>
      </trkpt>
      <trkpt lat="49.37696" lon="1.45343">
        <ele>126.56986999512</ele>
        <time>2016-07-03T08:45:37.000Z</time>
      </trkpt>
      <trkpt lat="49.37695" lon="1.45332">
        <ele>126.87953948975</ele>
        <time>2016-07-03T08:45:40.000Z</time>
      </trkpt>
      <trkpt lat="49.37694" lon="1.45326">
        <ele>127.08567047119</ele>
        <time>2016-07-03T08:45:42.000Z</time>
      </trkpt>
      <trkpt lat="49.37693" lon="1.4532">
        <ele>127.19692230225</ele>
        <time>2016-07-03T08:45:44.000Z</time>
      </trkpt>
      <trkpt lat="49.37694" lon="1.45308">
        <ele>127.36334228516</ele>
        <time>2016-07-03T08:45:47.000Z</time>
      </trkpt>
      <trkpt lat="49.37694" lon="1.45297">
        <ele>127.56172943115</ele>
        <time>2016-07-03T08:45:50.000Z</time>
      </trkpt>
      <trkpt lat="49.37694" lon="1.45291">
        <ele>127.73874664307</ele>
        <time>2016-07-03T08:45:52.000Z</time>
      </trkpt>
      <trkpt lat="49.37693" lon="1.45281">
        <ele>127.94136047363</ele>
        <time>2016-07-03T08:45:56.000Z</time>
      </trkpt>
      <trkpt lat="49.37695" lon="1.45273">
        <ele>128.24694824219</ele>
        <time>2016-07-03T08:45:57.000Z</time>
      </trkpt>
      <trkpt lat="49.37696" lon="1.45263">
        <ele>128.5620880127</ele>
        <time>2016-07-03T08:46:00.000Z</time>
      </trkpt>
      <trkpt lat="49.37698" lon="1.45254">
        <ele>128.95793151855</ele>
        <time>2016-07-03T08:46:03.000Z</time>
      </trkpt>
      <trkpt lat="49.37699" lon="1.45247">
        <ele>129.35014343262</ele>
        <time>2016-07-03T08:46:05.000Z</time>
      </trkpt>
      <trkpt lat="49.377" lon="1.45241">
        <ele>129.72073364258</ele>
        <time>2016-07-03T08:46:07.000Z</time>
      </trkpt>
      <trkpt lat="49.37701" lon="1.45235">
        <ele>129.99008178711</ele>
        <time>2016-07-03T08:46:09.000Z</time>
      </trkpt>
      <trkpt lat="49.37701" lon="1.45228">
        <ele>130.05589294434</ele>
        <time>2016-07-03T08:46:12.000Z</time>
      </trkpt>
      <trkpt lat="49.377" lon="1.45222">
        <ele>129.86544799805</ele>
        <time>2016-07-03T08:46:14.000Z</time>
      </trkpt>
      <trkpt lat="49.37701" lon="1.45214">
        <ele>129.58932495117</ele>
        <time>2016-07-03T08:46:16.000Z</time>
      </trkpt>
      <trkpt lat="49.37702" lon="1.45204">
        <ele>129.28845214844</ele>
        <time>2016-07-03T08:46:18.000Z</time>
      </trkpt>
      <trkpt lat="49.37704" lon="1.45194">
        <ele>128.97604370117</ele>
        <time>2016-07-03T08:46:20.000Z</time>
      </trkpt>
      <trkpt lat="49.3771" lon="1.45181">
        <ele>128.8670501709</ele>
        <time>2016-07-03T08:46:23.000Z</time>
      </trkpt>
      <trkpt lat="49.37713" lon="1.45171">
        <ele>128.87942504883</ele>
        <time>2016-07-03T08:46:25.000Z</time>
      </trkpt>
      <trkpt lat="49.37719" lon="1.45157">
        <ele>129.05949401855</ele>
        <time>2016-07-03T08:46:28.000Z</time>
      </trkpt>
      <trkpt lat="49.37724" lon="1.45142">
        <ele>129.3341217041</ele>
        <time>2016-07-03T08:46:31.000Z</time>
      </trkpt>
      <trkpt lat="49.37726" lon="1.45131">
        <ele>129.63766479492</ele>
        <time>2016-07-03T08:46:33.000Z</time>
      </trkpt>
      <trkpt lat="49.37733" lon="1.45114">
        <ele>129.93165588379</ele>
        <time>2016-07-03T08:46:36.000Z</time>
      </trkpt>
      <trkpt lat="49.37738" lon="1.45097">
        <ele>130.21948242188</ele>
        <time>2016-07-03T08:46:39.000Z</time>
      </trkpt>
      <trkpt lat="49.37746" lon="1.45054">
        <ele>130.41366577148</ele>
        <time>2016-07-03T08:46:43.000Z</time>
      </trkpt>
      <trkpt lat="49.37754" lon="1.45051">
        <ele>130.73265075684</ele>
        <time>2016-07-03T08:46:46.000Z</time>
      </trkpt>
      <trkpt lat="49.37756" lon="1.45049">
        <ele>131.09834289551</ele>
        <time>2016-07-03T08:46:48.000Z</time>
      </trkpt>
      <trkpt lat="49.37759" lon="1.45052">
        <ele>131.45288085938</ele>
        <time>2016-07-03T08:46:50.000Z</time>
      </trkpt>
      <trkpt lat="49.37761" lon="1.45055">
        <ele>131.83610534668</ele>
        <time>2016-07-03T08:46:53.000Z</time>
      </trkpt>
      <trkpt lat="49.37765" lon="1.45059">
        <ele>132.34909057617</ele>
        <time>2016-07-03T08:46:56.000Z</time>
      </trkpt>
      <trkpt lat="49.37769" lon="1.45062">
        <ele>132.77462768555</ele>
        <time>2016-07-03T08:46:58.000Z</time>
      </trkpt>
      <trkpt lat="49.37773" lon="1.45065">
        <ele>133.27297973633</ele>
        <time>2016-07-03T08:47:01.000Z</time>
      </trkpt>
      <trkpt lat="49.37776" lon="1.45066">
        <ele>133.77386474609</ele>
        <time>2016-07-03T08:47:03.000Z</time>
      </trkpt>
      <trkpt lat="49.37778" lon="1.45067">
        <ele>134.29022216797</ele>
        <time>2016-07-03T08:47:05.000Z</time>
      </trkpt>
      <trkpt lat="49.37782" lon="1.45071">
        <ele>134.78228759766</ele>
        <time>2016-07-03T08:47:08.000Z</time>
      </trkpt>
      <trkpt lat="49.37786" lon="1.45075">
        <ele>135.32666015625</ele>
        <time>2016-07-03T08:47:11.000Z</time>
      </trkpt>
      <trkpt lat="49.37789" lon="1.45079">
        <ele>135.84606933594</ele>
        <time>2016-07-03T08:47:13.000Z</time>
      </trkpt>
      <trkpt lat="49.37791" lon="1.45083">
        <ele>136.3609161377</ele>
        <time>2016-07-03T08:47:15.000Z</time>
      </trkpt>
      <trkpt lat="49.37796" lon="1.45087">
        <ele>136.99209594727</ele>
        <time>2016-07-03T08:47:18.000Z</time>
      </trkpt>
      <trkpt lat="49.37799" lon="1.45091">
        <ele>137.67057800293</ele>
        <time>2016-07-03T08:47:21.000Z</time>
      </trkpt>
      <trkpt lat="49.37803" lon="1.45093">
        <ele>138.31828308105</ele>
        <time>2016-07-03T08:47:24.000Z</time>
      </trkpt>
      <trkpt lat="49.37806" lon="1.45097">
        <ele>139.00103759766</ele>
        <time>2016-07-03T08:47:26.000Z</time>
      </trkpt>
      <trkpt lat="49.3781" lon="1.45102">
        <ele>139.79028320312</ele>
        <time>2016-07-03T08:47:28.000Z</time>
      </trkpt>
      <trkpt lat="49.37814" lon="1.45107">
        <ele>140.59423828125</ele>
        <time>2016-07-03T08:47:30.000Z</time>
      </trkpt>
      <trkpt lat="49.37817" lon="1.45112">
        <ele>141.38981628418</ele>
        <time>2016-07-03T08:47:32.000Z</time>
      </trkpt>
      <trkpt lat="49.37824" lon="1.45117">
        <ele>142.34567260742</ele>
        <time>2016-07-03T08:47:35.000Z</time>
      </trkpt>
      <trkpt lat="49.37828" lon="1.4512">
        <ele>143.33589172363</ele>
        <time>2016-07-03T08:47:37.000Z</time>
      </trkpt>
      <trkpt lat="49.37833" lon="1.45123">
        <ele>144.32804870605</ele>
        <time>2016-07-03T08:47:39.000Z</time>
      </trkpt>
      <trkpt lat="49.3784" lon="1.45127">
        <ele>145.23091125488</ele>
        <time>2016-07-03T08:47:42.000Z</time>
      </trkpt>
      <trkpt lat="49.37847" lon="1.45133">
        <ele>146.13471984863</ele>
        <time>2016-07-03T08:47:45.000Z</time>
      </trkpt>
      <trkpt lat="49.37852" lon="1.45138">
        <ele>146.87963867188</ele>
        <time>2016-07-03T08:47:47.000Z</time>
      </trkpt>
      <trkpt lat="49.37856" lon="1.45141">
        <ele>147.52473449707</ele>
        <time>2016-07-03T08:47:49.000Z</time>
      </trkpt>
      <trkpt lat="49.3786" lon="1.45143">
        <ele>148.04104614258</ele>
        <time>2016-07-03T08:47:52.000Z</time>
      </trkpt>
      <trkpt lat="49.37864" lon="1.45145">
        <ele>148.51278686523</ele>
        <time>2016-07-03T08:47:54.000Z</time>
      </trkpt>
      <trkpt lat="49.37868" lon="1.45149">
        <ele>148.91450500488</ele>
        <time>2016-07-03T08:47:57.000Z</time>
      </trkpt>
      <trkpt lat="49.37871" lon="1.45151">
        <ele>149.25161743164</ele>
        <time>2016-07-03T08:47:59.000Z</time>
      </trkpt>
      <trkpt lat="49.37874" lon="1.45152">
        <ele>149.5728302002</ele>
        <time>2016-07-03T08:48:01.000Z</time>
      </trkpt>
      <trkpt lat="49.37878" lon="1.45158">
        <ele>149.94731140137</ele>
        <time>2016-07-03T08:48:04.000Z</time>
      </trkpt>
      <trkpt lat="49.37881" lon="1.45161">
        <ele>150.35383605957</ele>
        <time>2016-07-03T08:48:06.000Z</time>
      </trkpt>
      <trkpt lat="49.37886" lon="1.45167">
        <ele>150.8157043457</ele>
        <time>2016-07-03T08:48:09.000Z</time>
      </trkpt>
      <trkpt lat="49.37891" lon="1.45173">
        <ele>151.33317565918</ele>
        <time>2016-07-03T08:48:12.000Z</time>
      </trkpt>
      <trkpt lat="49.37894" lon="1.45179">
        <ele>151.89002990723</ele>
        <time>2016-07-03T08:48:14.000Z</time>
      </trkpt>
      <trkpt lat="49.37899" lon="1.45184">
        <ele>152.42835998535</ele>
        <time>2016-07-03T08:48:16.000Z</time>
      </trkpt>
      <trkpt lat="49.37907" lon="1.45189">
        <ele>152.9986114502</ele>
        <time>2016-07-03T08:48:19.000Z</time>
      </trkpt>
      <trkpt lat="49.37912" lon="1.45193">
        <ele>153.5005645752</ele>
        <time>2016-07-03T08:48:21.000Z</time>
      </trkpt>
      <trkpt lat="49.37918" lon="1.45198">
        <ele>153.98098754883</ele>
        <time>2016-07-03T08:48:24.000Z</time>
      </trkpt>
      <trkpt lat="49.37923" lon="1.45201">
        <ele>154.43051147461</ele>
        <time>2016-07-03T08:48:26.000Z</time>
      </trkpt>
      <trkpt lat="49.37929" lon="1.45204">
        <ele>154.85806274414</ele>
        <time>2016-07-03T08:48:29.000Z</time>
      </trkpt>
      <trkpt lat="49.37933" lon="1.45207">
        <ele>155.22491455078</ele>
        <time>2016-07-03T08:48:31.000Z</time>
      </trkpt>
      <trkpt lat="49.37936" lon="1.4521">
        <ele>155.56700134277</ele>
        <time>2016-07-03T08:48:33.000Z</time>
      </trkpt>
      <trkpt lat="49.37939" lon="1.45214">
        <ele>155.8872833252</ele>
        <time>2016-07-03T08:48:36.000Z</time>
      </trkpt>
      <trkpt lat="49.37941" lon="1.45216">
        <ele>156.18948364258</ele>
        <time>2016-07-03T08:48:38.000Z</time>
      </trkpt>
      <trkpt lat="49.37946" lon="1.4522">
        <ele>156.49526977539</ele>
        <time>2016-07-03T08:48:41.000Z</time>
      </trkpt>
      <trkpt lat="49.37949" lon="1.45222">
        <ele>156.77975463867</ele>
        <time>2016-07-03T08:48:43.000Z</time>
      </trkpt>
      <trkpt lat="49.37955" lon="1.45226">
        <ele>157.11044311523</ele>
        <time>2016-07-03T08:48:46.000Z</time>
      </trkpt>
      <trkpt lat="49.37962" lon="1.4523">
        <ele>157.46095275879</ele>
        <time>2016-07-03T08:48:49.000Z</time>
      </trkpt>
      <trkpt lat="49.37968" lon="1.45234">
        <ele>157.86959838867</ele>
        <time>2016-07-03T08:48:52.000Z</time>
      </trkpt>
      <trkpt lat="49.37973" lon="1.45237">
        <ele>158.26625061035</ele>
        <time>2016-07-03T08:48:54.000Z</time>
      </trkpt>
      <trkpt lat="49.37979" lon="1.45241">
        <ele>158.72361755371</ele>
        <time>2016-07-03T08:48:57.000Z</time>
      </trkpt>
      <trkpt lat="49.37984" lon="1.45245">
        <ele>159.17785644531</ele>
        <time>2016-07-03T08:49:00.000Z</time>
      </trkpt>
      <trkpt lat="49.37989" lon="1.45252">
        <ele>159.66505432129</ele>
        <time>2016-07-03T08:49:03.000Z</time>
      </trkpt>
      <trkpt lat="49.37992" lon="1.45258">
        <ele>160.12210083008</ele>
        <time>2016-07-03T08:49:05.000Z</time>
      </trkpt>
      <trkpt lat="49.37996" lon="1.45263">
        <ele>160.58882141113</ele>
        <time>2016-07-03T08:49:07.000Z</time>
      </trkpt>
      <trkpt lat="49.38" lon="1.45266">
        <ele>161.01728820801</ele>
        <time>2016-07-03T08:49:09.000Z</time>
      </trkpt>
      <trkpt lat="49.38005" lon="1.45269">
        <ele>161.39898681641</ele>
        <time>2016-07-03T08:49:12.000Z</time>
      </trkpt>
      <trkpt lat="49.3801" lon="1.45271">
        <ele>161.69882202148</ele>
        <time>2016-07-03T08:49:15.000Z</time>
      </trkpt>
      <trkpt lat="49.38013" lon="1.45275">
        <ele>161.97164916992</ele>
        <time>2016-07-03T08:49:17.000Z</time>
      </trkpt>
      <trkpt lat="49.38017" lon="1.45277">
        <ele>162.20820617676</ele>
        <time>2016-07-03T08:49:19.000Z</time>
      </trkpt>
      <trkpt lat="49.38021" lon="1.45278">
        <ele>162.40539550781</ele>
        <time>2016-07-03T08:49:22.000Z</time>
      </trkpt>
      <trkpt lat="49.38026" lon="1.4528">
        <ele>162.60346984863</ele>
        <time>2016-07-03T08:49:25.000Z</time>
      </trkpt>
      <trkpt lat="49.38029" lon="1.45281">
        <ele>162.78762817383</ele>
        <time>2016-07-03T08:49:27.000Z</time>
      </trkpt>
      <trkpt lat="49.38032" lon="1.45283">
        <ele>162.95590209961</ele>
        <time>2016-07-03T08:49:29.000Z</time>
      </trkpt>
      <trkpt lat="49.38036" lon="1.45286">
        <ele>163.14082336426</ele>
        <time>2016-07-03T08:49:31.000Z</time>
      </trkpt>
      <trkpt lat="49.3804" lon="1.4529">
        <ele>163.3646697998</ele>
        <time>2016-07-03T08:49:33.000Z</time>
      </trkpt>
      <trkpt lat="49.38046" lon="1.45294">
        <ele>163.61636352539</ele>
        <time>2016-07-03T08:49:36.000Z</time>
      </trkpt>
      <trkpt lat="49.3805" lon="1.45297">
        <ele>163.89744567871</ele>
        <time>2016-07-03T08:49:39.000Z</time>
      </trkpt>
      <trkpt lat="49.38057" lon="1.45302">
        <ele>164.24876403809</ele>
        <time>2016-07-03T08:49:42.000Z</time>
      </trkpt>
      <trkpt lat="49.38062" lon="1.45306">
        <ele>164.6216583252</ele>
        <time>2016-07-03T08:49:44.000Z</time>
      </trkpt>
      <trkpt lat="49.38067" lon="1.45309">
        <ele>165.00016784668</ele>
        <time>2016-07-03T08:49:47.000Z</time>
      </trkpt>
      <trkpt lat="49.38073" lon="1.45312">
        <ele>165.37710571289</ele>
        <time>2016-07-03T08:49:50.000Z</time>
      </trkpt>
      <trkpt lat="49.38079" lon="1.45317">
        <ele>165.80451965332</ele>
        <time>2016-07-03T08:49:53.000Z</time>
      </trkpt>
      <trkpt lat="49.38082" lon="1.4532">
        <ele>166.19436645508</ele>
        <time>2016-07-03T08:49:55.000Z</time>
      </trkpt>
      <trkpt lat="49.38086" lon="1.45322">
        <ele>166.55316162109</ele>
        <time>2016-07-03T08:49:57.000Z</time>
      </trkpt>
      <trkpt lat="49.38091" lon="1.45325">
        <ele>166.90350341797</ele>
        <time>2016-07-03T08:50:00.000Z</time>
      </trkpt>
      <trkpt lat="49.38094" lon="1.45327">
        <ele>167.21086120605</ele>
        <time>2016-07-03T08:50:02.000Z</time>
      </trkpt>
      <trkpt lat="49.38096" lon="1.45329">
        <ele>167.45559692383</ele>
        <time>2016-07-03T08:50:04.000Z</time>
      </trkpt>
      <trkpt lat="49.38099" lon="1.45332">
        <ele>167.67481994629</ele>
        <time>2016-07-03T08:50:06.000Z</time>
      </trkpt>
      <trkpt lat="49.38107" lon="1.45337">
        <ele>167.91610717773</ele>
        <time>2016-07-03T08:50:09.000Z</time>
      </trkpt>
      <trkpt lat="49.3811" lon="1.4534">
        <ele>168.12969970703</ele>
        <time>2016-07-03T08:50:11.000Z</time>
      </trkpt>
      <trkpt lat="49.38116" lon="1.45343">
        <ele>168.3518371582</ele>
        <time>2016-07-03T08:50:13.000Z</time>
      </trkpt>
      <trkpt lat="49.38124" lon="1.45348">
        <ele>168.59400939941</ele>
        <time>2016-07-03T08:50:16.000Z</time>
      </trkpt>
      <trkpt lat="49.3813" lon="1.45351">
        <ele>168.84306335449</ele>
        <time>2016-07-03T08:50:19.000Z</time>
      </trkpt>
      <trkpt lat="49.38136" lon="1.45354">
        <ele>169.06858825684</ele>
        <time>2016-07-03T08:50:22.000Z</time>
      </trkpt>
      <trkpt lat="49.3814" lon="1.45358">
        <ele>169.30578613281</ele>
        <time>2016-07-03T08:50:25.000Z</time>
      </trkpt>
      <trkpt lat="49.38143" lon="1.45364">
        <ele>169.56594848633</ele>
        <time>2016-07-03T08:50:28.000Z</time>
      </trkpt>
      <trkpt lat="49.38146" lon="1.45366">
        <ele>169.79568481445</ele>
        <time>2016-07-03T08:50:30.000Z</time>
      </trkpt>
      <trkpt lat="49.38149" lon="1.45367">
        <ele>169.99807739258</ele>
        <time>2016-07-03T08:50:32.000Z</time>
      </trkpt>
      <trkpt lat="49.38153" lon="1.45372">
        <ele>170.21060180664</ele>
        <time>2016-07-03T08:50:35.000Z</time>
      </trkpt>
      <trkpt lat="49.38157" lon="1.45376">
        <ele>170.43530273438</ele>
        <time>2016-07-03T08:50:37.000Z</time>
      </trkpt>
      <trkpt lat="49.38162" lon="1.45383">
        <ele>170.67970275879</ele>
        <time>2016-07-03T08:50:40.000Z</time>
      </trkpt>
      <trkpt lat="49.38169" lon="1.45386">
        <ele>170.95849609375</ele>
        <time>2016-07-03T08:50:43.000Z</time>
      </trkpt>
      <trkpt lat="49.38176" lon="1.4539">
        <ele>171.29541015625</ele>
        <time>2016-07-03T08:50:46.000Z</time>
      </trkpt>
      <trkpt lat="49.38179" lon="1.45393">
        <ele>171.62162780762</ele>
        <time>2016-07-03T08:50:48.000Z</time>
      </trkpt>
      <trkpt lat="49.38185" lon="1.45396">
        <ele>171.96716308594</ele>
        <time>2016-07-03T08:50:51.000Z</time>
      </trkpt>
      <trkpt lat="49.38188" lon="1.454">
        <ele>172.28921508789</ele>
        <time>2016-07-03T08:50:53.000Z</time>
      </trkpt>
      <trkpt lat="49.38194" lon="1.45406">
        <ele>172.64680480957</ele>
        <time>2016-07-03T08:50:56.000Z</time>
      </trkpt>
      <trkpt lat="49.38199" lon="1.45411">
        <ele>173.01879882812</ele>
        <time>2016-07-03T08:50:58.000Z</time>
      </trkpt>
      <trkpt lat="49.38203" lon="1.45417">
        <ele>173.42658996582</ele>
        <time>2016-07-03T08:51:00.000Z</time>
      </trkpt>
      <trkpt lat="49.38209" lon="1.4542">
        <ele>173.85302734375</ele>
        <time>2016-07-03T08:51:03.000Z</time>
      </trkpt>
      <trkpt lat="49.38216" lon="1.45425">
        <ele>174.32775878906</ele>
        <time>2016-07-03T08:51:06.000Z</time>
      </trkpt>
      <trkpt lat="49.38222" lon="1.45432">
        <ele>174.83615112305</ele>
        <time>2016-07-03T08:51:09.000Z</time>
      </trkpt>
      <trkpt lat="49.38231" lon="1.45437">
        <ele>175.39457702637</ele>
        <time>2016-07-03T08:51:12.000Z</time>
      </trkpt>
      <trkpt lat="49.3824" lon="1.45444">
        <ele>176.03681945801</ele>
        <time>2016-07-03T08:51:15.000Z</time>
      </trkpt>
      <trkpt lat="49.38243" lon="1.45447">
        <ele>176.65234375</ele>
        <time>2016-07-03T08:51:17.000Z</time>
      </trkpt>
      <trkpt lat="49.38247" lon="1.4545">
        <ele>177.25300598145</ele>
        <time>2016-07-03T08:51:19.000Z</time>
      </trkpt>
      <trkpt lat="49.38251" lon="1.45453">
        <ele>177.78793334961</ele>
        <time>2016-07-03T08:51:21.000Z</time>
      </trkpt>
      <trkpt lat="49.38258" lon="1.4546">
        <ele>178.27067565918</ele>
        <time>2016-07-03T08:51:24.000Z</time>
      </trkpt>
      <trkpt lat="49.38262" lon="1.45462">
        <ele>178.62640380859</ele>
        <time>2016-07-03T08:51:26.000Z</time>
      </trkpt>
      <trkpt lat="49.38266" lon="1.45465">
        <ele>178.96351623535</ele>
        <time>2016-07-03T08:51:28.000Z</time>
      </trkpt>
      <trkpt lat="49.38273" lon="1.45472">
        <ele>179.2958984375</ele>
        <time>2016-07-03T08:51:31.000Z</time>
      </trkpt>
      <trkpt lat="49.38279" lon="1.45477">
        <ele>179.63391113281</ele>
        <time>2016-07-03T08:51:34.000Z</time>
      </trkpt>
      <trkpt lat="49.38282" lon="1.4548">
        <ele>179.92468261719</ele>
        <time>2016-07-03T08:51:36.000Z</time>
      </trkpt>
      <trkpt lat="49.38289" lon="1.45483">
        <ele>180.21728515625</ele>
        <time>2016-07-03T08:51:39.000Z</time>
      </trkpt>
      <trkpt lat="49.38293" lon="1.45486">
        <ele>180.51739501953</ele>
        <time>2016-07-03T08:51:41.000Z</time>
      </trkpt>
      <trkpt lat="49.38299" lon="1.45492">
        <ele>180.80743408203</ele>
        <time>2016-07-03T08:51:44.000Z</time>
      </trkpt>
      <trkpt lat="49.38305" lon="1.45495">
        <ele>181.06304931641</ele>
        <time>2016-07-03T08:51:46.000Z</time>
      </trkpt>
      <trkpt lat="49.38313" lon="1.455">
        <ele>181.35568237305</ele>
        <time>2016-07-03T08:51:49.000Z</time>
      </trkpt>
      <trkpt lat="49.38321" lon="1.45506">
        <ele>181.64970397949</ele>
        <time>2016-07-03T08:51:52.000Z</time>
      </trkpt>
      <trkpt lat="49.38327" lon="1.45511">
        <ele>181.92803955078</ele>
        <time>2016-07-03T08:51:55.000Z</time>
      </trkpt>
      <trkpt lat="49.38332" lon="1.45515">
        <ele>182.15742492676</ele>
        <time>2016-07-03T08:51:57.000Z</time>
      </trkpt>
      <trkpt lat="49.3834" lon="1.45523">
        <ele>182.37979125977</ele>
        <time>2016-07-03T08:52:00.000Z</time>
      </trkpt>
      <trkpt lat="49.38343" lon="1.45527">
        <ele>182.54234313965</ele>
        <time>2016-07-03T08:52:02.000Z</time>
      </trkpt>
      <trkpt lat="49.38347" lon="1.45534">
        <ele>182.7067565918</ele>
        <time>2016-07-03T08:52:05.000Z</time>
      </trkpt>
      <trkpt lat="49.38353" lon="1.4554">
        <ele>182.86413574219</ele>
        <time>2016-07-03T08:52:07.000Z</time>
      </trkpt>
      <trkpt lat="49.3836" lon="1.45546">
        <ele>183.02633666992</ele>
        <time>2016-07-03T08:52:10.000Z</time>
      </trkpt>
      <trkpt lat="49.38366" lon="1.45551">
        <ele>183.18719482422</ele>
        <time>2016-07-03T08:52:13.000Z</time>
      </trkpt>
      <trkpt lat="49.38371" lon="1.45554">
        <ele>183.34725952148</ele>
        <time>2016-07-03T08:52:15.000Z</time>
      </trkpt>
      <trkpt lat="49.38375" lon="1.45559">
        <ele>183.50912475586</ele>
        <time>2016-07-03T08:52:17.000Z</time>
      </trkpt>
      <trkpt lat="49.38383" lon="1.45566">
        <ele>183.69912719727</ele>
        <time>2016-07-03T08:52:20.000Z</time>
      </trkpt>
      <trkpt lat="49.38391" lon="1.45573">
        <ele>183.91264343262</ele>
        <time>2016-07-03T08:52:23.000Z</time>
      </trkpt>
      <trkpt lat="49.38399" lon="1.4558">
        <ele>184.16902160645</ele>
        <time>2016-07-03T08:52:26.000Z</time>
      </trkpt>
      <trkpt lat="49.38405" lon="1.45587">
        <ele>184.47608947754</ele>
        <time>2016-07-03T08:52:28.000Z</time>
      </trkpt>
      <trkpt lat="49.38416" lon="1.45595">
        <ele>184.79263305664</ele>
        <time>2016-07-03T08:52:31.000Z</time>
      </trkpt>
      <trkpt lat="49.38425" lon="1.45599">
        <ele>185.00289916992</ele>
        <time>2016-07-03T08:52:34.000Z</time>
      </trkpt>
      <trkpt lat="49.38428" lon="1.45601">
        <ele>185.13017272949</ele>
        <time>2016-07-03T08:52:36.000Z</time>
      </trkpt>
      <trkpt lat="49.38435" lon="1.45607">
        <ele>185.15841674805</ele>
        <time>2016-07-03T08:52:39.000Z</time>
      </trkpt>
      <trkpt lat="49.3844" lon="1.45611">
        <ele>185.10437011719</ele>
        <time>2016-07-03T08:52:41.000Z</time>
      </trkpt>
      <trkpt lat="49.38451" lon="1.45617">
        <ele>184.93330383301</ele>
        <time>2016-07-03T08:52:44.000Z</time>
      </trkpt>
      <trkpt lat="49.3846" lon="1.45625">
        <ele>184.77746582031</ele>
        <time>2016-07-03T08:52:47.000Z</time>
      </trkpt>
      <trkpt lat="49.38466" lon="1.45631">
        <ele>184.6301574707</ele>
        <time>2016-07-03T08:52:49.000Z</time>
      </trkpt>
      <trkpt lat="49.38475" lon="1.4564">
        <ele>184.48391723633</ele>
        <time>2016-07-03T08:52:52.000Z</time>
      </trkpt>
      <trkpt lat="49.38482" lon="1.45645">
        <ele>184.32391357422</ele>
        <time>2016-07-03T08:52:54.000Z</time>
      </trkpt>
      <trkpt lat="49.38488" lon="1.4565">
        <ele>184.20639038086</ele>
        <time>2016-07-03T08:52:56.000Z</time>
      </trkpt>
      <trkpt lat="49.38499" lon="1.45658">
        <ele>184.07260131836</ele>
        <time>2016-07-03T08:52:59.000Z</time>
      </trkpt>
      <trkpt lat="49.38517" lon="1.45665">
        <ele>183.50045776367</ele>
        <time>2016-07-03T08:53:02.000Z</time>
      </trkpt>
      <trkpt lat="49.38533" lon="1.4567">
        <ele>182.52734375</ele>
        <time>2016-07-03T08:53:05.000Z</time>
      </trkpt>
      <trkpt lat="49.38544" lon="1.45676">
        <ele>181.27127075195</ele>
        <time>2016-07-03T08:53:07.000Z</time>
      </trkpt>
      <trkpt lat="49.38564" lon="1.45689">
        <ele>179.3832244873</ele>
        <time>2016-07-03T08:53:10.000Z</time>
      </trkpt>
      <trkpt lat="49.38574" lon="1.45694">
        <ele>177.20874023438</ele>
        <time>2016-07-03T08:53:12.000Z</time>
      </trkpt>
      <trkpt lat="49.38599" lon="1.45706">
        <ele>174.58639526367</ele>
        <time>2016-07-03T08:53:15.000Z</time>
      </trkpt>
      <trkpt lat="49.38612" lon="1.45713">
        <ele>171.93569946289</ele>
        <time>2016-07-03T08:53:17.000Z</time>
      </trkpt>
      <trkpt lat="49.38618" lon="1.45719">
        <ele>169.40014648438</ele>
        <time>2016-07-03T08:53:19.000Z</time>
      </trkpt>
      <trkpt lat="49.38626" lon="1.45728">
        <ele>167.27111816406</ele>
        <time>2016-07-03T08:53:22.000Z</time>
      </trkpt>
      <trkpt lat="49.38652" lon="1.45782">
        <ele>165.75291442871</ele>
        <time>2016-07-03T08:53:27.000Z</time>
      </trkpt>
      <trkpt lat="49.3866" lon="1.45796">
        <ele>165.40910339355</ele>
        <time>2016-07-03T08:53:29.000Z</time>
      </trkpt>
      <trkpt lat="49.38665" lon="1.45804">
        <ele>165.70527648926</ele>
        <time>2016-07-03T08:53:31.000Z</time>
      </trkpt>
      <trkpt lat="49.38666" lon="1.45804">
        <ele>166.18133544922</ele>
        <time>2016-07-03T08:53:33.000Z</time>
      </trkpt>
      <trkpt lat="49.3867" lon="1.45807">
        <ele>166.96688842773</ele>
        <time>2016-07-03T08:53:36.000Z</time>
      </trkpt>
      <trkpt lat="49.3867" lon="1.45809">
        <ele>167.53262329102</ele>
        <time>2016-07-03T08:53:38.000Z</time>
      </trkpt>
      <trkpt lat="49.38671" lon="1.45812">
        <ele>167.92362976074</ele>
        <time>2016-07-03T08:53:41.000Z</time>
      </trkpt>
      <trkpt lat="49.38672" lon="1.45814">
        <ele>168.21578979492</ele>
        <time>2016-07-03T08:53:43.000Z</time>
      </trkpt>
      <trkpt lat="49.38673" lon="1.45817">
        <ele>168.60830688477</ele>
        <time>2016-07-03T08:53:45.000Z</time>
      </trkpt>
      <trkpt lat="49.38674" lon="1.45821">
        <ele>169.0777130127</ele>
        <time>2016-07-03T08:53:48.000Z</time>
      </trkpt>
      <trkpt lat="49.38674" lon="1.45823">
        <ele>169.5774230957</ele>
        <time>2016-07-03T08:53:50.000Z</time>
      </trkpt>
      <trkpt lat="49.38675" lon="1.45825">
        <ele>170.04211425781</ele>
        <time>2016-07-03T08:53:52.000Z</time>
      </trkpt>
      <trkpt lat="49.38676" lon="1.45828">
        <ele>170.52668762207</ele>
        <time>2016-07-03T08:53:55.000Z</time>
      </trkpt>
      <trkpt lat="49.38677" lon="1.45831">
        <ele>171.03379821777</ele>
        <time>2016-07-03T08:53:58.000Z</time>
      </trkpt>
      <trkpt lat="49.38678" lon="1.45834">
        <ele>171.48408508301</ele>
        <time>2016-07-03T08:54:00.000Z</time>
      </trkpt>
      <trkpt lat="49.38679" lon="1.45836">
        <ele>171.91264343262</ele>
        <time>2016-07-03T08:54:02.000Z</time>
      </trkpt>
      <trkpt lat="49.3868" lon="1.45839">
        <ele>172.33337402344</ele>
        <time>2016-07-03T08:54:04.000Z</time>
      </trkpt>
      <trkpt lat="49.38681" lon="1.45842">
        <ele>172.72993469238</ele>
        <time>2016-07-03T08:54:07.000Z</time>
      </trkpt>
      <trkpt lat="49.38683" lon="1.45846">
        <ele>173.11514282227</ele>
        <time>2016-07-03T08:54:10.000Z</time>
      </trkpt>
      <trkpt lat="49.38685" lon="1.45851">
        <ele>173.52285766602</ele>
        <time>2016-07-03T08:54:13.000Z</time>
      </trkpt>
      <trkpt lat="49.38687" lon="1.45856">
        <ele>173.9916229248</ele>
        <time>2016-07-03T08:54:16.000Z</time>
      </trkpt>
      <trkpt lat="49.38688" lon="1.4586">
        <ele>174.4857635498</ele>
        <time>2016-07-03T08:54:19.000Z</time>
      </trkpt>
      <trkpt lat="49.3869" lon="1.45864">
        <ele>174.98406982422</ele>
        <time>2016-07-03T08:54:21.000Z</time>
      </trkpt>
      <trkpt lat="49.38692" lon="1.45869">
        <ele>175.50073242188</ele>
        <time>2016-07-03T08:54:24.000Z</time>
      </trkpt>
      <trkpt lat="49.38693" lon="1.45874">
        <ele>176.00430297852</ele>
        <time>2016-07-03T08:54:27.000Z</time>
      </trkpt>
      <trkpt lat="49.38696" lon="1.45879">
        <ele>176.49540710449</ele>
        <time>2016-07-03T08:54:30.000Z</time>
      </trkpt>
      <trkpt lat="49.38697" lon="1.45881">
        <ele>176.96597290039</ele>
        <time>2016-07-03T08:54:32.000Z</time>
      </trkpt>
      <trkpt lat="49.38699" lon="1.45887">
        <ele>177.46553039551</ele>
        <time>2016-07-03T08:54:35.000Z</time>
      </trkpt>
      <trkpt lat="49.38702" lon="1.45892">
        <ele>177.96728515625</ele>
        <time>2016-07-03T08:54:38.000Z</time>
      </trkpt>
      <trkpt lat="49.38703" lon="1.45897">
        <ele>178.46940612793</ele>
        <time>2016-07-03T08:54:41.000Z</time>
      </trkpt>
      <trkpt lat="49.38705" lon="1.45901">
        <ele>178.95545959473</ele>
        <time>2016-07-03T08:54:44.000Z</time>
      </trkpt>
      <trkpt lat="49.38706" lon="1.45904">
        <ele>179.42782592773</ele>
        <time>2016-07-03T08:54:46.000Z</time>
      </trkpt>
      <trkpt lat="49.38707" lon="1.45908">
        <ele>179.86044311523</ele>
        <time>2016-07-03T08:54:49.000Z</time>
      </trkpt>
      <trkpt lat="49.38708" lon="1.45912">
        <ele>180.27241516113</ele>
        <time>2016-07-03T08:54:52.000Z</time>
      </trkpt>
      <trkpt lat="49.38711" lon="1.45918">
        <ele>180.68971252441</ele>
        <time>2016-07-03T08:54:55.000Z</time>
      </trkpt>
      <trkpt lat="49.38713" lon="1.45922">
        <ele>181.03802490234</ele>
        <time>2016-07-03T08:54:57.000Z</time>
      </trkpt>
      <trkpt lat="49.38716" lon="1.45928">
        <ele>181.38432312012</ele>
        <time>2016-07-03T08:55:00.000Z</time>
      </trkpt>
      <trkpt lat="49.38717" lon="1.45933">
        <ele>181.68881225586</ele>
        <time>2016-07-03T08:55:03.000Z</time>
      </trkpt>
      <trkpt lat="49.38718" lon="1.45937">
        <ele>181.91763305664</ele>
        <time>2016-07-03T08:55:05.000Z</time>
      </trkpt>
      <trkpt lat="49.3872" lon="1.45942">
        <ele>182.0806427002</ele>
        <time>2016-07-03T08:55:08.000Z</time>
      </trkpt>
      <trkpt lat="49.38722" lon="1.45948">
        <ele>182.2462310791</ele>
        <time>2016-07-03T08:55:11.000Z</time>
      </trkpt>
      <trkpt lat="49.38726" lon="1.45955">
        <ele>182.39932250977</ele>
        <time>2016-07-03T08:55:14.000Z</time>
      </trkpt>
      <trkpt lat="49.38728" lon="1.45959">
        <ele>182.53283691406</ele>
        <time>2016-07-03T08:55:16.000Z</time>
      </trkpt>
      <trkpt lat="49.38729" lon="1.45963">
        <ele>182.65971374512</ele>
        <time>2016-07-03T08:55:18.000Z</time>
      </trkpt>
      <trkpt lat="49.38733" lon="1.45969">
        <ele>182.76887512207</ele>
        <time>2016-07-03T08:55:21.000Z</time>
      </trkpt>
      <trkpt lat="49.38736" lon="1.45976">
        <ele>182.8630065918</ele>
        <time>2016-07-03T08:55:24.000Z</time>
      </trkpt>
      <trkpt lat="49.38739" lon="1.45983">
        <ele>182.93980407715</ele>
        <time>2016-07-03T08:55:27.000Z</time>
      </trkpt>
      <trkpt lat="49.38741" lon="1.45987">
        <ele>183.00643920898</ele>
        <time>2016-07-03T08:55:29.000Z</time>
      </trkpt>
      <trkpt lat="49.38745" lon="1.45996">
        <ele>183.05926513672</ele>
        <time>2016-07-03T08:55:32.000Z</time>
      </trkpt>
      <trkpt lat="49.38747" lon="1.46">
        <ele>183.09114074707</ele>
        <time>2016-07-03T08:55:34.000Z</time>
      </trkpt>
      <trkpt lat="49.3875" lon="1.46005">
        <ele>183.11428833008</ele>
        <time>2016-07-03T08:55:36.000Z</time>
      </trkpt>
      <trkpt lat="49.38754" lon="1.46013">
        <ele>183.16464233398</ele>
        <time>2016-07-03T08:55:39.000Z</time>
      </trkpt>
      <trkpt lat="49.38757" lon="1.46022">
        <ele>183.25985717773</ele>
        <time>2016-07-03T08:55:42.000Z</time>
      </trkpt>
      <trkpt lat="49.38758" lon="1.46028">
        <ele>183.38343811035</ele>
        <time>2016-07-03T08:55:44.000Z</time>
      </trkpt>
      <trkpt lat="49.38758" lon="1.46035">
        <ele>183.54409790039</ele>
        <time>2016-07-03T08:55:46.000Z</time>
      </trkpt>
      <trkpt lat="49.38763" lon="1.46046">
        <ele>183.7523651123</ele>
        <time>2016-07-03T08:55:49.000Z</time>
      </trkpt>
      <trkpt lat="49.38767" lon="1.46053">
        <ele>183.95498657227</ele>
        <time>2016-07-03T08:55:51.000Z</time>
      </trkpt>
      <trkpt lat="49.3877" lon="1.46063">
        <ele>184.15144348145</ele>
        <time>2016-07-03T08:55:54.000Z</time>
      </trkpt>
      <trkpt lat="49.38772" lon="1.46069">
        <ele>184.34243774414</ele>
        <time>2016-07-03T08:55:56.000Z</time>
      </trkpt>
      <trkpt lat="49.38775" lon="1.46076">
        <ele>184.53244018555</ele>
        <time>2016-07-03T08:55:58.000Z</time>
      </trkpt>
      <trkpt lat="49.3878" lon="1.46087">
        <ele>184.6877746582</ele>
        <time>2016-07-03T08:56:01.000Z</time>
      </trkpt>
      <trkpt lat="49.38781" lon="1.46093">
        <ele>184.79331970215</ele>
        <time>2016-07-03T08:56:03.000Z</time>
      </trkpt>
      <trkpt lat="49.38785" lon="1.46103">
        <ele>184.82998657227</ele>
        <time>2016-07-03T08:56:06.000Z</time>
      </trkpt>
      <trkpt lat="49.38788" lon="1.46111">
        <ele>184.82333374023</ele>
        <time>2016-07-03T08:56:08.000Z</time>
      </trkpt>
      <trkpt lat="49.38791" lon="1.46119">
        <ele>184.76733398438</ele>
        <time>2016-07-03T08:56:10.000Z</time>
      </trkpt>
      <trkpt lat="49.38798" lon="1.46131">
        <ele>184.66227722168</ele>
        <time>2016-07-03T08:56:13.000Z</time>
      </trkpt>
      <trkpt lat="49.38805" lon="1.46145">
        <ele>184.53735351562</ele>
        <time>2016-07-03T08:56:16.000Z</time>
      </trkpt>
      <trkpt lat="49.38809" lon="1.46154">
        <ele>184.41549682617</ele>
        <time>2016-07-03T08:56:18.000Z</time>
      </trkpt>
      <trkpt lat="49.38815" lon="1.46165">
        <ele>184.2873840332</ele>
        <time>2016-07-03T08:56:21.000Z</time>
      </trkpt>
      <trkpt lat="49.38818" lon="1.46171">
        <ele>184.16719055176</ele>
        <time>2016-07-03T08:56:23.000Z</time>
      </trkpt>
      <trkpt lat="49.38825" lon="1.46182">
        <ele>184.06991577148</ele>
        <time>2016-07-03T08:56:26.000Z</time>
      </trkpt>
      <trkpt lat="49.3883" lon="1.46196">
        <ele>184.0103302002</ele>
        <time>2016-07-03T08:56:29.000Z</time>
      </trkpt>
      <trkpt lat="49.38834" lon="1.46205">
        <ele>183.98147583008</ele>
        <time>2016-07-03T08:56:31.000Z</time>
      </trkpt>
      <trkpt lat="49.3884" lon="1.46219">
        <ele>183.98263549805</ele>
        <time>2016-07-03T08:56:34.000Z</time>
      </trkpt>
      <trkpt lat="49.38845" lon="1.46233">
        <ele>183.99351501465</ele>
        <time>2016-07-03T08:56:37.000Z</time>
      </trkpt>
      <trkpt lat="49.3885" lon="1.46248">
        <ele>184.0055847168</ele>
        <time>2016-07-03T08:56:40.000Z</time>
      </trkpt>
      <trkpt lat="49.38857" lon="1.46263">
        <ele>184.00505065918</ele>
        <time>2016-07-03T08:56:43.000Z</time>
      </trkpt>
      <trkpt lat="49.38863" lon="1.46277">
        <ele>183.98066711426</ele>
        <time>2016-07-03T08:56:46.000Z</time>
      </trkpt>
      <trkpt lat="49.38869" lon="1.46293">
        <ele>183.92967224121</ele>
        <time>2016-07-03T08:56:49.000Z</time>
      </trkpt>
      <trkpt lat="49.38874" lon="1.46305">
        <ele>183.85990905762</ele>
        <time>2016-07-03T08:56:51.000Z</time>
      </trkpt>
      <trkpt lat="49.38881" lon="1.46321">
        <ele>183.76069641113</ele>
        <time>2016-07-03T08:56:54.000Z</time>
      </trkpt>
      <trkpt lat="49.38886" lon="1.46332">
        <ele>183.64436340332</ele>
        <time>2016-07-03T08:56:56.000Z</time>
      </trkpt>
      <trkpt lat="49.38893" lon="1.46348">
        <ele>183.45443725586</ele>
        <time>2016-07-03T08:56:59.000Z</time>
      </trkpt>
      <trkpt lat="49.38901" lon="1.46364">
        <ele>183.18943786621</ele>
        <time>2016-07-03T08:57:02.000Z</time>
      </trkpt>
      <trkpt lat="49.3891" lon="1.4638">
        <ele>182.84573364258</ele>
        <time>2016-07-03T08:57:05.000Z</time>
      </trkpt>
      <trkpt lat="49.38923" lon="1.4639">
        <ele>182.38983154297</ele>
        <time>2016-07-03T08:57:08.000Z</time>
      </trkpt>
      <trkpt lat="49.38935" lon="1.46383">
        <ele>181.79211425781</ele>
        <time>2016-07-03T08:57:11.000Z</time>
      </trkpt>
      <trkpt lat="49.38944" lon="1.46376">
        <ele>181.14451599121</ele>
        <time>2016-07-03T08:57:13.000Z</time>
      </trkpt>
      <trkpt lat="49.38961" lon="1.46362">
        <ele>180.26985168457</ele>
        <time>2016-07-03T08:57:16.000Z</time>
      </trkpt>
      <trkpt lat="49.38974" lon="1.46352">
        <ele>179.20350646973</ele>
        <time>2016-07-03T08:57:19.000Z</time>
      </trkpt>
      <trkpt lat="49.38982" lon="1.46361">
        <ele>178.1672668457</ele>
        <time>2016-07-03T08:57:21.000Z</time>
      </trkpt>
      <trkpt lat="49.38992" lon="1.46372">
        <ele>177.20584106445</ele>
        <time>2016-07-03T08:57:24.000Z</time>
      </trkpt>
      <trkpt lat="49.39002" lon="1.46384">
        <ele>176.26963806152</ele>
        <time>2016-07-03T08:57:26.000Z</time>
      </trkpt>
      <trkpt lat="49.39017" lon="1.464">
        <ele>175.19169616699</ele>
        <time>2016-07-03T08:57:29.000Z</time>
      </trkpt>
      <trkpt lat="49.39037" lon="1.46423">
        <ele>173.79718017578</ele>
        <time>2016-07-03T08:57:32.000Z</time>
      </trkpt>
      <trkpt lat="49.39044" lon="1.46439">
        <ele>172.31747436523</ele>
        <time>2016-07-03T08:57:35.000Z</time>
      </trkpt>
      <trkpt lat="49.39046" lon="1.46458">
        <ele>170.9525604248</ele>
        <time>2016-07-03T08:57:38.000Z</time>
      </trkpt>
      <trkpt lat="49.39048" lon="1.4647">
        <ele>169.72415161133</ele>
        <time>2016-07-03T08:57:41.000Z</time>
      </trkpt>
      <trkpt lat="49.39048" lon="1.46475">
        <ele>168.98056030273</ele>
        <time>2016-07-03T08:57:43.000Z</time>
      </trkpt>
      <trkpt lat="49.39049" lon="1.46485">
        <ele>168.87365722656</ele>
        <time>2016-07-03T08:57:46.000Z</time>
      </trkpt>
      <trkpt lat="49.39048" lon="1.46493">
        <ele>169.06600952148</ele>
        <time>2016-07-03T08:57:49.000Z</time>
      </trkpt>
      <trkpt lat="49.39048" lon="1.46498">
        <ele>169.28123474121</ele>
        <time>2016-07-03T08:57:51.000Z</time>
      </trkpt>
      <trkpt lat="49.39048" lon="1.46505">
        <ele>169.48457336426</ele>
        <time>2016-07-03T08:57:53.000Z</time>
      </trkpt>
      <trkpt lat="49.39047" lon="1.46513">
        <ele>169.68321228027</ele>
        <time>2016-07-03T08:57:55.000Z</time>
      </trkpt>
      <trkpt lat="49.3905" lon="1.46525">
        <ele>169.75485229492</ele>
        <time>2016-07-03T08:57:58.000Z</time>
      </trkpt>
      <trkpt lat="49.39057" lon="1.46532">
        <ele>169.51045227051</ele>
        <time>2016-07-03T08:58:01.000Z</time>
      </trkpt>
      <trkpt lat="49.39063" lon="1.46541">
        <ele>169.05418395996</ele>
        <time>2016-07-03T08:58:03.000Z</time>
      </trkpt>
      <trkpt lat="49.39082" lon="1.46583">
        <ele>168.30087280273</ele>
        <time>2016-07-03T08:58:07.000Z</time>
      </trkpt>
      <trkpt lat="49.39083" lon="1.46596">
        <ele>167.64208984375</ele>
        <time>2016-07-03T08:58:09.000Z</time>
      </trkpt>
      <trkpt lat="49.39086" lon="1.46611">
        <ele>167.12094116211</ele>
        <time>2016-07-03T08:58:11.000Z</time>
      </trkpt>
      <trkpt lat="49.39088" lon="1.46626">
        <ele>166.89096069336</ele>
        <time>2016-07-03T08:58:13.000Z</time>
      </trkpt>
      <trkpt lat="49.39087" lon="1.46646">
        <ele>167.04679870605</ele>
        <time>2016-07-03T08:58:16.000Z</time>
      </trkpt>
      <trkpt lat="49.39085" lon="1.46653">
        <ele>167.64105224609</ele>
        <time>2016-07-03T08:58:18.000Z</time>
      </trkpt>
      <trkpt lat="49.39085" lon="1.46665">
        <ele>168.25268554688</ele>
        <time>2016-07-03T08:58:21.000Z</time>
      </trkpt>
      <trkpt lat="49.39087" lon="1.46676">
        <ele>168.81521606445</ele>
        <time>2016-07-03T08:58:23.000Z</time>
      </trkpt>
      <trkpt lat="49.3909" lon="1.46691">
        <ele>169.25749206543</ele>
        <time>2016-07-03T08:58:26.000Z</time>
      </trkpt>
      <trkpt lat="49.39091" lon="1.467">
        <ele>169.51403808594</ele>
        <time>2016-07-03T08:58:28.000Z</time>
      </trkpt>
      <trkpt lat="49.39094" lon="1.46712">
        <ele>169.56108093262</ele>
        <time>2016-07-03T08:58:31.000Z</time>
      </trkpt>
      <trkpt lat="49.39095" lon="1.46725">
        <ele>169.5235748291</ele>
        <time>2016-07-03T08:58:34.000Z</time>
      </trkpt>
      <trkpt lat="49.39091" lon="1.46742">
        <ele>169.69573974609</ele>
        <time>2016-07-03T08:58:37.000Z</time>
      </trkpt>
      <trkpt lat="49.39092" lon="1.46753">
        <ele>169.92877197266</ele>
        <time>2016-07-03T08:58:39.000Z</time>
      </trkpt>
      <trkpt lat="49.39092" lon="1.46765">
        <ele>170.14222717285</ele>
        <time>2016-07-03T08:58:41.000Z</time>
      </trkpt>
      <trkpt lat="49.39092" lon="1.46783">
        <ele>170.39952087402</ele>
        <time>2016-07-03T08:58:44.000Z</time>
      </trkpt>
      <trkpt lat="49.39092" lon="1.468">
        <ele>170.61515808105</ele>
        <time>2016-07-03T08:58:47.000Z</time>
      </trkpt>
      <trkpt lat="49.39092" lon="1.46816">
        <ele>170.6416015625</ele>
        <time>2016-07-03T08:58:49.000Z</time>
      </trkpt>
      <trkpt lat="49.39091" lon="1.46865">
        <ele>170.38882446289</ele>
        <time>2016-07-03T08:58:53.000Z</time>
      </trkpt>
      <trkpt lat="49.39086" lon="1.46884">
        <ele>170.08024597168</ele>
        <time>2016-07-03T08:58:55.000Z</time>
      </trkpt>
      <trkpt lat="49.39084" lon="1.46899">
        <ele>169.72065734863</ele>
        <time>2016-07-03T08:58:57.000Z</time>
      </trkpt>
      <trkpt lat="49.39079" lon="1.46923">
        <ele>169.28268432617</ele>
        <time>2016-07-03T08:59:00.000Z</time>
      </trkpt>
      <trkpt lat="49.39076" lon="1.46931">
        <ele>168.82711791992</ele>
        <time>2016-07-03T08:59:02.000Z</time>
      </trkpt>
      <trkpt lat="49.39075" lon="1.46946">
        <ele>168.5718536377</ele>
        <time>2016-07-03T08:59:04.000Z</time>
      </trkpt>
      <trkpt lat="49.39074" lon="1.4697">
        <ele>168.20959472656</ele>
        <time>2016-07-03T08:59:07.000Z</time>
      </trkpt>
      <trkpt lat="49.39072" lon="1.46982">
        <ele>167.8599395752</ele>
        <time>2016-07-03T08:59:09.000Z</time>
      </trkpt>
      <trkpt lat="49.39072" lon="1.46993">
        <ele>167.50877380371</ele>
        <time>2016-07-03T08:59:11.000Z</time>
      </trkpt>
      <trkpt lat="49.39075" lon="1.47005">
        <ele>167.05621337891</ele>
        <time>2016-07-03T08:59:13.000Z</time>
      </trkpt>
      <trkpt lat="49.39082" lon="1.47028">
        <ele>166.5107421875</ele>
        <time>2016-07-03T08:59:16.000Z</time>
      </trkpt>
      <trkpt lat="49.39087" lon="1.47043">
        <ele>166.0157623291</ele>
        <time>2016-07-03T08:59:18.000Z</time>
      </trkpt>
      <trkpt lat="49.39092" lon="1.47055">
        <ele>165.52111816406</ele>
        <time>2016-07-03T08:59:20.000Z</time>
      </trkpt>
      <trkpt lat="49.39101" lon="1.47071">
        <ele>165.12948608398</ele>
        <time>2016-07-03T08:59:23.000Z</time>
      </trkpt>
      <trkpt lat="49.39108" lon="1.47079">
        <ele>164.91203308105</ele>
        <time>2016-07-03T08:59:25.000Z</time>
      </trkpt>
      <trkpt lat="49.39117" lon="1.47091">
        <ele>164.95077514648</ele>
        <time>2016-07-03T08:59:28.000Z</time>
      </trkpt>
      <trkpt lat="49.39125" lon="1.47105">
        <ele>165.15174865723</ele>
        <time>2016-07-03T08:59:31.000Z</time>
      </trkpt>
      <trkpt lat="49.39131" lon="1.47121">
        <ele>165.45452880859</ele>
        <time>2016-07-03T08:59:34.000Z</time>
      </trkpt>
      <trkpt lat="49.39137" lon="1.47137">
        <ele>165.77676391602</ele>
        <time>2016-07-03T08:59:37.000Z</time>
      </trkpt>
      <trkpt lat="49.39141" lon="1.47153">
        <ele>166.06454467773</ele>
        <time>2016-07-03T08:59:40.000Z</time>
      </trkpt>
      <trkpt lat="49.39144" lon="1.47164">
        <ele>166.28469848633</ele>
        <time>2016-07-03T08:59:42.000Z</time>
      </trkpt>
      <trkpt lat="49.39148" lon="1.4718">
        <ele>166.38635253906</ele>
        <time>2016-07-03T08:59:45.000Z</time>
      </trkpt>
      <trkpt lat="49.39151" lon="1.47191">
        <ele>166.37773132324</ele>
        <time>2016-07-03T08:59:47.000Z</time>
      </trkpt>
      <trkpt lat="49.39156" lon="1.47208">
        <ele>166.22451782227</ele>
        <time>2016-07-03T08:59:50.000Z</time>
      </trkpt>
      <trkpt lat="49.39161" lon="1.47227">
        <ele>165.90869140625</ele>
        <time>2016-07-03T08:59:53.000Z</time>
      </trkpt>
      <trkpt lat="49.39166" lon="1.47247">
        <ele>165.40794372559</ele>
        <time>2016-07-03T08:59:56.000Z</time>
      </trkpt>
      <trkpt lat="49.39172" lon="1.47268">
        <ele>164.82992553711</ele>
        <time>2016-07-03T08:59:59.000Z</time>
      </trkpt>
      <trkpt lat="49.39176" lon="1.4728">
        <ele>164.2375793457</ele>
        <time>2016-07-03T09:00:01.000Z</time>
      </trkpt>
      <trkpt lat="49.39183" lon="1.47299">
        <ele>163.63735961914</ele>
        <time>2016-07-03T09:00:04.000Z</time>
      </trkpt>
      <trkpt lat="49.39187" lon="1.47312">
        <ele>163.09362792969</ele>
        <time>2016-07-03T09:00:06.000Z</time>
      </trkpt>
      <trkpt lat="49.39193" lon="1.47326">
        <ele>162.63491821289</ele>
        <time>2016-07-03T09:00:08.000Z</time>
      </trkpt>
      <trkpt lat="49.39199" lon="1.47335">
        <ele>162.26379394531</ele>
        <time>2016-07-03T09:00:10.000Z</time>
      </trkpt>
      <trkpt lat="49.39211" lon="1.47348">
        <ele>161.95736694336</ele>
        <time>2016-07-03T09:00:13.000Z</time>
      </trkpt>
      <trkpt lat="49.39225" lon="1.47361">
        <ele>161.77810668945</ele>
        <time>2016-07-03T09:00:16.000Z</time>
      </trkpt>
      <trkpt lat="49.39236" lon="1.47368">
        <ele>161.69766235352</ele>
        <time>2016-07-03T09:00:18.000Z</time>
      </trkpt>
      <trkpt lat="49.39252" lon="1.47379">
        <ele>161.75712585449</ele>
        <time>2016-07-03T09:00:21.000Z</time>
      </trkpt>
      <trkpt lat="49.39263" lon="1.47387">
        <ele>161.94026184082</ele>
        <time>2016-07-03T09:00:23.000Z</time>
      </trkpt>
      <trkpt lat="49.3928" lon="1.47398">
        <ele>162.26626586914</ele>
        <time>2016-07-03T09:00:26.000Z</time>
      </trkpt>
      <trkpt lat="49.39292" lon="1.47406">
        <ele>162.67105102539</ele>
        <time>2016-07-03T09:00:28.000Z</time>
      </trkpt>
      <trkpt lat="49.39309" lon="1.47417">
        <ele>163.19952392578</ele>
        <time>2016-07-03T09:00:31.000Z</time>
      </trkpt>
      <trkpt lat="49.39327" lon="1.4743">
        <ele>163.74746704102</ele>
        <time>2016-07-03T09:00:34.000Z</time>
      </trkpt>
      <trkpt lat="49.39338" lon="1.47439">
        <ele>164.24299621582</ele>
        <time>2016-07-03T09:00:36.000Z</time>
      </trkpt>
      <trkpt lat="49.39355" lon="1.47455">
        <ele>164.58306884766</ele>
        <time>2016-07-03T09:00:39.000Z</time>
      </trkpt>
      <trkpt lat="49.39372" lon="1.47471">
        <ele>164.75651550293</ele>
        <time>2016-07-03T09:00:42.000Z</time>
      </trkpt>
      <trkpt lat="49.39385" lon="1.47481">
        <ele>164.70837402344</ele>
        <time>2016-07-03T09:00:44.000Z</time>
      </trkpt>
      <trkpt lat="49.39403" lon="1.47499">
        <ele>164.40249633789</ele>
        <time>2016-07-03T09:00:47.000Z</time>
      </trkpt>
      <trkpt lat="49.39416" lon="1.4751">
        <ele>163.92921447754</ele>
        <time>2016-07-03T09:00:49.000Z</time>
      </trkpt>
      <trkpt lat="49.3943" lon="1.47521">
        <ele>163.19177246094</ele>
        <time>2016-07-03T09:00:51.000Z</time>
      </trkpt>
      <trkpt lat="49.39442" lon="1.47535">
        <ele>162.24526977539</ele>
        <time>2016-07-03T09:00:53.000Z</time>
      </trkpt>
      <trkpt lat="49.39455" lon="1.4755">
        <ele>161.10496520996</ele>
        <time>2016-07-03T09:00:55.000Z</time>
      </trkpt>
      <trkpt lat="49.39468" lon="1.47563">
        <ele>159.89663696289</ele>
        <time>2016-07-03T09:00:57.000Z</time>
      </trkpt>
      <trkpt lat="49.39488" lon="1.47589">
        <ele>158.57705688477</ele>
        <time>2016-07-03T09:01:00.000Z</time>
      </trkpt>
      <trkpt lat="49.39502" lon="1.47607">
        <ele>157.57133483887</ele>
        <time>2016-07-03T09:01:02.000Z</time>
      </trkpt>
      <trkpt lat="49.39522" lon="1.47639">
        <ele>156.66390991211</ele>
        <time>2016-07-03T09:01:05.000Z</time>
      </trkpt>
      <trkpt lat="49.39546" lon="1.47663">
        <ele>155.70742797852</ele>
        <time>2016-07-03T09:01:08.000Z</time>
      </trkpt>
      <trkpt lat="49.39565" lon="1.47691">
        <ele>154.74076843262</ele>
        <time>2016-07-03T09:01:11.000Z</time>
      </trkpt>
      <trkpt lat="49.39573" lon="1.47711">
        <ele>153.95709228516</ele>
        <time>2016-07-03T09:01:13.000Z</time>
      </trkpt>
      <trkpt lat="49.39577" lon="1.47719">
        <ele>153.07752990723</ele>
        <time>2016-07-03T09:01:15.000Z</time>
      </trkpt>
      <trkpt lat="49.39575" lon="1.47737">
        <ele>152.57592773438</ele>
        <time>2016-07-03T09:01:18.000Z</time>
      </trkpt>
      <trkpt lat="49.39574" lon="1.47744">
        <ele>152.4832611084</ele>
        <time>2016-07-03T09:01:20.000Z</time>
      </trkpt>
      <trkpt lat="49.39575" lon="1.47753">
        <ele>152.62724304199</ele>
        <time>2016-07-03T09:01:23.000Z</time>
      </trkpt>
      <trkpt lat="49.39574" lon="1.47762">
        <ele>152.83358764648</ele>
        <time>2016-07-03T09:01:25.000Z</time>
      </trkpt>
      <trkpt lat="49.39573" lon="1.4777">
        <ele>153.11560058594</ele>
        <time>2016-07-03T09:01:27.000Z</time>
      </trkpt>
      <trkpt lat="49.39573" lon="1.47777">
        <ele>153.19931030273</ele>
        <time>2016-07-03T09:01:29.000Z</time>
      </trkpt>
      <trkpt lat="49.3957" lon="1.47789">
        <ele>153.21495056152</ele>
        <time>2016-07-03T09:01:32.000Z</time>
      </trkpt>
      <trkpt lat="49.39569" lon="1.47796">
        <ele>153.27001953125</ele>
        <time>2016-07-03T09:01:34.000Z</time>
      </trkpt>
      <trkpt lat="49.39568" lon="1.47807">
        <ele>153.33798217773</ele>
        <time>2016-07-03T09:01:37.000Z</time>
      </trkpt>
      <trkpt lat="49.39567" lon="1.47815">
        <ele>153.39990234375</ele>
        <time>2016-07-03T09:01:39.000Z</time>
      </trkpt>
      <trkpt lat="49.39563" lon="1.47831">
        <ele>153.54843139648</ele>
        <time>2016-07-03T09:01:42.000Z</time>
      </trkpt>
      <trkpt lat="49.39558" lon="1.4786">
        <ele>153.63037109375</ele>
        <time>2016-07-03T09:01:45.000Z</time>
      </trkpt>
      <trkpt lat="49.39556" lon="1.47881">
        <ele>153.62065124512</ele>
        <time>2016-07-03T09:01:48.000Z</time>
      </trkpt>
      <trkpt lat="49.39554" lon="1.47894">
        <ele>153.54951477051</ele>
        <time>2016-07-03T09:01:50.000Z</time>
      </trkpt>
      <trkpt lat="49.39555" lon="1.47912">
        <ele>153.31878662109</ele>
        <time>2016-07-03T09:01:52.000Z</time>
      </trkpt>
      <trkpt lat="49.39554" lon="1.47926">
        <ele>152.92907714844</ele>
        <time>2016-07-03T09:01:55.000Z</time>
      </trkpt>
      <trkpt lat="49.39552" lon="1.47938">
        <ele>152.56832885742</ele>
        <time>2016-07-03T09:01:57.000Z</time>
      </trkpt>
      <trkpt lat="49.39545" lon="1.47956">
        <ele>152.31481933594</ele>
        <time>2016-07-03T09:02:00.000Z</time>
      </trkpt>
      <trkpt lat="49.39541" lon="1.47966">
        <ele>152.13529968262</ele>
        <time>2016-07-03T09:02:02.000Z</time>
      </trkpt>
      <trkpt lat="49.39537" lon="1.47978">
        <ele>152.11729431152</ele>
        <time>2016-07-03T09:02:04.000Z</time>
      </trkpt>
      <trkpt lat="49.39532" lon="1.48006">
        <ele>151.9977722168</ele>
        <time>2016-07-03T09:02:07.000Z</time>
      </trkpt>
      <trkpt lat="49.39522" lon="1.48022">
        <ele>151.86103820801</ele>
        <time>2016-07-03T09:02:10.000Z</time>
      </trkpt>
      <trkpt lat="49.39515" lon="1.48028">
        <ele>151.73399353027</ele>
        <time>2016-07-03T09:02:12.000Z</time>
      </trkpt>
      <trkpt lat="49.39512" lon="1.48032">
        <ele>151.59387207031</ele>
        <time>2016-07-03T09:02:14.000Z</time>
      </trkpt>
      <trkpt lat="49.39501" lon="1.48037">
        <ele>151.56692504883</ele>
        <time>2016-07-03T09:02:17.000Z</time>
      </trkpt>
      <trkpt lat="49.39494" lon="1.48055">
        <ele>151.55003356934</ele>
        <time>2016-07-03T09:02:20.000Z</time>
      </trkpt>
      <trkpt lat="49.39485" lon="1.48073">
        <ele>151.34036254883</ele>
        <time>2016-07-03T09:02:23.000Z</time>
      </trkpt>
      <trkpt lat="49.39481" lon="1.48083">
        <ele>150.94596862793</ele>
        <time>2016-07-03T09:02:25.000Z</time>
      </trkpt>
      <trkpt lat="49.39473" lon="1.48094">
        <ele>150.34609985352</ele>
        <time>2016-07-03T09:02:28.000Z</time>
      </trkpt>
      <trkpt lat="49.39469" lon="1.48113">
        <ele>149.34735107422</ele>
        <time>2016-07-03T09:02:31.000Z</time>
      </trkpt>
      <trkpt lat="49.39476" lon="1.4814">
        <ele>148.13262939453</ele>
        <time>2016-07-03T09:02:34.000Z</time>
      </trkpt>
      <trkpt lat="49.39476" lon="1.48149">
        <ele>147.01034545898</ele>
        <time>2016-07-03T09:02:36.000Z</time>
      </trkpt>
      <trkpt lat="49.39471" lon="1.48154">
        <ele>145.9553527832</ele>
        <time>2016-07-03T09:02:38.000Z</time>
      </trkpt>
      <trkpt lat="49.39461" lon="1.48153">
        <ele>145.12059020996</ele>
        <time>2016-07-03T09:02:41.000Z</time>
      </trkpt>
      <trkpt lat="49.39451" lon="1.48155">
        <ele>144.56228637695</ele>
        <time>2016-07-03T09:02:44.000Z</time>
      </trkpt>
      <trkpt lat="49.39441" lon="1.48156">
        <ele>144.38328552246</ele>
        <time>2016-07-03T09:02:47.000Z</time>
      </trkpt>
      <trkpt lat="49.39432" lon="1.48157">
        <ele>144.33659362793</ele>
        <time>2016-07-03T09:02:50.000Z</time>
      </trkpt>
      <trkpt lat="49.39427" lon="1.48158">
        <ele>144.34422302246</ele>
        <time>2016-07-03T09:02:52.000Z</time>
      </trkpt>
      <trkpt lat="49.3942" lon="1.48161">
        <ele>144.31776428223</ele>
        <time>2016-07-03T09:02:55.000Z</time>
      </trkpt>
      <trkpt lat="49.39416" lon="1.48163">
        <ele>144.2956237793</ele>
        <time>2016-07-03T09:02:57.000Z</time>
      </trkpt>
      <trkpt lat="49.39411" lon="1.48164">
        <ele>144.30450439453</ele>
        <time>2016-07-03T09:02:59.000Z</time>
      </trkpt>
      <trkpt lat="49.39404" lon="1.48168">
        <ele>144.36351013184</ele>
        <time>2016-07-03T09:03:02.000Z</time>
      </trkpt>
      <trkpt lat="49.39399" lon="1.48171">
        <ele>144.51594543457</ele>
        <time>2016-07-03T09:03:05.000Z</time>
      </trkpt>
      <trkpt lat="49.39394" lon="1.48172">
        <ele>144.73512268066</ele>
        <time>2016-07-03T09:03:07.000Z</time>
      </trkpt>
      <trkpt lat="49.3939" lon="1.48175">
        <ele>145.02560424805</ele>
        <time>2016-07-03T09:03:10.000Z</time>
      </trkpt>
      <trkpt lat="49.39386" lon="1.48176">
        <ele>145.32760620117</ele>
        <time>2016-07-03T09:03:12.000Z</time>
      </trkpt>
      <trkpt lat="49.39382" lon="1.48177">
        <ele>145.62463378906</ele>
        <time>2016-07-03T09:03:14.000Z</time>
      </trkpt>
      <trkpt lat="49.39374" lon="1.48179">
        <ele>145.91690063477</ele>
        <time>2016-07-03T09:03:17.000Z</time>
      </trkpt>
      <trkpt lat="49.39369" lon="1.4818">
        <ele>146.2115020752</ele>
        <time>2016-07-03T09:03:19.000Z</time>
      </trkpt>
      <trkpt lat="49.39362" lon="1.48183">
        <ele>146.51974487305</ele>
        <time>2016-07-03T09:03:22.000Z</time>
      </trkpt>
      <trkpt lat="49.39357" lon="1.48184">
        <ele>146.83589172363</ele>
        <time>2016-07-03T09:03:24.000Z</time>
      </trkpt>
      <trkpt lat="49.39352" lon="1.48186">
        <ele>147.15054321289</ele>
        <time>2016-07-03T09:03:26.000Z</time>
      </trkpt>
      <trkpt lat="49.39346" lon="1.48188">
        <ele>147.44955444336</ele>
        <time>2016-07-03T09:03:29.000Z</time>
      </trkpt>
      <trkpt lat="49.39339" lon="1.48189">
        <ele>147.7516784668</ele>
        <time>2016-07-03T09:03:32.000Z</time>
      </trkpt>
      <trkpt lat="49.39333" lon="1.48192">
        <ele>148.03150939941</ele>
        <time>2016-07-03T09:03:35.000Z</time>
      </trkpt>
      <trkpt lat="49.39327" lon="1.48195">
        <ele>148.31967163086</ele>
        <time>2016-07-03T09:03:38.000Z</time>
      </trkpt>
      <trkpt lat="49.39323" lon="1.48197">
        <ele>148.59562683105</ele>
        <time>2016-07-03T09:03:40.000Z</time>
      </trkpt>
      <trkpt lat="49.39317" lon="1.48198">
        <ele>148.85754394531</ele>
        <time>2016-07-03T09:03:43.000Z</time>
      </trkpt>
      <trkpt lat="49.3931" lon="1.482">
        <ele>149.10858154297</ele>
        <time>2016-07-03T09:03:46.000Z</time>
      </trkpt>
      <trkpt lat="49.39304" lon="1.48202">
        <ele>149.34686279297</ele>
        <time>2016-07-03T09:03:49.000Z</time>
      </trkpt>
      <trkpt lat="49.393" lon="1.48204">
        <ele>149.55627441406</ele>
        <time>2016-07-03T09:03:51.000Z</time>
      </trkpt>
      <trkpt lat="49.39296" lon="1.48206">
        <ele>149.76225280762</ele>
        <time>2016-07-03T09:03:53.000Z</time>
      </trkpt>
      <trkpt lat="49.39288" lon="1.48211">
        <ele>149.96658325195</ele>
        <time>2016-07-03T09:03:56.000Z</time>
      </trkpt>
      <trkpt lat="49.39285" lon="1.48215">
        <ele>150.14761352539</ele>
        <time>2016-07-03T09:03:58.000Z</time>
      </trkpt>
      <trkpt lat="49.39282" lon="1.48223">
        <ele>150.29600524902</ele>
        <time>2016-07-03T09:04:01.000Z</time>
      </trkpt>
      <trkpt lat="49.39283" lon="1.48229">
        <ele>150.41381835938</ele>
        <time>2016-07-03T09:04:03.000Z</time>
      </trkpt>
      <trkpt lat="49.39285" lon="1.48233">
        <ele>150.49435424805</ele>
        <time>2016-07-03T09:04:05.000Z</time>
      </trkpt>
      <trkpt lat="49.39287" lon="1.48239">
        <ele>150.5251159668</ele>
        <time>2016-07-03T09:04:08.000Z</time>
      </trkpt>
      <trkpt lat="49.39289" lon="1.48244">
        <ele>150.53030395508</ele>
        <time>2016-07-03T09:04:10.000Z</time>
      </trkpt>
      <trkpt lat="49.39291" lon="1.48249">
        <ele>150.51728820801</ele>
        <time>2016-07-03T09:04:12.000Z</time>
      </trkpt>
      <trkpt lat="49.39294" lon="1.48255">
        <ele>150.58422851562</ele>
        <time>2016-07-03T09:04:15.000Z</time>
      </trkpt>
      <trkpt lat="49.39297" lon="1.48262">
        <ele>150.76473999023</ele>
        <time>2016-07-03T09:04:18.000Z</time>
      </trkpt>
      <trkpt lat="49.39299" lon="1.48267">
        <ele>151.01878356934</ele>
        <time>2016-07-03T09:04:20.000Z</time>
      </trkpt>
      <trkpt lat="49.39302" lon="1.48273">
        <ele>151.39042663574</ele>
        <time>2016-07-03T09:04:23.000Z</time>
      </trkpt>
      <trkpt lat="49.39305" lon="1.48279">
        <ele>151.86936950684</ele>
        <time>2016-07-03T09:04:26.000Z</time>
      </trkpt>
      <trkpt lat="49.3931" lon="1.48286">
        <ele>152.40463256836</ele>
        <time>2016-07-03T09:04:29.000Z</time>
      </trkpt>
      <trkpt lat="49.39314" lon="1.48294">
        <ele>152.99015808105</ele>
        <time>2016-07-03T09:04:32.000Z</time>
      </trkpt>
      <trkpt lat="49.39318" lon="1.48302">
        <ele>153.68022155762</ele>
        <time>2016-07-03T09:04:35.000Z</time>
      </trkpt>
      <trkpt lat="49.3932" lon="1.48309">
        <ele>154.39572143555</ele>
        <time>2016-07-03T09:04:37.000Z</time>
      </trkpt>
      <trkpt lat="49.39325" lon="1.48318">
        <ele>155.22207641602</ele>
        <time>2016-07-03T09:04:40.000Z</time>
      </trkpt>
      <trkpt lat="49.39328" lon="1.48325">
        <ele>156.07807922363</ele>
        <time>2016-07-03T09:04:42.000Z</time>
      </trkpt>
      <trkpt lat="49.39332" lon="1.48332">
        <ele>156.96003723145</ele>
        <time>2016-07-03T09:04:44.000Z</time>
      </trkpt>
      <trkpt lat="49.39336" lon="1.48342">
        <ele>157.77584838867</ele>
        <time>2016-07-03T09:04:47.000Z</time>
      </trkpt>
      <trkpt lat="49.39341" lon="1.48352">
        <ele>158.53405761719</ele>
        <time>2016-07-03T09:04:50.000Z</time>
      </trkpt>
      <trkpt lat="49.39343" lon="1.48359">
        <ele>159.13217163086</ele>
        <time>2016-07-03T09:04:52.000Z</time>
      </trkpt>
      <trkpt lat="49.39346" lon="1.48366">
        <ele>159.62881469727</ele>
        <time>2016-07-03T09:04:54.000Z</time>
      </trkpt>
      <trkpt lat="49.39351" lon="1.48377">
        <ele>160.03805541992</ele>
        <time>2016-07-03T09:04:57.000Z</time>
      </trkpt>
      <trkpt lat="49.39355" lon="1.48385">
        <ele>160.41023254395</ele>
        <time>2016-07-03T09:04:59.000Z</time>
      </trkpt>
      <trkpt lat="49.3936" lon="1.48399">
        <ele>160.81732177734</ele>
        <time>2016-07-03T09:05:02.000Z</time>
      </trkpt>
      <trkpt lat="49.39362" lon="1.48408">
        <ele>161.24546813965</ele>
        <time>2016-07-03T09:05:04.000Z</time>
      </trkpt>
      <trkpt lat="49.39367" lon="1.48422">
        <ele>161.68807983398</ele>
        <time>2016-07-03T09:05:07.000Z</time>
      </trkpt>
      <trkpt lat="49.3937" lon="1.48438">
        <ele>162.03237915039</ele>
        <time>2016-07-03T09:05:10.000Z</time>
      </trkpt>
      <trkpt lat="49.3937" lon="1.48448">
        <ele>162.28604125977</ele>
        <time>2016-07-03T09:05:12.000Z</time>
      </trkpt>
      <trkpt lat="49.39375" lon="1.48463">
        <ele>162.42085266113</ele>
        <time>2016-07-03T09:05:15.000Z</time>
      </trkpt>
      <trkpt lat="49.39378" lon="1.48474">
        <ele>162.46856689453</ele>
        <time>2016-07-03T09:05:17.000Z</time>
      </trkpt>
      <trkpt lat="49.39381" lon="1.48489">
        <ele>162.42349243164</ele>
        <time>2016-07-03T09:05:20.000Z</time>
      </trkpt>
      <trkpt lat="49.39383" lon="1.485">
        <ele>162.35522460938</ele>
        <time>2016-07-03T09:05:22.000Z</time>
      </trkpt>
      <trkpt lat="49.39385" lon="1.48517">
        <ele>162.20848083496</ele>
        <time>2016-07-03T09:05:25.000Z</time>
      </trkpt>
      <trkpt lat="49.39387" lon="1.48533">
        <ele>161.96908569336</ele>
        <time>2016-07-03T09:05:28.000Z</time>
      </trkpt>
      <trkpt lat="49.39388" lon="1.48549">
        <ele>161.64503479004</ele>
        <time>2016-07-03T09:05:31.000Z</time>
      </trkpt>
      <trkpt lat="49.3939" lon="1.48565">
        <ele>161.23458862305</ele>
        <time>2016-07-03T09:05:34.000Z</time>
      </trkpt>
      <trkpt lat="49.39393" lon="1.48583">
        <ele>160.74505615234</ele>
        <time>2016-07-03T09:05:37.000Z</time>
      </trkpt>
      <trkpt lat="49.39397" lon="1.48598">
        <ele>160.22567749023</ele>
        <time>2016-07-03T09:05:39.000Z</time>
      </trkpt>
      <trkpt lat="49.39397" lon="1.48605">
        <ele>159.73220825195</ele>
        <time>2016-07-03T09:05:41.000Z</time>
      </trkpt>
      <trkpt lat="49.39396" lon="1.48613">
        <ele>159.25979614258</ele>
        <time>2016-07-03T09:05:44.000Z</time>
      </trkpt>
      <trkpt lat="49.39394" lon="1.48632">
        <ele>158.71994018555</ele>
        <time>2016-07-03T09:05:47.000Z</time>
      </trkpt>
      <trkpt lat="49.39395" lon="1.48652">
        <ele>158.10363769531</ele>
        <time>2016-07-03T09:05:50.000Z</time>
      </trkpt>
      <trkpt lat="49.39395" lon="1.48673">
        <ele>157.44979858398</ele>
        <time>2016-07-03T09:05:53.000Z</time>
      </trkpt>
      <trkpt lat="49.39396" lon="1.48685">
        <ele>156.80404663086</ele>
        <time>2016-07-03T09:05:55.000Z</time>
      </trkpt>
      <trkpt lat="49.39403" lon="1.48715">
        <ele>156.08836364746</ele>
        <time>2016-07-03T09:05:58.000Z</time>
      </trkpt>
      <trkpt lat="49.39401" lon="1.48731">
        <ele>155.46932983398</ele>
        <time>2016-07-03T09:06:00.000Z</time>
      </trkpt>
      <trkpt lat="49.39404" lon="1.48746">
        <ele>154.95642089844</ele>
        <time>2016-07-03T09:06:02.000Z</time>
      </trkpt>
      <trkpt lat="49.39404" lon="1.48763">
        <ele>154.53002929688</ele>
        <time>2016-07-03T09:06:04.000Z</time>
      </trkpt>
      <trkpt lat="49.39405" lon="1.48788">
        <ele>154.04913330078</ele>
        <time>2016-07-03T09:06:07.000Z</time>
      </trkpt>
      <trkpt lat="49.39406" lon="1.48815">
        <ele>153.59266662598</ele>
        <time>2016-07-03T09:06:10.000Z</time>
      </trkpt>
      <trkpt lat="49.39407" lon="1.48831">
        <ele>153.13317871094</ele>
        <time>2016-07-03T09:06:12.000Z</time>
      </trkpt>
      <trkpt lat="49.39403" lon="1.48846">
        <ele>152.74331665039</ele>
        <time>2016-07-03T09:06:14.000Z</time>
      </trkpt>
      <trkpt lat="49.39408" lon="1.48868">
        <ele>152.41203308105</ele>
        <time>2016-07-03T09:06:17.000Z</time>
      </trkpt>
      <trkpt lat="49.39412" lon="1.48877">
        <ele>152.18881225586</ele>
        <time>2016-07-03T09:06:19.000Z</time>
      </trkpt>
      <trkpt lat="49.39411" lon="1.48887">
        <ele>152.08337402344</ele>
        <time>2016-07-03T09:06:22.000Z</time>
      </trkpt>
      <trkpt lat="49.39412" lon="1.48892">
        <ele>152.05390930176</ele>
        <time>2016-07-03T09:06:25.000Z</time>
      </trkpt>
      <trkpt lat="49.39412" lon="1.48894">
        <ele>152.02865600586</ele>
        <time>2016-07-03T09:06:29.000Z</time>
      </trkpt>
      <trkpt lat="49.39414" lon="1.48896">
        <ele>152.01870727539</ele>
        <time>2016-07-03T09:06:32.000Z</time>
      </trkpt>
      <trkpt lat="49.39416" lon="1.48898">
        <ele>152.01347351074</ele>
        <time>2016-07-03T09:06:35.000Z</time>
      </trkpt>
      <trkpt lat="49.39416" lon="1.489">
        <ele>152.00910949707</ele>
        <time>2016-07-03T09:06:37.000Z</time>
      </trkpt>
      <trkpt lat="49.39417" lon="1.48902">
        <ele>152.00553894043</ele>
        <time>2016-07-03T09:06:40.000Z</time>
      </trkpt>
      <trkpt lat="49.39416" lon="1.48904">
        <ele>152.00280761719</ele>
        <time>2016-07-03T09:06:43.000Z</time>
      </trkpt>
      <trkpt lat="49.39415" lon="1.48907">
        <ele>152.00186157227</ele>
        <time>2016-07-03T09:06:46.000Z</time>
      </trkpt>
      <trkpt lat="49.39413" lon="1.4891">
        <ele>152.00202941895</ele>
        <time>2016-07-03T09:06:49.000Z</time>
      </trkpt>
      <trkpt lat="49.39411" lon="1.48912">
        <ele>152.00247192383</ele>
        <time>2016-07-03T09:06:52.000Z</time>
      </trkpt>
      <trkpt lat="49.3941" lon="1.4891">
        <ele>152.00369262695</ele>
        <time>2016-07-03T09:06:58.000Z</time>
      </trkpt>
      <trkpt lat="49.3941" lon="1.48911">
        <ele>152.00430297852</ele>
        <time>2016-07-03T09:07:01.000Z</time>
      </trkpt>
      <trkpt lat="49.3941" lon="1.4891">
        <ele>152.00497436523</ele>
        <time>2016-07-03T09:07:10.000Z</time>
      </trkpt>
      <trkpt lat="49.39409" lon="1.4891">
        <ele>152.0057220459</ele>
        <time>2016-07-03T09:07:12.000Z</time>
      </trkpt>
      <trkpt lat="49.39407" lon="1.4891">
        <ele>152.00668334961</ele>
        <time>2016-07-03T09:07:15.000Z</time>
      </trkpt>
      <trkpt lat="49.39405" lon="1.48911">
        <ele>152.00715637207</ele>
        <time>2016-07-03T09:07:18.000Z</time>
      </trkpt>
      <trkpt lat="49.39404" lon="1.48913">
        <ele>152.00759887695</ele>
        <time>2016-07-03T09:07:20.000Z</time>
      </trkpt>
      <trkpt lat="49.39403" lon="1.48914">
        <ele>152.00718688965</ele>
        <time>2016-07-03T09:07:22.000Z</time>
      </trkpt>
      <trkpt lat="49.39403" lon="1.48918">
        <ele>152.01698303223</ele>
        <time>2016-07-03T09:07:25.000Z</time>
      </trkpt>
      <trkpt lat="49.39404" lon="1.48922">
        <ele>152.0576171875</ele>
        <time>2016-07-03T09:07:27.000Z</time>
      </trkpt>
      <trkpt lat="49.39405" lon="1.48926">
        <ele>152.13522338867</ele>
        <time>2016-07-03T09:07:29.000Z</time>
      </trkpt>
      <trkpt lat="49.39406" lon="1.48929">
        <ele>152.23751831055</ele>
        <time>2016-07-03T09:07:31.000Z</time>
      </trkpt>
      <trkpt lat="49.39408" lon="1.48934">
        <ele>152.38163757324</ele>
        <time>2016-07-03T09:07:34.000Z</time>
      </trkpt>
      <trkpt lat="49.3941" lon="1.48938">
        <ele>152.55700683594</ele>
        <time>2016-07-03T09:07:37.000Z</time>
      </trkpt>
      <trkpt lat="49.3941" lon="1.48939">
        <ele>152.71333312988</ele>
        <time>2016-07-03T09:07:39.000Z</time>
      </trkpt>
      <trkpt lat="49.39409" lon="1.4894">
        <ele>152.8359375</ele>
        <time>2016-07-03T09:07:44.000Z</time>
      </trkpt>
      <trkpt lat="49.39409" lon="1.48938">
        <ele>152.9169921875</ele>
        <time>2016-07-03T09:07:52.000Z</time>
      </trkpt>
      <trkpt lat="49.39409" lon="1.48939">
        <ele>152.96971130371</ele>
        <time>2016-07-03T09:07:54.000Z</time>
      </trkpt>
      <trkpt lat="49.39408" lon="1.48944">
        <ele>153.0149230957</ele>
        <time>2016-07-03T09:07:57.000Z</time>
      </trkpt>
      <trkpt lat="49.39407" lon="1.48949">
        <ele>153.09231567383</ele>
        <time>2016-07-03T09:08:00.000Z</time>
      </trkpt>
      <trkpt lat="49.39408" lon="1.48954">
        <ele>153.2059173584</ele>
        <time>2016-07-03T09:08:02.000Z</time>
      </trkpt>
      <trkpt lat="49.39409" lon="1.4896">
        <ele>153.40112304688</ele>
        <time>2016-07-03T09:08:05.000Z</time>
      </trkpt>
      <trkpt lat="49.3941" lon="1.48965">
        <ele>153.63061523438</ele>
        <time>2016-07-03T09:08:08.000Z</time>
      </trkpt>
      <trkpt lat="49.3941" lon="1.48968">
        <ele>153.85653686523</ele>
        <time>2016-07-03T09:08:10.000Z</time>
      </trkpt>
      <trkpt lat="49.39411" lon="1.48974">
        <ele>154.09182739258</ele>
        <time>2016-07-03T09:08:13.000Z</time>
      </trkpt>
      <trkpt lat="49.39411" lon="1.48976">
        <ele>154.30429077148</ele>
        <time>2016-07-03T09:08:16.000Z</time>
      </trkpt>
      <trkpt lat="49.39411" lon="1.48976">
        <ele>154.30429077148</ele>
        <time>2016-07-03T09:08:36.000Z</time>
      </trkpt>
      <trkpt lat="49.39411" lon="1.4898">
        <ele>154.48846435547</ele>
        <time>2016-07-03T09:08:37.000Z</time>
      </trkpt>
      <trkpt lat="49.39413" lon="1.48986">
        <ele>154.6969909668</ele>
        <time>2016-07-03T09:08:40.000Z</time>
      </trkpt>
      <trkpt lat="49.39415" lon="1.4899">
        <ele>154.92651367188</ele>
        <time>2016-07-03T09:08:42.000Z</time>
      </trkpt>
      <trkpt lat="49.39417" lon="1.48997">
        <ele>155.18383789062</ele>
        <time>2016-07-03T09:08:45.000Z</time>
      </trkpt>
      <trkpt lat="49.3942" lon="1.49004">
        <ele>155.4709777832</ele>
        <time>2016-07-03T09:08:48.000Z</time>
      </trkpt>
      <trkpt lat="49.39423" lon="1.49012">
        <ele>155.74771118164</ele>
        <time>2016-07-03T09:08:51.000Z</time>
      </trkpt>
      <trkpt lat="49.39426" lon="1.49017">
        <ele>155.96549987793</ele>
        <time>2016-07-03T09:08:53.000Z</time>
      </trkpt>
      <trkpt lat="49.39429" lon="1.49024">
        <ele>156.14767456055</ele>
        <time>2016-07-03T09:08:56.000Z</time>
      </trkpt>
      <trkpt lat="49.39432" lon="1.49028">
        <ele>156.25787353516</ele>
        <time>2016-07-03T09:08:58.000Z</time>
      </trkpt>
      <trkpt lat="49.39435" lon="1.49032">
        <ele>156.32992553711</ele>
        <time>2016-07-03T09:09:01.000Z</time>
      </trkpt>
      <trkpt lat="49.39435" lon="1.49037">
        <ele>156.38236999512</ele>
        <time>2016-07-03T09:09:03.000Z</time>
      </trkpt>
      <trkpt lat="49.39437" lon="1.49046">
        <ele>156.43350219727</ele>
        <time>2016-07-03T09:09:06.000Z</time>
      </trkpt>
      <trkpt lat="49.39441" lon="1.49051">
        <ele>156.47344970703</ele>
        <time>2016-07-03T09:09:08.000Z</time>
      </trkpt>
      <trkpt lat="49.39448" lon="1.49057">
        <ele>156.50381469727</ele>
        <time>2016-07-03T09:09:11.000Z</time>
      </trkpt>
      <trkpt lat="49.39452" lon="1.4906">
        <ele>156.5238494873</ele>
        <time>2016-07-03T09:09:13.000Z</time>
      </trkpt>
      <trkpt lat="49.39454" lon="1.49065">
        <ele>156.53581237793</ele>
        <time>2016-07-03T09:09:16.000Z</time>
      </trkpt>
      <trkpt lat="49.39455" lon="1.49069">
        <ele>156.53675842285</ele>
        <time>2016-07-03T09:09:18.000Z</time>
      </trkpt>
      <trkpt lat="49.39452" lon="1.49077">
        <ele>156.54141235352</ele>
        <time>2016-07-03T09:09:21.000Z</time>
      </trkpt>
      <trkpt lat="49.39445" lon="1.49084">
        <ele>156.56271362305</ele>
        <time>2016-07-03T09:09:24.000Z</time>
      </trkpt>
      <trkpt lat="49.39438" lon="1.4909">
        <ele>156.60023498535</ele>
        <time>2016-07-03T09:09:27.000Z</time>
      </trkpt>
      <trkpt lat="49.39432" lon="1.49096">
        <ele>156.65245056152</ele>
        <time>2016-07-03T09:09:30.000Z</time>
      </trkpt>
      <trkpt lat="49.39425" lon="1.49105">
        <ele>156.72038269043</ele>
        <time>2016-07-03T09:09:33.000Z</time>
      </trkpt>
      <trkpt lat="49.39418" lon="1.49113">
        <ele>156.80155944824</ele>
        <time>2016-07-03T09:09:36.000Z</time>
      </trkpt>
      <trkpt lat="49.3941" lon="1.49122">
        <ele>156.82196044922</ele>
        <time>2016-07-03T09:09:39.000Z</time>
      </trkpt>
      <trkpt lat="49.39402" lon="1.49132">
        <ele>156.77345275879</ele>
        <time>2016-07-03T09:09:42.000Z</time>
      </trkpt>
      <trkpt lat="49.39396" lon="1.49138">
        <ele>156.68161010742</ele>
        <time>2016-07-03T09:09:44.000Z</time>
      </trkpt>
      <trkpt lat="49.39387" lon="1.49149">
        <ele>156.53671264648</ele>
        <time>2016-07-03T09:09:47.000Z</time>
      </trkpt>
      <trkpt lat="49.39379" lon="1.49159">
        <ele>156.34335327148</ele>
        <time>2016-07-03T09:09:50.000Z</time>
      </trkpt>
      <trkpt lat="49.3937" lon="1.4917">
        <ele>156.17805480957</ele>
        <time>2016-07-03T09:09:53.000Z</time>
      </trkpt>
      <trkpt lat="49.39364" lon="1.49178">
        <ele>156.0623626709</ele>
        <time>2016-07-03T09:09:55.000Z</time>
      </trkpt>
      <trkpt lat="49.39355" lon="1.49189">
        <ele>155.97769165039</ele>
        <time>2016-07-03T09:09:58.000Z</time>
      </trkpt>
      <trkpt lat="49.39349" lon="1.49196">
        <ele>155.9362487793</ele>
        <time>2016-07-03T09:10:00.000Z</time>
      </trkpt>
      <trkpt lat="49.3934" lon="1.49206">
        <ele>155.94114685059</ele>
        <time>2016-07-03T09:10:03.000Z</time>
      </trkpt>
      <trkpt lat="49.39331" lon="1.49216">
        <ele>155.98803710938</ele>
        <time>2016-07-03T09:10:06.000Z</time>
      </trkpt>
      <trkpt lat="49.39322" lon="1.49227">
        <ele>156.07055664062</ele>
        <time>2016-07-03T09:10:09.000Z</time>
      </trkpt>
      <trkpt lat="49.39312" lon="1.49238">
        <ele>156.18296813965</ele>
        <time>2016-07-03T09:10:12.000Z</time>
      </trkpt>
      <trkpt lat="49.39303" lon="1.4925">
        <ele>156.32270812988</ele>
        <time>2016-07-03T09:10:15.000Z</time>
      </trkpt>
      <trkpt lat="49.39293" lon="1.49262">
        <ele>156.46060180664</ele>
        <time>2016-07-03T09:10:18.000Z</time>
      </trkpt>
      <trkpt lat="49.39283" lon="1.49275">
        <ele>156.6050567627</ele>
        <time>2016-07-03T09:10:21.000Z</time>
      </trkpt>
      <trkpt lat="49.39273" lon="1.49293">
        <ele>156.77391052246</ele>
        <time>2016-07-03T09:10:24.000Z</time>
      </trkpt>
      <trkpt lat="49.39267" lon="1.49305">
        <ele>156.95921325684</ele>
        <time>2016-07-03T09:10:26.000Z</time>
      </trkpt>
      <trkpt lat="49.39257" lon="1.49326">
        <ele>157.19760131836</ele>
        <time>2016-07-03T09:10:29.000Z</time>
      </trkpt>
      <trkpt lat="49.39249" lon="1.49345">
        <ele>157.4789276123</ele>
        <time>2016-07-03T09:10:32.000Z</time>
      </trkpt>
      <trkpt lat="49.39244" lon="1.4936">
        <ele>157.74545288086</ele>
        <time>2016-07-03T09:10:34.000Z</time>
      </trkpt>
      <trkpt lat="49.39237" lon="1.49383">
        <ele>157.98310852051</ele>
        <time>2016-07-03T09:10:37.000Z</time>
      </trkpt>
      <trkpt lat="49.39234" lon="1.49399">
        <ele>158.19180297852</ele>
        <time>2016-07-03T09:10:39.000Z</time>
      </trkpt>
      <trkpt lat="49.39228" lon="1.49423">
        <ele>158.34075927734</ele>
        <time>2016-07-03T09:10:42.000Z</time>
      </trkpt>
      <trkpt lat="49.39222" lon="1.49447">
        <ele>158.47637939453</ele>
        <time>2016-07-03T09:10:45.000Z</time>
      </trkpt>
      <trkpt lat="49.39217" lon="1.49471">
        <ele>158.65454101562</ele>
        <time>2016-07-03T09:10:48.000Z</time>
      </trkpt>
      <trkpt lat="49.39213" lon="1.49487">
        <ele>158.85025024414</ele>
        <time>2016-07-03T09:10:50.000Z</time>
      </trkpt>
      <trkpt lat="49.39209" lon="1.49503">
        <ele>159.06535339355</ele>
        <time>2016-07-03T09:10:52.000Z</time>
      </trkpt>
      <trkpt lat="49.39204" lon="1.49528">
        <ele>159.2409362793</ele>
        <time>2016-07-03T09:10:55.000Z</time>
      </trkpt>
      <trkpt lat="49.39198" lon="1.49553">
        <ele>159.35549926758</ele>
        <time>2016-07-03T09:10:58.000Z</time>
      </trkpt>
      <trkpt lat="49.39194" lon="1.49569">
        <ele>159.39935302734</ele>
        <time>2016-07-03T09:11:00.000Z</time>
      </trkpt>
      <trkpt lat="49.39191" lon="1.49586">
        <ele>159.3935546875</ele>
        <time>2016-07-03T09:11:02.000Z</time>
      </trkpt>
      <trkpt lat="49.39184" lon="1.49611">
        <ele>159.3469543457</ele>
        <time>2016-07-03T09:11:05.000Z</time>
      </trkpt>
      <trkpt lat="49.39179" lon="1.49628">
        <ele>159.30349731445</ele>
        <time>2016-07-03T09:11:07.000Z</time>
      </trkpt>
      <trkpt lat="49.39172" lon="1.49652">
        <ele>159.24868774414</ele>
        <time>2016-07-03T09:11:10.000Z</time>
      </trkpt>
      <trkpt lat="49.39164" lon="1.49676">
        <ele>159.212890625</ele>
        <time>2016-07-03T09:11:13.000Z</time>
      </trkpt>
      <trkpt lat="49.39158" lon="1.49693">
        <ele>159.23905944824</ele>
        <time>2016-07-03T09:11:15.000Z</time>
      </trkpt>
      <trkpt lat="49.3915" lon="1.49718">
        <ele>159.34675598145</ele>
        <time>2016-07-03T09:11:18.000Z</time>
      </trkpt>
      <trkpt lat="49.39145" lon="1.49738">
        <ele>159.52326965332</ele>
        <time>2016-07-03T09:11:20.000Z</time>
      </trkpt>
      <trkpt lat="49.39137" lon="1.49761">
        <ele>159.78256225586</ele>
        <time>2016-07-03T09:11:23.000Z</time>
      </trkpt>
      <trkpt lat="49.39132" lon="1.49778">
        <ele>160.06510925293</ele>
        <time>2016-07-03T09:11:25.000Z</time>
      </trkpt>
      <trkpt lat="49.39125" lon="1.49793">
        <ele>160.3307800293</ele>
        <time>2016-07-03T09:11:27.000Z</time>
      </trkpt>
      <trkpt lat="49.39117" lon="1.49821">
        <ele>160.58589172363</ele>
        <time>2016-07-03T09:11:30.000Z</time>
      </trkpt>
      <trkpt lat="49.39112" lon="1.49838">
        <ele>160.81254577637</ele>
        <time>2016-07-03T09:11:32.000Z</time>
      </trkpt>
      <trkpt lat="49.39101" lon="1.49863">
        <ele>160.93493652344</ele>
        <time>2016-07-03T09:11:35.000Z</time>
      </trkpt>
      <trkpt lat="49.39096" lon="1.49879">
        <ele>160.97430419922</ele>
        <time>2016-07-03T09:11:37.000Z</time>
      </trkpt>
      <trkpt lat="49.39085" lon="1.49899">
        <ele>160.90759277344</ele>
        <time>2016-07-03T09:11:40.000Z</time>
      </trkpt>
      <trkpt lat="49.39074" lon="1.4992">
        <ele>160.70309448242</ele>
        <time>2016-07-03T09:11:43.000Z</time>
      </trkpt>
      <trkpt lat="49.39059" lon="1.49938">
        <ele>160.46119689941</ele>
        <time>2016-07-03T09:11:46.000Z</time>
      </trkpt>
      <trkpt lat="49.3905" lon="1.49949">
        <ele>160.2610168457</ele>
        <time>2016-07-03T09:11:48.000Z</time>
      </trkpt>
      <trkpt lat="49.39032" lon="1.49966">
        <ele>160.11447143555</ele>
        <time>2016-07-03T09:11:51.000Z</time>
      </trkpt>
      <trkpt lat="49.39016" lon="1.49985">
        <ele>160.02645874023</ele>
        <time>2016-07-03T09:11:54.000Z</time>
      </trkpt>
      <trkpt lat="49.39" lon="1.5">
        <ele>160.01452636719</ele>
        <time>2016-07-03T09:11:57.000Z</time>
      </trkpt>
      <trkpt lat="49.38987" lon="1.50011">
        <ele>159.98628234863</ele>
        <time>2016-07-03T09:11:59.000Z</time>
      </trkpt>
      <trkpt lat="49.38968" lon="1.50018">
        <ele>159.97305297852</ele>
        <time>2016-07-03T09:12:02.000Z</time>
      </trkpt>
      <trkpt lat="49.38953" lon="1.50033">
        <ele>159.92434692383</ele>
        <time>2016-07-03T09:12:05.000Z</time>
      </trkpt>
      <trkpt lat="49.38935" lon="1.50038">
        <ele>159.9033203125</ele>
        <time>2016-07-03T09:12:08.000Z</time>
      </trkpt>
      <trkpt lat="49.38923" lon="1.50042">
        <ele>159.88488769531</ele>
        <time>2016-07-03T09:12:10.000Z</time>
      </trkpt>
      <trkpt lat="49.38913" lon="1.50043">
        <ele>159.89529418945</ele>
        <time>2016-07-03T09:12:12.000Z</time>
      </trkpt>
      <trkpt lat="49.38903" lon="1.50044">
        <ele>159.87715148926</ele>
        <time>2016-07-03T09:12:14.000Z</time>
      </trkpt>
      <trkpt lat="49.38889" lon="1.50042">
        <ele>159.88822937012</ele>
        <time>2016-07-03T09:12:17.000Z</time>
      </trkpt>
      <trkpt lat="49.38869" lon="1.50036">
        <ele>159.88781738281</ele>
        <time>2016-07-03T09:12:20.000Z</time>
      </trkpt>
      <trkpt lat="49.38856" lon="1.50035">
        <ele>159.87167358398</ele>
        <time>2016-07-03T09:12:22.000Z</time>
      </trkpt>
      <trkpt lat="49.38843" lon="1.50033">
        <ele>159.85043334961</ele>
        <time>2016-07-03T09:12:24.000Z</time>
      </trkpt>
      <trkpt lat="49.38824" lon="1.50044">
        <ele>159.91088867188</ele>
        <time>2016-07-03T09:12:27.000Z</time>
      </trkpt>
      <trkpt lat="49.38812" lon="1.50047">
        <ele>160.12728881836</ele>
        <time>2016-07-03T09:12:29.000Z</time>
      </trkpt>
      <trkpt lat="49.38793" lon="1.50058">
        <ele>160.46903991699</ele>
        <time>2016-07-03T09:12:32.000Z</time>
      </trkpt>
      <trkpt lat="49.38776" lon="1.50064">
        <ele>160.94496154785</ele>
        <time>2016-07-03T09:12:35.000Z</time>
      </trkpt>
      <trkpt lat="49.38767" lon="1.50063">
        <ele>161.55683898926</ele>
        <time>2016-07-03T09:12:37.000Z</time>
      </trkpt>
      <trkpt lat="49.38762" lon="1.50041">
        <ele>162.55717468262</ele>
        <time>2016-07-03T09:12:40.000Z</time>
      </trkpt>
      <trkpt lat="49.38766" lon="1.50032">
        <ele>163.49502563477</ele>
        <time>2016-07-03T09:12:42.000Z</time>
      </trkpt>
      <trkpt lat="49.38773" lon="1.50021">
        <ele>164.35797119141</ele>
        <time>2016-07-03T09:12:45.000Z</time>
      </trkpt>
      <trkpt lat="49.38779" lon="1.50005">
        <ele>165.21115112305</ele>
        <time>2016-07-03T09:12:48.000Z</time>
      </trkpt>
      <trkpt lat="49.38783" lon="1.50002">
        <ele>165.89143371582</ele>
        <time>2016-07-03T09:12:50.000Z</time>
      </trkpt>
      <trkpt lat="49.38784" lon="1.49995">
        <ele>166.1324005127</ele>
        <time>2016-07-03T09:12:53.000Z</time>
      </trkpt>
      <trkpt lat="49.38785" lon="1.49992">
        <ele>166.28553771973</ele>
        <time>2016-07-03T09:12:55.000Z</time>
      </trkpt>
      <trkpt lat="49.38787" lon="1.4999">
        <ele>166.33448791504</ele>
        <time>2016-07-03T09:12:58.000Z</time>
      </trkpt>
      <trkpt lat="49.38788" lon="1.49987">
        <ele>166.26014709473</ele>
        <time>2016-07-03T09:13:01.000Z</time>
      </trkpt>
      <trkpt lat="49.38789" lon="1.49986">
        <ele>166.20858764648</ele>
        <time>2016-07-03T09:13:03.000Z</time>
      </trkpt>
      <trkpt lat="49.38789" lon="1.49984">
        <ele>166.1520690918</ele>
        <time>2016-07-03T09:13:06.000Z</time>
      </trkpt>
      <trkpt lat="49.38789" lon="1.49982">
        <ele>166.09902954102</ele>
        <time>2016-07-03T09:13:08.000Z</time>
      </trkpt>
      <trkpt lat="49.38787" lon="1.49983">
        <ele>166.1432800293</ele>
        <time>2016-07-03T09:13:12.000Z</time>
      </trkpt>
      <trkpt lat="49.38786" lon="1.49982">
        <ele>166.21672058105</ele>
        <time>2016-07-03T09:13:28.000Z</time>
      </trkpt>
      <trkpt lat="49.38785" lon="1.49983">
        <ele>166.31698608398</ele>
        <time>2016-07-03T09:13:32.000Z</time>
      </trkpt>
      <trkpt lat="49.38785" lon="1.49981">
        <ele>166.41763305664</ele>
        <time>2016-07-03T09:13:44.000Z</time>
      </trkpt>
      <trkpt lat="49.38786" lon="1.49981">
        <ele>166.49301147461</ele>
        <time>2016-07-03T09:13:59.000Z</time>
      </trkpt>
      <trkpt lat="49.38786" lon="1.49984">
        <ele>166.51661682129</ele>
        <time>2016-07-03T09:14:02.000Z</time>
      </trkpt>
      <trkpt lat="49.38784" lon="1.4998">
        <ele>166.56631469727</ele>
        <time>2016-07-03T09:14:05.000Z</time>
      </trkpt>
      <trkpt lat="49.38785" lon="1.4998">
        <ele>166.57629394531</ele>
        <time>2016-07-03T09:14:08.000Z</time>
      </trkpt>
      <trkpt lat="49.38784" lon="1.4998">
        <ele>166.59719848633</ele>
        <time>2016-07-03T09:14:16.000Z</time>
      </trkpt>
      <trkpt lat="49.38783" lon="1.49979">
        <ele>166.66979980469</ele>
        <time>2016-07-03T09:14:21.000Z</time>
      </trkpt>
      <trkpt lat="49.38782" lon="1.49977">
        <ele>166.76951599121</ele>
        <time>2016-07-03T09:14:24.000Z</time>
      </trkpt>
      <trkpt lat="49.3878" lon="1.49974">
        <ele>166.88565063477</ele>
        <time>2016-07-03T09:14:27.000Z</time>
      </trkpt>
      <trkpt lat="49.38778" lon="1.49972">
        <ele>167.06176757812</ele>
        <time>2016-07-03T09:14:29.000Z</time>
      </trkpt>
      <trkpt lat="49.38777" lon="1.49973">
        <ele>167.24382019043</ele>
        <time>2016-07-03T09:14:31.000Z</time>
      </trkpt>
      <trkpt lat="49.38779" lon="1.49972">
        <ele>167.36862182617</ele>
        <time>2016-07-03T09:14:35.000Z</time>
      </trkpt>
      <trkpt lat="49.38779" lon="1.49972">
        <ele>167.36862182617</ele>
        <time>2016-07-03T09:14:55.000Z</time>
      </trkpt>
      <trkpt lat="49.38779" lon="1.49971">
        <ele>167.46363830566</ele>
        <time>2016-07-03T09:14:57.000Z</time>
      </trkpt>
      <trkpt lat="49.38781" lon="1.49971">
        <ele>167.45552062988</ele>
        <time>2016-07-03T09:15:00.000Z</time>
      </trkpt>
      <trkpt lat="49.38783" lon="1.49971">
        <ele>167.36936950684</ele>
        <time>2016-07-03T09:15:09.000Z</time>
      </trkpt>
      <trkpt lat="49.38783" lon="1.49968">
        <ele>167.25248718262</ele>
        <time>2016-07-03T09:15:12.000Z</time>
      </trkpt>
      <trkpt lat="49.38783" lon="1.4996">
        <ele>167.20950317383</ele>
        <time>2016-07-03T09:15:15.000Z</time>
      </trkpt>
      <trkpt lat="49.38778" lon="1.49956">
        <ele>167.28707885742</ele>
        <time>2016-07-03T09:15:18.000Z</time>
      </trkpt>
      <trkpt lat="49.38772" lon="1.49954">
        <ele>167.54983520508</ele>
        <time>2016-07-03T09:15:21.000Z</time>
      </trkpt>
      <trkpt lat="49.38767" lon="1.49955">
        <ele>167.9744720459</ele>
        <time>2016-07-03T09:15:23.000Z</time>
      </trkpt>
      <trkpt lat="49.38757" lon="1.49958">
        <ele>168.60720825195</ele>
        <time>2016-07-03T09:15:26.000Z</time>
      </trkpt>
      <trkpt lat="49.38749" lon="1.49963">
        <ele>169.34902954102</ele>
        <time>2016-07-03T09:15:29.000Z</time>
      </trkpt>
      <trkpt lat="49.38743" lon="1.49966">
        <ele>170.02111816406</ele>
        <time>2016-07-03T09:15:31.000Z</time>
      </trkpt>
      <trkpt lat="49.38734" lon="1.49965">
        <ele>170.63624572754</ele>
        <time>2016-07-03T09:15:33.000Z</time>
      </trkpt>
      <trkpt lat="49.38715" lon="1.4997">
        <ele>171.32936096191</ele>
        <time>2016-07-03T09:15:36.000Z</time>
      </trkpt>
      <trkpt lat="49.38704" lon="1.4997">
        <ele>171.93605041504</ele>
        <time>2016-07-03T09:15:39.000Z</time>
      </trkpt>
      <trkpt lat="49.38692" lon="1.49964">
        <ele>172.5126953125</ele>
        <time>2016-07-03T09:15:42.000Z</time>
      </trkpt>
      <trkpt lat="49.38687" lon="1.49969">
        <ele>173.10250854492</ele>
        <time>2016-07-03T09:15:44.000Z</time>
      </trkpt>
      <trkpt lat="49.38674" lon="1.49974">
        <ele>173.76054382324</ele>
        <time>2016-07-03T09:15:47.000Z</time>
      </trkpt>
      <trkpt lat="49.38662" lon="1.49976">
        <ele>174.22299194336</ele>
        <time>2016-07-03T09:15:50.000Z</time>
      </trkpt>
      <trkpt lat="49.38652" lon="1.49976">
        <ele>174.36601257324</ele>
        <time>2016-07-03T09:15:52.000Z</time>
      </trkpt>
      <trkpt lat="49.38638" lon="1.49976">
        <ele>174.09127807617</ele>
        <time>2016-07-03T09:15:55.000Z</time>
      </trkpt>
      <trkpt lat="49.38625" lon="1.49977">
        <ele>173.47915649414</ele>
        <time>2016-07-03T09:15:58.000Z</time>
      </trkpt>
      <trkpt lat="49.38617" lon="1.49976">
        <ele>172.52770996094</ele>
        <time>2016-07-03T09:16:00.000Z</time>
      </trkpt>
      <trkpt lat="49.38612" lon="1.49976">
        <ele>171.48245239258</ele>
        <time>2016-07-03T09:16:02.000Z</time>
      </trkpt>
      <trkpt lat="49.38606" lon="1.49979">
        <ele>170.52090454102</ele>
        <time>2016-07-03T09:16:05.000Z</time>
      </trkpt>
      <trkpt lat="49.38599" lon="1.4998">
        <ele>169.70671081543</ele>
        <time>2016-07-03T09:16:07.000Z</time>
      </trkpt>
      <trkpt lat="49.38586" lon="1.49978">
        <ele>168.88223266602</ele>
        <time>2016-07-03T09:16:10.000Z</time>
      </trkpt>
      <trkpt lat="49.38573" lon="1.49976">
        <ele>168.18981933594</ele>
        <time>2016-07-03T09:16:13.000Z</time>
      </trkpt>
      <trkpt lat="49.38557" lon="1.49976">
        <ele>167.59713745117</ele>
        <time>2016-07-03T09:16:16.000Z</time>
      </trkpt>
      <trkpt lat="49.38546" lon="1.49977">
        <ele>167.1265411377</ele>
        <time>2016-07-03T09:16:18.000Z</time>
      </trkpt>
      <trkpt lat="49.38536" lon="1.49979">
        <ele>166.79733276367</ele>
        <time>2016-07-03T09:16:21.000Z</time>
      </trkpt>
      <trkpt lat="49.38526" lon="1.49978">
        <ele>166.75682067871</ele>
        <time>2016-07-03T09:16:24.000Z</time>
      </trkpt>
      <trkpt lat="49.38519" lon="1.49978">
        <ele>166.76759338379</ele>
        <time>2016-07-03T09:16:26.000Z</time>
      </trkpt>
      <trkpt lat="49.38515" lon="1.49981">
        <ele>166.75546264648</ele>
        <time>2016-07-03T09:16:28.000Z</time>
      </trkpt>
      <trkpt lat="49.38506" lon="1.4998">
        <ele>166.74508666992</ele>
        <time>2016-07-03T09:16:31.000Z</time>
      </trkpt>
      <trkpt lat="49.38498" lon="1.49982">
        <ele>166.73211669922</ele>
        <time>2016-07-03T09:16:33.000Z</time>
      </trkpt>
      <trkpt lat="49.3849" lon="1.49988">
        <ele>166.7247467041</ele>
        <time>2016-07-03T09:16:36.000Z</time>
      </trkpt>
      <trkpt lat="49.38486" lon="1.5">
        <ele>166.67300415039</ele>
        <time>2016-07-03T09:16:38.000Z</time>
      </trkpt>
      <trkpt lat="49.38479" lon="1.5002">
        <ele>166.63278198242</ele>
        <time>2016-07-03T09:16:41.000Z</time>
      </trkpt>
      <trkpt lat="49.38472" lon="1.50038">
        <ele>166.599609375</ele>
        <time>2016-07-03T09:16:43.000Z</time>
      </trkpt>
      <trkpt lat="49.38465" lon="1.50062">
        <ele>166.56547546387</ele>
        <time>2016-07-03T09:16:46.000Z</time>
      </trkpt>
      <trkpt lat="49.38454" lon="1.50084">
        <ele>166.54396057129</ele>
        <time>2016-07-03T09:16:49.000Z</time>
      </trkpt>
      <trkpt lat="49.38446" lon="1.50099">
        <ele>166.54510498047</ele>
        <time>2016-07-03T09:16:51.000Z</time>
      </trkpt>
      <trkpt lat="49.38433" lon="1.50129">
        <ele>166.34696960449</ele>
        <time>2016-07-03T09:16:54.000Z</time>
      </trkpt>
      <trkpt lat="49.38422" lon="1.50144">
        <ele>165.94560241699</ele>
        <time>2016-07-03T09:16:56.000Z</time>
      </trkpt>
      <trkpt lat="49.38408" lon="1.5017">
        <ele>165.27992248535</ele>
        <time>2016-07-03T09:16:59.000Z</time>
      </trkpt>
      <trkpt lat="49.38393" lon="1.50176">
        <ele>164.64224243164</ele>
        <time>2016-07-03T09:17:01.000Z</time>
      </trkpt>
      <trkpt lat="49.38376" lon="1.50199">
        <ele>163.9792175293</ele>
        <time>2016-07-03T09:17:04.000Z</time>
      </trkpt>
      <trkpt lat="49.38358" lon="1.50218">
        <ele>163.41345214844</ele>
        <time>2016-07-03T09:17:07.000Z</time>
      </trkpt>
      <trkpt lat="49.3834" lon="1.50237">
        <ele>162.84730529785</ele>
        <time>2016-07-03T09:17:11.000Z</time>
      </trkpt>
      <trkpt lat="49.38322" lon="1.50254">
        <ele>162.34664916992</ele>
        <time>2016-07-03T09:17:14.000Z</time>
      </trkpt>
      <trkpt lat="49.38312" lon="1.5027">
        <ele>161.70899963379</ele>
        <time>2016-07-03T09:17:15.000Z</time>
      </trkpt>
      <trkpt lat="49.38304" lon="1.50287">
        <ele>161.03512573242</ele>
        <time>2016-07-03T09:17:17.000Z</time>
      </trkpt>
      <trkpt lat="49.38288" lon="1.50312">
        <ele>160.33113098145</ele>
        <time>2016-07-03T09:17:20.000Z</time>
      </trkpt>
      <trkpt lat="49.38271" lon="1.50338">
        <ele>159.68362426758</ele>
        <time>2016-07-03T09:17:23.000Z</time>
      </trkpt>
      <trkpt lat="49.38256" lon="1.50363">
        <ele>159.05642700195</ele>
        <time>2016-07-03T09:17:26.000Z</time>
      </trkpt>
      <trkpt lat="49.38238" lon="1.50384">
        <ele>158.55171203613</ele>
        <time>2016-07-03T09:17:29.000Z</time>
      </trkpt>
      <trkpt lat="49.38228" lon="1.50429">
        <ele>158.00369262695</ele>
        <time>2016-07-03T09:17:32.000Z</time>
      </trkpt>
      <trkpt lat="49.38219" lon="1.50447">
        <ele>157.55966186523</ele>
        <time>2016-07-03T09:17:34.000Z</time>
      </trkpt>
      <trkpt lat="49.38208" lon="1.50466">
        <ele>157.19618225098</ele>
        <time>2016-07-03T09:17:36.000Z</time>
      </trkpt>
      <trkpt lat="49.382" lon="1.50486">
        <ele>156.8723449707</ele>
        <time>2016-07-03T09:17:38.000Z</time>
      </trkpt>
      <trkpt lat="49.38184" lon="1.50518">
        <ele>156.40444946289</ele>
        <time>2016-07-03T09:17:41.000Z</time>
      </trkpt>
      <trkpt lat="49.38171" lon="1.50542">
        <ele>155.9075012207</ele>
        <time>2016-07-03T09:17:44.000Z</time>
      </trkpt>
      <trkpt lat="49.38157" lon="1.50578">
        <ele>155.25645446777</ele>
        <time>2016-07-03T09:17:47.000Z</time>
      </trkpt>
      <trkpt lat="49.3814" lon="1.50608">
        <ele>154.62213134766</ele>
        <time>2016-07-03T09:17:50.000Z</time>
      </trkpt>
      <trkpt lat="49.3813" lon="1.50626">
        <ele>154.06140136719</ele>
        <time>2016-07-03T09:17:52.000Z</time>
      </trkpt>
      <trkpt lat="49.38115" lon="1.50654">
        <ele>153.38179016113</ele>
        <time>2016-07-03T09:17:55.000Z</time>
      </trkpt>
      <trkpt lat="49.38107" lon="1.50682">
        <ele>152.6435546875</ele>
        <time>2016-07-03T09:17:57.000Z</time>
      </trkpt>
      <trkpt lat="49.38096" lon="1.50716">
        <ele>151.8549041748</ele>
        <time>2016-07-03T09:18:00.000Z</time>
      </trkpt>
      <trkpt lat="49.38084" lon="1.50746">
        <ele>150.78695678711</ele>
        <time>2016-07-03T09:18:03.000Z</time>
      </trkpt>
      <trkpt lat="49.38074" lon="1.50785">
        <ele>149.50051879883</ele>
        <time>2016-07-03T09:18:06.000Z</time>
      </trkpt>
      <trkpt lat="49.38062" lon="1.50809">
        <ele>148.28750610352</ele>
        <time>2016-07-03T09:18:08.000Z</time>
      </trkpt>
      <trkpt lat="49.3805" lon="1.50844">
        <ele>147.00796508789</ele>
        <time>2016-07-03T09:18:11.000Z</time>
      </trkpt>
      <trkpt lat="49.38044" lon="1.50867">
        <ele>145.82984924316</ele>
        <time>2016-07-03T09:18:13.000Z</time>
      </trkpt>
      <trkpt lat="49.38034" lon="1.5089">
        <ele>144.70359802246</ele>
        <time>2016-07-03T09:18:15.000Z</time>
      </trkpt>
      <trkpt lat="49.38021" lon="1.5092">
        <ele>143.35874938965</ele>
        <time>2016-07-03T09:18:18.000Z</time>
      </trkpt>
      <trkpt lat="49.38009" lon="1.50954">
        <ele>141.65133666992</ele>
        <time>2016-07-03T09:18:21.000Z</time>
      </trkpt>
      <trkpt lat="49.37999" lon="1.50972">
        <ele>139.77334594727</ele>
        <time>2016-07-03T09:18:23.000Z</time>
      </trkpt>
      <trkpt lat="49.3799" lon="1.50995">
        <ele>137.56918334961</ele>
        <time>2016-07-03T09:18:25.000Z</time>
      </trkpt>
      <trkpt lat="49.37975" lon="1.51023">
        <ele>134.81332397461</ele>
        <time>2016-07-03T09:18:28.000Z</time>
      </trkpt>
      <trkpt lat="49.37964" lon="1.51042">
        <ele>131.95866394043</ele>
        <time>2016-07-03T09:18:30.000Z</time>
      </trkpt>
      <trkpt lat="49.37951" lon="1.51069">
        <ele>128.73004150391</ele>
        <time>2016-07-03T09:18:33.000Z</time>
      </trkpt>
      <trkpt lat="49.3794" lon="1.51088">
        <ele>125.33897399902</ele>
        <time>2016-07-03T09:18:35.000Z</time>
      </trkpt>
      <trkpt lat="49.37925" lon="1.51119">
        <ele>121.78189849854</ele>
        <time>2016-07-03T09:18:38.000Z</time>
      </trkpt>
      <trkpt lat="49.37914" lon="1.51129">
        <ele>118.75522613525</ele>
        <time>2016-07-03T09:18:40.000Z</time>
      </trkpt>
      <trkpt lat="49.37905" lon="1.51132">
        <ele>116.45955657959</ele>
        <time>2016-07-03T09:18:42.000Z</time>
      </trkpt>
      <trkpt lat="49.37901" lon="1.51119">
        <ele>115.0592880249</ele>
        <time>2016-07-03T09:18:45.000Z</time>
      </trkpt>
      <trkpt lat="49.37878" lon="1.51104">
        <ele>114.2438583374</ele>
        <time>2016-07-03T09:18:49.000Z</time>
      </trkpt>
      <trkpt lat="49.37877" lon="1.511">
        <ele>113.99853515625</ele>
        <time>2016-07-03T09:18:52.000Z</time>
      </trkpt>
      <trkpt lat="49.37873" lon="1.51102">
        <ele>114.07181549072</ele>
        <time>2016-07-03T09:18:54.000Z</time>
      </trkpt>
      <trkpt lat="49.37873" lon="1.51104">
        <ele>114.05010986328</ele>
        <time>2016-07-03T09:18:56.000Z</time>
      </trkpt>
      <trkpt lat="49.3787" lon="1.51108">
        <ele>114.09925842285</ele>
        <time>2016-07-03T09:18:58.000Z</time>
      </trkpt>
      <trkpt lat="49.37869" lon="1.51113">
        <ele>114.27033996582</ele>
        <time>2016-07-03T09:19:00.000Z</time>
      </trkpt>
      <trkpt lat="49.37866" lon="1.51122">
        <ele>114.69645690918</ele>
        <time>2016-07-03T09:19:03.000Z</time>
      </trkpt>
      <trkpt lat="49.37864" lon="1.51126">
        <ele>115.18721008301</ele>
        <time>2016-07-03T09:19:05.000Z</time>
      </trkpt>
      <trkpt lat="49.37862" lon="1.5113">
        <ele>115.75099945068</ele>
        <time>2016-07-03T09:19:07.000Z</time>
      </trkpt>
      <trkpt lat="49.37861" lon="1.51139">
        <ele>116.44421386719</ele>
        <time>2016-07-03T09:19:10.000Z</time>
      </trkpt>
      <trkpt lat="49.37859" lon="1.51148">
        <ele>117.28816223145</ele>
        <time>2016-07-03T09:19:13.000Z</time>
      </trkpt>
      <trkpt lat="49.37857" lon="1.51153">
        <ele>118.10111236572</ele>
        <time>2016-07-03T09:19:15.000Z</time>
      </trkpt>
      <trkpt lat="49.37857" lon="1.51163">
        <ele>119.04689025879</ele>
        <time>2016-07-03T09:19:18.000Z</time>
      </trkpt>
      <trkpt lat="49.37859" lon="1.51172">
        <ele>120.05827331543</ele>
        <time>2016-07-03T09:19:21.000Z</time>
      </trkpt>
      <trkpt lat="49.37861" lon="1.51179">
        <ele>120.93837738037</ele>
        <time>2016-07-03T09:19:23.000Z</time>
      </trkpt>
      <trkpt lat="49.37863" lon="1.51188">
        <ele>121.72871398926</ele>
        <time>2016-07-03T09:19:26.000Z</time>
      </trkpt>
      <trkpt lat="49.37864" lon="1.51194">
        <ele>122.46308898926</ele>
        <time>2016-07-03T09:19:28.000Z</time>
      </trkpt>
      <trkpt lat="49.37867" lon="1.51201">
        <ele>123.02150726318</ele>
        <time>2016-07-03T09:19:30.000Z</time>
      </trkpt>
      <trkpt lat="49.37869" lon="1.51212">
        <ele>123.51982116699</ele>
        <time>2016-07-03T09:19:33.000Z</time>
      </trkpt>
      <trkpt lat="49.37869" lon="1.51219">
        <ele>124.11315917969</ele>
        <time>2016-07-03T09:19:36.000Z</time>
      </trkpt>
      <trkpt lat="49.37871" lon="1.51227">
        <ele>124.63637542725</ele>
        <time>2016-07-03T09:19:39.000Z</time>
      </trkpt>
      <trkpt lat="49.37873" lon="1.51232">
        <ele>125.04117584229</ele>
        <time>2016-07-03T09:19:42.000Z</time>
      </trkpt>
      <trkpt lat="49.37875" lon="1.51239">
        <ele>125.44541931152</ele>
        <time>2016-07-03T09:19:45.000Z</time>
      </trkpt>
      <trkpt lat="49.37875" lon="1.51243">
        <ele>125.83451843262</ele>
        <time>2016-07-03T09:19:47.000Z</time>
      </trkpt>
      <trkpt lat="49.37877" lon="1.51248">
        <ele>126.04362487793</ele>
        <time>2016-07-03T09:19:49.000Z</time>
      </trkpt>
      <trkpt lat="49.37878" lon="1.51256">
        <ele>126.23201751709</ele>
        <time>2016-07-03T09:19:52.000Z</time>
      </trkpt>
      <trkpt lat="49.37879" lon="1.51261">
        <ele>126.49900054932</ele>
        <time>2016-07-03T09:19:54.000Z</time>
      </trkpt>
      <trkpt lat="49.37879" lon="1.51263">
        <ele>126.76792907715</ele>
        <time>2016-07-03T09:19:57.000Z</time>
      </trkpt>
      <trkpt lat="49.37878" lon="1.51267">
        <ele>127.06565093994</ele>
        <time>2016-07-03T09:20:00.000Z</time>
      </trkpt>
      <trkpt lat="49.3788" lon="1.51275">
        <ele>127.46421051025</ele>
        <time>2016-07-03T09:20:03.000Z</time>
      </trkpt>
      <trkpt lat="49.37879" lon="1.5128">
        <ele>127.92868804932</ele>
        <time>2016-07-03T09:20:06.000Z</time>
      </trkpt>
      <trkpt lat="49.37878" lon="1.51285">
        <ele>128.48356628418</ele>
        <time>2016-07-03T09:20:08.000Z</time>
      </trkpt>
      <trkpt lat="49.37877" lon="1.51289">
        <ele>129.18276977539</ele>
        <time>2016-07-03T09:20:10.000Z</time>
      </trkpt>
      <trkpt lat="49.37876" lon="1.51295">
        <ele>129.94085693359</ele>
        <time>2016-07-03T09:20:12.000Z</time>
      </trkpt>
      <trkpt lat="49.37875" lon="1.51301">
        <ele>130.75862121582</ele>
        <time>2016-07-03T09:20:14.000Z</time>
      </trkpt>
      <trkpt lat="49.37875" lon="1.51306">
        <ele>131.57345581055</ele>
        <time>2016-07-03T09:20:16.000Z</time>
      </trkpt>
      <trkpt lat="49.37875" lon="1.5131">
        <ele>132.31619262695</ele>
        <time>2016-07-03T09:20:18.000Z</time>
      </trkpt>
      <trkpt lat="49.37877" lon="1.51316">
        <ele>132.88716125488</ele>
        <time>2016-07-03T09:20:21.000Z</time>
      </trkpt>
      <trkpt lat="49.37879" lon="1.51323">
        <ele>133.23416137695</ele>
        <time>2016-07-03T09:20:24.000Z</time>
      </trkpt>
      <trkpt lat="49.3788" lon="1.51329">
        <ele>133.50198364258</ele>
        <time>2016-07-03T09:20:26.000Z</time>
      </trkpt>
      <trkpt lat="49.37881" lon="1.51336">
        <ele>133.72497558594</ele>
        <time>2016-07-03T09:20:29.000Z</time>
      </trkpt>
      <trkpt lat="49.37881" lon="1.5134">
        <ele>133.94686889648</ele>
        <time>2016-07-03T09:20:32.000Z</time>
      </trkpt>
      <trkpt lat="49.37881" lon="1.51344">
        <ele>134.25283813477</ele>
        <time>2016-07-03T09:20:35.000Z</time>
      </trkpt>
      <trkpt lat="49.37881" lon="1.51348">
        <ele>134.70613098145</ele>
        <time>2016-07-03T09:20:37.000Z</time>
      </trkpt>
      <trkpt lat="49.37882" lon="1.51352">
        <ele>135.16714477539</ele>
        <time>2016-07-03T09:20:39.000Z</time>
      </trkpt>
      <trkpt lat="49.37884" lon="1.51357">
        <ele>135.59219360352</ele>
        <time>2016-07-03T09:20:42.000Z</time>
      </trkpt>
      <trkpt lat="49.37884" lon="1.51362">
        <ele>136.07316589355</ele>
        <time>2016-07-03T09:20:44.000Z</time>
      </trkpt>
      <trkpt lat="49.37883" lon="1.51367">
        <ele>136.59275817871</ele>
        <time>2016-07-03T09:20:46.000Z</time>
      </trkpt>
      <trkpt lat="49.37882" lon="1.51373">
        <ele>137.26850891113</ele>
        <time>2016-07-03T09:20:49.000Z</time>
      </trkpt>
      <trkpt lat="49.37881" lon="1.5138">
        <ele>138.1531829834</ele>
        <time>2016-07-03T09:20:52.000Z</time>
      </trkpt>
      <trkpt lat="49.3788" lon="1.51385">
        <ele>139.19120788574</ele>
        <time>2016-07-03T09:20:55.000Z</time>
      </trkpt>
      <trkpt lat="49.37879" lon="1.51393">
        <ele>140.35139465332</ele>
        <time>2016-07-03T09:20:58.000Z</time>
      </trkpt>
      <trkpt lat="49.3788" lon="1.51398">
        <ele>141.47640991211</ele>
        <time>2016-07-03T09:21:00.000Z</time>
      </trkpt>
      <trkpt lat="49.37879" lon="1.51404">
        <ele>142.5344543457</ele>
        <time>2016-07-03T09:21:03.000Z</time>
      </trkpt>
      <trkpt lat="49.3788" lon="1.51412">
        <ele>143.53291320801</ele>
        <time>2016-07-03T09:21:06.000Z</time>
      </trkpt>
      <trkpt lat="49.3788" lon="1.51422">
        <ele>144.57302856445</ele>
        <time>2016-07-03T09:21:09.000Z</time>
      </trkpt>
      <trkpt lat="49.37881" lon="1.51429">
        <ele>145.43955993652</ele>
        <time>2016-07-03T09:21:12.000Z</time>
      </trkpt>
      <trkpt lat="49.37881" lon="1.51435">
        <ele>146.30297851562</ele>
        <time>2016-07-03T09:21:14.000Z</time>
      </trkpt>
      <trkpt lat="49.37882" lon="1.51442">
        <ele>147.07052612305</ele>
        <time>2016-07-03T09:21:16.000Z</time>
      </trkpt>
      <trkpt lat="49.37884" lon="1.51449">
        <ele>147.6656036377</ele>
        <time>2016-07-03T09:21:19.000Z</time>
      </trkpt>
      <trkpt lat="49.37888" lon="1.51456">
        <ele>148.00318908691</ele>
        <time>2016-07-03T09:21:22.000Z</time>
      </trkpt>
      <trkpt lat="49.37891" lon="1.51462">
        <ele>148.18005371094</ele>
        <time>2016-07-03T09:21:25.000Z</time>
      </trkpt>
      <trkpt lat="49.37893" lon="1.51465">
        <ele>148.22930908203</ele>
        <time>2016-07-03T09:21:27.000Z</time>
      </trkpt>
      <trkpt lat="49.37895" lon="1.5147">
        <ele>148.22811889648</ele>
        <time>2016-07-03T09:21:30.000Z</time>
      </trkpt>
      <trkpt lat="49.37897" lon="1.51476">
        <ele>148.22370910645</ele>
        <time>2016-07-03T09:21:32.000Z</time>
      </trkpt>
      <trkpt lat="49.37898" lon="1.51483">
        <ele>148.35383605957</ele>
        <time>2016-07-03T09:21:35.000Z</time>
      </trkpt>
      <trkpt lat="49.37898" lon="1.51487">
        <ele>148.66848754883</ele>
        <time>2016-07-03T09:21:37.000Z</time>
      </trkpt>
      <trkpt lat="49.37899" lon="1.51493">
        <ele>149.09886169434</ele>
        <time>2016-07-03T09:21:40.000Z</time>
      </trkpt>
      <trkpt lat="49.37901" lon="1.51498">
        <ele>149.55630493164</ele>
        <time>2016-07-03T09:21:42.000Z</time>
      </trkpt>
      <trkpt lat="49.37901" lon="1.51504">
        <ele>150.07327270508</ele>
        <time>2016-07-03T09:21:45.000Z</time>
      </trkpt>
      <trkpt lat="49.37903" lon="1.51508">
        <ele>150.50180053711</ele>
        <time>2016-07-03T09:21:48.000Z</time>
      </trkpt>
      <trkpt lat="49.37906" lon="1.51513">
        <ele>150.8246307373</ele>
        <time>2016-07-03T09:21:51.000Z</time>
      </trkpt>
      <trkpt lat="49.3791" lon="1.51517">
        <ele>150.97920227051</ele>
        <time>2016-07-03T09:21:53.000Z</time>
      </trkpt>
      <trkpt lat="49.37916" lon="1.51524">
        <ele>151.05166625977</ele>
        <time>2016-07-03T09:21:56.000Z</time>
      </trkpt>
      <trkpt lat="49.37922" lon="1.51532">
        <ele>151.06509399414</ele>
        <time>2016-07-03T09:21:59.000Z</time>
      </trkpt>
      <trkpt lat="49.37928" lon="1.51538">
        <ele>151.04974365234</ele>
        <time>2016-07-03T09:22:01.000Z</time>
      </trkpt>
      <trkpt lat="49.37932" lon="1.51541">
        <ele>150.98422241211</ele>
        <time>2016-07-03T09:22:03.000Z</time>
      </trkpt>
      <trkpt lat="49.37937" lon="1.51544">
        <ele>150.95709228516</ele>
        <time>2016-07-03T09:22:06.000Z</time>
      </trkpt>
      <trkpt lat="49.37941" lon="1.51551">
        <ele>151.03530883789</ele>
        <time>2016-07-03T09:22:09.000Z</time>
      </trkpt>
      <trkpt lat="49.37943" lon="1.51554">
        <ele>151.12297058105</ele>
        <time>2016-07-03T09:22:11.000Z</time>
      </trkpt>
      <trkpt lat="49.37947" lon="1.5156">
        <ele>151.28535461426</ele>
        <time>2016-07-03T09:22:14.000Z</time>
      </trkpt>
      <trkpt lat="49.37952" lon="1.51567">
        <ele>151.59553527832</ele>
        <time>2016-07-03T09:22:17.000Z</time>
      </trkpt>
      <trkpt lat="49.37955" lon="1.51571">
        <ele>151.97729492188</ele>
        <time>2016-07-03T09:22:19.000Z</time>
      </trkpt>
      <trkpt lat="49.37958" lon="1.51574">
        <ele>152.30856323242</ele>
        <time>2016-07-03T09:22:22.000Z</time>
      </trkpt>
      <trkpt lat="49.3796" lon="1.51578">
        <ele>152.65846252441</ele>
        <time>2016-07-03T09:22:25.000Z</time>
      </trkpt>
      <trkpt lat="49.37962" lon="1.51581">
        <ele>153.01083374023</ele>
        <time>2016-07-03T09:22:27.000Z</time>
      </trkpt>
      <trkpt lat="49.37963" lon="1.51584">
        <ele>153.29391479492</ele>
        <time>2016-07-03T09:22:29.000Z</time>
      </trkpt>
      <trkpt lat="49.37967" lon="1.51588">
        <ele>153.51469421387</ele>
        <time>2016-07-03T09:22:32.000Z</time>
      </trkpt>
      <trkpt lat="49.3797" lon="1.51591">
        <ele>153.68125915527</ele>
        <time>2016-07-03T09:22:35.000Z</time>
      </trkpt>
      <trkpt lat="49.37975" lon="1.51597">
        <ele>153.75311279297</ele>
        <time>2016-07-03T09:22:38.000Z</time>
      </trkpt>
      <trkpt lat="49.37978" lon="1.51601">
        <ele>153.74488830566</ele>
        <time>2016-07-03T09:22:40.000Z</time>
      </trkpt>
      <trkpt lat="49.37981" lon="1.51606">
        <ele>153.7373046875</ele>
        <time>2016-07-03T09:22:43.000Z</time>
      </trkpt>
      <trkpt lat="49.37982" lon="1.51609">
        <ele>153.77139282227</ele>
        <time>2016-07-03T09:22:45.000Z</time>
      </trkpt>
      <trkpt lat="49.37985" lon="1.51611">
        <ele>153.79447937012</ele>
        <time>2016-07-03T09:22:48.000Z</time>
      </trkpt>
      <trkpt lat="49.37988" lon="1.51613">
        <ele>153.81597900391</ele>
        <time>2016-07-03T09:22:49.000Z</time>
      </trkpt>
      <trkpt lat="49.3799" lon="1.51614">
        <ele>153.81506347656</ele>
        <time>2016-07-03T09:22:51.000Z</time>
      </trkpt>
      <trkpt lat="49.37992" lon="1.51616">
        <ele>153.78045654297</ele>
        <time>2016-07-03T09:22:53.000Z</time>
      </trkpt>
      <trkpt lat="49.37994" lon="1.51619">
        <ele>153.76184082031</ele>
        <time>2016-07-03T09:22:55.000Z</time>
      </trkpt>
      <trkpt lat="49.37997" lon="1.51625">
        <ele>153.84098815918</ele>
        <time>2016-07-03T09:22:58.000Z</time>
      </trkpt>
      <trkpt lat="49.37999" lon="1.51629">
        <ele>153.99893188477</ele>
        <time>2016-07-03T09:23:00.000Z</time>
      </trkpt>
      <trkpt lat="49.38" lon="1.51632">
        <ele>154.22297668457</ele>
        <time>2016-07-03T09:23:02.000Z</time>
      </trkpt>
      <trkpt lat="49.38003" lon="1.51636">
        <ele>154.48013305664</ele>
        <time>2016-07-03T09:23:04.000Z</time>
      </trkpt>
      <trkpt lat="49.38005" lon="1.51639">
        <ele>154.74821472168</ele>
        <time>2016-07-03T09:23:06.000Z</time>
      </trkpt>
      <trkpt lat="49.38005" lon="1.51643">
        <ele>155.03053283691</ele>
        <time>2016-07-03T09:23:09.000Z</time>
      </trkpt>
      <trkpt lat="49.38004" lon="1.51646">
        <ele>155.3681640625</ele>
        <time>2016-07-03T09:23:12.000Z</time>
      </trkpt>
      <trkpt lat="49.38002" lon="1.5165">
        <ele>155.77586364746</ele>
        <time>2016-07-03T09:23:15.000Z</time>
      </trkpt>
      <trkpt lat="49.37999" lon="1.5165">
        <ele>156.19177246094</ele>
        <time>2016-07-03T09:23:18.000Z</time>
      </trkpt>
      <trkpt lat="49.37996" lon="1.51648">
        <ele>156.56889343262</ele>
        <time>2016-07-03T09:23:21.000Z</time>
      </trkpt>
      <trkpt lat="49.37992" lon="1.51648">
        <ele>156.8904876709</ele>
        <time>2016-07-03T09:23:24.000Z</time>
      </trkpt>
      <trkpt lat="49.37989" lon="1.51648">
        <ele>157.13569641113</ele>
        <time>2016-07-03T09:23:26.000Z</time>
      </trkpt>
      <trkpt lat="49.37985" lon="1.51651">
        <ele>157.38545227051</ele>
        <time>2016-07-03T09:23:29.000Z</time>
      </trkpt>
      <trkpt lat="49.37984" lon="1.51652">
        <ele>157.62565612793</ele>
        <time>2016-07-03T09:23:31.000Z</time>
      </trkpt>
      <trkpt lat="49.37981" lon="1.51655">
        <ele>157.94717407227</ele>
        <time>2016-07-03T09:23:34.000Z</time>
      </trkpt>
      <trkpt lat="49.37979" lon="1.51655">
        <ele>158.26690673828</ele>
        <time>2016-07-03T09:23:36.000Z</time>
      </trkpt>
      <trkpt lat="49.37975" lon="1.51657">
        <ele>158.61727905273</ele>
        <time>2016-07-03T09:23:39.000Z</time>
      </trkpt>
      <trkpt lat="49.37974" lon="1.51659">
        <ele>158.90710449219</ele>
        <time>2016-07-03T09:23:41.000Z</time>
      </trkpt>
      <trkpt lat="49.3797" lon="1.51663">
        <ele>159.27139282227</ele>
        <time>2016-07-03T09:23:44.000Z</time>
      </trkpt>
      <trkpt lat="49.37967" lon="1.51665">
        <ele>159.61862182617</ele>
        <time>2016-07-03T09:23:46.000Z</time>
      </trkpt>
      <trkpt lat="49.3796" lon="1.51671">
        <ele>160.03768920898</ele>
        <time>2016-07-03T09:23:49.000Z</time>
      </trkpt>
      <trkpt lat="49.37952" lon="1.51674">
        <ele>160.46293640137</ele>
        <time>2016-07-03T09:23:52.000Z</time>
      </trkpt>
      <trkpt lat="49.37949" lon="1.51685">
        <ele>160.8786315918</ele>
        <time>2016-07-03T09:23:55.000Z</time>
      </trkpt>
      <trkpt lat="49.37941" lon="1.51692">
        <ele>161.23919677734</ele>
        <time>2016-07-03T09:23:58.000Z</time>
      </trkpt>
      <trkpt lat="49.37933" lon="1.51698">
        <ele>161.58390808105</ele>
        <time>2016-07-03T09:24:01.000Z</time>
      </trkpt>
      <trkpt lat="49.37928" lon="1.51702">
        <ele>161.84066772461</ele>
        <time>2016-07-03T09:24:04.000Z</time>
      </trkpt>
      <trkpt lat="49.37924" lon="1.51704">
        <ele>162.04281616211</ele>
        <time>2016-07-03T09:24:07.000Z</time>
      </trkpt>
      <trkpt lat="49.3792" lon="1.51704">
        <ele>162.21655273438</ele>
        <time>2016-07-03T09:24:09.000Z</time>
      </trkpt>
      <trkpt lat="49.37915" lon="1.51704">
        <ele>162.37367248535</ele>
        <time>2016-07-03T09:24:12.000Z</time>
      </trkpt>
      <trkpt lat="49.37911" lon="1.51704">
        <ele>162.52276611328</ele>
        <time>2016-07-03T09:24:14.000Z</time>
      </trkpt>
      <trkpt lat="49.37908" lon="1.51702">
        <ele>162.70401000977</ele>
        <time>2016-07-03T09:24:16.000Z</time>
      </trkpt>
      <trkpt lat="49.37902" lon="1.517">
        <ele>162.93733215332</ele>
        <time>2016-07-03T09:24:19.000Z</time>
      </trkpt>
      <trkpt lat="49.37897" lon="1.51697">
        <ele>163.22346496582</ele>
        <time>2016-07-03T09:24:22.000Z</time>
      </trkpt>
      <trkpt lat="49.3789" lon="1.51694">
        <ele>163.5647277832</ele>
        <time>2016-07-03T09:24:24.000Z</time>
      </trkpt>
      <trkpt lat="49.37882" lon="1.51692">
        <ele>163.97004699707</ele>
        <time>2016-07-03T09:24:27.000Z</time>
      </trkpt>
      <trkpt lat="49.37875" lon="1.51691">
        <ele>164.40730285645</ele>
        <time>2016-07-03T09:24:29.000Z</time>
      </trkpt>
      <trkpt lat="49.37869" lon="1.51692">
        <ele>164.8426361084</ele>
        <time>2016-07-03T09:24:31.000Z</time>
      </trkpt>
      <trkpt lat="49.37864" lon="1.51694">
        <ele>165.27575683594</ele>
        <time>2016-07-03T09:24:33.000Z</time>
      </trkpt>
      <trkpt lat="49.37854" lon="1.51697">
        <ele>165.7375793457</ele>
        <time>2016-07-03T09:24:36.000Z</time>
      </trkpt>
      <trkpt lat="49.37847" lon="1.51702">
        <ele>166.17427062988</ele>
        <time>2016-07-03T09:24:39.000Z</time>
      </trkpt>
      <trkpt lat="49.37833" lon="1.51711">
        <ele>166.70596313477</ele>
        <time>2016-07-03T09:24:42.000Z</time>
      </trkpt>
      <trkpt lat="49.37824" lon="1.51717">
        <ele>167.16558837891</ele>
        <time>2016-07-03T09:24:44.000Z</time>
      </trkpt>
      <trkpt lat="49.37814" lon="1.51722">
        <ele>167.5546875</ele>
        <time>2016-07-03T09:24:46.000Z</time>
      </trkpt>
      <trkpt lat="49.37803" lon="1.51735">
        <ele>167.82106018066</ele>
        <time>2016-07-03T09:24:49.000Z</time>
      </trkpt>
      <trkpt lat="49.37799" lon="1.5175">
        <ele>168</ele>
        <time>2016-07-03T09:24:51.000Z</time>
      </trkpt>
      <trkpt lat="49.37794" lon="1.51765">
        <ele>167.98275756836</ele>
        <time>2016-07-03T09:24:54.000Z</time>
      </trkpt>
      <trkpt lat="49.37789" lon="1.5178">
        <ele>167.94436645508</ele>
        <time>2016-07-03T09:24:57.000Z</time>
      </trkpt>
      <trkpt lat="49.37786" lon="1.51798">
        <ele>167.87939453125</ele>
        <time>2016-07-03T09:25:00.000Z</time>
      </trkpt>
      <trkpt lat="49.37785" lon="1.51813">
        <ele>167.79067993164</ele>
        <time>2016-07-03T09:25:02.000Z</time>
      </trkpt>
      <trkpt lat="49.37782" lon="1.51827">
        <ele>167.67652893066</ele>
        <time>2016-07-03T09:25:04.000Z</time>
      </trkpt>
      <trkpt lat="49.37778" lon="1.51837">
        <ele>167.55551147461</ele>
        <time>2016-07-03T09:25:06.000Z</time>
      </trkpt>
      <trkpt lat="49.3777" lon="1.51851">
        <ele>167.41058349609</ele>
        <time>2016-07-03T09:25:09.000Z</time>
      </trkpt>
      <trkpt lat="49.37764" lon="1.51863">
        <ele>167.25126647949</ele>
        <time>2016-07-03T09:25:11.000Z</time>
      </trkpt>
      <trkpt lat="49.3776" lon="1.51884">
        <ele>167.05801391602</ele>
        <time>2016-07-03T09:25:14.000Z</time>
      </trkpt>
      <trkpt lat="49.37759" lon="1.51899">
        <ele>166.85528564453</ele>
        <time>2016-07-03T09:25:16.000Z</time>
      </trkpt>
      <trkpt lat="49.37766" lon="1.51935">
        <ele>166.68812561035</ele>
        <time>2016-07-03T09:25:19.000Z</time>
      </trkpt>
      <trkpt lat="49.37763" lon="1.5196">
        <ele>166.58895874023</ele>
        <time>2016-07-03T09:25:22.000Z</time>
      </trkpt>
      <trkpt lat="49.37763" lon="1.51992">
        <ele>166.57150268555</ele>
        <time>2016-07-03T09:25:25.000Z</time>
      </trkpt>
      <trkpt lat="49.37758" lon="1.52007">
        <ele>166.64205932617</ele>
        <time>2016-07-03T09:25:28.000Z</time>
      </trkpt>
      <trkpt lat="49.37755" lon="1.52014">
        <ele>166.77236938477</ele>
        <time>2016-07-03T09:25:30.000Z</time>
      </trkpt>
      <trkpt lat="49.37756" lon="1.52042">
        <ele>166.92532348633</ele>
        <time>2016-07-03T09:25:33.000Z</time>
      </trkpt>
      <trkpt lat="49.37757" lon="1.52063">
        <ele>167.07217407227</ele>
        <time>2016-07-03T09:25:35.000Z</time>
      </trkpt>
      <trkpt lat="49.37761" lon="1.52081">
        <ele>167.15621948242</ele>
        <time>2016-07-03T09:25:37.000Z</time>
      </trkpt>
      <trkpt lat="49.37757" lon="1.521">
        <ele>167.17256164551</ele>
        <time>2016-07-03T09:25:40.000Z</time>
      </trkpt>
      <trkpt lat="49.37756" lon="1.5211">
        <ele>167.1363067627</ele>
        <time>2016-07-03T09:25:42.000Z</time>
      </trkpt>
      <trkpt lat="49.37756" lon="1.52136">
        <ele>166.93070983887</ele>
        <time>2016-07-03T09:25:45.000Z</time>
      </trkpt>
      <trkpt lat="49.37759" lon="1.52154">
        <ele>166.55596923828</ele>
        <time>2016-07-03T09:25:47.000Z</time>
      </trkpt>
      <trkpt lat="49.37769" lon="1.52191">
        <ele>165.60957336426</ele>
        <time>2016-07-03T09:25:50.000Z</time>
      </trkpt>
      <trkpt lat="49.37778" lon="1.52226">
        <ele>164.11631774902</ele>
        <time>2016-07-03T09:25:53.000Z</time>
      </trkpt>
      <trkpt lat="49.37777" lon="1.52242">
        <ele>162.4444732666</ele>
        <time>2016-07-03T09:25:55.000Z</time>
      </trkpt>
      <trkpt lat="49.3778" lon="1.52259">
        <ele>160.72842407227</ele>
        <time>2016-07-03T09:25:57.000Z</time>
      </trkpt>
      <trkpt lat="49.37778" lon="1.52268">
        <ele>159.11013793945</ele>
        <time>2016-07-03T09:25:59.000Z</time>
      </trkpt>
      <trkpt lat="49.37772" lon="1.52279">
        <ele>158.03495788574</ele>
        <time>2016-07-03T09:26:02.000Z</time>
      </trkpt>
      <trkpt lat="49.37777" lon="1.52279">
        <ele>157.51904296875</ele>
        <time>2016-07-03T09:26:05.000Z</time>
      </trkpt>
      <trkpt lat="49.37775" lon="1.52273">
        <ele>157.26138305664</ele>
        <time>2016-07-03T09:26:08.000Z</time>
      </trkpt>
      <trkpt lat="49.37774" lon="1.52268">
        <ele>157.22859191895</ele>
        <time>2016-07-03T09:26:10.000Z</time>
      </trkpt>
      <trkpt lat="49.37775" lon="1.52261">
        <ele>157.29182434082</ele>
        <time>2016-07-03T09:26:12.000Z</time>
      </trkpt>
      <trkpt lat="49.37775" lon="1.52254">
        <ele>157.46630859375</ele>
        <time>2016-07-03T09:26:14.000Z</time>
      </trkpt>
      <trkpt lat="49.37774" lon="1.52246">
        <ele>157.75228881836</ele>
        <time>2016-07-03T09:26:17.000Z</time>
      </trkpt>
      <trkpt lat="49.37772" lon="1.5224">
        <ele>158.07736206055</ele>
        <time>2016-07-03T09:26:19.000Z</time>
      </trkpt>
      <trkpt lat="49.3777" lon="1.52232">
        <ele>158.49565124512</ele>
        <time>2016-07-03T09:26:22.000Z</time>
      </trkpt>
      <trkpt lat="49.37767" lon="1.52226">
        <ele>158.99443054199</ele>
        <time>2016-07-03T09:26:25.000Z</time>
      </trkpt>
      <trkpt lat="49.37763" lon="1.52219">
        <ele>159.57141113281</ele>
        <time>2016-07-03T09:26:28.000Z</time>
      </trkpt>
      <trkpt lat="49.3776" lon="1.5221">
        <ele>160.24142456055</ele>
        <time>2016-07-03T09:26:31.000Z</time>
      </trkpt>
      <trkpt lat="49.37758" lon="1.52203">
        <ele>160.93626403809</ele>
        <time>2016-07-03T09:26:33.000Z</time>
      </trkpt>
      <trkpt lat="49.37753" lon="1.52194">
        <ele>161.71890258789</ele>
        <time>2016-07-03T09:26:36.000Z</time>
      </trkpt>
      <trkpt lat="49.37749" lon="1.5219">
        <ele>162.49649047852</ele>
        <time>2016-07-03T09:26:38.000Z</time>
      </trkpt>
      <trkpt lat="49.37745" lon="1.52185">
        <ele>163.19458007812</ele>
        <time>2016-07-03T09:26:40.000Z</time>
      </trkpt>
      <trkpt lat="49.37739" lon="1.52178">
        <ele>163.81820678711</ele>
        <time>2016-07-03T09:26:43.000Z</time>
      </trkpt>
      <trkpt lat="49.37734" lon="1.52166">
        <ele>164.47677612305</ele>
        <time>2016-07-03T09:26:46.000Z</time>
      </trkpt>
      <trkpt lat="49.37732" lon="1.5216">
        <ele>164.92918395996</ele>
        <time>2016-07-03T09:26:48.000Z</time>
      </trkpt>
      <trkpt lat="49.3773" lon="1.52155">
        <ele>165.28369140625</ele>
        <time>2016-07-03T09:26:50.000Z</time>
      </trkpt>
      <trkpt lat="49.37728" lon="1.5215">
        <ele>165.59759521484</ele>
        <time>2016-07-03T09:26:52.000Z</time>
      </trkpt>
      <trkpt lat="49.37724" lon="1.52142">
        <ele>165.83517456055</ele>
        <time>2016-07-03T09:26:55.000Z</time>
      </trkpt>
      <trkpt lat="49.3772" lon="1.52134">
        <ele>165.94999694824</ele>
        <time>2016-07-03T09:26:57.000Z</time>
      </trkpt>
      <trkpt lat="49.37716" lon="1.52129">
        <ele>166.06033325195</ele>
        <time>2016-07-03T09:26:59.000Z</time>
      </trkpt>
      <trkpt lat="49.3771" lon="1.52121">
        <ele>166.17782592773</ele>
        <time>2016-07-03T09:27:02.000Z</time>
      </trkpt>
      <trkpt lat="49.37703" lon="1.52111">
        <ele>166.30735778809</ele>
        <time>2016-07-03T09:27:05.000Z</time>
      </trkpt>
      <trkpt lat="49.37696" lon="1.521">
        <ele>166.45678710938</ele>
        <time>2016-07-03T09:27:08.000Z</time>
      </trkpt>
      <trkpt lat="49.37692" lon="1.52092">
        <ele>166.62258911133</ele>
        <time>2016-07-03T09:27:10.000Z</time>
      </trkpt>
      <trkpt lat="49.37685" lon="1.5208">
        <ele>166.82067871094</ele>
        <time>2016-07-03T09:27:13.000Z</time>
      </trkpt>
      <trkpt lat="49.37677" lon="1.5207">
        <ele>167.01512145996</ele>
        <time>2016-07-03T09:27:16.000Z</time>
      </trkpt>
      <trkpt lat="49.37668" lon="1.5206">
        <ele>167.21255493164</ele>
        <time>2016-07-03T09:27:19.000Z</time>
      </trkpt>
      <trkpt lat="49.37664" lon="1.52051">
        <ele>167.39389038086</ele>
        <time>2016-07-03T09:27:22.000Z</time>
      </trkpt>
      <trkpt lat="49.37661" lon="1.52043">
        <ele>167.55413818359</ele>
        <time>2016-07-03T09:27:24.000Z</time>
      </trkpt>
      <trkpt lat="49.37656" lon="1.52035">
        <ele>167.67788696289</ele>
        <time>2016-07-03T09:27:26.000Z</time>
      </trkpt>
      <trkpt lat="49.37652" lon="1.5203">
        <ele>167.78628540039</ele>
        <time>2016-07-03T09:27:28.000Z</time>
      </trkpt>
      <trkpt lat="49.37647" lon="1.52022">
        <ele>167.87487792969</ele>
        <time>2016-07-03T09:27:30.000Z</time>
      </trkpt>
      <trkpt lat="49.37642" lon="1.52013">
        <ele>167.94995117188</ele>
        <time>2016-07-03T09:27:33.000Z</time>
      </trkpt>
      <trkpt lat="49.37637" lon="1.52006">
        <ele>168.01379394531</ele>
        <time>2016-07-03T09:27:35.000Z</time>
      </trkpt>
      <trkpt lat="49.37631" lon="1.51992">
        <ele>168.06935119629</ele>
        <time>2016-07-03T09:27:38.000Z</time>
      </trkpt>
      <trkpt lat="49.37626" lon="1.51986">
        <ele>168.10453796387</ele>
        <time>2016-07-03T09:27:40.000Z</time>
      </trkpt>
      <trkpt lat="49.37623" lon="1.5198">
        <ele>168.12243652344</ele>
        <time>2016-07-03T09:27:42.000Z</time>
      </trkpt>
      <trkpt lat="49.37617" lon="1.51972">
        <ele>168.11865234375</ele>
        <time>2016-07-03T09:27:45.000Z</time>
      </trkpt>
      <trkpt lat="49.3761" lon="1.51961">
        <ele>168.11282348633</ele>
        <time>2016-07-03T09:27:48.000Z</time>
      </trkpt>
      <trkpt lat="49.37605" lon="1.51949">
        <ele>168.1321105957</ele>
        <time>2016-07-03T09:27:51.000Z</time>
      </trkpt>
      <trkpt lat="49.37601" lon="1.51938">
        <ele>168.19758605957</ele>
        <time>2016-07-03T09:27:54.000Z</time>
      </trkpt>
      <trkpt lat="49.37597" lon="1.51932">
        <ele>168.29263305664</ele>
        <time>2016-07-03T09:27:56.000Z</time>
      </trkpt>
      <trkpt lat="49.3759" lon="1.51924">
        <ele>168.43005371094</ele>
        <time>2016-07-03T09:27:58.000Z</time>
      </trkpt>
      <trkpt lat="49.37584" lon="1.51919">
        <ele>168.59504699707</ele>
        <time>2016-07-03T09:28:01.000Z</time>
      </trkpt>
      <trkpt lat="49.37578" lon="1.5191">
        <ele>168.71801757812</ele>
        <time>2016-07-03T09:28:03.000Z</time>
      </trkpt>
      <trkpt lat="49.37568" lon="1.51898">
        <ele>168.78262329102</ele>
        <time>2016-07-03T09:28:06.000Z</time>
      </trkpt>
      <trkpt lat="49.37562" lon="1.51891">
        <ele>168.80876159668</ele>
        <time>2016-07-03T09:28:08.000Z</time>
      </trkpt>
      <trkpt lat="49.37557" lon="1.51885">
        <ele>168.79043579102</ele>
        <time>2016-07-03T09:28:10.000Z</time>
      </trkpt>
      <trkpt lat="49.37551" lon="1.51875">
        <ele>168.74447631836</ele>
        <time>2016-07-03T09:28:13.000Z</time>
      </trkpt>
      <trkpt lat="49.37545" lon="1.51865">
        <ele>168.72741699219</ele>
        <time>2016-07-03T09:28:16.000Z</time>
      </trkpt>
      <trkpt lat="49.37541" lon="1.51858">
        <ele>168.75219726562</ele>
        <time>2016-07-03T09:28:18.000Z</time>
      </trkpt>
      <trkpt lat="49.37536" lon="1.5185">
        <ele>168.81369018555</ele>
        <time>2016-07-03T09:28:21.000Z</time>
      </trkpt>
      <trkpt lat="49.37532" lon="1.51844">
        <ele>168.89973449707</ele>
        <time>2016-07-03T09:28:24.000Z</time>
      </trkpt>
      <trkpt lat="49.37525" lon="1.51834">
        <ele>169.01214599609</ele>
        <time>2016-07-03T09:28:27.000Z</time>
      </trkpt>
      <trkpt lat="49.37519" lon="1.51826">
        <ele>169.10707092285</ele>
        <time>2016-07-03T09:28:30.000Z</time>
      </trkpt>
      <trkpt lat="49.37514" lon="1.51818">
        <ele>169.19058227539</ele>
        <time>2016-07-03T09:28:33.000Z</time>
      </trkpt>
      <trkpt lat="49.37507" lon="1.51806">
        <ele>169.2622833252</ele>
        <time>2016-07-03T09:28:36.000Z</time>
      </trkpt>
      <trkpt lat="49.37502" lon="1.51797">
        <ele>169.32901000977</ele>
        <time>2016-07-03T09:28:38.000Z</time>
      </trkpt>
      <trkpt lat="49.37497" lon="1.51788">
        <ele>169.37210083008</ele>
        <time>2016-07-03T09:28:40.000Z</time>
      </trkpt>
      <trkpt lat="49.3749" lon="1.5178">
        <ele>169.4169921875</ele>
        <time>2016-07-03T09:28:42.000Z</time>
      </trkpt>
      <trkpt lat="49.37483" lon="1.51769">
        <ele>169.45065307617</ele>
        <time>2016-07-03T09:28:45.000Z</time>
      </trkpt>
      <trkpt lat="49.37476" lon="1.51759">
        <ele>169.45397949219</ele>
        <time>2016-07-03T09:28:48.000Z</time>
      </trkpt>
      <trkpt lat="49.37468" lon="1.51746">
        <ele>169.41279602051</ele>
        <time>2016-07-03T09:28:51.000Z</time>
      </trkpt>
      <trkpt lat="49.37459" lon="1.51735">
        <ele>169.3179473877</ele>
        <time>2016-07-03T09:28:54.000Z</time>
      </trkpt>
      <trkpt lat="49.37455" lon="1.51728">
        <ele>169.20195007324</ele>
        <time>2016-07-03T09:28:57.000Z</time>
      </trkpt>
      <trkpt lat="49.3745" lon="1.5172">
        <ele>169.06672668457</ele>
        <time>2016-07-03T09:28:58.000Z</time>
      </trkpt>
      <trkpt lat="49.37442" lon="1.5171">
        <ele>168.9140625</ele>
        <time>2016-07-03T09:29:01.000Z</time>
      </trkpt>
      <trkpt lat="49.37438" lon="1.51702">
        <ele>168.771484375</ele>
        <time>2016-07-03T09:29:03.000Z</time>
      </trkpt>
      <trkpt lat="49.37434" lon="1.51689">
        <ele>168.65234375</ele>
        <time>2016-07-03T09:29:06.000Z</time>
      </trkpt>
      <trkpt lat="49.37431" lon="1.51673">
        <ele>168.537109375</ele>
        <time>2016-07-03T09:29:09.000Z</time>
      </trkpt>
      <trkpt lat="49.37428" lon="1.51662">
        <ele>168.42515563965</ele>
        <time>2016-07-03T09:29:11.000Z</time>
      </trkpt>
      <trkpt lat="49.37426" lon="1.51646">
        <ele>168.29981994629</ele>
        <time>2016-07-03T09:29:14.000Z</time>
      </trkpt>
      <trkpt lat="49.37424" lon="1.51633">
        <ele>168.1586151123</ele>
        <time>2016-07-03T09:29:16.000Z</time>
      </trkpt>
      <trkpt lat="49.37421" lon="1.51617">
        <ele>167.98188781738</ele>
        <time>2016-07-03T09:29:19.000Z</time>
      </trkpt>
      <trkpt lat="49.37414" lon="1.51599">
        <ele>167.74465942383</ele>
        <time>2016-07-03T09:29:22.000Z</time>
      </trkpt>
      <trkpt lat="49.37407" lon="1.51582">
        <ele>167.47267150879</ele>
        <time>2016-07-03T09:29:24.000Z</time>
      </trkpt>
      <trkpt lat="49.374" lon="1.51571">
        <ele>167.21890258789</ele>
        <time>2016-07-03T09:29:26.000Z</time>
      </trkpt>
      <trkpt lat="49.37366" lon="1.51577">
        <ele>166.90866088867</ele>
        <time>2016-07-03T09:29:30.000Z</time>
      </trkpt>
      <trkpt lat="49.37356" lon="1.51584">
        <ele>166.65719604492</ele>
        <time>2016-07-03T09:29:33.000Z</time>
      </trkpt>
      <trkpt lat="49.3735" lon="1.5159">
        <ele>166.49398803711</ele>
        <time>2016-07-03T09:29:35.000Z</time>
      </trkpt>
      <trkpt lat="49.37344" lon="1.51597">
        <ele>166.40826416016</ele>
        <time>2016-07-03T09:29:38.000Z</time>
      </trkpt>
      <trkpt lat="49.37336" lon="1.51603">
        <ele>166.36363220215</ele>
        <time>2016-07-03T09:29:41.000Z</time>
      </trkpt>
      <trkpt lat="49.37332" lon="1.51605">
        <ele>166.41609191895</ele>
        <time>2016-07-03T09:29:43.000Z</time>
      </trkpt>
      <trkpt lat="49.37325" lon="1.51606">
        <ele>166.48439025879</ele>
        <time>2016-07-03T09:29:46.000Z</time>
      </trkpt>
      <trkpt lat="49.3732" lon="1.51611">
        <ele>166.57083129883</ele>
        <time>2016-07-03T09:29:48.000Z</time>
      </trkpt>
      <trkpt lat="49.37315" lon="1.51616">
        <ele>166.66677856445</ele>
        <time>2016-07-03T09:29:50.000Z</time>
      </trkpt>
      <trkpt lat="49.3731" lon="1.5162">
        <ele>166.77340698242</ele>
        <time>2016-07-03T09:29:52.000Z</time>
      </trkpt>
      <trkpt lat="49.37305" lon="1.51623">
        <ele>166.89360046387</ele>
        <time>2016-07-03T09:29:54.000Z</time>
      </trkpt>
      <trkpt lat="49.37297" lon="1.51623">
        <ele>167.0040435791</ele>
        <time>2016-07-03T09:29:57.000Z</time>
      </trkpt>
      <trkpt lat="49.37294" lon="1.51623">
        <ele>167.09033203125</ele>
        <time>2016-07-03T09:29:59.000Z</time>
      </trkpt>
      <trkpt lat="49.37287" lon="1.51627">
        <ele>167.16789245605</ele>
        <time>2016-07-03T09:30:02.000Z</time>
      </trkpt>
      <trkpt lat="49.3728" lon="1.51629">
        <ele>167.24011230469</ele>
        <time>2016-07-03T09:30:05.000Z</time>
      </trkpt>
      <trkpt lat="49.37276" lon="1.51629">
        <ele>167.29769897461</ele>
        <time>2016-07-03T09:30:07.000Z</time>
      </trkpt>
      <trkpt lat="49.37274" lon="1.51632">
        <ele>167.3557434082</ele>
        <time>2016-07-03T09:30:09.000Z</time>
      </trkpt>
      <trkpt lat="49.37269" lon="1.51636">
        <ele>167.42584228516</ele>
        <time>2016-07-03T09:30:12.000Z</time>
      </trkpt>
      <trkpt lat="49.37263" lon="1.51638">
        <ele>167.48420715332</ele>
        <time>2016-07-03T09:30:14.000Z</time>
      </trkpt>
      <trkpt lat="49.37257" lon="1.51639">
        <ele>167.53598022461</ele>
        <time>2016-07-03T09:30:17.000Z</time>
      </trkpt>
      <trkpt lat="49.37249" lon="1.51641">
        <ele>167.59745788574</ele>
        <time>2016-07-03T09:30:20.000Z</time>
      </trkpt>
      <trkpt lat="49.37244" lon="1.51644">
        <ele>167.66673278809</ele>
        <time>2016-07-03T09:30:22.000Z</time>
      </trkpt>
      <trkpt lat="49.37238" lon="1.51651">
        <ele>167.75357055664</ele>
        <time>2016-07-03T09:30:25.000Z</time>
      </trkpt>
      <trkpt lat="49.37231" lon="1.51655">
        <ele>167.8567199707</ele>
        <time>2016-07-03T09:30:28.000Z</time>
      </trkpt>
      <trkpt lat="49.37225" lon="1.5166">
        <ele>167.9758605957</ele>
        <time>2016-07-03T09:30:31.000Z</time>
      </trkpt>
      <trkpt lat="49.37221" lon="1.51663">
        <ele>168.09704589844</ele>
        <time>2016-07-03T09:30:33.000Z</time>
      </trkpt>
      <trkpt lat="49.37213" lon="1.51669">
        <ele>168.22482299805</ele>
        <time>2016-07-03T09:30:36.000Z</time>
      </trkpt>
      <trkpt lat="49.37206" lon="1.5167">
        <ele>168.33877563477</ele>
        <time>2016-07-03T09:30:39.000Z</time>
      </trkpt>
      <trkpt lat="49.37201" lon="1.51673">
        <ele>168.44006347656</ele>
        <time>2016-07-03T09:30:41.000Z</time>
      </trkpt>
      <trkpt lat="49.37193" lon="1.51677">
        <ele>168.53701782227</ele>
        <time>2016-07-03T09:30:44.000Z</time>
      </trkpt>
      <trkpt lat="49.37189" lon="1.51679">
        <ele>168.62721252441</ele>
        <time>2016-07-03T09:30:46.000Z</time>
      </trkpt>
      <trkpt lat="49.37184" lon="1.51682">
        <ele>168.70175170898</ele>
        <time>2016-07-03T09:30:49.000Z</time>
      </trkpt>
      <trkpt lat="49.37178" lon="1.51685">
        <ele>168.7682800293</ele>
        <time>2016-07-03T09:30:52.000Z</time>
      </trkpt>
      <trkpt lat="49.37175" lon="1.51685">
        <ele>168.82768249512</ele>
        <time>2016-07-03T09:30:54.000Z</time>
      </trkpt>
      <trkpt lat="49.37169" lon="1.51686">
        <ele>168.87890625</ele>
        <time>2016-07-03T09:30:57.000Z</time>
      </trkpt>
      <trkpt lat="49.37164" lon="1.51686">
        <ele>168.9182434082</ele>
        <time>2016-07-03T09:31:00.000Z</time>
      </trkpt>
      <trkpt lat="49.37162" lon="1.51685">
        <ele>168.94285583496</ele>
        <time>2016-07-03T09:31:03.000Z</time>
      </trkpt>
      <trkpt lat="49.37157" lon="1.51687">
        <ele>168.94680786133</ele>
        <time>2016-07-03T09:31:05.000Z</time>
      </trkpt>
      <trkpt lat="49.37152" lon="1.51688">
        <ele>168.93742370605</ele>
        <time>2016-07-03T09:31:07.000Z</time>
      </trkpt>
      <trkpt lat="49.37145" lon="1.51688">
        <ele>168.90243530273</ele>
        <time>2016-07-03T09:31:09.000Z</time>
      </trkpt>
      <trkpt lat="49.37138" lon="1.51689">
        <ele>168.85746765137</ele>
        <time>2016-07-03T09:31:11.000Z</time>
      </trkpt>
      <trkpt lat="49.37131" lon="1.51691">
        <ele>168.8055267334</ele>
        <time>2016-07-03T09:31:14.000Z</time>
      </trkpt>
      <trkpt lat="49.37121" lon="1.51693">
        <ele>168.74980163574</ele>
        <time>2016-07-03T09:31:17.000Z</time>
      </trkpt>
      <trkpt lat="49.37111" lon="1.51696">
        <ele>168.68983459473</ele>
        <time>2016-07-03T09:31:20.000Z</time>
      </trkpt>
      <trkpt lat="49.37104" lon="1.51695">
        <ele>168.62944030762</ele>
        <time>2016-07-03T09:31:23.000Z</time>
      </trkpt>
      <trkpt lat="49.371" lon="1.51695">
        <ele>168.57382202148</ele>
        <time>2016-07-03T09:31:25.000Z</time>
      </trkpt>
      <trkpt lat="49.37091" lon="1.51695">
        <ele>168.51553344727</ele>
        <time>2016-07-03T09:31:28.000Z</time>
      </trkpt>
      <trkpt lat="49.37087" lon="1.51696">
        <ele>168.46640014648</ele>
        <time>2016-07-03T09:31:30.000Z</time>
      </trkpt>
      <trkpt lat="49.37083" lon="1.51698">
        <ele>168.42626953125</ele>
        <time>2016-07-03T09:31:32.000Z</time>
      </trkpt>
      <trkpt lat="49.37078" lon="1.51699">
        <ele>168.40280151367</ele>
        <time>2016-07-03T09:31:35.000Z</time>
      </trkpt>
      <trkpt lat="49.37071" lon="1.51701">
        <ele>168.39126586914</ele>
        <time>2016-07-03T09:31:38.000Z</time>
      </trkpt>
      <trkpt lat="49.37061" lon="1.51705">
        <ele>168.40385437012</ele>
        <time>2016-07-03T09:31:41.000Z</time>
      </trkpt>
      <trkpt lat="49.37055" lon="1.51707">
        <ele>168.42367553711</ele>
        <time>2016-07-03T09:31:43.000Z</time>
      </trkpt>
      <trkpt lat="49.37046" lon="1.51707">
        <ele>168.44607543945</ele>
        <time>2016-07-03T09:31:46.000Z</time>
      </trkpt>
      <trkpt lat="49.37041" lon="1.51708">
        <ele>168.46737670898</ele>
        <time>2016-07-03T09:31:48.000Z</time>
      </trkpt>
      <trkpt lat="49.37037" lon="1.51708">
        <ele>168.48574829102</ele>
        <time>2016-07-03T09:31:50.000Z</time>
      </trkpt>
      <trkpt lat="49.37033" lon="1.51707">
        <ele>168.49038696289</ele>
        <time>2016-07-03T09:31:53.000Z</time>
      </trkpt>
      <trkpt lat="49.37031" lon="1.51706">
        <ele>168.48815917969</ele>
        <time>2016-07-03T09:31:55.000Z</time>
      </trkpt>
      <trkpt lat="49.37022" lon="1.51706">
        <ele>168.4853515625</ele>
        <time>2016-07-03T09:31:58.000Z</time>
      </trkpt>
      <trkpt lat="49.37011" lon="1.51706">
        <ele>168.48056030273</ele>
        <time>2016-07-03T09:32:01.000Z</time>
      </trkpt>
      <trkpt lat="49.36999" lon="1.51709">
        <ele>168.48348999023</ele>
        <time>2016-07-03T09:32:04.000Z</time>
      </trkpt>
      <trkpt lat="49.36994" lon="1.51711">
        <ele>168.50675964355</ele>
        <time>2016-07-03T09:32:06.000Z</time>
      </trkpt>
      <trkpt lat="49.36987" lon="1.51713">
        <ele>168.55567932129</ele>
        <time>2016-07-03T09:32:09.000Z</time>
      </trkpt>
      <trkpt lat="49.36985" lon="1.51712">
        <ele>168.6058807373</ele>
        <time>2016-07-03T09:32:11.000Z</time>
      </trkpt>
      <trkpt lat="49.36987" lon="1.51708">
        <ele>168.64218139648</ele>
        <time>2016-07-03T09:32:14.000Z</time>
      </trkpt>
      <trkpt lat="49.36987" lon="1.51706">
        <ele>168.66455078125</ele>
        <time>2016-07-03T09:32:16.000Z</time>
      </trkpt>
      <trkpt lat="49.3699" lon="1.51703">
        <ele>168.65620422363</ele>
        <time>2016-07-03T09:32:19.000Z</time>
      </trkpt>
      <trkpt lat="49.36991" lon="1.51699">
        <ele>168.61267089844</ele>
        <time>2016-07-03T09:32:21.000Z</time>
      </trkpt>
      <trkpt lat="49.3699" lon="1.51693">
        <ele>168.55517578125</ele>
        <time>2016-07-03T09:32:24.000Z</time>
      </trkpt>
      <trkpt lat="49.36988" lon="1.51686">
        <ele>168.49841308594</ele>
        <time>2016-07-03T09:32:26.000Z</time>
      </trkpt>
      <trkpt lat="49.36984" lon="1.51668">
        <ele>168.4136505127</ele>
        <time>2016-07-03T09:32:29.000Z</time>
      </trkpt>
      <trkpt lat="49.36983" lon="1.51658">
        <ele>168.32278442383</ele>
        <time>2016-07-03T09:32:31.000Z</time>
      </trkpt>
      <trkpt lat="49.36982" lon="1.51651">
        <ele>168.22746276855</ele>
        <time>2016-07-03T09:32:34.000Z</time>
      </trkpt>
      <trkpt lat="49.3698" lon="1.51646">
        <ele>168.13876342773</ele>
        <time>2016-07-03T09:32:36.000Z</time>
      </trkpt>
      <trkpt lat="49.36976" lon="1.51639">
        <ele>168.05551147461</ele>
        <time>2016-07-03T09:32:39.000Z</time>
      </trkpt>
      <trkpt lat="49.36974" lon="1.51629">
        <ele>167.98651123047</ele>
        <time>2016-07-03T09:32:42.000Z</time>
      </trkpt>
      <trkpt lat="49.36973" lon="1.51617">
        <ele>167.91134643555</ele>
        <time>2016-07-03T09:32:45.000Z</time>
      </trkpt>
      <trkpt lat="49.3697" lon="1.51606">
        <ele>167.83306884766</ele>
        <time>2016-07-03T09:32:48.000Z</time>
      </trkpt>
      <trkpt lat="49.36966" lon="1.51599">
        <ele>167.75308227539</ele>
        <time>2016-07-03T09:32:50.000Z</time>
      </trkpt>
      <trkpt lat="49.36962" lon="1.5159">
        <ele>167.67044067383</ele>
        <time>2016-07-03T09:32:52.000Z</time>
      </trkpt>
      <trkpt lat="49.36957" lon="1.51582">
        <ele>167.60690307617</ele>
        <time>2016-07-03T09:32:54.000Z</time>
      </trkpt>
      <trkpt lat="49.3695" lon="1.51573">
        <ele>167.63336181641</ele>
        <time>2016-07-03T09:32:57.000Z</time>
      </trkpt>
      <trkpt lat="49.3691" lon="1.5158">
        <ele>167.78277587891</ele>
        <time>2016-07-03T09:33:02.000Z</time>
      </trkpt>
      <trkpt lat="49.369" lon="1.51583">
        <ele>167.98570251465</ele>
        <time>2016-07-03T09:33:05.000Z</time>
      </trkpt>
      <trkpt lat="49.36891" lon="1.51587">
        <ele>168.25836181641</ele>
        <time>2016-07-03T09:33:08.000Z</time>
      </trkpt>
      <trkpt lat="49.36881" lon="1.51594">
        <ele>168.58767700195</ele>
        <time>2016-07-03T09:33:11.000Z</time>
      </trkpt>
      <trkpt lat="49.36872" lon="1.516">
        <ele>168.89346313477</ele>
        <time>2016-07-03T09:33:14.000Z</time>
      </trkpt>
      <trkpt lat="49.36863" lon="1.51607">
        <ele>169.11428833008</ele>
        <time>2016-07-03T09:33:17.000Z</time>
      </trkpt>
      <trkpt lat="49.36855" lon="1.51616">
        <ele>169.28544616699</ele>
        <time>2016-07-03T09:33:20.000Z</time>
      </trkpt>
      <trkpt lat="49.36848" lon="1.51621">
        <ele>169.39105224609</ele>
        <time>2016-07-03T09:33:22.000Z</time>
      </trkpt>
      <trkpt lat="49.36839" lon="1.51631">
        <ele>169.40222167969</ele>
        <time>2016-07-03T09:33:25.000Z</time>
      </trkpt>
      <trkpt lat="49.36829" lon="1.51638">
        <ele>169.29476928711</ele>
        <time>2016-07-03T09:33:28.000Z</time>
      </trkpt>
      <trkpt lat="49.36819" lon="1.51645">
        <ele>169.03842163086</ele>
        <time>2016-07-03T09:33:31.000Z</time>
      </trkpt>
      <trkpt lat="49.36809" lon="1.51653">
        <ele>168.65965270996</ele>
        <time>2016-07-03T09:33:34.000Z</time>
      </trkpt>
      <trkpt lat="49.368" lon="1.51661">
        <ele>168.16865539551</ele>
        <time>2016-07-03T09:33:37.000Z</time>
      </trkpt>
      <trkpt lat="49.36794" lon="1.51666">
        <ele>167.6368560791</ele>
        <time>2016-07-03T09:33:39.000Z</time>
      </trkpt>
      <trkpt lat="49.36784" lon="1.51674">
        <ele>167.09883117676</ele>
        <time>2016-07-03T09:33:42.000Z</time>
      </trkpt>
      <trkpt lat="49.36779" lon="1.51679">
        <ele>166.64483642578</ele>
        <time>2016-07-03T09:33:44.000Z</time>
      </trkpt>
      <trkpt lat="49.36769" lon="1.51686">
        <ele>166.25115966797</ele>
        <time>2016-07-03T09:33:47.000Z</time>
      </trkpt>
      <trkpt lat="49.36763" lon="1.51689">
        <ele>165.93534851074</ele>
        <time>2016-07-03T09:33:49.000Z</time>
      </trkpt>
      <trkpt lat="49.36754" lon="1.51694">
        <ele>165.64152526855</ele>
        <time>2016-07-03T09:33:52.000Z</time>
      </trkpt>
      <trkpt lat="49.36745" lon="1.517">
        <ele>165.45069885254</ele>
        <time>2016-07-03T09:33:55.000Z</time>
      </trkpt>
      <trkpt lat="49.3674" lon="1.51703">
        <ele>165.36157226562</ele>
        <time>2016-07-03T09:33:57.000Z</time>
      </trkpt>
      <trkpt lat="49.36731" lon="1.51708">
        <ele>165.42079162598</ele>
        <time>2016-07-03T09:34:00.000Z</time>
      </trkpt>
      <trkpt lat="49.36723" lon="1.51713">
        <ele>165.60214233398</ele>
        <time>2016-07-03T09:34:03.000Z</time>
      </trkpt>
      <trkpt lat="49.36715" lon="1.51718">
        <ele>165.91015625</ele>
        <time>2016-07-03T09:34:06.000Z</time>
      </trkpt>
      <trkpt lat="49.3671" lon="1.51722">
        <ele>166.25390625</ele>
        <time>2016-07-03T09:34:08.000Z</time>
      </trkpt>
      <trkpt lat="49.36702" lon="1.51726">
        <ele>166.6171875</ele>
        <time>2016-07-03T09:34:11.000Z</time>
      </trkpt>
      <trkpt lat="49.36697" lon="1.51728">
        <ele>166.9453125</ele>
        <time>2016-07-03T09:34:13.000Z</time>
      </trkpt>
      <trkpt lat="49.3669" lon="1.51733">
        <ele>167.26171875</ele>
        <time>2016-07-03T09:34:16.000Z</time>
      </trkpt>
      <trkpt lat="49.36684" lon="1.51736">
        <ele>167.55859375</ele>
        <time>2016-07-03T09:34:18.000Z</time>
      </trkpt>
      <trkpt lat="49.36677" lon="1.51741">
        <ele>167.87109375</ele>
        <time>2016-07-03T09:34:21.000Z</time>
      </trkpt>
      <trkpt lat="49.36672" lon="1.51745">
        <ele>168.15625</ele>
        <time>2016-07-03T09:34:23.000Z</time>
      </trkpt>
      <trkpt lat="49.36665" lon="1.5175">
        <ele>168.45216369629</ele>
        <time>2016-07-03T09:34:26.000Z</time>
      </trkpt>
      <trkpt lat="49.36658" lon="1.51756">
        <ele>168.69389343262</ele>
        <time>2016-07-03T09:34:29.000Z</time>
      </trkpt>
      <trkpt lat="49.36652" lon="1.5176">
        <ele>168.8959197998</ele>
        <time>2016-07-03T09:34:31.000Z</time>
      </trkpt>
      <trkpt lat="49.36647" lon="1.51763">
        <ele>169.03617858887</ele>
        <time>2016-07-03T09:34:33.000Z</time>
      </trkpt>
      <trkpt lat="49.36642" lon="1.51765">
        <ele>169.13945007324</ele>
        <time>2016-07-03T09:34:35.000Z</time>
      </trkpt>
      <trkpt lat="49.36633" lon="1.5177">
        <ele>169.19763183594</ele>
        <time>2016-07-03T09:34:38.000Z</time>
      </trkpt>
      <trkpt lat="49.36625" lon="1.51774">
        <ele>169.24983215332</ele>
        <time>2016-07-03T09:34:41.000Z</time>
      </trkpt>
      <trkpt lat="49.36617" lon="1.51779">
        <ele>169.29695129395</ele>
        <time>2016-07-03T09:34:44.000Z</time>
      </trkpt>
      <trkpt lat="49.36612" lon="1.51783">
        <ele>169.33662414551</ele>
        <time>2016-07-03T09:34:46.000Z</time>
      </trkpt>
      <trkpt lat="49.36604" lon="1.51788">
        <ele>169.36907958984</ele>
        <time>2016-07-03T09:34:49.000Z</time>
      </trkpt>
      <trkpt lat="49.36598" lon="1.51792">
        <ele>169.39010620117</ele>
        <time>2016-07-03T09:34:51.000Z</time>
      </trkpt>
      <trkpt lat="49.3659" lon="1.51797">
        <ele>169.3987121582</ele>
        <time>2016-07-03T09:34:54.000Z</time>
      </trkpt>
      <trkpt lat="49.36582" lon="1.51803">
        <ele>169.39212036133</ele>
        <time>2016-07-03T09:34:57.000Z</time>
      </trkpt>
      <trkpt lat="49.36576" lon="1.51807">
        <ele>169.37191772461</ele>
        <time>2016-07-03T09:34:59.000Z</time>
      </trkpt>
      <trkpt lat="49.36572" lon="1.5181">
        <ele>169.33822631836</ele>
        <time>2016-07-03T09:35:01.000Z</time>
      </trkpt>
      <trkpt lat="49.36563" lon="1.51816">
        <ele>169.28691101074</ele>
        <time>2016-07-03T09:35:04.000Z</time>
      </trkpt>
      <trkpt lat="49.36555" lon="1.51823">
        <ele>169.22367858887</ele>
        <time>2016-07-03T09:35:07.000Z</time>
      </trkpt>
      <trkpt lat="49.36549" lon="1.51827">
        <ele>169.1616973877</ele>
        <time>2016-07-03T09:35:09.000Z</time>
      </trkpt>
      <trkpt lat="49.36539" lon="1.51835">
        <ele>169.10173034668</ele>
        <time>2016-07-03T09:35:12.000Z</time>
      </trkpt>
      <trkpt lat="49.36529" lon="1.51845">
        <ele>169.03646850586</ele>
        <time>2016-07-03T09:35:15.000Z</time>
      </trkpt>
      <trkpt lat="49.3652" lon="1.51855">
        <ele>168.9660949707</ele>
        <time>2016-07-03T09:35:18.000Z</time>
      </trkpt>
      <trkpt lat="49.3651" lon="1.51867">
        <ele>168.87873840332</ele>
        <time>2016-07-03T09:35:21.000Z</time>
      </trkpt>
      <trkpt lat="49.36502" lon="1.51875">
        <ele>168.77359008789</ele>
        <time>2016-07-03T09:35:23.000Z</time>
      </trkpt>
      <trkpt lat="49.36491" lon="1.51886">
        <ele>168.67472839355</ele>
        <time>2016-07-03T09:35:26.000Z</time>
      </trkpt>
      <trkpt lat="49.36485" lon="1.51897">
        <ele>168.59761047363</ele>
        <time>2016-07-03T09:35:28.000Z</time>
      </trkpt>
      <trkpt lat="49.36474" lon="1.51909">
        <ele>168.5676574707</ele>
        <time>2016-07-03T09:35:31.000Z</time>
      </trkpt>
      <trkpt lat="49.36469" lon="1.51923">
        <ele>168.56478881836</ele>
        <time>2016-07-03T09:35:33.000Z</time>
      </trkpt>
      <trkpt lat="49.36458" lon="1.51936">
        <ele>168.59466552734</ele>
        <time>2016-07-03T09:35:36.000Z</time>
      </trkpt>
      <trkpt lat="49.36448" lon="1.5195">
        <ele>168.63705444336</ele>
        <time>2016-07-03T09:35:39.000Z</time>
      </trkpt>
      <trkpt lat="49.36441" lon="1.51961">
        <ele>168.67779541016</ele>
        <time>2016-07-03T09:35:41.000Z</time>
      </trkpt>
      <trkpt lat="49.36431" lon="1.51975">
        <ele>168.71731567383</ele>
        <time>2016-07-03T09:35:44.000Z</time>
      </trkpt>
      <trkpt lat="49.36425" lon="1.51985">
        <ele>168.7738494873</ele>
        <time>2016-07-03T09:35:46.000Z</time>
      </trkpt>
      <trkpt lat="49.36415" lon="1.51999">
        <ele>168.85079956055</ele>
        <time>2016-07-03T09:35:49.000Z</time>
      </trkpt>
      <trkpt lat="49.36407" lon="1.52011">
        <ele>168.89959716797</ele>
        <time>2016-07-03T09:35:52.000Z</time>
      </trkpt>
      <trkpt lat="49.36403" lon="1.52023">
        <ele>168.89788818359</ele>
        <time>2016-07-03T09:35:55.000Z</time>
      </trkpt>
      <trkpt lat="49.36403" lon="1.52025">
        <ele>168.86282348633</ele>
        <time>2016-07-03T09:35:57.000Z</time>
      </trkpt>
      <trkpt lat="49.36404" lon="1.52027">
        <ele>168.80108642578</ele>
        <time>2016-07-03T09:36:15.000Z</time>
      </trkpt>
      <trkpt lat="49.36401" lon="1.5203">
        <ele>168.70669555664</ele>
        <time>2016-07-03T09:36:17.000Z</time>
      </trkpt>
      <trkpt lat="49.36395" lon="1.52039">
        <ele>168.61161804199</ele>
        <time>2016-07-03T09:36:20.000Z</time>
      </trkpt>
      <trkpt lat="49.36389" lon="1.52043">
        <ele>168.56242370605</ele>
        <time>2016-07-03T09:36:22.000Z</time>
      </trkpt>
      <trkpt lat="49.36378" lon="1.52049">
        <ele>168.52143859863</ele>
        <time>2016-07-03T09:36:25.000Z</time>
      </trkpt>
      <trkpt lat="49.36367" lon="1.52058">
        <ele>168.47724914551</ele>
        <time>2016-07-03T09:36:28.000Z</time>
      </trkpt>
      <trkpt lat="49.36354" lon="1.52069">
        <ele>168.40782165527</ele>
        <time>2016-07-03T09:36:31.000Z</time>
      </trkpt>
      <trkpt lat="49.3634" lon="1.52081">
        <ele>168.31510925293</ele>
        <time>2016-07-03T09:36:34.000Z</time>
      </trkpt>
      <trkpt lat="49.36325" lon="1.5209">
        <ele>168.22225952148</ele>
        <time>2016-07-03T09:36:37.000Z</time>
      </trkpt>
      <trkpt lat="49.36312" lon="1.52098">
        <ele>168.13542175293</ele>
        <time>2016-07-03T09:36:39.000Z</time>
      </trkpt>
      <trkpt lat="49.36306" lon="1.52106">
        <ele>168.0523223877</ele>
        <time>2016-07-03T09:36:41.000Z</time>
      </trkpt>
      <trkpt lat="49.36288" lon="1.52115">
        <ele>167.99705505371</ele>
        <time>2016-07-03T09:36:44.000Z</time>
      </trkpt>
      <trkpt lat="49.36278" lon="1.5212">
        <ele>167.98091125488</ele>
        <time>2016-07-03T09:36:46.000Z</time>
      </trkpt>
      <trkpt lat="49.36257" lon="1.52126">
        <ele>167.96597290039</ele>
        <time>2016-07-03T09:36:49.000Z</time>
      </trkpt>
      <trkpt lat="49.36247" lon="1.52133">
        <ele>167.92276000977</ele>
        <time>2016-07-03T09:36:51.000Z</time>
      </trkpt>
      <trkpt lat="49.36238" lon="1.52139">
        <ele>167.87022399902</ele>
        <time>2016-07-03T09:36:53.000Z</time>
      </trkpt>
      <trkpt lat="49.36231" lon="1.52147">
        <ele>167.79534912109</ele>
        <time>2016-07-03T09:36:55.000Z</time>
      </trkpt>
      <trkpt lat="49.36222" lon="1.52154">
        <ele>167.71644592285</ele>
        <time>2016-07-03T09:36:57.000Z</time>
      </trkpt>
      <trkpt lat="49.36206" lon="1.52161">
        <ele>167.64807128906</ele>
        <time>2016-07-03T09:37:00.000Z</time>
      </trkpt>
      <trkpt lat="49.3619" lon="1.52173">
        <ele>167.62242126465</ele>
        <time>2016-07-03T09:37:03.000Z</time>
      </trkpt>
      <trkpt lat="49.36172" lon="1.5218">
        <ele>167.66543579102</ele>
        <time>2016-07-03T09:37:06.000Z</time>
      </trkpt>
      <trkpt lat="49.36154" lon="1.52191">
        <ele>167.70077514648</ele>
        <time>2016-07-03T09:37:09.000Z</time>
      </trkpt>
      <trkpt lat="49.36141" lon="1.522">
        <ele>167.6813659668</ele>
        <time>2016-07-03T09:37:11.000Z</time>
      </trkpt>
      <trkpt lat="49.36127" lon="1.52209">
        <ele>167.57292175293</ele>
        <time>2016-07-03T09:37:13.000Z</time>
      </trkpt>
      <trkpt lat="49.36107" lon="1.52222">
        <ele>167.30215454102</ele>
        <time>2016-07-03T09:37:16.000Z</time>
      </trkpt>
      <trkpt lat="49.36093" lon="1.5223">
        <ele>166.87075805664</ele>
        <time>2016-07-03T09:37:18.000Z</time>
      </trkpt>
      <trkpt lat="49.36073" lon="1.52243">
        <ele>166.35095214844</ele>
        <time>2016-07-03T09:37:21.000Z</time>
      </trkpt>
      <trkpt lat="49.36054" lon="1.52255">
        <ele>165.8540802002</ele>
        <time>2016-07-03T09:37:24.000Z</time>
      </trkpt>
      <trkpt lat="49.36034" lon="1.52266">
        <ele>165.39686584473</ele>
        <time>2016-07-03T09:37:27.000Z</time>
      </trkpt>
      <trkpt lat="49.36023" lon="1.52275">
        <ele>165.04295349121</ele>
        <time>2016-07-03T09:37:29.000Z</time>
      </trkpt>
      <trkpt lat="49.36003" lon="1.52286">
        <ele>164.72274780273</ele>
        <time>2016-07-03T09:37:32.000Z</time>
      </trkpt>
      <trkpt lat="49.3599" lon="1.52293">
        <ele>164.43637084961</ele>
        <time>2016-07-03T09:37:34.000Z</time>
      </trkpt>
      <trkpt lat="49.35975" lon="1.52297">
        <ele>164.1067199707</ele>
        <time>2016-07-03T09:37:36.000Z</time>
      </trkpt>
      <trkpt lat="49.35948" lon="1.52307">
        <ele>163.67707824707</ele>
        <time>2016-07-03T09:37:39.000Z</time>
      </trkpt>
      <trkpt lat="49.35934" lon="1.52316">
        <ele>163.22232055664</ele>
        <time>2016-07-03T09:37:41.000Z</time>
      </trkpt>
      <trkpt lat="49.35911" lon="1.52324">
        <ele>162.76062011719</ele>
        <time>2016-07-03T09:37:44.000Z</time>
      </trkpt>
      <trkpt lat="49.35896" lon="1.52331">
        <ele>162.31777954102</ele>
        <time>2016-07-03T09:37:46.000Z</time>
      </trkpt>
      <trkpt lat="49.3588" lon="1.52342">
        <ele>161.87821960449</ele>
        <time>2016-07-03T09:37:48.000Z</time>
      </trkpt>
      <trkpt lat="49.35859" lon="1.52356">
        <ele>161.49728393555</ele>
        <time>2016-07-03T09:37:51.000Z</time>
      </trkpt>
      <trkpt lat="49.35845" lon="1.52364">
        <ele>161.14630126953</ele>
        <time>2016-07-03T09:37:53.000Z</time>
      </trkpt>
      <trkpt lat="49.35823" lon="1.52377">
        <ele>160.81680297852</ele>
        <time>2016-07-03T09:37:56.000Z</time>
      </trkpt>
      <trkpt lat="49.358" lon="1.52393">
        <ele>160.43919372559</ele>
        <time>2016-07-03T09:37:59.000Z</time>
      </trkpt>
      <trkpt lat="49.35785" lon="1.52401">
        <ele>160.05581665039</ele>
        <time>2016-07-03T09:38:01.000Z</time>
      </trkpt>
      <trkpt lat="49.35772" lon="1.52411">
        <ele>159.66487121582</ele>
        <time>2016-07-03T09:38:03.000Z</time>
      </trkpt>
      <trkpt lat="49.35755" lon="1.52428">
        <ele>159.16534423828</ele>
        <time>2016-07-03T09:38:05.000Z</time>
      </trkpt>
      <trkpt lat="49.35735" lon="1.52438">
        <ele>158.57218933105</ele>
        <time>2016-07-03T09:38:08.000Z</time>
      </trkpt>
      <trkpt lat="49.35708" lon="1.52453">
        <ele>157.9037322998</ele>
        <time>2016-07-03T09:38:11.000Z</time>
      </trkpt>
      <trkpt lat="49.35685" lon="1.52467">
        <ele>157.16711425781</ele>
        <time>2016-07-03T09:38:14.000Z</time>
      </trkpt>
      <trkpt lat="49.35667" lon="1.52476">
        <ele>156.4141998291</ele>
        <time>2016-07-03T09:38:16.000Z</time>
      </trkpt>
      <trkpt lat="49.35643" lon="1.5249">
        <ele>155.58445739746</ele>
        <time>2016-07-03T09:38:19.000Z</time>
      </trkpt>
      <trkpt lat="49.35629" lon="1.52499">
        <ele>154.77612304688</ele>
        <time>2016-07-03T09:38:21.000Z</time>
      </trkpt>
      <trkpt lat="49.35605" lon="1.52519">
        <ele>153.88304138184</ele>
        <time>2016-07-03T09:38:24.000Z</time>
      </trkpt>
      <trkpt lat="49.35592" lon="1.52538">
        <ele>152.97412109375</ele>
        <time>2016-07-03T09:38:26.000Z</time>
      </trkpt>
      <trkpt lat="49.35564" lon="1.52553">
        <ele>151.90530395508</ele>
        <time>2016-07-03T09:38:29.000Z</time>
      </trkpt>
      <trkpt lat="49.35536" lon="1.52573">
        <ele>150.80938720703</ele>
        <time>2016-07-03T09:38:32.000Z</time>
      </trkpt>
      <trkpt lat="49.35506" lon="1.52586">
        <ele>149.61058044434</ele>
        <time>2016-07-03T09:38:35.000Z</time>
      </trkpt>
      <trkpt lat="49.35488" lon="1.52592">
        <ele>148.5668182373</ele>
        <time>2016-07-03T09:38:37.000Z</time>
      </trkpt>
      <trkpt lat="49.35459" lon="1.52611">
        <ele>147.50895690918</ele>
        <time>2016-07-03T09:38:40.000Z</time>
      </trkpt>
      <trkpt lat="49.35425" lon="1.52629">
        <ele>146.50924682617</ele>
        <time>2016-07-03T09:38:43.000Z</time>
      </trkpt>
      <trkpt lat="49.35399" lon="1.52642">
        <ele>145.57160949707</ele>
        <time>2016-07-03T09:38:46.000Z</time>
      </trkpt>
      <trkpt lat="49.35379" lon="1.5265">
        <ele>144.71759033203</ele>
        <time>2016-07-03T09:38:48.000Z</time>
      </trkpt>
      <trkpt lat="49.35349" lon="1.52667">
        <ele>143.7119140625</ele>
        <time>2016-07-03T09:38:51.000Z</time>
      </trkpt>
      <trkpt lat="49.35329" lon="1.52685">
        <ele>142.65435791016</ele>
        <time>2016-07-03T09:38:54.000Z</time>
      </trkpt>
      <trkpt lat="49.35301" lon="1.52703">
        <ele>141.5168762207</ele>
        <time>2016-07-03T09:38:57.000Z</time>
      </trkpt>
      <trkpt lat="49.35276" lon="1.52713">
        <ele>140.33084106445</ele>
        <time>2016-07-03T09:39:00.000Z</time>
      </trkpt>
      <trkpt lat="49.35263" lon="1.52725">
        <ele>139.15461730957</ele>
        <time>2016-07-03T09:39:02.000Z</time>
      </trkpt>
      <trkpt lat="49.35217" lon="1.52748">
        <ele>138.04847717285</ele>
        <time>2016-07-03T09:39:06.000Z</time>
      </trkpt>
      <trkpt lat="49.35191" lon="1.52765">
        <ele>137.1459197998</ele>
        <time>2016-07-03T09:39:09.000Z</time>
      </trkpt>
      <trkpt lat="49.35172" lon="1.52775">
        <ele>136.49836730957</ele>
        <time>2016-07-03T09:39:11.000Z</time>
      </trkpt>
      <trkpt lat="49.3515" lon="1.52789">
        <ele>136.0842590332</ele>
        <time>2016-07-03T09:39:14.000Z</time>
      </trkpt>
      <trkpt lat="49.35128" lon="1.52805">
        <ele>135.83340454102</ele>
        <time>2016-07-03T09:39:17.000Z</time>
      </trkpt>
      <trkpt lat="49.35105" lon="1.52813">
        <ele>135.82261657715</ele>
        <time>2016-07-03T09:39:20.000Z</time>
      </trkpt>
      <trkpt lat="49.35093" lon="1.52823">
        <ele>135.85049438477</ele>
        <time>2016-07-03T09:39:22.000Z</time>
      </trkpt>
      <trkpt lat="49.35083" lon="1.52833">
        <ele>135.9105682373</ele>
        <time>2016-07-03T09:39:24.000Z</time>
      </trkpt>
      <trkpt lat="49.35072" lon="1.52843">
        <ele>135.99092102051</ele>
        <time>2016-07-03T09:39:26.000Z</time>
      </trkpt>
      <trkpt lat="49.35058" lon="1.52845">
        <ele>136.11563110352</ele>
        <time>2016-07-03T09:39:28.000Z</time>
      </trkpt>
      <trkpt lat="49.35048" lon="1.52848">
        <ele>136.2350769043</ele>
        <time>2016-07-03T09:39:30.000Z</time>
      </trkpt>
      <trkpt lat="49.35033" lon="1.52855">
        <ele>136.38842773438</ele>
        <time>2016-07-03T09:39:33.000Z</time>
      </trkpt>
      <trkpt lat="49.35022" lon="1.52862">
        <ele>136.56034851074</ele>
        <time>2016-07-03T09:39:36.000Z</time>
      </trkpt>
      <trkpt lat="49.35006" lon="1.52877">
        <ele>136.70637512207</ele>
        <time>2016-07-03T09:39:39.000Z</time>
      </trkpt>
      <trkpt lat="49.34991" lon="1.52889">
        <ele>136.73950195312</ele>
        <time>2016-07-03T09:39:42.000Z</time>
      </trkpt>
      <trkpt lat="49.34986" lon="1.52901">
        <ele>136.66903686523</ele>
        <time>2016-07-03T09:39:44.000Z</time>
      </trkpt>
      <trkpt lat="49.34982" lon="1.52932">
        <ele>136.37034606934</ele>
        <time>2016-07-03T09:39:47.000Z</time>
      </trkpt>
      <trkpt lat="49.34979" lon="1.52964">
        <ele>135.83241271973</ele>
        <time>2016-07-03T09:39:50.000Z</time>
      </trkpt>
      <trkpt lat="49.34972" lon="1.52988">
        <ele>135.13970947266</ele>
        <time>2016-07-03T09:39:52.000Z</time>
      </trkpt>
      <trkpt lat="49.34965" lon="1.53013">
        <ele>134.32490539551</ele>
        <time>2016-07-03T09:39:55.000Z</time>
      </trkpt>
      <trkpt lat="49.34959" lon="1.53032">
        <ele>133.44532775879</ele>
        <time>2016-07-03T09:39:57.000Z</time>
      </trkpt>
      <trkpt lat="49.34952" lon="1.53053">
        <ele>132.60806274414</ele>
        <time>2016-07-03T09:39:59.000Z</time>
      </trkpt>
      <trkpt lat="49.34941" lon="1.53081">
        <ele>131.78706359863</ele>
        <time>2016-07-03T09:40:02.000Z</time>
      </trkpt>
      <trkpt lat="49.34929" lon="1.53108">
        <ele>130.98310852051</ele>
        <time>2016-07-03T09:40:05.000Z</time>
      </trkpt>
      <trkpt lat="49.3492" lon="1.53122">
        <ele>130.29052734375</ele>
        <time>2016-07-03T09:40:07.000Z</time>
      </trkpt>
      <trkpt lat="49.34911" lon="1.53146">
        <ele>129.64608764648</ele>
        <time>2016-07-03T09:40:10.000Z</time>
      </trkpt>
      <trkpt lat="49.349" lon="1.53164">
        <ele>129.12023925781</ele>
        <time>2016-07-03T09:40:13.000Z</time>
      </trkpt>
      <trkpt lat="49.34889" lon="1.53172">
        <ele>128.81973266602</ele>
        <time>2016-07-03T09:40:15.000Z</time>
      </trkpt>
      <trkpt lat="49.34873" lon="1.53184">
        <ele>128.7135925293</ele>
        <time>2016-07-03T09:40:18.000Z</time>
      </trkpt>
      <trkpt lat="49.34865" lon="1.53192">
        <ele>128.69140625</ele>
        <time>2016-07-03T09:40:20.000Z</time>
      </trkpt>
      <trkpt lat="49.34858" lon="1.53201">
        <ele>128.77084350586</ele>
        <time>2016-07-03T09:40:22.000Z</time>
      </trkpt>
      <trkpt lat="49.34848" lon="1.53214">
        <ele>128.89212036133</ele>
        <time>2016-07-03T09:40:25.000Z</time>
      </trkpt>
      <trkpt lat="49.34839" lon="1.5322">
        <ele>129.01704406738</ele>
        <time>2016-07-03T09:40:27.000Z</time>
      </trkpt>
      <trkpt lat="49.34831" lon="1.53228">
        <ele>129.10311889648</ele>
        <time>2016-07-03T09:40:29.000Z</time>
      </trkpt>
      <trkpt lat="49.34821" lon="1.53242">
        <ele>129.1356048584</ele>
        <time>2016-07-03T09:40:32.000Z</time>
      </trkpt>
      <trkpt lat="49.34816" lon="1.53251">
        <ele>129.13075256348</ele>
        <time>2016-07-03T09:40:34.000Z</time>
      </trkpt>
      <trkpt lat="49.34805" lon="1.53265">
        <ele>129.06680297852</ele>
        <time>2016-07-03T09:40:37.000Z</time>
      </trkpt>
      <trkpt lat="49.34795" lon="1.5328">
        <ele>128.91911315918</ele>
        <time>2016-07-03T09:40:40.000Z</time>
      </trkpt>
      <trkpt lat="49.3479" lon="1.53291">
        <ele>128.71571350098</ele>
        <time>2016-07-03T09:40:42.000Z</time>
      </trkpt>
      <trkpt lat="49.34784" lon="1.53304">
        <ele>128.48864746094</ele>
        <time>2016-07-03T09:40:44.000Z</time>
      </trkpt>
      <trkpt lat="49.34773" lon="1.53325">
        <ele>128.18405151367</ele>
        <time>2016-07-03T09:40:47.000Z</time>
      </trkpt>
      <trkpt lat="49.34766" lon="1.53336">
        <ele>127.85280609131</ele>
        <time>2016-07-03T09:40:49.000Z</time>
      </trkpt>
      <trkpt lat="49.34754" lon="1.53351">
        <ele>127.43796539307</ele>
        <time>2016-07-03T09:40:52.000Z</time>
      </trkpt>
      <trkpt lat="49.34737" lon="1.53367">
        <ele>126.87509918213</ele>
        <time>2016-07-03T09:40:55.000Z</time>
      </trkpt>
      <trkpt lat="49.34723" lon="1.53377">
        <ele>126.2417755127</ele>
        <time>2016-07-03T09:40:57.000Z</time>
      </trkpt>
      <trkpt lat="49.34704" lon="1.53394">
        <ele>125.54431152344</ele>
        <time>2016-07-03T09:41:00.000Z</time>
      </trkpt>
      <trkpt lat="49.34692" lon="1.53406">
        <ele>124.82590484619</ele>
        <time>2016-07-03T09:41:02.000Z</time>
      </trkpt>
      <trkpt lat="49.34679" lon="1.53418">
        <ele>124.1724395752</ele>
        <time>2016-07-03T09:41:04.000Z</time>
      </trkpt>
      <trkpt lat="49.3466" lon="1.53435">
        <ele>123.60520172119</ele>
        <time>2016-07-03T09:41:07.000Z</time>
      </trkpt>
      <trkpt lat="49.34648" lon="1.53448">
        <ele>123.0778427124</ele>
        <time>2016-07-03T09:41:09.000Z</time>
      </trkpt>
      <trkpt lat="49.34632" lon="1.53467">
        <ele>122.59440612793</ele>
        <time>2016-07-03T09:41:12.000Z</time>
      </trkpt>
      <trkpt lat="49.34621" lon="1.5348">
        <ele>122.12351226807</ele>
        <time>2016-07-03T09:41:14.000Z</time>
      </trkpt>
      <trkpt lat="49.34608" lon="1.53503">
        <ele>121.61018371582</ele>
        <time>2016-07-03T09:41:17.000Z</time>
      </trkpt>
      <trkpt lat="49.34597" lon="1.53514">
        <ele>121.11766052246</ele>
        <time>2016-07-03T09:41:19.000Z</time>
      </trkpt>
      <trkpt lat="49.34587" lon="1.53529">
        <ele>120.63137054443</ele>
        <time>2016-07-03T09:41:21.000Z</time>
      </trkpt>
      <trkpt lat="49.34571" lon="1.53551">
        <ele>120.16805267334</ele>
        <time>2016-07-03T09:41:24.000Z</time>
      </trkpt>
      <trkpt lat="49.3456" lon="1.53564">
        <ele>119.72734069824</ele>
        <time>2016-07-03T09:41:26.000Z</time>
      </trkpt>
      <trkpt lat="49.34544" lon="1.53583">
        <ele>119.31925964355</ele>
        <time>2016-07-03T09:41:29.000Z</time>
      </trkpt>
      <trkpt lat="49.34523" lon="1.53594">
        <ele>118.89638519287</ele>
        <time>2016-07-03T09:41:32.000Z</time>
      </trkpt>
      <trkpt lat="49.34513" lon="1.53601">
        <ele>118.49739074707</ele>
        <time>2016-07-03T09:41:34.000Z</time>
      </trkpt>
      <trkpt lat="49.345" lon="1.53614">
        <ele>118.1014175415</ele>
        <time>2016-07-03T09:41:37.000Z</time>
      </trkpt>
      <trkpt lat="49.34466" lon="1.53625">
        <ele>117.59037017822</ele>
        <time>2016-07-03T09:41:41.000Z</time>
      </trkpt>
      <trkpt lat="49.34445" lon="1.5362">
        <ele>117.1022567749</ele>
        <time>2016-07-03T09:41:44.000Z</time>
      </trkpt>
      <trkpt lat="49.34428" lon="1.53613">
        <ele>116.66898345947</ele>
        <time>2016-07-03T09:41:47.000Z</time>
      </trkpt>
      <trkpt lat="49.3441" lon="1.53608">
        <ele>116.23223876953</ele>
        <time>2016-07-03T09:41:50.000Z</time>
      </trkpt>
      <trkpt lat="49.34391" lon="1.53603">
        <ele>115.81063079834</ele>
        <time>2016-07-03T09:41:53.000Z</time>
      </trkpt>
      <trkpt lat="49.3438" lon="1.53601">
        <ele>115.51203918457</ele>
        <time>2016-07-03T09:41:55.000Z</time>
      </trkpt>
      <trkpt lat="49.34362" lon="1.53595">
        <ele>115.20527648926</ele>
        <time>2016-07-03T09:41:58.000Z</time>
      </trkpt>
      <trkpt lat="49.34351" lon="1.53594">
        <ele>114.89316558838</ele>
        <time>2016-07-03T09:42:00.000Z</time>
      </trkpt>
      <trkpt lat="49.34339" lon="1.53593">
        <ele>114.58583831787</ele>
        <time>2016-07-03T09:42:02.000Z</time>
      </trkpt>
      <trkpt lat="49.34321" lon="1.53587">
        <ele>114.31703948975</ele>
        <time>2016-07-03T09:42:05.000Z</time>
      </trkpt>
      <trkpt lat="49.3431" lon="1.53585">
        <ele>114.0756072998</ele>
        <time>2016-07-03T09:42:07.000Z</time>
      </trkpt>
      <trkpt lat="49.34293" lon="1.53584">
        <ele>113.86660003662</ele>
        <time>2016-07-03T09:42:10.000Z</time>
      </trkpt>
      <trkpt lat="49.3428" lon="1.53578">
        <ele>113.70622253418</ele>
        <time>2016-07-03T09:42:12.000Z</time>
      </trkpt>
      <trkpt lat="49.34267" lon="1.53577">
        <ele>113.58270263672</ele>
        <time>2016-07-03T09:42:14.000Z</time>
      </trkpt>
      <trkpt lat="49.34249" lon="1.53576">
        <ele>113.47291564941</ele>
        <time>2016-07-03T09:42:17.000Z</time>
      </trkpt>
      <trkpt lat="49.3423" lon="1.53577">
        <ele>113.32698059082</ele>
        <time>2016-07-03T09:42:20.000Z</time>
      </trkpt>
      <trkpt lat="49.34212" lon="1.53579">
        <ele>113.16007232666</ele>
        <time>2016-07-03T09:42:23.000Z</time>
      </trkpt>
      <trkpt lat="49.34204" lon="1.53582">
        <ele>112.95871734619</ele>
        <time>2016-07-03T09:42:25.000Z</time>
      </trkpt>
      <trkpt lat="49.34197" lon="1.53574">
        <ele>112.80554199219</ele>
        <time>2016-07-03T09:42:28.000Z</time>
      </trkpt>
      <trkpt lat="49.34198" lon="1.53561">
        <ele>112.75368499756</ele>
        <time>2016-07-03T09:42:31.000Z</time>
      </trkpt>
      <trkpt lat="49.342" lon="1.53551">
        <ele>112.82356262207</ele>
        <time>2016-07-03T09:42:34.000Z</time>
      </trkpt>
      <trkpt lat="49.342" lon="1.53542">
        <ele>113.005859375</ele>
        <time>2016-07-03T09:42:37.000Z</time>
      </trkpt>
      <trkpt lat="49.34199" lon="1.53536">
        <ele>113.25925445557</ele>
        <time>2016-07-03T09:42:40.000Z</time>
      </trkpt>
      <trkpt lat="49.34201" lon="1.53528">
        <ele>113.53507995605</ele>
        <time>2016-07-03T09:42:43.000Z</time>
      </trkpt>
      <trkpt lat="49.34201" lon="1.53522">
        <ele>113.7737197876</ele>
        <time>2016-07-03T09:42:45.000Z</time>
      </trkpt>
      <trkpt lat="49.34204" lon="1.53514">
        <ele>114.00788879395</ele>
        <time>2016-07-03T09:42:48.000Z</time>
      </trkpt>
      <trkpt lat="49.34204" lon="1.53509">
        <ele>114.22074890137</ele>
        <time>2016-07-03T09:42:50.000Z</time>
      </trkpt>
      <trkpt lat="49.34204" lon="1.53506">
        <ele>114.41731262207</ele>
        <time>2016-07-03T09:42:52.000Z</time>
      </trkpt>
      <trkpt lat="49.34204" lon="1.53501">
        <ele>114.58714294434</ele>
        <time>2016-07-03T09:42:54.000Z</time>
      </trkpt>
      <trkpt lat="49.34203" lon="1.53495">
        <ele>114.73945617676</ele>
        <time>2016-07-03T09:42:57.000Z</time>
      </trkpt>
      <trkpt lat="49.34198" lon="1.53491">
        <ele>114.82543945312</ele>
        <time>2016-07-03T09:42:59.000Z</time>
      </trkpt>
      <trkpt lat="49.34195" lon="1.53487">
        <ele>114.8824005127</ele>
        <time>2016-07-03T09:43:01.000Z</time>
      </trkpt>
      <trkpt lat="49.3419" lon="1.53478">
        <ele>114.93663024902</ele>
        <time>2016-07-03T09:43:04.000Z</time>
      </trkpt>
      <trkpt lat="49.3419" lon="1.53471">
        <ele>114.9986114502</ele>
        <time>2016-07-03T09:43:06.000Z</time>
      </trkpt>
      <trkpt lat="49.34193" lon="1.53457">
        <ele>115.10947418213</ele>
        <time>2016-07-03T09:43:09.000Z</time>
      </trkpt>
      <trkpt lat="49.34195" lon="1.53448">
        <ele>115.26599121094</ele>
        <time>2016-07-03T09:43:11.000Z</time>
      </trkpt>
      <trkpt lat="49.34196" lon="1.53438">
        <ele>115.4651260376</ele>
        <time>2016-07-03T09:43:14.000Z</time>
      </trkpt>
      <trkpt lat="49.34197" lon="1.53429">
        <ele>115.68742370605</ele>
        <time>2016-07-03T09:43:17.000Z</time>
      </trkpt>
      <trkpt lat="49.34198" lon="1.53424">
        <ele>115.89975738525</ele>
        <time>2016-07-03T09:43:19.000Z</time>
      </trkpt>
      <trkpt lat="49.34199" lon="1.53419">
        <ele>116.06620788574</ele>
        <time>2016-07-03T09:43:22.000Z</time>
      </trkpt>
      <trkpt lat="49.34199" lon="1.53418">
        <ele>116.19956207275</ele>
        <time>2016-07-03T09:43:24.000Z</time>
      </trkpt>
      <trkpt lat="49.34194" lon="1.53415">
        <ele>116.27848815918</ele>
        <time>2016-07-03T09:43:35.000Z</time>
      </trkpt>
      <trkpt lat="49.34195" lon="1.53413">
        <ele>116.31679534912</ele>
        <time>2016-07-03T09:43:38.000Z</time>
      </trkpt>
      <trkpt lat="49.34196" lon="1.53412">
        <ele>116.33238220215</ele>
        <time>2016-07-03T09:43:40.000Z</time>
      </trkpt>
      <trkpt lat="49.34197" lon="1.53411">
        <ele>116.3275604248</ele>
        <time>2016-07-03T09:43:42.000Z</time>
      </trkpt>
      <trkpt lat="49.34197" lon="1.53409">
        <ele>116.31533050537</ele>
        <time>2016-07-03T09:43:45.000Z</time>
      </trkpt>
      <trkpt lat="49.34196" lon="1.53407">
        <ele>116.30708312988</ele>
        <time>2016-07-03T09:43:47.000Z</time>
      </trkpt>
      <trkpt lat="49.34195" lon="1.53404">
        <ele>116.29270172119</ele>
        <time>2016-07-03T09:43:50.000Z</time>
      </trkpt>
      <trkpt lat="49.34195" lon="1.53402">
        <ele>116.27436828613</ele>
        <time>2016-07-03T09:43:52.000Z</time>
      </trkpt>
      <trkpt lat="49.34193" lon="1.53401">
        <ele>116.24961853027</ele>
        <time>2016-07-03T09:43:54.000Z</time>
      </trkpt>
      <trkpt lat="49.34193" lon="1.53401">
        <ele>116.24961853027</ele>
        <time>2016-07-03T09:44:14.000Z</time>
      </trkpt>
      <trkpt lat="49.34191" lon="1.53401">
        <ele>116.21933746338</ele>
        <time>2016-07-03T09:44:16.000Z</time>
      </trkpt>
      <trkpt lat="49.34192" lon="1.53402">
        <ele>116.19787597656</ele>
        <time>2016-07-03T09:44:19.000Z</time>
      </trkpt>
      <trkpt lat="49.34193" lon="1.53402">
        <ele>116.18881988525</ele>
        <time>2016-07-03T09:44:38.000Z</time>
      </trkpt>
      <trkpt lat="49.34195" lon="1.53402">
        <ele>116.18830871582</ele>
        <time>2016-07-03T09:44:41.000Z</time>
      </trkpt>
      <trkpt lat="49.34196" lon="1.53401">
        <ele>116.19488525391</ele>
        <time>2016-07-03T09:44:44.000Z</time>
      </trkpt>
      <trkpt lat="49.34197" lon="1.53401">
        <ele>116.21234130859</ele>
        <time>2016-07-03T09:44:47.000Z</time>
      </trkpt>
      <trkpt lat="49.34198" lon="1.534">
        <ele>116.22846984863</ele>
        <time>2016-07-03T09:44:49.000Z</time>
      </trkpt>
      <trkpt lat="49.342" lon="1.53399">
        <ele>116.24206542969</ele>
        <time>2016-07-03T09:44:51.000Z</time>
      </trkpt>
      <trkpt lat="49.34201" lon="1.53399">
        <ele>116.25495910645</ele>
        <time>2016-07-03T09:44:54.000Z</time>
      </trkpt>
      <trkpt lat="49.34202" lon="1.53398">
        <ele>116.2677154541</ele>
        <time>2016-07-03T09:44:59.000Z</time>
      </trkpt>
      <trkpt lat="49.34202" lon="1.534">
        <ele>116.27912902832</ele>
        <time>2016-07-03T09:45:06.000Z</time>
      </trkpt>
      <trkpt lat="49.34203" lon="1.534">
        <ele>116.29315185547</ele>
        <time>2016-07-03T09:45:09.000Z</time>
      </trkpt>
      <trkpt lat="49.34203" lon="1.534">
        <ele>116.29315185547</ele>
        <time>2016-07-03T09:45:29.000Z</time>
      </trkpt>
      <trkpt lat="49.34203" lon="1.53399">
        <ele>116.30226898193</ele>
        <time>2016-07-03T09:45:36.000Z</time>
      </trkpt>
      <trkpt lat="49.34203" lon="1.53397">
        <ele>116.30757141113</ele>
        <time>2016-07-03T09:45:38.000Z</time>
      </trkpt>
      <trkpt lat="49.34205" lon="1.53398">
        <ele>116.31715393066</ele>
        <time>2016-07-03T09:45:41.000Z</time>
      </trkpt>
      <trkpt lat="49.34207" lon="1.53399">
        <ele>116.33186340332</ele>
        <time>2016-07-03T09:46:01.000Z</time>
      </trkpt>
      <trkpt lat="49.34209" lon="1.53401">
        <ele>116.348777771</ele>
        <time>2016-07-03T09:46:03.000Z</time>
      </trkpt>
      <trkpt lat="49.34209" lon="1.53401">
        <ele>116.348777771</ele>
        <time>2016-07-03T09:46:23.000Z</time>
      </trkpt>
      <trkpt lat="49.34209" lon="1.53401">
        <ele>116.348777771</ele>
        <time>2016-07-03T09:47:23.000Z</time>
      </trkpt>
    </trkseg>
  </trk>
</gpx>